<?xml version="1.0" encoding="UTF-8"?>
<gpx version="1.1" creator="Endomondo.com" xsi:schemaLocation="http://www.topografix.com/GPX/1/1 http://www.topografix.com/GPX/1/1/gpx.xsd http://www.garmin.com/xmlschemas/GpxExtensions/v3 http://www.garmin.com/xmlschemas/GpxExtensionsv3.xsd http://www.garmin.com/xmlschemas/TrackPointExtension/v1 http://www.garmin.com/xmlschemas/TrackPointExtensionv1.xsd" xmlns="http://www.topografix.com/GPX/1/1" xmlns:gpxtpx="http://www.garmin.com/xmlschemas/TrackPointExtension/v1" xmlns:gpxx="http://www.garmin.com/xmlschemas/GpxExtensions/v3" xmlns:xsi="http://www.w3.org/2001/XMLSchema-instance">
  <metadata>
    <author>
      <name>Pablo Pravia Fernadez</name>
      <email id="praporvertesonreir" domain="gmail.com"/>
    </author>
    <link href="http://www.endomondo.com">
      <text>Endomondo</text>
    </link>
    <time>2012-06-13T16:44:11Z</time>
    <bounds minlat="43.391858" minlon="-6.012151" maxlat="43.396133" maxlon="-6.054875"/>
  </metadata>
  <trk>
    <name>130Km Alto Ventana</name>
    <cmt>Grado, Trubia, Teverga, Alto Puerto de Ventana 1586m, Teverga, Trubia, Grado. 130 Km.</cmt>
    <src>http://www.endomondo.com/</src>
    <link href="http://www.endomondo.com/workouts/pYHgrozTOrQ">
      <text>130Km Alto Ventana</text>
    </link>
    <type>CYCLING_SPORT</type>
    <trkseg>
      <trkpt lat="43.391858" lon="-6.012151">
        <time>2012-06-05T06:03:19Z</time>
      </trkpt>
      <trkpt lat="43.391858" lon="-6.012151">
        <time>2012-06-05T06:16:27Z</time>
      </trkpt>
    </trkseg>
    <trkseg>
      <trkpt lat="43.391858" lon="-6.012151">
        <time>2012-06-05T06:17:33Z</time>
      </trkpt>
      <trkpt lat="43.391858" lon="-6.012151">
        <ele>121.0</ele>
        <time>2012-06-05T06:17:37Z</time>
      </trkpt>
      <trkpt lat="43.391753" lon="-6.01184">
        <ele>133.0</ele>
        <time>2012-06-05T06:17:41Z</time>
      </trkpt>
      <trkpt lat="43.391417" lon="-6.01198">
        <ele>119.0</ele>
        <time>2012-06-05T06:17:45Z</time>
      </trkpt>
      <trkpt lat="43.391039" lon="-6.011804">
        <ele>120.0</ele>
        <time>2012-06-05T06:17:49Z</time>
      </trkpt>
      <trkpt lat="43.390672" lon="-6.011517">
        <ele>125.0</ele>
        <time>2012-06-05T06:17:53Z</time>
      </trkpt>
      <trkpt lat="43.390433" lon="-6.011211">
        <ele>128.0</ele>
        <time>2012-06-05T06:17:57Z</time>
      </trkpt>
      <trkpt lat="43.390234" lon="-6.010922">
        <ele>129.0</ele>
        <time>2012-06-05T06:18:01Z</time>
      </trkpt>
      <trkpt lat="43.390145" lon="-6.010784">
        <ele>129.0</ele>
        <time>2012-06-05T06:18:03Z</time>
      </trkpt>
      <trkpt lat="43.389895" lon="-6.010374">
        <ele>128.0</ele>
        <time>2012-06-05T06:18:09Z</time>
      </trkpt>
      <trkpt lat="43.389745" lon="-6.010085">
        <ele>128.0</ele>
        <time>2012-06-05T06:18:13Z</time>
      </trkpt>
      <trkpt lat="43.3896" lon="-6.009784">
        <ele>129.0</ele>
        <time>2012-06-05T06:18:17Z</time>
      </trkpt>
      <trkpt lat="43.389462" lon="-6.009476">
        <ele>130.0</ele>
        <time>2012-06-05T06:18:21Z</time>
      </trkpt>
      <trkpt lat="43.389338" lon="-6.009167">
        <ele>130.0</ele>
        <time>2012-06-05T06:18:25Z</time>
      </trkpt>
      <trkpt lat="43.389198" lon="-6.008874">
        <ele>130.0</ele>
        <time>2012-06-05T06:18:29Z</time>
      </trkpt>
      <trkpt lat="43.389054" lon="-6.008598">
        <ele>131.0</ele>
        <time>2012-06-05T06:18:33Z</time>
      </trkpt>
      <trkpt lat="43.388914" lon="-6.008333">
        <ele>132.0</ele>
        <time>2012-06-05T06:18:37Z</time>
      </trkpt>
      <trkpt lat="43.388782" lon="-6.008081">
        <ele>133.0</ele>
        <time>2012-06-05T06:18:41Z</time>
      </trkpt>
      <trkpt lat="43.388661" lon="-6.007824">
        <ele>134.0</ele>
        <time>2012-06-05T06:18:45Z</time>
      </trkpt>
      <trkpt lat="43.388557" lon="-6.007555">
        <ele>134.0</ele>
        <time>2012-06-05T06:18:49Z</time>
      </trkpt>
      <trkpt lat="43.388438" lon="-6.007329">
        <ele>135.0</ele>
        <time>2012-06-05T06:18:53Z</time>
      </trkpt>
      <trkpt lat="43.38839" lon="-6.007204">
        <ele>136.0</ele>
        <time>2012-06-05T06:18:55Z</time>
      </trkpt>
      <trkpt lat="43.388271" lon="-6.006982">
        <ele>136.0</ele>
        <time>2012-06-05T06:18:59Z</time>
      </trkpt>
      <trkpt lat="43.388189" lon="-6.006737">
        <ele>137.0</ele>
        <time>2012-06-05T06:19:03Z</time>
      </trkpt>
      <trkpt lat="43.388134" lon="-6.006315">
        <ele>138.0</ele>
        <time>2012-06-05T06:19:09Z</time>
      </trkpt>
      <trkpt lat="43.388118" lon="-6.006173">
        <ele>139.0</ele>
        <time>2012-06-05T06:19:11Z</time>
      </trkpt>
      <trkpt lat="43.388077" lon="-6.005741">
        <ele>140.0</ele>
        <time>2012-06-05T06:19:17Z</time>
      </trkpt>
      <trkpt lat="43.388121" lon="-6.005468">
        <ele>141.0</ele>
        <time>2012-06-05T06:19:21Z</time>
      </trkpt>
      <trkpt lat="43.388199" lon="-6.005225">
        <ele>141.0</ele>
        <time>2012-06-05T06:19:25Z</time>
      </trkpt>
      <trkpt lat="43.388288" lon="-6.004921">
        <ele>143.0</ele>
        <time>2012-06-05T06:19:29Z</time>
      </trkpt>
      <trkpt lat="43.388309" lon="-6.004478">
        <ele>146.0</ele>
        <time>2012-06-05T06:19:33Z</time>
      </trkpt>
      <trkpt lat="43.388268" lon="-6.003939">
        <ele>146.0</ele>
        <time>2012-06-05T06:19:37Z</time>
      </trkpt>
      <trkpt lat="43.388088" lon="-6.003401">
        <ele>146.0</ele>
        <time>2012-06-05T06:19:41Z</time>
      </trkpt>
      <trkpt lat="43.387885" lon="-6.00286">
        <ele>145.0</ele>
        <time>2012-06-05T06:19:45Z</time>
      </trkpt>
      <trkpt lat="43.387742" lon="-6.002315">
        <ele>144.0</ele>
        <time>2012-06-05T06:19:49Z</time>
      </trkpt>
      <trkpt lat="43.387638" lon="-6.001775">
        <ele>144.0</ele>
        <time>2012-06-05T06:19:53Z</time>
      </trkpt>
      <trkpt lat="43.387429" lon="-6.001361">
        <ele>143.0</ele>
        <time>2012-06-05T06:19:57Z</time>
      </trkpt>
      <trkpt lat="43.387185" lon="-6.001032">
        <ele>143.0</ele>
        <time>2012-06-05T06:20:01Z</time>
      </trkpt>
      <trkpt lat="43.386943" lon="-6.000734">
        <ele>144.0</ele>
        <time>2012-06-05T06:20:05Z</time>
      </trkpt>
      <trkpt lat="43.386672" lon="-6.000549">
        <ele>142.0</ele>
        <time>2012-06-05T06:20:09Z</time>
      </trkpt>
      <trkpt lat="43.386391" lon="-6.000586">
        <ele>141.0</ele>
        <time>2012-06-05T06:20:13Z</time>
      </trkpt>
      <trkpt lat="43.386112" lon="-6.00079">
        <ele>141.0</ele>
        <time>2012-06-05T06:20:17Z</time>
      </trkpt>
      <trkpt lat="43.385974" lon="-6.000908">
        <ele>141.0</ele>
        <time>2012-06-05T06:20:19Z</time>
      </trkpt>
      <trkpt lat="43.385694" lon="-6.001148">
        <ele>141.0</ele>
        <time>2012-06-05T06:20:24Z</time>
      </trkpt>
      <trkpt lat="43.385532" lon="-6.00126">
        <ele>142.0</ele>
        <time>2012-06-05T06:20:28Z</time>
      </trkpt>
      <trkpt lat="43.385321" lon="-6.001315">
        <ele>142.0</ele>
        <time>2012-06-05T06:20:32Z</time>
      </trkpt>
      <trkpt lat="43.385107" lon="-6.001301">
        <ele>142.0</ele>
        <time>2012-06-05T06:20:36Z</time>
      </trkpt>
      <trkpt lat="43.384907" lon="-6.001194">
        <ele>142.0</ele>
        <time>2012-06-05T06:20:40Z</time>
      </trkpt>
      <trkpt lat="43.384716" lon="-6.001071">
        <ele>142.0</ele>
        <time>2012-06-05T06:20:44Z</time>
      </trkpt>
      <trkpt lat="43.384544" lon="-6.000932">
        <ele>142.0</ele>
        <time>2012-06-05T06:20:48Z</time>
      </trkpt>
      <trkpt lat="43.384382" lon="-6.000763">
        <ele>144.0</ele>
        <time>2012-06-05T06:20:52Z</time>
      </trkpt>
      <trkpt lat="43.384222" lon="-6.000571">
        <ele>144.0</ele>
        <time>2012-06-05T06:20:56Z</time>
      </trkpt>
      <trkpt lat="43.384059" lon="-6.000377">
        <ele>145.0</ele>
        <time>2012-06-05T06:21:00Z</time>
      </trkpt>
      <trkpt lat="43.3839" lon="-6.000187">
        <ele>146.0</ele>
        <time>2012-06-05T06:21:04Z</time>
      </trkpt>
      <trkpt lat="43.383722" lon="-6.000046">
        <ele>147.0</ele>
        <time>2012-06-05T06:21:08Z</time>
      </trkpt>
      <trkpt lat="43.383536" lon="-5.999913">
        <ele>148.0</ele>
        <time>2012-06-05T06:21:12Z</time>
      </trkpt>
      <trkpt lat="43.383371" lon="-5.999759">
        <ele>148.0</ele>
        <time>2012-06-05T06:21:16Z</time>
      </trkpt>
      <trkpt lat="43.383295" lon="-5.999676">
        <ele>148.0</ele>
        <time>2012-06-05T06:21:18Z</time>
      </trkpt>
      <trkpt lat="43.383069" lon="-5.999432">
        <ele>149.0</ele>
        <time>2012-06-05T06:21:24Z</time>
      </trkpt>
      <trkpt lat="43.382895" lon="-5.999305">
        <ele>149.0</ele>
        <time>2012-06-05T06:21:28Z</time>
      </trkpt>
      <trkpt lat="43.382719" lon="-5.999188">
        <ele>150.0</ele>
        <time>2012-06-05T06:21:32Z</time>
      </trkpt>
      <trkpt lat="43.382535" lon="-5.999074">
        <ele>151.0</ele>
        <time>2012-06-05T06:21:36Z</time>
      </trkpt>
      <trkpt lat="43.382359" lon="-5.99893">
        <ele>151.0</ele>
        <time>2012-06-05T06:21:40Z</time>
      </trkpt>
      <trkpt lat="43.382202" lon="-5.998723">
        <ele>152.0</ele>
        <time>2012-06-05T06:21:44Z</time>
      </trkpt>
      <trkpt lat="43.382066" lon="-5.998491">
        <ele>152.0</ele>
        <time>2012-06-05T06:21:48Z</time>
      </trkpt>
      <trkpt lat="43.38194" lon="-5.998264">
        <ele>153.0</ele>
        <time>2012-06-05T06:21:52Z</time>
      </trkpt>
      <trkpt lat="43.381759" lon="-5.998107">
        <ele>154.0</ele>
        <time>2012-06-05T06:21:56Z</time>
      </trkpt>
      <trkpt lat="43.381538" lon="-5.998118">
        <ele>155.0</ele>
        <time>2012-06-05T06:22:00Z</time>
      </trkpt>
      <trkpt lat="43.38133" lon="-5.998191">
        <ele>155.0</ele>
        <time>2012-06-05T06:22:04Z</time>
      </trkpt>
      <trkpt lat="43.38123" lon="-5.998245">
        <ele>156.0</ele>
        <time>2012-06-05T06:22:06Z</time>
      </trkpt>
      <trkpt lat="43.380937" lon="-5.998399">
        <ele>158.0</ele>
        <time>2012-06-05T06:22:12Z</time>
      </trkpt>
      <trkpt lat="43.380747" lon="-5.998461">
        <ele>159.0</ele>
        <time>2012-06-05T06:22:16Z</time>
      </trkpt>
      <trkpt lat="43.380546" lon="-5.998476">
        <ele>160.0</ele>
        <time>2012-06-05T06:22:20Z</time>
      </trkpt>
      <trkpt lat="43.380355" lon="-5.998435">
        <ele>161.0</ele>
        <time>2012-06-05T06:22:24Z</time>
      </trkpt>
      <trkpt lat="43.380167" lon="-5.998358">
        <ele>162.0</ele>
        <time>2012-06-05T06:22:28Z</time>
      </trkpt>
      <trkpt lat="43.379989" lon="-5.998226">
        <ele>163.0</ele>
        <time>2012-06-05T06:22:32Z</time>
      </trkpt>
      <trkpt lat="43.379828" lon="-5.998059">
        <ele>163.0</ele>
        <time>2012-06-05T06:22:36Z</time>
      </trkpt>
      <trkpt lat="43.379652" lon="-5.997917">
        <ele>164.0</ele>
        <time>2012-06-05T06:22:40Z</time>
      </trkpt>
      <trkpt lat="43.379479" lon="-5.99776">
        <ele>165.0</ele>
        <time>2012-06-05T06:22:44Z</time>
      </trkpt>
      <trkpt lat="43.379313" lon="-5.997613">
        <ele>165.0</ele>
        <time>2012-06-05T06:22:48Z</time>
      </trkpt>
      <trkpt lat="43.379157" lon="-5.997501">
        <ele>166.0</ele>
        <time>2012-06-05T06:22:52Z</time>
      </trkpt>
      <trkpt lat="43.378989" lon="-5.99748">
        <ele>166.0</ele>
        <time>2012-06-05T06:22:56Z</time>
      </trkpt>
      <trkpt lat="43.3788" lon="-5.997553">
        <ele>167.0</ele>
        <time>2012-06-05T06:23:00Z</time>
      </trkpt>
      <trkpt lat="43.378609" lon="-5.997712">
        <ele>168.0</ele>
        <time>2012-06-05T06:23:04Z</time>
      </trkpt>
      <trkpt lat="43.378441" lon="-5.997927">
        <ele>169.0</ele>
        <time>2012-06-05T06:23:08Z</time>
      </trkpt>
      <trkpt lat="43.378294" lon="-5.998155">
        <ele>170.0</ele>
        <time>2012-06-05T06:23:12Z</time>
      </trkpt>
      <trkpt lat="43.378143" lon="-5.998366">
        <ele>170.0</ele>
        <time>2012-06-05T06:23:16Z</time>
      </trkpt>
      <trkpt lat="43.377991" lon="-5.99856">
        <ele>170.0</ele>
        <time>2012-06-05T06:23:20Z</time>
      </trkpt>
      <trkpt lat="43.377856" lon="-5.998763">
        <ele>170.0</ele>
        <time>2012-06-05T06:23:24Z</time>
      </trkpt>
      <trkpt lat="43.377726" lon="-5.998937">
        <ele>171.0</ele>
        <time>2012-06-05T06:23:28Z</time>
      </trkpt>
      <trkpt lat="43.377561" lon="-5.999017">
        <ele>172.0</ele>
        <time>2012-06-05T06:23:32Z</time>
      </trkpt>
      <trkpt lat="43.377358" lon="-5.99905">
        <ele>173.0</ele>
        <time>2012-06-05T06:23:36Z</time>
      </trkpt>
      <trkpt lat="43.377177" lon="-5.999011">
        <ele>176.0</ele>
        <time>2012-06-05T06:23:40Z</time>
      </trkpt>
      <trkpt lat="43.377019" lon="-5.998916">
        <ele>179.0</ele>
        <time>2012-06-05T06:23:44Z</time>
      </trkpt>
      <trkpt lat="43.376883" lon="-5.998745">
        <ele>179.0</ele>
        <time>2012-06-05T06:23:48Z</time>
      </trkpt>
      <trkpt lat="43.376721" lon="-5.998567">
        <ele>179.0</ele>
        <time>2012-06-05T06:23:52Z</time>
      </trkpt>
      <trkpt lat="43.376538" lon="-5.998379">
        <ele>180.0</ele>
        <time>2012-06-05T06:23:56Z</time>
      </trkpt>
      <trkpt lat="43.376451" lon="-5.998285">
        <ele>180.0</ele>
        <time>2012-06-05T06:23:58Z</time>
      </trkpt>
      <trkpt lat="43.376191" lon="-5.998036">
        <ele>180.0</ele>
        <time>2012-06-05T06:24:04Z</time>
      </trkpt>
      <trkpt lat="43.376024" lon="-5.997865">
        <ele>180.0</ele>
        <time>2012-06-05T06:24:08Z</time>
      </trkpt>
      <trkpt lat="43.375863" lon="-5.997688">
        <ele>180.0</ele>
        <time>2012-06-05T06:24:12Z</time>
      </trkpt>
      <trkpt lat="43.375591" lon="-5.997285">
        <ele>180.0</ele>
        <time>2012-06-05T06:24:20Z</time>
      </trkpt>
      <trkpt lat="43.375395" lon="-5.997213">
        <ele>180.0</ele>
        <time>2012-06-05T06:24:24Z</time>
      </trkpt>
      <trkpt lat="43.374935" lon="-5.997478">
        <ele>183.0</ele>
        <time>2012-06-05T06:24:33Z</time>
      </trkpt>
      <trkpt lat="43.374828" lon="-5.997572">
        <ele>184.0</ele>
        <time>2012-06-05T06:24:35Z</time>
      </trkpt>
      <trkpt lat="43.374515" lon="-5.997808">
        <ele>185.0</ele>
        <time>2012-06-05T06:24:41Z</time>
      </trkpt>
      <trkpt lat="43.3743" lon="-5.997878">
        <ele>187.0</ele>
        <time>2012-06-05T06:24:45Z</time>
      </trkpt>
      <trkpt lat="43.374087" lon="-5.997884">
        <ele>188.0</ele>
        <time>2012-06-05T06:24:49Z</time>
      </trkpt>
      <trkpt lat="43.373876" lon="-5.997821">
        <ele>189.0</ele>
        <time>2012-06-05T06:24:53Z</time>
      </trkpt>
      <trkpt lat="43.37368" lon="-5.997682">
        <ele>190.0</ele>
        <time>2012-06-05T06:24:57Z</time>
      </trkpt>
      <trkpt lat="43.373494" lon="-5.997506">
        <ele>191.0</ele>
        <time>2012-06-05T06:25:01Z</time>
      </trkpt>
      <trkpt lat="43.373392" lon="-5.997262">
        <ele>191.0</ele>
        <time>2012-06-05T06:25:05Z</time>
      </trkpt>
      <trkpt lat="43.373313" lon="-5.997015">
        <ele>192.0</ele>
        <time>2012-06-05T06:25:09Z</time>
      </trkpt>
      <trkpt lat="43.373226" lon="-5.99677">
        <ele>193.0</ele>
        <time>2012-06-05T06:25:13Z</time>
      </trkpt>
      <trkpt lat="43.373101" lon="-5.996584">
        <ele>194.0</ele>
        <time>2012-06-05T06:25:17Z</time>
      </trkpt>
      <trkpt lat="43.372932" lon="-5.996471">
        <ele>195.0</ele>
        <time>2012-06-05T06:25:21Z</time>
      </trkpt>
      <trkpt lat="43.37274" lon="-5.996416">
        <ele>196.0</ele>
        <time>2012-06-05T06:25:25Z</time>
      </trkpt>
      <trkpt lat="43.372534" lon="-5.996401">
        <ele>196.0</ele>
        <time>2012-06-05T06:25:29Z</time>
      </trkpt>
      <trkpt lat="43.37243" lon="-5.99642">
        <ele>196.0</ele>
        <time>2012-06-05T06:25:31Z</time>
      </trkpt>
      <trkpt lat="43.372122" lon="-5.996563">
        <ele>197.0</ele>
        <time>2012-06-05T06:25:37Z</time>
      </trkpt>
      <trkpt lat="43.371927" lon="-5.996777">
        <ele>197.0</ele>
        <time>2012-06-05T06:25:41Z</time>
      </trkpt>
      <trkpt lat="43.371757" lon="-5.996994">
        <ele>198.0</ele>
        <time>2012-06-05T06:25:45Z</time>
      </trkpt>
      <trkpt lat="43.371602" lon="-5.997214">
        <ele>199.0</ele>
        <time>2012-06-05T06:25:49Z</time>
      </trkpt>
      <trkpt lat="43.371432" lon="-5.997406">
        <ele>200.0</ele>
        <time>2012-06-05T06:25:53Z</time>
      </trkpt>
      <trkpt lat="43.371241" lon="-5.997555">
        <ele>202.0</ele>
        <time>2012-06-05T06:25:57Z</time>
      </trkpt>
      <trkpt lat="43.371031" lon="-5.997676">
        <ele>205.0</ele>
        <time>2012-06-05T06:26:01Z</time>
      </trkpt>
      <trkpt lat="43.370829" lon="-5.99777">
        <ele>207.0</ele>
        <time>2012-06-05T06:26:05Z</time>
      </trkpt>
      <trkpt lat="43.370619" lon="-5.997818">
        <ele>208.0</ele>
        <time>2012-06-05T06:26:09Z</time>
      </trkpt>
      <trkpt lat="43.370411" lon="-5.997859">
        <ele>209.0</ele>
        <time>2012-06-05T06:26:13Z</time>
      </trkpt>
      <trkpt lat="43.370179" lon="-5.997885">
        <ele>209.0</ele>
        <time>2012-06-05T06:26:17Z</time>
      </trkpt>
      <trkpt lat="43.369946" lon="-5.997899">
        <ele>210.0</ele>
        <time>2012-06-05T06:26:21Z</time>
      </trkpt>
      <trkpt lat="43.369833" lon="-5.997896">
        <ele>210.0</ele>
        <time>2012-06-05T06:26:23Z</time>
      </trkpt>
      <trkpt lat="43.369499" lon="-5.997805">
        <ele>212.0</ele>
        <time>2012-06-05T06:26:29Z</time>
      </trkpt>
      <trkpt lat="43.369287" lon="-5.997674">
        <ele>213.0</ele>
        <time>2012-06-05T06:26:33Z</time>
      </trkpt>
      <trkpt lat="43.369085" lon="-5.997542">
        <ele>213.0</ele>
        <time>2012-06-05T06:26:37Z</time>
      </trkpt>
      <trkpt lat="43.368893" lon="-5.997422">
        <ele>214.0</ele>
        <time>2012-06-05T06:26:41Z</time>
      </trkpt>
      <trkpt lat="43.368701" lon="-5.997285">
        <ele>213.0</ele>
        <time>2012-06-05T06:26:45Z</time>
      </trkpt>
      <trkpt lat="43.368606" lon="-5.997214">
        <ele>213.0</ele>
        <time>2012-06-05T06:26:47Z</time>
      </trkpt>
      <trkpt lat="43.368414" lon="-5.997072">
        <ele>213.0</ele>
        <time>2012-06-05T06:26:51Z</time>
      </trkpt>
      <trkpt lat="43.368105" lon="-5.996867">
        <ele>213.0</ele>
        <time>2012-06-05T06:26:57Z</time>
      </trkpt>
      <trkpt lat="43.367924" lon="-5.996708">
        <ele>214.0</ele>
        <time>2012-06-05T06:27:01Z</time>
      </trkpt>
      <trkpt lat="43.367907" lon="-5.996453">
        <ele>215.0</ele>
        <time>2012-06-05T06:27:05Z</time>
      </trkpt>
      <trkpt lat="43.368063" lon="-5.996073">
        <ele>215.0</ele>
        <time>2012-06-05T06:27:11Z</time>
      </trkpt>
      <trkpt lat="43.368192" lon="-5.995707">
        <ele>214.0</ele>
        <time>2012-06-05T06:27:17Z</time>
      </trkpt>
      <trkpt lat="43.368281" lon="-5.995456">
        <ele>215.0</ele>
        <time>2012-06-05T06:27:21Z</time>
      </trkpt>
      <trkpt lat="43.368345" lon="-5.995195">
        <ele>215.0</ele>
        <time>2012-06-05T06:27:25Z</time>
      </trkpt>
      <trkpt lat="43.368381" lon="-5.994918">
        <ele>216.0</ele>
        <time>2012-06-05T06:27:29Z</time>
      </trkpt>
      <trkpt lat="43.368285" lon="-5.994676">
        <ele>217.0</ele>
        <time>2012-06-05T06:27:33Z</time>
      </trkpt>
      <trkpt lat="43.36813" lon="-5.994535">
        <ele>219.0</ele>
        <time>2012-06-05T06:27:37Z</time>
      </trkpt>
      <trkpt lat="43.367929" lon="-5.994471">
        <ele>220.0</ele>
        <time>2012-06-05T06:27:41Z</time>
      </trkpt>
      <trkpt lat="43.367715" lon="-5.994557">
        <ele>222.0</ele>
        <time>2012-06-05T06:27:45Z</time>
      </trkpt>
      <trkpt lat="43.367502" lon="-5.994706">
        <ele>224.0</ele>
        <time>2012-06-05T06:27:49Z</time>
      </trkpt>
      <trkpt lat="43.367289" lon="-5.994854">
        <ele>225.0</ele>
        <time>2012-06-05T06:27:53Z</time>
      </trkpt>
      <trkpt lat="43.367077" lon="-5.994981">
        <ele>226.0</ele>
        <time>2012-06-05T06:27:57Z</time>
      </trkpt>
      <trkpt lat="43.366851" lon="-5.994937">
        <ele>228.0</ele>
        <time>2012-06-05T06:28:01Z</time>
      </trkpt>
      <trkpt lat="43.366681" lon="-5.994794">
        <ele>230.0</ele>
        <time>2012-06-05T06:28:05Z</time>
      </trkpt>
      <trkpt lat="43.366784" lon="-5.99455">
        <ele>231.0</ele>
        <time>2012-06-05T06:28:09Z</time>
      </trkpt>
      <trkpt lat="43.366896" lon="-5.994296">
        <ele>231.0</ele>
        <time>2012-06-05T06:28:13Z</time>
      </trkpt>
      <trkpt lat="43.36705" lon="-5.993795">
        <ele>231.0</ele>
        <time>2012-06-05T06:28:21Z</time>
      </trkpt>
      <trkpt lat="43.367091" lon="-5.993556">
        <ele>230.0</ele>
        <time>2012-06-05T06:28:25Z</time>
      </trkpt>
      <trkpt lat="43.367123" lon="-5.993318">
        <ele>230.0</ele>
        <time>2012-06-05T06:28:29Z</time>
      </trkpt>
      <trkpt lat="43.36714" lon="-5.993073">
        <ele>230.0</ele>
        <time>2012-06-05T06:28:33Z</time>
      </trkpt>
      <trkpt lat="43.36712" lon="-5.99279">
        <ele>233.0</ele>
        <time>2012-06-05T06:28:37Z</time>
      </trkpt>
      <trkpt lat="43.367011" lon="-5.992547">
        <ele>236.0</ele>
        <time>2012-06-05T06:28:41Z</time>
      </trkpt>
      <trkpt lat="43.366847" lon="-5.992392">
        <ele>236.0</ele>
        <time>2012-06-05T06:28:45Z</time>
      </trkpt>
      <trkpt lat="43.366668" lon="-5.992281">
        <ele>236.0</ele>
        <time>2012-06-05T06:28:49Z</time>
      </trkpt>
      <trkpt lat="43.366487" lon="-5.992185">
        <ele>236.0</ele>
        <time>2012-06-05T06:28:53Z</time>
      </trkpt>
      <trkpt lat="43.366289" lon="-5.992082">
        <ele>236.0</ele>
        <time>2012-06-05T06:28:57Z</time>
      </trkpt>
      <trkpt lat="43.366087" lon="-5.991956">
        <ele>236.0</ele>
        <time>2012-06-05T06:29:01Z</time>
      </trkpt>
      <trkpt lat="43.365911" lon="-5.991751">
        <ele>236.0</ele>
        <time>2012-06-05T06:29:05Z</time>
      </trkpt>
      <trkpt lat="43.365762" lon="-5.991495">
        <ele>237.0</ele>
        <time>2012-06-05T06:29:09Z</time>
      </trkpt>
      <trkpt lat="43.365595" lon="-5.991204">
        <ele>237.0</ele>
        <time>2012-06-05T06:29:13Z</time>
      </trkpt>
      <trkpt lat="43.365431" lon="-5.990887">
        <ele>238.0</ele>
        <time>2012-06-05T06:29:17Z</time>
      </trkpt>
      <trkpt lat="43.365272" lon="-5.990556">
        <ele>238.0</ele>
        <time>2012-06-05T06:29:21Z</time>
      </trkpt>
      <trkpt lat="43.365149" lon="-5.990205">
        <ele>238.0</ele>
        <time>2012-06-05T06:29:25Z</time>
      </trkpt>
      <trkpt lat="43.365074" lon="-5.989834">
        <ele>238.0</ele>
        <time>2012-06-05T06:29:29Z</time>
      </trkpt>
      <trkpt lat="43.365038" lon="-5.989651">
        <ele>238.0</ele>
        <time>2012-06-05T06:29:31Z</time>
      </trkpt>
      <trkpt lat="43.364947" lon="-5.989085">
        <ele>239.0</ele>
        <time>2012-06-05T06:29:37Z</time>
      </trkpt>
      <trkpt lat="43.364895" lon="-5.988688">
        <ele>240.0</ele>
        <time>2012-06-05T06:29:41Z</time>
      </trkpt>
      <trkpt lat="43.364838" lon="-5.988289">
        <ele>240.0</ele>
        <time>2012-06-05T06:29:45Z</time>
      </trkpt>
      <trkpt lat="43.364841" lon="-5.987894">
        <ele>239.0</ele>
        <time>2012-06-05T06:29:49Z</time>
      </trkpt>
      <trkpt lat="43.365014" lon="-5.987553">
        <ele>240.0</ele>
        <time>2012-06-05T06:29:53Z</time>
      </trkpt>
      <trkpt lat="43.365263" lon="-5.987292">
        <ele>240.0</ele>
        <time>2012-06-05T06:29:57Z</time>
      </trkpt>
      <trkpt lat="43.365517" lon="-5.98706">
        <ele>240.0</ele>
        <time>2012-06-05T06:30:01Z</time>
      </trkpt>
      <trkpt lat="43.365759" lon="-5.986835">
        <ele>240.0</ele>
        <time>2012-06-05T06:30:05Z</time>
      </trkpt>
      <trkpt lat="43.365983" lon="-5.986607">
        <ele>240.0</ele>
        <time>2012-06-05T06:30:09Z</time>
      </trkpt>
      <trkpt lat="43.366129" lon="-5.986289">
        <ele>240.0</ele>
        <time>2012-06-05T06:30:13Z</time>
      </trkpt>
      <trkpt lat="43.366182" lon="-5.985902">
        <ele>241.0</ele>
        <time>2012-06-05T06:30:17Z</time>
      </trkpt>
      <trkpt lat="43.3661" lon="-5.98552">
        <ele>242.0</ele>
        <time>2012-06-05T06:30:21Z</time>
      </trkpt>
      <trkpt lat="43.366025" lon="-5.985132">
        <ele>243.0</ele>
        <time>2012-06-05T06:30:25Z</time>
      </trkpt>
      <trkpt lat="43.365964" lon="-5.984737">
        <ele>243.0</ele>
        <time>2012-06-05T06:30:29Z</time>
      </trkpt>
      <trkpt lat="43.365917" lon="-5.984445">
        <ele>243.0</ele>
        <time>2012-06-05T06:30:32Z</time>
      </trkpt>
      <trkpt lat="43.365793" lon="-5.983957">
        <ele>243.0</ele>
        <time>2012-06-05T06:30:37Z</time>
      </trkpt>
      <trkpt lat="43.365667" lon="-5.983542">
        <ele>242.0</ele>
        <time>2012-06-05T06:30:41Z</time>
      </trkpt>
      <trkpt lat="43.365531" lon="-5.983118">
        <ele>241.0</ele>
        <time>2012-06-05T06:30:45Z</time>
      </trkpt>
      <trkpt lat="43.365392" lon="-5.982704">
        <ele>239.0</ele>
        <time>2012-06-05T06:30:49Z</time>
      </trkpt>
      <trkpt lat="43.365286" lon="-5.982403">
        <ele>238.0</ele>
        <time>2012-06-05T06:30:52Z</time>
      </trkpt>
      <trkpt lat="43.365168" lon="-5.981886">
        <ele>236.0</ele>
        <time>2012-06-05T06:30:57Z</time>
      </trkpt>
      <trkpt lat="43.365084" lon="-5.981487">
        <ele>236.0</ele>
        <time>2012-06-05T06:31:01Z</time>
      </trkpt>
      <trkpt lat="43.365004" lon="-5.981078">
        <ele>235.0</ele>
        <time>2012-06-05T06:31:05Z</time>
      </trkpt>
      <trkpt lat="43.364745" lon="-5.980799">
        <ele>234.0</ele>
        <time>2012-06-05T06:31:09Z</time>
      </trkpt>
      <trkpt lat="43.364398" lon="-5.980602">
        <ele>232.0</ele>
        <time>2012-06-05T06:31:13Z</time>
      </trkpt>
      <trkpt lat="43.364012" lon="-5.980472">
        <ele>230.0</ele>
        <time>2012-06-05T06:31:17Z</time>
      </trkpt>
      <trkpt lat="43.363621" lon="-5.980356">
        <ele>229.0</ele>
        <time>2012-06-05T06:31:21Z</time>
      </trkpt>
      <trkpt lat="43.363246" lon="-5.980128">
        <ele>228.0</ele>
        <time>2012-06-05T06:31:25Z</time>
      </trkpt>
      <trkpt lat="43.36289" lon="-5.979787">
        <ele>227.0</ele>
        <time>2012-06-05T06:31:29Z</time>
      </trkpt>
      <trkpt lat="43.36261" lon="-5.979539">
        <ele>226.0</ele>
        <time>2012-06-05T06:31:32Z</time>
      </trkpt>
      <trkpt lat="43.362166" lon="-5.979087">
        <ele>225.0</ele>
        <time>2012-06-05T06:31:37Z</time>
      </trkpt>
      <trkpt lat="43.361845" lon="-5.978683">
        <ele>225.0</ele>
        <time>2012-06-05T06:31:41Z</time>
      </trkpt>
      <trkpt lat="43.36153" lon="-5.978297">
        <ele>224.0</ele>
        <time>2012-06-05T06:31:45Z</time>
      </trkpt>
      <trkpt lat="43.361243" lon="-5.977901">
        <ele>224.0</ele>
        <time>2012-06-05T06:31:49Z</time>
      </trkpt>
      <trkpt lat="43.361027" lon="-5.977454">
        <ele>224.0</ele>
        <time>2012-06-05T06:31:53Z</time>
      </trkpt>
      <trkpt lat="43.360874" lon="-5.976977">
        <ele>224.0</ele>
        <time>2012-06-05T06:31:57Z</time>
      </trkpt>
      <trkpt lat="43.360695" lon="-5.976565">
        <ele>224.0</ele>
        <time>2012-06-05T06:32:01Z</time>
      </trkpt>
      <trkpt lat="43.360521" lon="-5.976187">
        <ele>224.0</ele>
        <time>2012-06-05T06:32:05Z</time>
      </trkpt>
      <trkpt lat="43.360367" lon="-5.975716">
        <ele>224.0</ele>
        <time>2012-06-05T06:32:09Z</time>
      </trkpt>
      <trkpt lat="43.360201" lon="-5.97527">
        <ele>223.0</ele>
        <time>2012-06-05T06:32:13Z</time>
      </trkpt>
      <trkpt lat="43.359989" lon="-5.974893">
        <ele>225.0</ele>
        <time>2012-06-05T06:32:17Z</time>
      </trkpt>
      <trkpt lat="43.359872" lon="-5.974486">
        <ele>227.0</ele>
        <time>2012-06-05T06:32:21Z</time>
      </trkpt>
      <trkpt lat="43.359844" lon="-5.974075">
        <ele>226.0</ele>
        <time>2012-06-05T06:32:25Z</time>
      </trkpt>
      <trkpt lat="43.359811" lon="-5.973565">
        <ele>225.0</ele>
        <time>2012-06-05T06:32:29Z</time>
      </trkpt>
      <trkpt lat="43.359788" lon="-5.97303">
        <ele>225.0</ele>
        <time>2012-06-05T06:32:33Z</time>
      </trkpt>
      <trkpt lat="43.359717" lon="-5.972546">
        <ele>225.0</ele>
        <time>2012-06-05T06:32:37Z</time>
      </trkpt>
      <trkpt lat="43.359638" lon="-5.972077">
        <ele>224.0</ele>
        <time>2012-06-05T06:32:41Z</time>
      </trkpt>
      <trkpt lat="43.359551" lon="-5.97163">
        <ele>225.0</ele>
        <time>2012-06-05T06:32:45Z</time>
      </trkpt>
      <trkpt lat="43.359437" lon="-5.971194">
        <ele>226.0</ele>
        <time>2012-06-05T06:32:49Z</time>
      </trkpt>
      <trkpt lat="43.359318" lon="-5.970769">
        <ele>226.0</ele>
        <time>2012-06-05T06:32:53Z</time>
      </trkpt>
      <trkpt lat="43.359167" lon="-5.970355">
        <ele>228.0</ele>
        <time>2012-06-05T06:32:57Z</time>
      </trkpt>
      <trkpt lat="43.359008" lon="-5.969947">
        <ele>229.0</ele>
        <time>2012-06-05T06:33:01Z</time>
      </trkpt>
      <trkpt lat="43.358925" lon="-5.969509">
        <ele>230.0</ele>
        <time>2012-06-05T06:33:05Z</time>
      </trkpt>
      <trkpt lat="43.358906" lon="-5.969064">
        <ele>231.0</ele>
        <time>2012-06-05T06:33:09Z</time>
      </trkpt>
      <trkpt lat="43.358923" lon="-5.968609">
        <ele>228.0</ele>
        <time>2012-06-05T06:33:13Z</time>
      </trkpt>
      <trkpt lat="43.358952" lon="-5.968139">
        <ele>224.0</ele>
        <time>2012-06-05T06:33:17Z</time>
      </trkpt>
      <trkpt lat="43.358958" lon="-5.967642">
        <ele>221.0</ele>
        <time>2012-06-05T06:33:21Z</time>
      </trkpt>
      <trkpt lat="43.358841" lon="-5.967089">
        <ele>218.0</ele>
        <time>2012-06-05T06:33:25Z</time>
      </trkpt>
      <trkpt lat="43.35853" lon="-5.966661">
        <ele>216.0</ele>
        <time>2012-06-05T06:33:29Z</time>
      </trkpt>
      <trkpt lat="43.358256" lon="-5.966097">
        <ele>209.0</ele>
        <time>2012-06-05T06:33:33Z</time>
      </trkpt>
      <trkpt lat="43.357912" lon="-5.965792">
        <ele>203.0</ele>
        <time>2012-06-05T06:33:37Z</time>
      </trkpt>
      <trkpt lat="43.357498" lon="-5.965715">
        <ele>199.0</ele>
        <time>2012-06-05T06:33:41Z</time>
      </trkpt>
      <trkpt lat="43.357057" lon="-5.965777">
        <ele>196.0</ele>
        <time>2012-06-05T06:33:45Z</time>
      </trkpt>
      <trkpt lat="43.356579" lon="-5.965893">
        <ele>195.0</ele>
        <time>2012-06-05T06:33:49Z</time>
      </trkpt>
      <trkpt lat="43.356135" lon="-5.966046">
        <ele>193.0</ele>
        <time>2012-06-05T06:33:53Z</time>
      </trkpt>
      <trkpt lat="43.355684" lon="-5.966131">
        <ele>191.0</ele>
        <time>2012-06-05T06:33:57Z</time>
      </trkpt>
      <trkpt lat="43.355239" lon="-5.966166">
        <ele>189.0</ele>
        <time>2012-06-05T06:34:01Z</time>
      </trkpt>
      <trkpt lat="43.354801" lon="-5.966209">
        <ele>186.0</ele>
        <time>2012-06-05T06:34:05Z</time>
      </trkpt>
      <trkpt lat="43.354394" lon="-5.966234">
        <ele>185.0</ele>
        <time>2012-06-05T06:34:09Z</time>
      </trkpt>
      <trkpt lat="43.35425" lon="-5.966263">
        <ele>185.0</ele>
        <time>2012-06-05T06:34:11Z</time>
      </trkpt>
      <trkpt lat="43.354021" lon="-5.966397">
        <ele>185.0</ele>
        <time>2012-06-05T06:34:21Z</time>
      </trkpt>
      <trkpt lat="43.353914" lon="-5.966518">
        <ele>185.0</ele>
        <time>2012-06-05T06:34:25Z</time>
      </trkpt>
      <trkpt lat="43.353774" lon="-5.966695">
        <ele>184.0</ele>
        <time>2012-06-05T06:34:29Z</time>
      </trkpt>
      <trkpt lat="43.353641" lon="-5.966868">
        <ele>183.0</ele>
        <time>2012-06-05T06:34:33Z</time>
      </trkpt>
      <trkpt lat="43.353474" lon="-5.967">
        <ele>183.0</ele>
        <time>2012-06-05T06:34:37Z</time>
      </trkpt>
      <trkpt lat="43.353311" lon="-5.967155">
        <ele>184.0</ele>
        <time>2012-06-05T06:34:41Z</time>
      </trkpt>
      <trkpt lat="43.353144" lon="-5.967314">
        <ele>184.0</ele>
        <time>2012-06-05T06:34:45Z</time>
      </trkpt>
      <trkpt lat="43.352976" lon="-5.967533">
        <ele>184.0</ele>
        <time>2012-06-05T06:34:49Z</time>
      </trkpt>
      <trkpt lat="43.352778" lon="-5.967795">
        <ele>183.0</ele>
        <time>2012-06-05T06:34:53Z</time>
      </trkpt>
      <trkpt lat="43.352535" lon="-5.967975">
        <ele>183.0</ele>
        <time>2012-06-05T06:34:57Z</time>
      </trkpt>
      <trkpt lat="43.352255" lon="-5.968107">
        <ele>183.0</ele>
        <time>2012-06-05T06:35:01Z</time>
      </trkpt>
      <trkpt lat="43.351978" lon="-5.96828">
        <ele>182.0</ele>
        <time>2012-06-05T06:35:05Z</time>
      </trkpt>
      <trkpt lat="43.351694" lon="-5.968507">
        <ele>182.0</ele>
        <time>2012-06-05T06:35:09Z</time>
      </trkpt>
      <trkpt lat="43.351391" lon="-5.968827">
        <ele>181.0</ele>
        <time>2012-06-05T06:35:13Z</time>
      </trkpt>
      <trkpt lat="43.351052" lon="-5.968989">
        <ele>180.0</ele>
        <time>2012-06-05T06:35:17Z</time>
      </trkpt>
      <trkpt lat="43.350731" lon="-5.969142">
        <ele>179.0</ele>
        <time>2012-06-05T06:35:21Z</time>
      </trkpt>
      <trkpt lat="43.350422" lon="-5.969281">
        <ele>179.0</ele>
        <time>2012-06-05T06:35:25Z</time>
      </trkpt>
      <trkpt lat="43.350089" lon="-5.969402">
        <ele>179.0</ele>
        <time>2012-06-05T06:35:29Z</time>
      </trkpt>
      <trkpt lat="43.349758" lon="-5.969534">
        <ele>179.0</ele>
        <time>2012-06-05T06:35:33Z</time>
      </trkpt>
      <trkpt lat="43.349436" lon="-5.969677">
        <ele>179.0</ele>
        <time>2012-06-05T06:35:37Z</time>
      </trkpt>
      <trkpt lat="43.349108" lon="-5.9698">
        <ele>179.0</ele>
        <time>2012-06-05T06:35:41Z</time>
      </trkpt>
      <trkpt lat="43.348782" lon="-5.969923">
        <ele>179.0</ele>
        <time>2012-06-05T06:35:45Z</time>
      </trkpt>
      <trkpt lat="43.348447" lon="-5.970053">
        <ele>178.0</ele>
        <time>2012-06-05T06:35:49Z</time>
      </trkpt>
      <trkpt lat="43.348106" lon="-5.970189">
        <ele>178.0</ele>
        <time>2012-06-05T06:35:53Z</time>
      </trkpt>
      <trkpt lat="43.347767" lon="-5.970353">
        <ele>179.0</ele>
        <time>2012-06-05T06:35:57Z</time>
      </trkpt>
      <trkpt lat="43.347431" lon="-5.970534">
        <ele>179.0</ele>
        <time>2012-06-05T06:36:01Z</time>
      </trkpt>
      <trkpt lat="43.347097" lon="-5.970717">
        <ele>179.0</ele>
        <time>2012-06-05T06:36:05Z</time>
      </trkpt>
      <trkpt lat="43.346778" lon="-5.970886">
        <ele>179.0</ele>
        <time>2012-06-05T06:36:09Z</time>
      </trkpt>
      <trkpt lat="43.34649" lon="-5.971094">
        <ele>178.0</ele>
        <time>2012-06-05T06:36:13Z</time>
      </trkpt>
      <trkpt lat="43.346218" lon="-5.971337">
        <ele>177.0</ele>
        <time>2012-06-05T06:36:17Z</time>
      </trkpt>
      <trkpt lat="43.345947" lon="-5.971584">
        <ele>178.0</ele>
        <time>2012-06-05T06:36:21Z</time>
      </trkpt>
      <trkpt lat="43.345678" lon="-5.971842">
        <ele>177.0</ele>
        <time>2012-06-05T06:36:25Z</time>
      </trkpt>
      <trkpt lat="43.345422" lon="-5.972111">
        <ele>177.0</ele>
        <time>2012-06-05T06:36:29Z</time>
      </trkpt>
      <trkpt lat="43.345171" lon="-5.97238">
        <ele>177.0</ele>
        <time>2012-06-05T06:36:33Z</time>
      </trkpt>
      <trkpt lat="43.34493" lon="-5.972665">
        <ele>177.0</ele>
        <time>2012-06-05T06:36:37Z</time>
      </trkpt>
      <trkpt lat="43.344682" lon="-5.972945">
        <ele>177.0</ele>
        <time>2012-06-05T06:36:41Z</time>
      </trkpt>
      <trkpt lat="43.344432" lon="-5.973225">
        <ele>177.0</ele>
        <time>2012-06-05T06:36:45Z</time>
      </trkpt>
      <trkpt lat="43.344204" lon="-5.973551">
        <ele>177.0</ele>
        <time>2012-06-05T06:36:49Z</time>
      </trkpt>
      <trkpt lat="43.343993" lon="-5.973907">
        <ele>176.0</ele>
        <time>2012-06-05T06:36:53Z</time>
      </trkpt>
      <trkpt lat="43.343776" lon="-5.974258">
        <ele>176.0</ele>
        <time>2012-06-05T06:36:57Z</time>
      </trkpt>
      <trkpt lat="43.343579" lon="-5.974648">
        <ele>177.0</ele>
        <time>2012-06-05T06:37:01Z</time>
      </trkpt>
      <trkpt lat="43.343431" lon="-5.975076">
        <ele>177.0</ele>
        <time>2012-06-05T06:37:05Z</time>
      </trkpt>
      <trkpt lat="43.343335" lon="-5.975535">
        <ele>177.0</ele>
        <time>2012-06-05T06:37:09Z</time>
      </trkpt>
      <trkpt lat="43.34325" lon="-5.975991">
        <ele>176.0</ele>
        <time>2012-06-05T06:37:13Z</time>
      </trkpt>
      <trkpt lat="43.343185" lon="-5.976454">
        <ele>175.0</ele>
        <time>2012-06-05T06:37:17Z</time>
      </trkpt>
      <trkpt lat="43.343121" lon="-5.976906">
        <ele>174.0</ele>
        <time>2012-06-05T06:37:21Z</time>
      </trkpt>
      <trkpt lat="43.343083" lon="-5.977348">
        <ele>173.0</ele>
        <time>2012-06-05T06:37:25Z</time>
      </trkpt>
      <trkpt lat="43.34305" lon="-5.977761">
        <ele>173.0</ele>
        <time>2012-06-05T06:37:29Z</time>
      </trkpt>
      <trkpt lat="43.342996" lon="-5.978156">
        <ele>173.0</ele>
        <time>2012-06-05T06:37:33Z</time>
      </trkpt>
      <trkpt lat="43.342947" lon="-5.978533">
        <ele>174.0</ele>
        <time>2012-06-05T06:37:37Z</time>
      </trkpt>
      <trkpt lat="43.342969" lon="-5.978793">
        <ele>175.0</ele>
        <time>2012-06-05T06:37:40Z</time>
      </trkpt>
      <trkpt lat="43.343122" lon="-5.979162">
        <ele>176.0</ele>
        <time>2012-06-05T06:37:45Z</time>
      </trkpt>
      <trkpt lat="43.343168" lon="-5.979451">
        <ele>176.0</ele>
        <time>2012-06-05T06:37:49Z</time>
      </trkpt>
      <trkpt lat="43.343158" lon="-5.979779">
        <ele>176.0</ele>
        <time>2012-06-05T06:37:53Z</time>
      </trkpt>
      <trkpt lat="43.343134" lon="-5.980117">
        <ele>176.0</ele>
        <time>2012-06-05T06:37:57Z</time>
      </trkpt>
      <trkpt lat="43.343101" lon="-5.980476">
        <ele>176.0</ele>
        <time>2012-06-05T06:38:01Z</time>
      </trkpt>
      <trkpt lat="43.342896" lon="-5.98088">
        <ele>175.0</ele>
        <time>2012-06-05T06:38:05Z</time>
      </trkpt>
      <trkpt lat="43.342687" lon="-5.981263">
        <ele>174.0</ele>
        <time>2012-06-05T06:38:09Z</time>
      </trkpt>
      <trkpt lat="43.342481" lon="-5.981598">
        <ele>172.0</ele>
        <time>2012-06-05T06:38:13Z</time>
      </trkpt>
      <trkpt lat="43.342302" lon="-5.981896">
        <ele>172.0</ele>
        <time>2012-06-05T06:38:17Z</time>
      </trkpt>
      <trkpt lat="43.342139" lon="-5.982193">
        <ele>171.0</ele>
        <time>2012-06-05T06:38:21Z</time>
      </trkpt>
      <trkpt lat="43.341962" lon="-5.982456">
        <ele>171.0</ele>
        <time>2012-06-05T06:38:25Z</time>
      </trkpt>
      <trkpt lat="43.341826" lon="-5.982634">
        <ele>171.0</ele>
        <time>2012-06-05T06:38:28Z</time>
      </trkpt>
      <trkpt lat="43.34161" lon="-5.982948">
        <ele>171.0</ele>
        <time>2012-06-05T06:38:33Z</time>
      </trkpt>
      <trkpt lat="43.341444" lon="-5.983221">
        <ele>171.0</ele>
        <time>2012-06-05T06:38:37Z</time>
      </trkpt>
      <trkpt lat="43.341257" lon="-5.983485">
        <ele>171.0</ele>
        <time>2012-06-05T06:38:41Z</time>
      </trkpt>
      <trkpt lat="43.341063" lon="-5.98374">
        <ele>171.0</ele>
        <time>2012-06-05T06:38:45Z</time>
      </trkpt>
      <trkpt lat="43.340862" lon="-5.98398">
        <ele>171.0</ele>
        <time>2012-06-05T06:38:49Z</time>
      </trkpt>
      <trkpt lat="43.340668" lon="-5.984221">
        <ele>172.0</ele>
        <time>2012-06-05T06:38:53Z</time>
      </trkpt>
      <trkpt lat="43.340445" lon="-5.984403">
        <ele>174.0</ele>
        <time>2012-06-05T06:38:57Z</time>
      </trkpt>
      <trkpt lat="43.340284" lon="-5.984547">
        <ele>174.0</ele>
        <time>2012-06-05T06:39:00Z</time>
      </trkpt>
      <trkpt lat="43.340078" lon="-5.984739">
        <ele>174.0</ele>
        <time>2012-06-05T06:39:04Z</time>
      </trkpt>
      <trkpt lat="43.339805" lon="-5.98499">
        <ele>172.0</ele>
        <time>2012-06-05T06:39:09Z</time>
      </trkpt>
      <trkpt lat="43.339559" lon="-5.985198">
        <ele>172.0</ele>
        <time>2012-06-05T06:39:13Z</time>
      </trkpt>
      <trkpt lat="43.339303" lon="-5.985416">
        <ele>171.0</ele>
        <time>2012-06-05T06:39:17Z</time>
      </trkpt>
      <trkpt lat="43.339035" lon="-5.985613">
        <ele>171.0</ele>
        <time>2012-06-05T06:39:21Z</time>
      </trkpt>
      <trkpt lat="43.338744" lon="-5.985722">
        <ele>171.0</ele>
        <time>2012-06-05T06:39:25Z</time>
      </trkpt>
      <trkpt lat="43.338461" lon="-5.985773">
        <ele>172.0</ele>
        <time>2012-06-05T06:39:29Z</time>
      </trkpt>
      <trkpt lat="43.338139" lon="-5.985745">
        <ele>172.0</ele>
        <time>2012-06-05T06:39:33Z</time>
      </trkpt>
      <trkpt lat="43.33779" lon="-5.985693">
        <ele>172.0</ele>
        <time>2012-06-05T06:39:37Z</time>
      </trkpt>
      <trkpt lat="43.337452" lon="-5.985706">
        <ele>171.0</ele>
        <time>2012-06-05T06:39:41Z</time>
      </trkpt>
      <trkpt lat="43.337144" lon="-5.985904">
        <ele>171.0</ele>
        <time>2012-06-05T06:39:45Z</time>
      </trkpt>
      <trkpt lat="43.336894" lon="-5.986149">
        <ele>172.0</ele>
        <time>2012-06-05T06:39:49Z</time>
      </trkpt>
      <trkpt lat="43.336665" lon="-5.986355">
        <ele>173.0</ele>
        <time>2012-06-05T06:39:53Z</time>
      </trkpt>
      <trkpt lat="43.336409" lon="-5.986523">
        <ele>173.0</ele>
        <time>2012-06-05T06:39:57Z</time>
      </trkpt>
      <trkpt lat="43.336152" lon="-5.986623">
        <ele>173.0</ele>
        <time>2012-06-05T06:40:01Z</time>
      </trkpt>
      <trkpt lat="43.335976" lon="-5.98664">
        <ele>173.0</ele>
        <time>2012-06-05T06:40:04Z</time>
      </trkpt>
      <trkpt lat="43.335687" lon="-5.986727">
        <ele>174.0</ele>
        <time>2012-06-05T06:40:09Z</time>
      </trkpt>
      <trkpt lat="43.335424" lon="-5.986871">
        <ele>174.0</ele>
        <time>2012-06-05T06:40:13Z</time>
      </trkpt>
      <trkpt lat="43.335152" lon="-5.987018">
        <ele>174.0</ele>
        <time>2012-06-05T06:40:17Z</time>
      </trkpt>
      <trkpt lat="43.334887" lon="-5.987155">
        <ele>174.0</ele>
        <time>2012-06-05T06:40:21Z</time>
      </trkpt>
      <trkpt lat="43.334614" lon="-5.987291">
        <ele>173.0</ele>
        <time>2012-06-05T06:40:25Z</time>
      </trkpt>
      <trkpt lat="43.334331" lon="-5.987417">
        <ele>173.0</ele>
        <time>2012-06-05T06:40:29Z</time>
      </trkpt>
      <trkpt lat="43.334056" lon="-5.987538">
        <ele>173.0</ele>
        <time>2012-06-05T06:40:33Z</time>
      </trkpt>
      <trkpt lat="43.333792" lon="-5.987642">
        <ele>173.0</ele>
        <time>2012-06-05T06:40:37Z</time>
      </trkpt>
      <trkpt lat="43.333542" lon="-5.987778">
        <ele>173.0</ele>
        <time>2012-06-05T06:40:41Z</time>
      </trkpt>
      <trkpt lat="43.333273" lon="-5.98789">
        <ele>173.0</ele>
        <time>2012-06-05T06:40:45Z</time>
      </trkpt>
      <trkpt lat="43.333076" lon="-5.987976">
        <ele>173.0</ele>
        <time>2012-06-05T06:40:48Z</time>
      </trkpt>
      <trkpt lat="43.332849" lon="-5.9881">
        <ele>173.0</ele>
        <time>2012-06-05T06:40:52Z</time>
      </trkpt>
      <trkpt lat="43.33263" lon="-5.988235">
        <ele>173.0</ele>
        <time>2012-06-05T06:40:56Z</time>
      </trkpt>
      <trkpt lat="43.33263" lon="-5.988235">
        <time>2012-06-05T06:41:07Z</time>
      </trkpt>
    </trkseg>
    <trkseg>
      <trkpt lat="43.33263" lon="-5.988235">
        <time>2012-06-05T06:41:17Z</time>
      </trkpt>
      <trkpt lat="43.33046" lon="-5.988107">
        <ele>168.0</ele>
        <time>2012-06-05T06:41:19Z</time>
      </trkpt>
      <trkpt lat="43.330221" lon="-5.98809">
        <ele>165.0</ele>
        <time>2012-06-05T06:41:23Z</time>
      </trkpt>
      <trkpt lat="43.329946" lon="-5.988083">
        <ele>165.0</ele>
        <time>2012-06-05T06:41:27Z</time>
      </trkpt>
      <trkpt lat="43.329751" lon="-5.988081">
        <ele>165.0</ele>
        <time>2012-06-05T06:41:30Z</time>
      </trkpt>
      <trkpt lat="43.32951" lon="-5.988061">
        <ele>165.0</ele>
        <time>2012-06-05T06:41:34Z</time>
      </trkpt>
      <trkpt lat="43.329268" lon="-5.988071">
        <ele>167.0</ele>
        <time>2012-06-05T06:41:38Z</time>
      </trkpt>
      <trkpt lat="43.328956" lon="-5.9882">
        <ele>167.0</ele>
        <time>2012-06-05T06:41:43Z</time>
      </trkpt>
      <trkpt lat="43.328724" lon="-5.98842">
        <ele>168.0</ele>
        <time>2012-06-05T06:41:47Z</time>
      </trkpt>
      <trkpt lat="43.328504" lon="-5.988674">
        <ele>168.0</ele>
        <time>2012-06-05T06:41:51Z</time>
      </trkpt>
      <trkpt lat="43.328329" lon="-5.98896">
        <ele>168.0</ele>
        <time>2012-06-05T06:41:55Z</time>
      </trkpt>
      <trkpt lat="43.328227" lon="-5.989173">
        <ele>168.0</ele>
        <time>2012-06-05T06:41:58Z</time>
      </trkpt>
      <trkpt lat="43.328073" lon="-5.98944">
        <ele>168.0</ele>
        <time>2012-06-05T06:42:02Z</time>
      </trkpt>
      <trkpt lat="43.327931" lon="-5.989714">
        <ele>168.0</ele>
        <time>2012-06-05T06:42:06Z</time>
      </trkpt>
      <trkpt lat="43.327718" lon="-5.990057">
        <ele>168.0</ele>
        <time>2012-06-05T06:42:11Z</time>
      </trkpt>
      <trkpt lat="43.327541" lon="-5.990336">
        <ele>168.0</ele>
        <time>2012-06-05T06:42:15Z</time>
      </trkpt>
      <trkpt lat="43.32736" lon="-5.990607">
        <ele>169.0</ele>
        <time>2012-06-05T06:42:19Z</time>
      </trkpt>
      <trkpt lat="43.32717" lon="-5.990879">
        <ele>169.0</ele>
        <time>2012-06-05T06:42:23Z</time>
      </trkpt>
      <trkpt lat="43.32697" lon="-5.99115">
        <ele>169.0</ele>
        <time>2012-06-05T06:42:27Z</time>
      </trkpt>
      <trkpt lat="43.32675" lon="-5.991407">
        <ele>169.0</ele>
        <time>2012-06-05T06:42:31Z</time>
      </trkpt>
      <trkpt lat="43.326503" lon="-5.991636">
        <ele>169.0</ele>
        <time>2012-06-05T06:42:35Z</time>
      </trkpt>
      <trkpt lat="43.326236" lon="-5.991844">
        <ele>168.0</ele>
        <time>2012-06-05T06:42:39Z</time>
      </trkpt>
      <trkpt lat="43.325951" lon="-5.992049">
        <ele>168.0</ele>
        <time>2012-06-05T06:42:43Z</time>
      </trkpt>
      <trkpt lat="43.325662" lon="-5.992254">
        <ele>168.0</ele>
        <time>2012-06-05T06:42:47Z</time>
      </trkpt>
      <trkpt lat="43.325364" lon="-5.992457">
        <ele>169.0</ele>
        <time>2012-06-05T06:42:51Z</time>
      </trkpt>
      <trkpt lat="43.325089" lon="-5.992666">
        <ele>169.0</ele>
        <time>2012-06-05T06:42:55Z</time>
      </trkpt>
      <trkpt lat="43.32484" lon="-5.992877">
        <ele>169.0</ele>
        <time>2012-06-05T06:42:59Z</time>
      </trkpt>
      <trkpt lat="43.324588" lon="-5.993024">
        <ele>170.0</ele>
        <time>2012-06-05T06:43:03Z</time>
      </trkpt>
      <trkpt lat="43.324316" lon="-5.993106">
        <ele>170.0</ele>
        <time>2012-06-05T06:43:07Z</time>
      </trkpt>
      <trkpt lat="43.324051" lon="-5.993133">
        <ele>171.0</ele>
        <time>2012-06-05T06:43:11Z</time>
      </trkpt>
      <trkpt lat="43.323772" lon="-5.993086">
        <ele>172.0</ele>
        <time>2012-06-05T06:43:15Z</time>
      </trkpt>
      <trkpt lat="43.323476" lon="-5.993031">
        <ele>173.0</ele>
        <time>2012-06-05T06:43:19Z</time>
      </trkpt>
      <trkpt lat="43.323151" lon="-5.993006">
        <ele>173.0</ele>
        <time>2012-06-05T06:43:23Z</time>
      </trkpt>
      <trkpt lat="43.322818" lon="-5.993008">
        <ele>174.0</ele>
        <time>2012-06-05T06:43:27Z</time>
      </trkpt>
      <trkpt lat="43.322483" lon="-5.993025">
        <ele>175.0</ele>
        <time>2012-06-05T06:43:31Z</time>
      </trkpt>
      <trkpt lat="43.322153" lon="-5.993041">
        <ele>176.0</ele>
        <time>2012-06-05T06:43:35Z</time>
      </trkpt>
      <trkpt lat="43.321835" lon="-5.993054">
        <ele>177.0</ele>
        <time>2012-06-05T06:43:39Z</time>
      </trkpt>
      <trkpt lat="43.321494" lon="-5.99304">
        <ele>177.0</ele>
        <time>2012-06-05T06:43:43Z</time>
      </trkpt>
      <trkpt lat="43.321162" lon="-5.993016">
        <ele>177.0</ele>
        <time>2012-06-05T06:43:47Z</time>
      </trkpt>
      <trkpt lat="43.320847" lon="-5.992963">
        <ele>178.0</ele>
        <time>2012-06-05T06:43:51Z</time>
      </trkpt>
      <trkpt lat="43.320558" lon="-5.992882">
        <ele>178.0</ele>
        <time>2012-06-05T06:43:55Z</time>
      </trkpt>
      <trkpt lat="43.320288" lon="-5.992754">
        <ele>178.0</ele>
        <time>2012-06-05T06:43:59Z</time>
      </trkpt>
      <trkpt lat="43.320026" lon="-5.992627">
        <ele>179.0</ele>
        <time>2012-06-05T06:44:03Z</time>
      </trkpt>
      <trkpt lat="43.31977" lon="-5.992505">
        <ele>179.0</ele>
        <time>2012-06-05T06:44:07Z</time>
      </trkpt>
      <trkpt lat="43.319506" lon="-5.99238">
        <ele>179.0</ele>
        <time>2012-06-05T06:44:11Z</time>
      </trkpt>
      <trkpt lat="43.319221" lon="-5.992285">
        <ele>180.0</ele>
        <time>2012-06-05T06:44:15Z</time>
      </trkpt>
      <trkpt lat="43.318939" lon="-5.992199">
        <ele>181.0</ele>
        <time>2012-06-05T06:44:19Z</time>
      </trkpt>
      <trkpt lat="43.318665" lon="-5.992112">
        <ele>182.0</ele>
        <time>2012-06-05T06:44:23Z</time>
      </trkpt>
      <trkpt lat="43.318395" lon="-5.992033">
        <ele>182.0</ele>
        <time>2012-06-05T06:44:27Z</time>
      </trkpt>
      <trkpt lat="43.318133" lon="-5.991963">
        <ele>183.0</ele>
        <time>2012-06-05T06:44:31Z</time>
      </trkpt>
      <trkpt lat="43.317871" lon="-5.991905">
        <ele>184.0</ele>
        <time>2012-06-05T06:44:35Z</time>
      </trkpt>
      <trkpt lat="43.317615" lon="-5.99186">
        <ele>185.0</ele>
        <time>2012-06-05T06:44:39Z</time>
      </trkpt>
      <trkpt lat="43.317358" lon="-5.991821">
        <ele>185.0</ele>
        <time>2012-06-05T06:44:43Z</time>
      </trkpt>
      <trkpt lat="43.317294" lon="-5.991813">
        <ele>185.0</ele>
        <time>2012-06-05T06:44:44Z</time>
      </trkpt>
      <trkpt lat="43.31693" lon="-5.991807">
        <ele>187.0</ele>
        <time>2012-06-05T06:44:50Z</time>
      </trkpt>
      <trkpt lat="43.316617" lon="-5.99178">
        <ele>187.0</ele>
        <time>2012-06-05T06:44:55Z</time>
      </trkpt>
      <trkpt lat="43.316359" lon="-5.991755">
        <ele>188.0</ele>
        <time>2012-06-05T06:44:59Z</time>
      </trkpt>
      <trkpt lat="43.316104" lon="-5.991736">
        <ele>188.0</ele>
        <time>2012-06-05T06:45:03Z</time>
      </trkpt>
      <trkpt lat="43.315852" lon="-5.991688">
        <ele>189.0</ele>
        <time>2012-06-05T06:45:07Z</time>
      </trkpt>
      <trkpt lat="43.315602" lon="-5.991573">
        <ele>190.0</ele>
        <time>2012-06-05T06:45:11Z</time>
      </trkpt>
      <trkpt lat="43.315348" lon="-5.991423">
        <ele>190.0</ele>
        <time>2012-06-05T06:45:15Z</time>
      </trkpt>
      <trkpt lat="43.315073" lon="-5.991229">
        <ele>189.0</ele>
        <time>2012-06-05T06:45:19Z</time>
      </trkpt>
      <trkpt lat="43.314783" lon="-5.99094">
        <ele>189.0</ele>
        <time>2012-06-05T06:45:23Z</time>
      </trkpt>
      <trkpt lat="43.314446" lon="-5.990549">
        <ele>189.0</ele>
        <time>2012-06-05T06:45:27Z</time>
      </trkpt>
      <trkpt lat="43.314127" lon="-5.990146">
        <ele>189.0</ele>
        <time>2012-06-05T06:45:31Z</time>
      </trkpt>
      <trkpt lat="43.313868" lon="-5.989759">
        <ele>189.0</ele>
        <time>2012-06-05T06:45:35Z</time>
      </trkpt>
      <trkpt lat="43.313715" lon="-5.989487">
        <ele>189.0</ele>
        <time>2012-06-05T06:45:38Z</time>
      </trkpt>
      <trkpt lat="43.313452" lon="-5.989064">
        <ele>189.0</ele>
        <time>2012-06-05T06:45:43Z</time>
      </trkpt>
      <trkpt lat="43.313216" lon="-5.988771">
        <ele>190.0</ele>
        <time>2012-06-05T06:45:47Z</time>
      </trkpt>
      <trkpt lat="43.312959" lon="-5.988563">
        <ele>190.0</ele>
        <time>2012-06-05T06:45:51Z</time>
      </trkpt>
      <trkpt lat="43.312679" lon="-5.988421">
        <ele>189.0</ele>
        <time>2012-06-05T06:45:55Z</time>
      </trkpt>
      <trkpt lat="43.312394" lon="-5.988319">
        <ele>189.0</ele>
        <time>2012-06-05T06:45:59Z</time>
      </trkpt>
      <trkpt lat="43.312115" lon="-5.988239">
        <ele>189.0</ele>
        <time>2012-06-05T06:46:03Z</time>
      </trkpt>
      <trkpt lat="43.311844" lon="-5.988172">
        <ele>189.0</ele>
        <time>2012-06-05T06:46:07Z</time>
      </trkpt>
      <trkpt lat="43.311579" lon="-5.988093">
        <ele>189.0</ele>
        <time>2012-06-05T06:46:11Z</time>
      </trkpt>
      <trkpt lat="43.311316" lon="-5.988001">
        <ele>190.0</ele>
        <time>2012-06-05T06:46:15Z</time>
      </trkpt>
      <trkpt lat="43.31106" lon="-5.987925">
        <ele>190.0</ele>
        <time>2012-06-05T06:46:19Z</time>
      </trkpt>
      <trkpt lat="43.310815" lon="-5.987847">
        <ele>190.0</ele>
        <time>2012-06-05T06:46:23Z</time>
      </trkpt>
      <trkpt lat="43.310572" lon="-5.987766">
        <ele>190.0</ele>
        <time>2012-06-05T06:46:27Z</time>
      </trkpt>
      <trkpt lat="43.310326" lon="-5.987689">
        <ele>191.0</ele>
        <time>2012-06-05T06:46:31Z</time>
      </trkpt>
      <trkpt lat="43.31008" lon="-5.987598">
        <ele>191.0</ele>
        <time>2012-06-05T06:46:35Z</time>
      </trkpt>
      <trkpt lat="43.309829" lon="-5.987474">
        <ele>191.0</ele>
        <time>2012-06-05T06:46:39Z</time>
      </trkpt>
      <trkpt lat="43.309576" lon="-5.987286">
        <ele>191.0</ele>
        <time>2012-06-05T06:46:43Z</time>
      </trkpt>
      <trkpt lat="43.309339" lon="-5.987044">
        <ele>190.0</ele>
        <time>2012-06-05T06:46:47Z</time>
      </trkpt>
      <trkpt lat="43.309092" lon="-5.986828">
        <ele>190.0</ele>
        <time>2012-06-05T06:46:51Z</time>
      </trkpt>
      <trkpt lat="43.308804" lon="-5.986724">
        <ele>190.0</ele>
        <time>2012-06-05T06:46:55Z</time>
      </trkpt>
      <trkpt lat="43.308531" lon="-5.986595">
        <ele>191.0</ele>
        <time>2012-06-05T06:46:59Z</time>
      </trkpt>
      <trkpt lat="43.308256" lon="-5.986472">
        <ele>191.0</ele>
        <time>2012-06-05T06:47:03Z</time>
      </trkpt>
      <trkpt lat="43.30805" lon="-5.986384">
        <ele>192.0</ele>
        <time>2012-06-05T06:47:06Z</time>
      </trkpt>
      <trkpt lat="43.307714" lon="-5.986275">
        <ele>192.0</ele>
        <time>2012-06-05T06:47:11Z</time>
      </trkpt>
      <trkpt lat="43.307453" lon="-5.986203">
        <ele>192.0</ele>
        <time>2012-06-05T06:47:15Z</time>
      </trkpt>
      <trkpt lat="43.307184" lon="-5.986135">
        <ele>192.0</ele>
        <time>2012-06-05T06:47:19Z</time>
      </trkpt>
      <trkpt lat="43.306927" lon="-5.986066">
        <ele>193.0</ele>
        <time>2012-06-05T06:47:23Z</time>
      </trkpt>
      <trkpt lat="43.306666" lon="-5.985991">
        <ele>193.0</ele>
        <time>2012-06-05T06:47:27Z</time>
      </trkpt>
      <trkpt lat="43.306406" lon="-5.985824">
        <ele>194.0</ele>
        <time>2012-06-05T06:47:31Z</time>
      </trkpt>
      <trkpt lat="43.306208" lon="-5.985549">
        <ele>195.0</ele>
        <time>2012-06-05T06:47:35Z</time>
      </trkpt>
      <trkpt lat="43.306165" lon="-5.985173">
        <ele>196.0</ele>
        <time>2012-06-05T06:47:39Z</time>
      </trkpt>
      <trkpt lat="43.306144" lon="-5.984808">
        <ele>195.0</ele>
        <time>2012-06-05T06:47:43Z</time>
      </trkpt>
      <trkpt lat="43.306055" lon="-5.984461">
        <ele>195.0</ele>
        <time>2012-06-05T06:47:47Z</time>
      </trkpt>
      <trkpt lat="43.305926" lon="-5.984271">
        <ele>195.0</ele>
        <time>2012-06-05T06:47:50Z</time>
      </trkpt>
      <trkpt lat="43.305536" lon="-5.98394">
        <ele>196.0</ele>
        <time>2012-06-05T06:47:58Z</time>
      </trkpt>
      <trkpt lat="43.305427" lon="-5.983891">
        <ele>196.0</ele>
        <time>2012-06-05T06:48:00Z</time>
      </trkpt>
      <trkpt lat="43.305087" lon="-5.983819">
        <ele>198.0</ele>
        <time>2012-06-05T06:48:06Z</time>
      </trkpt>
      <trkpt lat="43.304878" lon="-5.98377">
        <ele>200.0</ele>
        <time>2012-06-05T06:48:10Z</time>
      </trkpt>
      <trkpt lat="43.304655" lon="-5.983765">
        <ele>202.0</ele>
        <time>2012-06-05T06:48:14Z</time>
      </trkpt>
      <trkpt lat="43.304417" lon="-5.983852">
        <ele>204.0</ele>
        <time>2012-06-05T06:48:18Z</time>
      </trkpt>
      <trkpt lat="43.304187" lon="-5.983961">
        <ele>207.0</ele>
        <time>2012-06-05T06:48:22Z</time>
      </trkpt>
      <trkpt lat="43.303956" lon="-5.984083">
        <ele>209.0</ele>
        <time>2012-06-05T06:48:26Z</time>
      </trkpt>
      <trkpt lat="43.303728" lon="-5.984219">
        <ele>211.0</ele>
        <time>2012-06-05T06:48:30Z</time>
      </trkpt>
      <trkpt lat="43.303503" lon="-5.984361">
        <ele>212.0</ele>
        <time>2012-06-05T06:48:34Z</time>
      </trkpt>
      <trkpt lat="43.303223" lon="-5.984607">
        <ele>213.0</ele>
        <time>2012-06-05T06:48:39Z</time>
      </trkpt>
      <trkpt lat="43.303005" lon="-5.984852">
        <ele>214.0</ele>
        <time>2012-06-05T06:48:43Z</time>
      </trkpt>
      <trkpt lat="43.302797" lon="-5.985106">
        <ele>215.0</ele>
        <time>2012-06-05T06:48:47Z</time>
      </trkpt>
      <trkpt lat="43.302603" lon="-5.985369">
        <ele>215.0</ele>
        <time>2012-06-05T06:48:51Z</time>
      </trkpt>
      <trkpt lat="43.30241" lon="-5.985619">
        <ele>215.0</ele>
        <time>2012-06-05T06:48:55Z</time>
      </trkpt>
      <trkpt lat="43.302245" lon="-5.985897">
        <ele>216.0</ele>
        <time>2012-06-05T06:48:59Z</time>
      </trkpt>
      <trkpt lat="43.302109" lon="-5.986195">
        <ele>217.0</ele>
        <time>2012-06-05T06:49:03Z</time>
      </trkpt>
      <trkpt lat="43.302014" lon="-5.986423">
        <ele>217.0</ele>
        <time>2012-06-05T06:49:06Z</time>
      </trkpt>
      <trkpt lat="43.301885" lon="-5.986715">
        <ele>218.0</ele>
        <time>2012-06-05T06:49:10Z</time>
      </trkpt>
      <trkpt lat="43.30178" lon="-5.986992">
        <ele>218.0</ele>
        <time>2012-06-05T06:49:14Z</time>
      </trkpt>
      <trkpt lat="43.301685" lon="-5.987237">
        <ele>219.0</ele>
        <time>2012-06-05T06:49:18Z</time>
      </trkpt>
      <trkpt lat="43.301573" lon="-5.987477">
        <ele>219.0</ele>
        <time>2012-06-05T06:49:22Z</time>
      </trkpt>
      <trkpt lat="43.301456" lon="-5.987692">
        <ele>220.0</ele>
        <time>2012-06-05T06:49:26Z</time>
      </trkpt>
      <trkpt lat="43.301325" lon="-5.987883">
        <ele>220.0</ele>
        <time>2012-06-05T06:49:30Z</time>
      </trkpt>
      <trkpt lat="43.301175" lon="-5.988052">
        <ele>220.0</ele>
        <time>2012-06-05T06:49:34Z</time>
      </trkpt>
      <trkpt lat="43.301006" lon="-5.988199">
        <ele>221.0</ele>
        <time>2012-06-05T06:49:38Z</time>
      </trkpt>
      <trkpt lat="43.300824" lon="-5.988302">
        <ele>221.0</ele>
        <time>2012-06-05T06:49:42Z</time>
      </trkpt>
      <trkpt lat="43.300646" lon="-5.98839">
        <ele>222.0</ele>
        <time>2012-06-05T06:49:46Z</time>
      </trkpt>
      <trkpt lat="43.300459" lon="-5.988466">
        <ele>222.0</ele>
        <time>2012-06-05T06:49:50Z</time>
      </trkpt>
      <trkpt lat="43.300251" lon="-5.988504">
        <ele>222.0</ele>
        <time>2012-06-05T06:49:54Z</time>
      </trkpt>
      <trkpt lat="43.300025" lon="-5.988533">
        <ele>223.0</ele>
        <time>2012-06-05T06:49:58Z</time>
      </trkpt>
      <trkpt lat="43.299704" lon="-5.988534">
        <ele>223.0</ele>
        <time>2012-06-05T06:50:03Z</time>
      </trkpt>
      <trkpt lat="43.299573" lon="-5.988526">
        <ele>223.0</ele>
        <time>2012-06-05T06:50:05Z</time>
      </trkpt>
      <trkpt lat="43.29923" lon="-5.988502">
        <ele>224.0</ele>
        <time>2012-06-05T06:50:11Z</time>
      </trkpt>
      <trkpt lat="43.29923" lon="-5.988502">
        <time>2012-06-05T06:50:22Z</time>
      </trkpt>
    </trkseg>
    <trkseg>
      <trkpt lat="43.29923" lon="-5.988502">
        <time>2012-06-05T06:50:29Z</time>
      </trkpt>
      <trkpt lat="43.297995" lon="-5.986748">
        <ele>222.0</ele>
        <time>2012-06-05T06:50:42Z</time>
      </trkpt>
      <trkpt lat="43.29786" lon="-5.986408">
        <ele>221.0</ele>
        <time>2012-06-05T06:50:46Z</time>
      </trkpt>
      <trkpt lat="43.297717" lon="-5.986071">
        <ele>220.0</ele>
        <time>2012-06-05T06:50:50Z</time>
      </trkpt>
      <trkpt lat="43.297557" lon="-5.985726">
        <ele>216.0</ele>
        <time>2012-06-05T06:50:54Z</time>
      </trkpt>
      <trkpt lat="43.297361" lon="-5.985348">
        <ele>212.0</ele>
        <time>2012-06-05T06:50:58Z</time>
      </trkpt>
      <trkpt lat="43.297161" lon="-5.985126">
        <ele>211.0</ele>
        <time>2012-06-05T06:51:01Z</time>
      </trkpt>
      <trkpt lat="43.29685" lon="-5.984927">
        <ele>211.0</ele>
        <time>2012-06-05T06:51:05Z</time>
      </trkpt>
      <trkpt lat="43.296441" lon="-5.984702">
        <ele>211.0</ele>
        <time>2012-06-05T06:51:10Z</time>
      </trkpt>
      <trkpt lat="43.296094" lon="-5.98457">
        <ele>211.0</ele>
        <time>2012-06-05T06:51:14Z</time>
      </trkpt>
      <trkpt lat="43.295838" lon="-5.984481">
        <ele>211.0</ele>
        <time>2012-06-05T06:51:17Z</time>
      </trkpt>
      <trkpt lat="43.295416" lon="-5.984276">
        <ele>212.0</ele>
        <time>2012-06-05T06:51:22Z</time>
      </trkpt>
      <trkpt lat="43.295118" lon="-5.984011">
        <ele>214.0</ele>
        <time>2012-06-05T06:51:26Z</time>
      </trkpt>
      <trkpt lat="43.294914" lon="-5.983788">
        <ele>215.0</ele>
        <time>2012-06-05T06:51:29Z</time>
      </trkpt>
      <trkpt lat="43.294654" lon="-5.983503">
        <ele>216.0</ele>
        <time>2012-06-05T06:51:33Z</time>
      </trkpt>
      <trkpt lat="43.294306" lon="-5.983179">
        <ele>216.0</ele>
        <time>2012-06-05T06:51:38Z</time>
      </trkpt>
      <trkpt lat="43.294034" lon="-5.982923">
        <ele>215.0</ele>
        <time>2012-06-05T06:51:42Z</time>
      </trkpt>
      <trkpt lat="43.293776" lon="-5.982683">
        <ele>215.0</ele>
        <time>2012-06-05T06:51:46Z</time>
      </trkpt>
      <trkpt lat="43.293527" lon="-5.98244">
        <ele>214.0</ele>
        <time>2012-06-05T06:51:50Z</time>
      </trkpt>
      <trkpt lat="43.29328" lon="-5.982194">
        <ele>214.0</ele>
        <time>2012-06-05T06:51:54Z</time>
      </trkpt>
      <trkpt lat="43.293029" lon="-5.981961">
        <ele>214.0</ele>
        <time>2012-06-05T06:51:58Z</time>
      </trkpt>
      <trkpt lat="43.292723" lon="-5.981885">
        <ele>215.0</ele>
        <time>2012-06-05T06:52:02Z</time>
      </trkpt>
      <trkpt lat="43.292376" lon="-5.98194">
        <ele>215.0</ele>
        <time>2012-06-05T06:52:06Z</time>
      </trkpt>
      <trkpt lat="43.29221" lon="-5.982017">
        <ele>215.0</ele>
        <time>2012-06-05T06:52:08Z</time>
      </trkpt>
      <trkpt lat="43.291759" lon="-5.982232">
        <ele>216.0</ele>
        <time>2012-06-05T06:52:14Z</time>
      </trkpt>
      <trkpt lat="43.291583" lon="-5.982331">
        <ele>215.0</ele>
        <time>2012-06-05T06:52:17Z</time>
      </trkpt>
      <trkpt lat="43.29136" lon="-5.982408">
        <ele>215.0</ele>
        <time>2012-06-05T06:52:21Z</time>
      </trkpt>
      <trkpt lat="43.291132" lon="-5.982446">
        <ele>215.0</ele>
        <time>2012-06-05T06:52:25Z</time>
      </trkpt>
      <trkpt lat="43.290894" lon="-5.982467">
        <ele>215.0</ele>
        <time>2012-06-05T06:52:29Z</time>
      </trkpt>
      <trkpt lat="43.290582" lon="-5.98251">
        <ele>215.0</ele>
        <time>2012-06-05T06:52:34Z</time>
      </trkpt>
      <trkpt lat="43.290315" lon="-5.982586">
        <ele>215.0</ele>
        <time>2012-06-05T06:52:38Z</time>
      </trkpt>
      <trkpt lat="43.290039" lon="-5.982692">
        <ele>214.0</ele>
        <time>2012-06-05T06:52:42Z</time>
      </trkpt>
      <trkpt lat="43.289757" lon="-5.982794">
        <ele>214.0</ele>
        <time>2012-06-05T06:52:46Z</time>
      </trkpt>
      <trkpt lat="43.28947" lon="-5.982893">
        <ele>214.0</ele>
        <time>2012-06-05T06:52:50Z</time>
      </trkpt>
      <trkpt lat="43.289188" lon="-5.982998">
        <ele>214.0</ele>
        <time>2012-06-05T06:52:54Z</time>
      </trkpt>
      <trkpt lat="43.288894" lon="-5.983101">
        <ele>214.0</ele>
        <time>2012-06-05T06:52:58Z</time>
      </trkpt>
      <trkpt lat="43.288574" lon="-5.983199">
        <ele>213.0</ele>
        <time>2012-06-05T06:53:02Z</time>
      </trkpt>
      <trkpt lat="43.288266" lon="-5.983311">
        <ele>213.0</ele>
        <time>2012-06-05T06:53:06Z</time>
      </trkpt>
      <trkpt lat="43.287969" lon="-5.983443">
        <ele>213.0</ele>
        <time>2012-06-05T06:53:10Z</time>
      </trkpt>
      <trkpt lat="43.287673" lon="-5.983565">
        <ele>213.0</ele>
        <time>2012-06-05T06:53:14Z</time>
      </trkpt>
      <trkpt lat="43.287374" lon="-5.98365">
        <ele>213.0</ele>
        <time>2012-06-05T06:53:18Z</time>
      </trkpt>
      <trkpt lat="43.287143" lon="-5.983673">
        <ele>213.0</ele>
        <time>2012-06-05T06:53:21Z</time>
      </trkpt>
      <trkpt lat="43.286755" lon="-5.983671">
        <ele>213.0</ele>
        <time>2012-06-05T06:53:26Z</time>
      </trkpt>
      <trkpt lat="43.286449" lon="-5.983688">
        <ele>213.0</ele>
        <time>2012-06-05T06:53:30Z</time>
      </trkpt>
      <trkpt lat="43.286295" lon="-5.98371">
        <ele>213.0</ele>
        <time>2012-06-05T06:53:32Z</time>
      </trkpt>
      <trkpt lat="43.285849" lon="-5.983933">
        <ele>214.0</ele>
        <time>2012-06-05T06:53:38Z</time>
      </trkpt>
      <trkpt lat="43.28556" lon="-5.984136">
        <ele>214.0</ele>
        <time>2012-06-05T06:53:42Z</time>
      </trkpt>
      <trkpt lat="43.285269" lon="-5.984346">
        <ele>215.0</ele>
        <time>2012-06-05T06:53:46Z</time>
      </trkpt>
      <trkpt lat="43.28499" lon="-5.984577">
        <ele>216.0</ele>
        <time>2012-06-05T06:53:50Z</time>
      </trkpt>
      <trkpt lat="43.284728" lon="-5.98482">
        <ele>217.0</ele>
        <time>2012-06-05T06:53:54Z</time>
      </trkpt>
      <trkpt lat="43.284489" lon="-5.985095">
        <ele>218.0</ele>
        <time>2012-06-05T06:53:58Z</time>
      </trkpt>
      <trkpt lat="43.284258" lon="-5.985384">
        <ele>219.0</ele>
        <time>2012-06-05T06:54:02Z</time>
      </trkpt>
      <trkpt lat="43.284035" lon="-5.985687">
        <ele>220.0</ele>
        <time>2012-06-05T06:54:06Z</time>
      </trkpt>
      <trkpt lat="43.283817" lon="-5.985979">
        <ele>221.0</ele>
        <time>2012-06-05T06:54:10Z</time>
      </trkpt>
      <trkpt lat="43.283618" lon="-5.986294">
        <ele>221.0</ele>
        <time>2012-06-05T06:54:14Z</time>
      </trkpt>
      <trkpt lat="43.28344" lon="-5.986622">
        <ele>222.0</ele>
        <time>2012-06-05T06:54:18Z</time>
      </trkpt>
      <trkpt lat="43.283227" lon="-5.986891">
        <ele>223.0</ele>
        <time>2012-06-05T06:54:22Z</time>
      </trkpt>
      <trkpt lat="43.282986" lon="-5.987156">
        <ele>223.0</ele>
        <time>2012-06-05T06:54:26Z</time>
      </trkpt>
      <trkpt lat="43.282773" lon="-5.987468">
        <ele>224.0</ele>
        <time>2012-06-05T06:54:30Z</time>
      </trkpt>
      <trkpt lat="43.282569" lon="-5.98771">
        <ele>224.0</ele>
        <time>2012-06-05T06:54:34Z</time>
      </trkpt>
      <trkpt lat="43.282385" lon="-5.987919">
        <ele>225.0</ele>
        <time>2012-06-05T06:54:38Z</time>
      </trkpt>
      <trkpt lat="43.282205" lon="-5.988083">
        <ele>225.0</ele>
        <time>2012-06-05T06:54:42Z</time>
      </trkpt>
      <trkpt lat="43.282031" lon="-5.988241">
        <ele>224.0</ele>
        <time>2012-06-05T06:54:46Z</time>
      </trkpt>
      <trkpt lat="43.281848" lon="-5.988382">
        <ele>225.0</ele>
        <time>2012-06-05T06:54:50Z</time>
      </trkpt>
      <trkpt lat="43.281679" lon="-5.988525">
        <ele>225.0</ele>
        <time>2012-06-05T06:54:54Z</time>
      </trkpt>
      <trkpt lat="43.281537" lon="-5.988718">
        <ele>225.0</ele>
        <time>2012-06-05T06:54:58Z</time>
      </trkpt>
      <trkpt lat="43.281416" lon="-5.988919">
        <ele>226.0</ele>
        <time>2012-06-05T06:55:02Z</time>
      </trkpt>
      <trkpt lat="43.281317" lon="-5.989104">
        <ele>227.0</ele>
        <time>2012-06-05T06:55:06Z</time>
      </trkpt>
      <trkpt lat="43.281216" lon="-5.989277">
        <ele>227.0</ele>
        <time>2012-06-05T06:55:10Z</time>
      </trkpt>
      <trkpt lat="43.281109" lon="-5.989424">
        <ele>228.0</ele>
        <time>2012-06-05T06:55:14Z</time>
      </trkpt>
      <trkpt lat="43.280995" lon="-5.989564">
        <ele>228.0</ele>
        <time>2012-06-05T06:55:18Z</time>
      </trkpt>
      <trkpt lat="43.28088" lon="-5.989716">
        <ele>229.0</ele>
        <time>2012-06-05T06:55:22Z</time>
      </trkpt>
      <trkpt lat="43.280774" lon="-5.98987">
        <ele>230.0</ele>
        <time>2012-06-05T06:55:26Z</time>
      </trkpt>
      <trkpt lat="43.280667" lon="-5.990032">
        <ele>230.0</ele>
        <time>2012-06-05T06:55:30Z</time>
      </trkpt>
      <trkpt lat="43.280559" lon="-5.990186">
        <ele>230.0</ele>
        <time>2012-06-05T06:55:34Z</time>
      </trkpt>
      <trkpt lat="43.280425" lon="-5.990304">
        <ele>230.0</ele>
        <time>2012-06-05T06:55:38Z</time>
      </trkpt>
      <trkpt lat="43.280282" lon="-5.990406">
        <ele>231.0</ele>
        <time>2012-06-05T06:55:42Z</time>
      </trkpt>
      <trkpt lat="43.280136" lon="-5.990468">
        <ele>231.0</ele>
        <time>2012-06-05T06:55:46Z</time>
      </trkpt>
      <trkpt lat="43.279991" lon="-5.990499">
        <ele>231.0</ele>
        <time>2012-06-05T06:55:50Z</time>
      </trkpt>
      <trkpt lat="43.279835" lon="-5.990459">
        <ele>231.0</ele>
        <time>2012-06-05T06:55:54Z</time>
      </trkpt>
      <trkpt lat="43.279676" lon="-5.990371">
        <ele>232.0</ele>
        <time>2012-06-05T06:55:58Z</time>
      </trkpt>
      <trkpt lat="43.27951" lon="-5.990266">
        <ele>232.0</ele>
        <time>2012-06-05T06:56:02Z</time>
      </trkpt>
      <trkpt lat="43.279125" lon="-5.990175">
        <ele>234.0</ele>
        <time>2012-06-05T06:56:10Z</time>
      </trkpt>
      <trkpt lat="43.278845" lon="-5.990127">
        <ele>235.0</ele>
        <time>2012-06-05T06:56:14Z</time>
      </trkpt>
      <trkpt lat="43.27854" lon="-5.990075">
        <ele>235.0</ele>
        <time>2012-06-05T06:56:18Z</time>
      </trkpt>
      <trkpt lat="43.278288" lon="-5.990126">
        <ele>235.0</ele>
        <time>2012-06-05T06:56:21Z</time>
      </trkpt>
      <trkpt lat="43.277893" lon="-5.990407">
        <ele>235.0</ele>
        <time>2012-06-05T06:56:26Z</time>
      </trkpt>
      <trkpt lat="43.277585" lon="-5.990653">
        <ele>235.0</ele>
        <time>2012-06-05T06:56:30Z</time>
      </trkpt>
      <trkpt lat="43.277346" lon="-5.991005">
        <ele>236.0</ele>
        <time>2012-06-05T06:56:34Z</time>
      </trkpt>
      <trkpt lat="43.277102" lon="-5.99132">
        <ele>237.0</ele>
        <time>2012-06-05T06:56:38Z</time>
      </trkpt>
      <trkpt lat="43.276872" lon="-5.99161">
        <ele>237.0</ele>
        <time>2012-06-05T06:56:42Z</time>
      </trkpt>
      <trkpt lat="43.276652" lon="-5.991852">
        <ele>237.0</ele>
        <time>2012-06-05T06:56:46Z</time>
      </trkpt>
      <trkpt lat="43.276436" lon="-5.992087">
        <ele>237.0</ele>
        <time>2012-06-05T06:56:50Z</time>
      </trkpt>
      <trkpt lat="43.276245" lon="-5.992327">
        <ele>238.0</ele>
        <time>2012-06-05T06:56:54Z</time>
      </trkpt>
      <trkpt lat="43.276066" lon="-5.992583">
        <ele>238.0</ele>
        <time>2012-06-05T06:56:58Z</time>
      </trkpt>
      <trkpt lat="43.275901" lon="-5.992883">
        <ele>239.0</ele>
        <time>2012-06-05T06:57:02Z</time>
      </trkpt>
      <trkpt lat="43.275724" lon="-5.993189">
        <ele>239.0</ele>
        <time>2012-06-05T06:57:06Z</time>
      </trkpt>
      <trkpt lat="43.275523" lon="-5.993485">
        <ele>240.0</ele>
        <time>2012-06-05T06:57:10Z</time>
      </trkpt>
      <trkpt lat="43.275308" lon="-5.993779">
        <ele>241.0</ele>
        <time>2012-06-05T06:57:14Z</time>
      </trkpt>
      <trkpt lat="43.275099" lon="-5.994089">
        <ele>241.0</ele>
        <time>2012-06-05T06:57:18Z</time>
      </trkpt>
      <trkpt lat="43.274919" lon="-5.994463">
        <ele>241.0</ele>
        <time>2012-06-05T06:57:22Z</time>
      </trkpt>
      <trkpt lat="43.274771" lon="-5.994882">
        <ele>242.0</ele>
        <time>2012-06-05T06:57:26Z</time>
      </trkpt>
      <trkpt lat="43.274698" lon="-5.995334">
        <ele>243.0</ele>
        <time>2012-06-05T06:57:30Z</time>
      </trkpt>
      <trkpt lat="43.274668" lon="-5.995775">
        <ele>244.0</ele>
        <time>2012-06-05T06:57:34Z</time>
      </trkpt>
      <trkpt lat="43.274667" lon="-5.996213">
        <ele>245.0</ele>
        <time>2012-06-05T06:57:38Z</time>
      </trkpt>
      <trkpt lat="43.274628" lon="-5.996647">
        <ele>245.0</ele>
        <time>2012-06-05T06:57:42Z</time>
      </trkpt>
      <trkpt lat="43.27455" lon="-5.997077">
        <ele>245.0</ele>
        <time>2012-06-05T06:57:46Z</time>
      </trkpt>
      <trkpt lat="43.274411" lon="-5.997459">
        <ele>245.0</ele>
        <time>2012-06-05T06:57:50Z</time>
      </trkpt>
      <trkpt lat="43.274126" lon="-5.997706">
        <ele>245.0</ele>
        <time>2012-06-05T06:57:54Z</time>
      </trkpt>
      <trkpt lat="43.273833" lon="-5.997931">
        <ele>245.0</ele>
        <time>2012-06-05T06:57:58Z</time>
      </trkpt>
      <trkpt lat="43.273539" lon="-5.998166">
        <ele>244.0</ele>
        <time>2012-06-05T06:58:02Z</time>
      </trkpt>
      <trkpt lat="43.273251" lon="-5.998419">
        <ele>244.0</ele>
        <time>2012-06-05T06:58:06Z</time>
      </trkpt>
      <trkpt lat="43.273046" lon="-5.998639">
        <ele>244.0</ele>
        <time>2012-06-05T06:58:09Z</time>
      </trkpt>
      <trkpt lat="43.272763" lon="-5.9991">
        <ele>244.0</ele>
        <time>2012-06-05T06:58:14Z</time>
      </trkpt>
      <trkpt lat="43.272553" lon="-5.999486">
        <ele>244.0</ele>
        <time>2012-06-05T06:58:18Z</time>
      </trkpt>
      <trkpt lat="43.272364" lon="-5.999877">
        <ele>244.0</ele>
        <time>2012-06-05T06:58:22Z</time>
      </trkpt>
      <trkpt lat="43.272169" lon="-6.000253">
        <ele>244.0</ele>
        <time>2012-06-05T06:58:26Z</time>
      </trkpt>
      <trkpt lat="43.271927" lon="-6.000576">
        <ele>244.0</ele>
        <time>2012-06-05T06:58:30Z</time>
      </trkpt>
      <trkpt lat="43.271723" lon="-6.000759">
        <ele>244.0</ele>
        <time>2012-06-05T06:58:33Z</time>
      </trkpt>
      <trkpt lat="43.271359" lon="-6.000957">
        <ele>244.0</ele>
        <time>2012-06-05T06:58:38Z</time>
      </trkpt>
      <trkpt lat="43.271075" lon="-6.001099">
        <ele>244.0</ele>
        <time>2012-06-05T06:58:42Z</time>
      </trkpt>
      <trkpt lat="43.270775" lon="-6.001243">
        <ele>244.0</ele>
        <time>2012-06-05T06:58:46Z</time>
      </trkpt>
      <trkpt lat="43.27047" lon="-6.001377">
        <ele>244.0</ele>
        <time>2012-06-05T06:58:50Z</time>
      </trkpt>
      <trkpt lat="43.270164" lon="-6.001511">
        <ele>245.0</ele>
        <time>2012-06-05T06:58:54Z</time>
      </trkpt>
      <trkpt lat="43.269856" lon="-6.001636">
        <ele>245.0</ele>
        <time>2012-06-05T06:58:58Z</time>
      </trkpt>
      <trkpt lat="43.269548" lon="-6.001783">
        <ele>245.0</ele>
        <time>2012-06-05T06:59:02Z</time>
      </trkpt>
      <trkpt lat="43.269251" lon="-6.001989">
        <ele>245.0</ele>
        <time>2012-06-05T06:59:06Z</time>
      </trkpt>
      <trkpt lat="43.268956" lon="-6.002221">
        <ele>245.0</ele>
        <time>2012-06-05T06:59:10Z</time>
      </trkpt>
      <trkpt lat="43.268682" lon="-6.002498">
        <ele>245.0</ele>
        <time>2012-06-05T06:59:14Z</time>
      </trkpt>
      <trkpt lat="43.268437" lon="-6.002798">
        <ele>245.0</ele>
        <time>2012-06-05T06:59:18Z</time>
      </trkpt>
      <trkpt lat="43.268205" lon="-6.003086">
        <ele>245.0</ele>
        <time>2012-06-05T06:59:22Z</time>
      </trkpt>
      <trkpt lat="43.267954" lon="-6.00331">
        <ele>245.0</ele>
        <time>2012-06-05T06:59:26Z</time>
      </trkpt>
      <trkpt lat="43.267792" lon="-6.003424">
        <ele>245.0</ele>
        <time>2012-06-05T06:59:29Z</time>
      </trkpt>
      <trkpt lat="43.267581" lon="-6.003549">
        <ele>244.0</ele>
        <time>2012-06-05T06:59:33Z</time>
      </trkpt>
      <trkpt lat="43.267375" lon="-6.003674">
        <ele>245.0</ele>
        <time>2012-06-05T06:59:37Z</time>
      </trkpt>
      <trkpt lat="43.267071" lon="-6.003788">
        <ele>244.0</ele>
        <time>2012-06-05T06:59:42Z</time>
      </trkpt>
      <trkpt lat="43.266814" lon="-6.003906">
        <ele>244.0</ele>
        <time>2012-06-05T06:59:46Z</time>
      </trkpt>
      <trkpt lat="43.266549" lon="-6.004027">
        <ele>244.0</ele>
        <time>2012-06-05T06:59:50Z</time>
      </trkpt>
      <trkpt lat="43.266279" lon="-6.004141">
        <ele>245.0</ele>
        <time>2012-06-05T06:59:54Z</time>
      </trkpt>
      <trkpt lat="43.266011" lon="-6.004252">
        <ele>245.0</ele>
        <time>2012-06-05T06:59:58Z</time>
      </trkpt>
      <trkpt lat="43.265737" lon="-6.004322">
        <ele>246.0</ele>
        <time>2012-06-05T07:00:02Z</time>
      </trkpt>
      <trkpt lat="43.265447" lon="-6.004349">
        <ele>246.0</ele>
        <time>2012-06-05T07:00:06Z</time>
      </trkpt>
      <trkpt lat="43.265148" lon="-6.004388">
        <ele>246.0</ele>
        <time>2012-06-05T07:00:10Z</time>
      </trkpt>
      <trkpt lat="43.264845" lon="-6.004463">
        <ele>246.0</ele>
        <time>2012-06-05T07:00:14Z</time>
      </trkpt>
      <trkpt lat="43.264523" lon="-6.00455">
        <ele>246.0</ele>
        <time>2012-06-05T07:00:18Z</time>
      </trkpt>
      <trkpt lat="43.264195" lon="-6.004637">
        <ele>246.0</ele>
        <time>2012-06-05T07:00:22Z</time>
      </trkpt>
      <trkpt lat="43.263868" lon="-6.004737">
        <ele>246.0</ele>
        <time>2012-06-05T07:00:26Z</time>
      </trkpt>
      <trkpt lat="43.26363" lon="-6.004808">
        <ele>246.0</ele>
        <time>2012-06-05T07:00:29Z</time>
      </trkpt>
      <trkpt lat="43.263233" lon="-6.004915">
        <ele>247.0</ele>
        <time>2012-06-05T07:00:34Z</time>
      </trkpt>
      <trkpt lat="43.262929" lon="-6.00501">
        <ele>247.0</ele>
        <time>2012-06-05T07:00:38Z</time>
      </trkpt>
      <trkpt lat="43.262632" lon="-6.005111">
        <ele>247.0</ele>
        <time>2012-06-05T07:00:42Z</time>
      </trkpt>
      <trkpt lat="43.26249" lon="-6.005174">
        <ele>247.0</ele>
        <time>2012-06-05T07:00:44Z</time>
      </trkpt>
      <trkpt lat="43.262102" lon="-6.005453">
        <ele>247.0</ele>
        <time>2012-06-05T07:00:50Z</time>
      </trkpt>
      <trkpt lat="43.262039" lon="-6.005759">
        <ele>249.0</ele>
        <time>2012-06-05T07:00:54Z</time>
      </trkpt>
      <trkpt lat="43.262054" lon="-6.006132">
        <ele>250.0</ele>
        <time>2012-06-05T07:00:58Z</time>
      </trkpt>
      <trkpt lat="43.26207" lon="-6.006424">
        <ele>250.0</ele>
        <time>2012-06-05T07:01:01Z</time>
      </trkpt>
      <trkpt lat="43.262018" lon="-6.006795">
        <ele>251.0</ele>
        <time>2012-06-05T07:01:05Z</time>
      </trkpt>
      <trkpt lat="43.26189" lon="-6.007014">
        <ele>251.0</ele>
        <time>2012-06-05T07:01:08Z</time>
      </trkpt>
      <trkpt lat="43.261581" lon="-6.007228">
        <ele>252.0</ele>
        <time>2012-06-05T07:01:13Z</time>
      </trkpt>
      <trkpt lat="43.261381" lon="-6.007358">
        <ele>253.0</ele>
        <time>2012-06-05T07:01:16Z</time>
      </trkpt>
      <trkpt lat="43.260958" lon="-6.007614">
        <ele>252.0</ele>
        <time>2012-06-05T07:01:22Z</time>
      </trkpt>
      <trkpt lat="43.260685" lon="-6.007759">
        <ele>252.0</ele>
        <time>2012-06-05T07:01:26Z</time>
      </trkpt>
      <trkpt lat="43.260429" lon="-6.007899">
        <ele>253.0</ele>
        <time>2012-06-05T07:01:30Z</time>
      </trkpt>
      <trkpt lat="43.260183" lon="-6.008039">
        <ele>253.0</ele>
        <time>2012-06-05T07:01:34Z</time>
      </trkpt>
      <trkpt lat="43.260012" lon="-6.008142">
        <ele>253.0</ele>
        <time>2012-06-05T07:01:37Z</time>
      </trkpt>
      <trkpt lat="43.259809" lon="-6.008293">
        <ele>254.0</ele>
        <time>2012-06-05T07:01:41Z</time>
      </trkpt>
      <trkpt lat="43.259642" lon="-6.00847">
        <ele>255.0</ele>
        <time>2012-06-05T07:01:45Z</time>
      </trkpt>
      <trkpt lat="43.259499" lon="-6.008682">
        <ele>255.0</ele>
        <time>2012-06-05T07:01:49Z</time>
      </trkpt>
      <trkpt lat="43.259388" lon="-6.008959">
        <ele>256.0</ele>
        <time>2012-06-05T07:01:53Z</time>
      </trkpt>
      <trkpt lat="43.259304" lon="-6.009263">
        <ele>257.0</ele>
        <time>2012-06-05T07:01:57Z</time>
      </trkpt>
      <trkpt lat="43.259209" lon="-6.009551">
        <ele>257.0</ele>
        <time>2012-06-05T07:02:01Z</time>
      </trkpt>
      <trkpt lat="43.259084" lon="-6.009802">
        <ele>258.0</ele>
        <time>2012-06-05T07:02:05Z</time>
      </trkpt>
      <trkpt lat="43.258921" lon="-6.010012">
        <ele>258.0</ele>
        <time>2012-06-05T07:02:09Z</time>
      </trkpt>
      <trkpt lat="43.258755" lon="-6.010234">
        <ele>258.0</ele>
        <time>2012-06-05T07:02:13Z</time>
      </trkpt>
      <trkpt lat="43.258579" lon="-6.010465">
        <ele>258.0</ele>
        <time>2012-06-05T07:02:17Z</time>
      </trkpt>
      <trkpt lat="43.258327" lon="-6.010766">
        <ele>259.0</ele>
        <time>2012-06-05T07:02:22Z</time>
      </trkpt>
      <trkpt lat="43.2581" lon="-6.011034">
        <ele>259.0</ele>
        <time>2012-06-05T07:02:26Z</time>
      </trkpt>
      <trkpt lat="43.257868" lon="-6.011302">
        <ele>259.0</ele>
        <time>2012-06-05T07:02:30Z</time>
      </trkpt>
      <trkpt lat="43.257636" lon="-6.011567">
        <ele>259.0</ele>
        <time>2012-06-05T07:02:34Z</time>
      </trkpt>
      <trkpt lat="43.257351" lon="-6.011775">
        <ele>259.0</ele>
        <time>2012-06-05T07:02:38Z</time>
      </trkpt>
      <trkpt lat="43.25707" lon="-6.01193">
        <ele>258.0</ele>
        <time>2012-06-05T07:02:42Z</time>
      </trkpt>
      <trkpt lat="43.256801" lon="-6.012056">
        <ele>258.0</ele>
        <time>2012-06-05T07:02:46Z</time>
      </trkpt>
      <trkpt lat="43.256547" lon="-6.012203">
        <ele>257.0</ele>
        <time>2012-06-05T07:02:50Z</time>
      </trkpt>
      <trkpt lat="43.2563" lon="-6.012401">
        <ele>257.0</ele>
        <time>2012-06-05T07:02:54Z</time>
      </trkpt>
      <trkpt lat="43.256187" lon="-6.012514">
        <ele>257.0</ele>
        <time>2012-06-05T07:02:56Z</time>
      </trkpt>
      <trkpt lat="43.255968" lon="-6.012886">
        <ele>257.0</ele>
        <time>2012-06-05T07:03:02Z</time>
      </trkpt>
      <trkpt lat="43.25583" lon="-6.013108">
        <ele>258.0</ele>
        <time>2012-06-05T07:03:06Z</time>
      </trkpt>
      <trkpt lat="43.255673" lon="-6.013288">
        <ele>258.0</ele>
        <time>2012-06-05T07:03:10Z</time>
      </trkpt>
      <trkpt lat="43.255516" lon="-6.013479">
        <ele>259.0</ele>
        <time>2012-06-05T07:03:14Z</time>
      </trkpt>
      <trkpt lat="43.255178" lon="-6.013903">
        <ele>261.0</ele>
        <time>2012-06-05T07:03:22Z</time>
      </trkpt>
      <trkpt lat="43.254983" lon="-6.014077">
        <ele>262.0</ele>
        <time>2012-06-05T07:03:26Z</time>
      </trkpt>
      <trkpt lat="43.254794" lon="-6.014248">
        <ele>262.0</ele>
        <time>2012-06-05T07:03:30Z</time>
      </trkpt>
      <trkpt lat="43.254584" lon="-6.014371">
        <ele>262.0</ele>
        <time>2012-06-05T07:03:34Z</time>
      </trkpt>
      <trkpt lat="43.254377" lon="-6.01451">
        <ele>263.0</ele>
        <time>2012-06-05T07:03:38Z</time>
      </trkpt>
      <trkpt lat="43.254164" lon="-6.014648">
        <ele>263.0</ele>
        <time>2012-06-05T07:03:42Z</time>
      </trkpt>
      <trkpt lat="43.253946" lon="-6.014808">
        <ele>264.0</ele>
        <time>2012-06-05T07:03:46Z</time>
      </trkpt>
      <trkpt lat="43.253717" lon="-6.014968">
        <ele>264.0</ele>
        <time>2012-06-05T07:03:50Z</time>
      </trkpt>
      <trkpt lat="43.253482" lon="-6.015134">
        <ele>264.0</ele>
        <time>2012-06-05T07:03:54Z</time>
      </trkpt>
      <trkpt lat="43.25325" lon="-6.015321">
        <ele>265.0</ele>
        <time>2012-06-05T07:03:58Z</time>
      </trkpt>
      <trkpt lat="43.253023" lon="-6.015533">
        <ele>265.0</ele>
        <time>2012-06-05T07:04:02Z</time>
      </trkpt>
      <trkpt lat="43.25279" lon="-6.015738">
        <ele>265.0</ele>
        <time>2012-06-05T07:04:06Z</time>
      </trkpt>
      <trkpt lat="43.252553" lon="-6.015947">
        <ele>265.0</ele>
        <time>2012-06-05T07:04:10Z</time>
      </trkpt>
      <trkpt lat="43.252312" lon="-6.016138">
        <ele>265.0</ele>
        <time>2012-06-05T07:04:14Z</time>
      </trkpt>
      <trkpt lat="43.252084" lon="-6.016355">
        <ele>265.0</ele>
        <time>2012-06-05T07:04:18Z</time>
      </trkpt>
      <trkpt lat="43.25186" lon="-6.016571">
        <ele>265.0</ele>
        <time>2012-06-05T07:04:22Z</time>
      </trkpt>
      <trkpt lat="43.251602" lon="-6.016711">
        <ele>265.0</ele>
        <time>2012-06-05T07:04:26Z</time>
      </trkpt>
      <trkpt lat="43.251343" lon="-6.016846">
        <ele>265.0</ele>
        <time>2012-06-05T07:04:30Z</time>
      </trkpt>
      <trkpt lat="43.251103" lon="-6.017028">
        <ele>266.0</ele>
        <time>2012-06-05T07:04:34Z</time>
      </trkpt>
      <trkpt lat="43.250871" lon="-6.017248">
        <ele>266.0</ele>
        <time>2012-06-05T07:04:38Z</time>
      </trkpt>
      <trkpt lat="43.250631" lon="-6.017439">
        <ele>267.0</ele>
        <time>2012-06-05T07:04:42Z</time>
      </trkpt>
      <trkpt lat="43.250393" lon="-6.01765">
        <ele>267.0</ele>
        <time>2012-06-05T07:04:46Z</time>
      </trkpt>
      <trkpt lat="43.250164" lon="-6.017891">
        <ele>267.0</ele>
        <time>2012-06-05T07:04:50Z</time>
      </trkpt>
      <trkpt lat="43.249931" lon="-6.018173">
        <ele>267.0</ele>
        <time>2012-06-05T07:04:54Z</time>
      </trkpt>
      <trkpt lat="43.249775" lon="-6.018552">
        <ele>267.0</ele>
        <time>2012-06-05T07:04:58Z</time>
      </trkpt>
      <trkpt lat="43.249672" lon="-6.018976">
        <ele>267.0</ele>
        <time>2012-06-05T07:05:02Z</time>
      </trkpt>
      <trkpt lat="43.249719" lon="-6.019404">
        <ele>268.0</ele>
        <time>2012-06-05T07:05:06Z</time>
      </trkpt>
      <trkpt lat="43.249786" lon="-6.019793">
        <ele>269.0</ele>
        <time>2012-06-05T07:05:10Z</time>
      </trkpt>
      <trkpt lat="43.249818" lon="-6.020038">
        <ele>269.0</ele>
        <time>2012-06-05T07:05:13Z</time>
      </trkpt>
      <trkpt lat="43.249897" lon="-6.020336">
        <ele>269.0</ele>
        <time>2012-06-05T07:05:17Z</time>
      </trkpt>
      <trkpt lat="43.249968" lon="-6.020641">
        <ele>270.0</ele>
        <time>2012-06-05T07:05:21Z</time>
      </trkpt>
      <trkpt lat="43.249993" lon="-6.021077">
        <ele>269.0</ele>
        <time>2012-06-05T07:05:26Z</time>
      </trkpt>
      <trkpt lat="43.24995" lon="-6.021351">
        <ele>269.0</ele>
        <time>2012-06-05T07:05:29Z</time>
      </trkpt>
      <trkpt lat="43.249954" lon="-6.021807">
        <ele>270.0</ele>
        <time>2012-06-05T07:05:34Z</time>
      </trkpt>
      <trkpt lat="43.250063" lon="-6.022162">
        <ele>270.0</ele>
        <time>2012-06-05T07:05:38Z</time>
      </trkpt>
      <trkpt lat="43.250167" lon="-6.022518">
        <ele>271.0</ele>
        <time>2012-06-05T07:05:42Z</time>
      </trkpt>
      <trkpt lat="43.250271" lon="-6.022862">
        <ele>271.0</ele>
        <time>2012-06-05T07:05:46Z</time>
      </trkpt>
      <trkpt lat="43.250373" lon="-6.0232">
        <ele>271.0</ele>
        <time>2012-06-05T07:05:50Z</time>
      </trkpt>
      <trkpt lat="43.250403" lon="-6.023621">
        <ele>271.0</ele>
        <time>2012-06-05T07:05:54Z</time>
      </trkpt>
      <trkpt lat="43.250298" lon="-6.024079">
        <ele>271.0</ele>
        <time>2012-06-05T07:05:58Z</time>
      </trkpt>
      <trkpt lat="43.250102" lon="-6.024337">
        <ele>272.0</ele>
        <time>2012-06-05T07:06:02Z</time>
      </trkpt>
      <trkpt lat="43.249803" lon="-6.024419">
        <ele>274.0</ele>
        <time>2012-06-05T07:06:06Z</time>
      </trkpt>
      <trkpt lat="43.2495" lon="-6.024477">
        <ele>274.0</ele>
        <time>2012-06-05T07:06:10Z</time>
      </trkpt>
      <trkpt lat="43.249205" lon="-6.024543">
        <ele>274.0</ele>
        <time>2012-06-05T07:06:14Z</time>
      </trkpt>
      <trkpt lat="43.248924" lon="-6.024608">
        <ele>274.0</ele>
        <time>2012-06-05T07:06:18Z</time>
      </trkpt>
      <trkpt lat="43.248831" lon="-6.024657">
        <ele>275.0</ele>
        <time>2012-06-05T07:06:20Z</time>
      </trkpt>
      <trkpt lat="43.248439" lon="-6.024752">
        <ele>277.0</ele>
        <time>2012-06-05T07:06:26Z</time>
      </trkpt>
      <trkpt lat="43.248077" lon="-6.024729">
        <ele>278.0</ele>
        <time>2012-06-05T07:06:30Z</time>
      </trkpt>
      <trkpt lat="43.247747" lon="-6.024733">
        <ele>279.0</ele>
        <time>2012-06-05T07:06:34Z</time>
      </trkpt>
      <trkpt lat="43.247439" lon="-6.024755">
        <ele>280.0</ele>
        <time>2012-06-05T07:06:38Z</time>
      </trkpt>
      <trkpt lat="43.247199" lon="-6.024904">
        <ele>282.0</ele>
        <time>2012-06-05T07:06:42Z</time>
      </trkpt>
      <trkpt lat="43.246978" lon="-6.025086">
        <ele>283.0</ele>
        <time>2012-06-05T07:06:46Z</time>
      </trkpt>
      <trkpt lat="43.246871" lon="-6.025181">
        <ele>284.0</ele>
        <time>2012-06-05T07:06:48Z</time>
      </trkpt>
      <trkpt lat="43.246555" lon="-6.025442">
        <ele>284.0</ele>
        <time>2012-06-05T07:06:54Z</time>
      </trkpt>
      <trkpt lat="43.246349" lon="-6.025569">
        <ele>285.0</ele>
        <time>2012-06-05T07:06:58Z</time>
      </trkpt>
      <trkpt lat="43.246143" lon="-6.025669">
        <ele>285.0</ele>
        <time>2012-06-05T07:07:02Z</time>
      </trkpt>
      <trkpt lat="43.245936" lon="-6.025759">
        <ele>285.0</ele>
        <time>2012-06-05T07:07:06Z</time>
      </trkpt>
      <trkpt lat="43.245715" lon="-6.025834">
        <ele>286.0</ele>
        <time>2012-06-05T07:07:10Z</time>
      </trkpt>
      <trkpt lat="43.245481" lon="-6.025869">
        <ele>286.0</ele>
        <time>2012-06-05T07:07:14Z</time>
      </trkpt>
      <trkpt lat="43.245214" lon="-6.025892">
        <ele>287.0</ele>
        <time>2012-06-05T07:07:18Z</time>
      </trkpt>
      <trkpt lat="43.244954" lon="-6.026">
        <ele>287.0</ele>
        <time>2012-06-05T07:07:22Z</time>
      </trkpt>
      <trkpt lat="43.244678" lon="-6.026089">
        <ele>288.0</ele>
        <time>2012-06-05T07:07:26Z</time>
      </trkpt>
      <trkpt lat="43.2444" lon="-6.026179">
        <ele>289.0</ele>
        <time>2012-06-05T07:07:30Z</time>
      </trkpt>
      <trkpt lat="43.244196" lon="-6.026254">
        <ele>289.0</ele>
        <time>2012-06-05T07:07:33Z</time>
      </trkpt>
      <trkpt lat="43.243895" lon="-6.026424">
        <ele>291.0</ele>
        <time>2012-06-05T07:07:38Z</time>
      </trkpt>
      <trkpt lat="43.243629" lon="-6.026556">
        <ele>291.0</ele>
        <time>2012-06-05T07:07:42Z</time>
      </trkpt>
      <trkpt lat="43.243394" lon="-6.026734">
        <ele>292.0</ele>
        <time>2012-06-05T07:07:46Z</time>
      </trkpt>
      <trkpt lat="43.243176" lon="-6.026941">
        <ele>292.0</ele>
        <time>2012-06-05T07:07:50Z</time>
      </trkpt>
      <trkpt lat="43.243004" lon="-6.027201">
        <ele>292.0</ele>
        <time>2012-06-05T07:07:54Z</time>
      </trkpt>
      <trkpt lat="43.242866" lon="-6.027498">
        <ele>293.0</ele>
        <time>2012-06-05T07:07:58Z</time>
      </trkpt>
      <trkpt lat="43.242758" lon="-6.027708">
        <ele>293.0</ele>
        <time>2012-06-05T07:08:01Z</time>
      </trkpt>
      <trkpt lat="43.242506" lon="-6.027969">
        <ele>293.0</ele>
        <time>2012-06-05T07:08:06Z</time>
      </trkpt>
      <trkpt lat="43.242289" lon="-6.028162">
        <ele>294.0</ele>
        <time>2012-06-05T07:08:10Z</time>
      </trkpt>
      <trkpt lat="43.242072" lon="-6.028368">
        <ele>294.0</ele>
        <time>2012-06-05T07:08:14Z</time>
      </trkpt>
      <trkpt lat="43.241905" lon="-6.028523">
        <ele>294.0</ele>
        <time>2012-06-05T07:08:17Z</time>
      </trkpt>
      <trkpt lat="43.241755" lon="-6.028892">
        <ele>294.0</ele>
        <time>2012-06-05T07:08:22Z</time>
      </trkpt>
      <trkpt lat="43.24161" lon="-6.029182">
        <ele>295.0</ele>
        <time>2012-06-05T07:08:26Z</time>
      </trkpt>
      <trkpt lat="43.24139" lon="-6.029431">
        <ele>295.0</ele>
        <time>2012-06-05T07:08:30Z</time>
      </trkpt>
      <trkpt lat="43.241204" lon="-6.029708">
        <ele>295.0</ele>
        <time>2012-06-05T07:08:34Z</time>
      </trkpt>
      <trkpt lat="43.24111" lon="-6.03002">
        <ele>295.0</ele>
        <time>2012-06-05T07:08:38Z</time>
      </trkpt>
      <trkpt lat="43.240971" lon="-6.030343">
        <ele>294.0</ele>
        <time>2012-06-05T07:08:42Z</time>
      </trkpt>
      <trkpt lat="43.240794" lon="-6.030653">
        <ele>294.0</ele>
        <time>2012-06-05T07:08:46Z</time>
      </trkpt>
      <trkpt lat="43.240644" lon="-6.030953">
        <ele>293.0</ele>
        <time>2012-06-05T07:08:50Z</time>
      </trkpt>
      <trkpt lat="43.240538" lon="-6.031166">
        <ele>292.0</ele>
        <time>2012-06-05T07:08:53Z</time>
      </trkpt>
      <trkpt lat="43.240474" lon="-6.031302">
        <ele>292.0</ele>
        <time>2012-06-05T07:08:55Z</time>
      </trkpt>
      <trkpt lat="43.2402" lon="-6.031533">
        <ele>293.0</ele>
        <time>2012-06-05T07:09:01Z</time>
      </trkpt>
      <trkpt lat="43.240112" lon="-6.031575">
        <ele>294.0</ele>
        <time>2012-06-05T07:09:03Z</time>
      </trkpt>
      <trkpt lat="43.239913" lon="-6.03173">
        <ele>296.0</ele>
        <time>2012-06-05T07:09:09Z</time>
      </trkpt>
      <trkpt lat="43.239861" lon="-6.031786">
        <ele>296.0</ele>
        <time>2012-06-05T07:09:11Z</time>
      </trkpt>
      <trkpt lat="43.239698" lon="-6.031962">
        <ele>296.0</ele>
        <time>2012-06-05T07:09:17Z</time>
      </trkpt>
      <trkpt lat="43.239575" lon="-6.03207">
        <ele>296.0</ele>
        <time>2012-06-05T07:09:21Z</time>
      </trkpt>
      <trkpt lat="43.239286" lon="-6.032111">
        <ele>299.0</ele>
        <time>2012-06-05T07:09:26Z</time>
      </trkpt>
      <trkpt lat="43.238926" lon="-6.032094">
        <ele>304.0</ele>
        <time>2012-06-05T07:09:30Z</time>
      </trkpt>
      <trkpt lat="43.238514" lon="-6.032088">
        <ele>305.0</ele>
        <time>2012-06-05T07:09:34Z</time>
      </trkpt>
      <trkpt lat="43.238161" lon="-6.032103">
        <ele>305.0</ele>
        <time>2012-06-05T07:09:38Z</time>
      </trkpt>
      <trkpt lat="43.237861" lon="-6.032149">
        <ele>306.0</ele>
        <time>2012-06-05T07:09:42Z</time>
      </trkpt>
      <trkpt lat="43.2376" lon="-6.032229">
        <ele>306.0</ele>
        <time>2012-06-05T07:09:46Z</time>
      </trkpt>
      <trkpt lat="43.237361" lon="-6.03233">
        <ele>306.0</ele>
        <time>2012-06-05T07:09:50Z</time>
      </trkpt>
      <trkpt lat="43.237177" lon="-6.032399">
        <ele>306.0</ele>
        <time>2012-06-05T07:09:53Z</time>
      </trkpt>
      <trkpt lat="43.236869" lon="-6.032503">
        <ele>307.0</ele>
        <time>2012-06-05T07:09:58Z</time>
      </trkpt>
      <trkpt lat="43.236681" lon="-6.032556">
        <ele>308.0</ele>
        <time>2012-06-05T07:10:01Z</time>
      </trkpt>
      <trkpt lat="43.236212" lon="-6.03281">
        <ele>311.0</ele>
        <time>2012-06-05T07:10:10Z</time>
      </trkpt>
      <trkpt lat="43.235917" lon="-6.032867">
        <ele>312.0</ele>
        <time>2012-06-05T07:10:14Z</time>
      </trkpt>
      <trkpt lat="43.235736" lon="-6.032967">
        <ele>312.0</ele>
        <time>2012-06-05T07:10:17Z</time>
      </trkpt>
      <trkpt lat="43.235469" lon="-6.033212">
        <ele>311.0</ele>
        <time>2012-06-05T07:10:22Z</time>
      </trkpt>
      <trkpt lat="43.235305" lon="-6.033368">
        <ele>310.0</ele>
        <time>2012-06-05T07:10:25Z</time>
      </trkpt>
      <trkpt lat="43.235014" lon="-6.03359">
        <ele>310.0</ele>
        <time>2012-06-05T07:10:30Z</time>
      </trkpt>
      <trkpt lat="43.234741" lon="-6.03375">
        <ele>311.0</ele>
        <time>2012-06-05T07:10:34Z</time>
      </trkpt>
      <trkpt lat="43.234428" lon="-6.03385">
        <ele>311.0</ele>
        <time>2012-06-05T07:10:38Z</time>
      </trkpt>
      <trkpt lat="43.234112" lon="-6.033888">
        <ele>312.0</ele>
        <time>2012-06-05T07:10:42Z</time>
      </trkpt>
      <trkpt lat="43.233897" lon="-6.033894">
        <ele>312.0</ele>
        <time>2012-06-05T07:10:45Z</time>
      </trkpt>
      <trkpt lat="43.233695" lon="-6.033973">
        <ele>312.0</ele>
        <time>2012-06-05T07:10:49Z</time>
      </trkpt>
      <trkpt lat="43.233571" lon="-6.034164">
        <ele>312.0</ele>
        <time>2012-06-05T07:10:53Z</time>
      </trkpt>
      <trkpt lat="43.233517" lon="-6.03427">
        <ele>312.0</ele>
        <time>2012-06-05T07:10:55Z</time>
      </trkpt>
      <trkpt lat="43.233517" lon="-6.03427">
        <time>2012-06-05T07:11:06Z</time>
      </trkpt>
    </trkseg>
    <trkseg>
      <trkpt lat="43.233517" lon="-6.03427">
        <time>2012-06-05T07:11:37Z</time>
      </trkpt>
      <trkpt lat="43.230703" lon="-6.035969">
        <ele>312.0</ele>
        <time>2012-06-05T07:11:42Z</time>
      </trkpt>
      <trkpt lat="43.230532" lon="-6.03659">
        <ele>313.0</ele>
        <time>2012-06-05T07:11:49Z</time>
      </trkpt>
      <trkpt lat="43.230385" lon="-6.03683">
        <ele>313.0</ele>
        <time>2012-06-05T07:11:52Z</time>
      </trkpt>
      <trkpt lat="43.230228" lon="-6.037074">
        <ele>314.0</ele>
        <time>2012-06-05T07:11:56Z</time>
      </trkpt>
      <trkpt lat="43.230047" lon="-6.037278">
        <ele>315.0</ele>
        <time>2012-06-05T07:12:00Z</time>
      </trkpt>
      <trkpt lat="43.229862" lon="-6.03747">
        <ele>315.0</ele>
        <time>2012-06-05T07:12:04Z</time>
      </trkpt>
      <trkpt lat="43.229682" lon="-6.037687">
        <ele>316.0</ele>
        <time>2012-06-05T07:12:08Z</time>
      </trkpt>
      <trkpt lat="43.229441" lon="-6.037994">
        <ele>317.0</ele>
        <time>2012-06-05T07:12:13Z</time>
      </trkpt>
      <trkpt lat="43.229206" lon="-6.038212">
        <ele>318.0</ele>
        <time>2012-06-05T07:12:17Z</time>
      </trkpt>
      <trkpt lat="43.228935" lon="-6.038367">
        <ele>319.0</ele>
        <time>2012-06-05T07:12:21Z</time>
      </trkpt>
      <trkpt lat="43.228648" lon="-6.038462">
        <ele>319.0</ele>
        <time>2012-06-05T07:12:25Z</time>
      </trkpt>
      <trkpt lat="43.228365" lon="-6.038519">
        <ele>320.0</ele>
        <time>2012-06-05T07:12:29Z</time>
      </trkpt>
      <trkpt lat="43.228103" lon="-6.038594">
        <ele>320.0</ele>
        <time>2012-06-05T07:12:33Z</time>
      </trkpt>
      <trkpt lat="43.227856" lon="-6.038679">
        <ele>321.0</ele>
        <time>2012-06-05T07:12:37Z</time>
      </trkpt>
      <trkpt lat="43.22737" lon="-6.03877">
        <ele>321.0</ele>
        <time>2012-06-05T07:12:45Z</time>
      </trkpt>
      <trkpt lat="43.227114" lon="-6.038762">
        <ele>321.0</ele>
        <time>2012-06-05T07:12:49Z</time>
      </trkpt>
      <trkpt lat="43.226845" lon="-6.038744">
        <ele>322.0</ele>
        <time>2012-06-05T07:12:53Z</time>
      </trkpt>
      <trkpt lat="43.226561" lon="-6.038728">
        <ele>322.0</ele>
        <time>2012-06-05T07:12:57Z</time>
      </trkpt>
      <trkpt lat="43.226263" lon="-6.038727">
        <ele>322.0</ele>
        <time>2012-06-05T07:13:01Z</time>
      </trkpt>
      <trkpt lat="43.226039" lon="-6.038718">
        <ele>322.0</ele>
        <time>2012-06-05T07:13:04Z</time>
      </trkpt>
      <trkpt lat="43.225685" lon="-6.038703">
        <ele>322.0</ele>
        <time>2012-06-05T07:13:09Z</time>
      </trkpt>
      <trkpt lat="43.225412" lon="-6.038684">
        <ele>322.0</ele>
        <time>2012-06-05T07:13:13Z</time>
      </trkpt>
      <trkpt lat="43.225214" lon="-6.038641">
        <ele>322.0</ele>
        <time>2012-06-05T07:13:16Z</time>
      </trkpt>
      <trkpt lat="43.224901" lon="-6.038528">
        <ele>322.0</ele>
        <time>2012-06-05T07:13:21Z</time>
      </trkpt>
      <trkpt lat="43.224723" lon="-6.038445">
        <ele>322.0</ele>
        <time>2012-06-05T07:13:24Z</time>
      </trkpt>
      <trkpt lat="43.224483" lon="-6.038372">
        <ele>322.0</ele>
        <time>2012-06-05T07:13:28Z</time>
      </trkpt>
      <trkpt lat="43.224239" lon="-6.038298">
        <ele>322.0</ele>
        <time>2012-06-05T07:13:32Z</time>
      </trkpt>
      <trkpt lat="43.224119" lon="-6.038256">
        <ele>322.0</ele>
        <time>2012-06-05T07:13:34Z</time>
      </trkpt>
      <trkpt lat="43.223679" lon="-6.038186">
        <ele>323.0</ele>
        <time>2012-06-05T07:13:41Z</time>
      </trkpt>
      <trkpt lat="43.223407" lon="-6.038226">
        <ele>324.0</ele>
        <time>2012-06-05T07:13:45Z</time>
      </trkpt>
      <trkpt lat="43.223113" lon="-6.038267">
        <ele>324.0</ele>
        <time>2012-06-05T07:13:49Z</time>
      </trkpt>
      <trkpt lat="43.222817" lon="-6.038272">
        <ele>324.0</ele>
        <time>2012-06-05T07:13:53Z</time>
      </trkpt>
      <trkpt lat="43.222517" lon="-6.038251">
        <ele>324.0</ele>
        <time>2012-06-05T07:13:57Z</time>
      </trkpt>
      <trkpt lat="43.222217" lon="-6.038226">
        <ele>325.0</ele>
        <time>2012-06-05T07:14:01Z</time>
      </trkpt>
      <trkpt lat="43.22192" lon="-6.0382">
        <ele>325.0</ele>
        <time>2012-06-05T07:14:05Z</time>
      </trkpt>
      <trkpt lat="43.221624" lon="-6.038146">
        <ele>325.0</ele>
        <time>2012-06-05T07:14:09Z</time>
      </trkpt>
      <trkpt lat="43.221332" lon="-6.038081">
        <ele>325.0</ele>
        <time>2012-06-05T07:14:13Z</time>
      </trkpt>
      <trkpt lat="43.221035" lon="-6.038062">
        <ele>326.0</ele>
        <time>2012-06-05T07:14:17Z</time>
      </trkpt>
      <trkpt lat="43.220732" lon="-6.038079">
        <ele>326.0</ele>
        <time>2012-06-05T07:14:21Z</time>
      </trkpt>
      <trkpt lat="43.22043" lon="-6.0381">
        <ele>327.0</ele>
        <time>2012-06-05T07:14:25Z</time>
      </trkpt>
      <trkpt lat="43.220202" lon="-6.03811">
        <ele>327.0</ele>
        <time>2012-06-05T07:14:28Z</time>
      </trkpt>
      <trkpt lat="43.219823" lon="-6.038099">
        <ele>327.0</ele>
        <time>2012-06-05T07:14:33Z</time>
      </trkpt>
      <trkpt lat="43.219525" lon="-6.038157">
        <ele>327.0</ele>
        <time>2012-06-05T07:14:37Z</time>
      </trkpt>
      <trkpt lat="43.219306" lon="-6.038236">
        <ele>327.0</ele>
        <time>2012-06-05T07:14:40Z</time>
      </trkpt>
      <trkpt lat="43.218921" lon="-6.038302">
        <ele>327.0</ele>
        <time>2012-06-05T07:14:45Z</time>
      </trkpt>
      <trkpt lat="43.218622" lon="-6.038202">
        <ele>327.0</ele>
        <time>2012-06-05T07:14:49Z</time>
      </trkpt>
      <trkpt lat="43.218488" lon="-6.038119">
        <ele>328.0</ele>
        <time>2012-06-05T07:14:51Z</time>
      </trkpt>
      <trkpt lat="43.218078" lon="-6.037909">
        <ele>328.0</ele>
        <time>2012-06-05T07:14:57Z</time>
      </trkpt>
      <trkpt lat="43.217813" lon="-6.037762">
        <ele>328.0</ele>
        <time>2012-06-05T07:15:01Z</time>
      </trkpt>
      <trkpt lat="43.217558" lon="-6.03761">
        <ele>327.0</ele>
        <time>2012-06-05T07:15:05Z</time>
      </trkpt>
      <trkpt lat="43.217338" lon="-6.037495">
        <ele>327.0</ele>
        <time>2012-06-05T07:15:09Z</time>
      </trkpt>
      <trkpt lat="43.21714" lon="-6.037413">
        <ele>327.0</ele>
        <time>2012-06-05T07:15:13Z</time>
      </trkpt>
      <trkpt lat="43.216748" lon="-6.037341">
        <ele>328.0</ele>
        <time>2012-06-05T07:15:21Z</time>
      </trkpt>
      <trkpt lat="43.216643" lon="-6.037345">
        <ele>328.0</ele>
        <time>2012-06-05T07:15:23Z</time>
      </trkpt>
      <trkpt lat="43.216563" lon="-6.037812">
        <ele>332.0</ele>
        <time>2012-06-05T07:15:32Z</time>
      </trkpt>
      <trkpt lat="43.216622" lon="-6.038275">
        <ele>332.0</ele>
        <time>2012-06-05T07:15:37Z</time>
      </trkpt>
      <trkpt lat="43.216678" lon="-6.038642">
        <ele>331.0</ele>
        <time>2012-06-05T07:15:41Z</time>
      </trkpt>
      <trkpt lat="43.21674" lon="-6.038994">
        <ele>330.0</ele>
        <time>2012-06-05T07:15:45Z</time>
      </trkpt>
      <trkpt lat="43.216787" lon="-6.03936">
        <ele>330.0</ele>
        <time>2012-06-05T07:15:49Z</time>
      </trkpt>
      <trkpt lat="43.21682" lon="-6.039729">
        <ele>330.0</ele>
        <time>2012-06-05T07:15:53Z</time>
      </trkpt>
      <trkpt lat="43.216859" lon="-6.040105">
        <ele>330.0</ele>
        <time>2012-06-05T07:15:57Z</time>
      </trkpt>
      <trkpt lat="43.216905" lon="-6.040482">
        <ele>331.0</ele>
        <time>2012-06-05T07:16:01Z</time>
      </trkpt>
      <trkpt lat="43.216938" lon="-6.04086">
        <ele>332.0</ele>
        <time>2012-06-05T07:16:05Z</time>
      </trkpt>
      <trkpt lat="43.216947" lon="-6.041239">
        <ele>332.0</ele>
        <time>2012-06-05T07:16:09Z</time>
      </trkpt>
      <trkpt lat="43.216889" lon="-6.041598">
        <ele>333.0</ele>
        <time>2012-06-05T07:16:13Z</time>
      </trkpt>
      <trkpt lat="43.216788" lon="-6.04193">
        <ele>333.0</ele>
        <time>2012-06-05T07:16:17Z</time>
      </trkpt>
      <trkpt lat="43.216708" lon="-6.042276">
        <ele>333.0</ele>
        <time>2012-06-05T07:16:21Z</time>
      </trkpt>
      <trkpt lat="43.216489" lon="-6.042353">
        <ele>334.0</ele>
        <time>2012-06-05T07:16:25Z</time>
      </trkpt>
      <trkpt lat="43.216257" lon="-6.04245">
        <ele>334.0</ele>
        <time>2012-06-05T07:16:29Z</time>
      </trkpt>
      <trkpt lat="43.216027" lon="-6.04252">
        <ele>334.0</ele>
        <time>2012-06-05T07:16:33Z</time>
      </trkpt>
      <trkpt lat="43.215576" lon="-6.042602">
        <ele>333.0</ele>
        <time>2012-06-05T07:16:41Z</time>
      </trkpt>
      <trkpt lat="43.215342" lon="-6.04262">
        <ele>332.0</ele>
        <time>2012-06-05T07:16:45Z</time>
      </trkpt>
      <trkpt lat="43.215086" lon="-6.042646">
        <ele>333.0</ele>
        <time>2012-06-05T07:16:49Z</time>
      </trkpt>
      <trkpt lat="43.214819" lon="-6.042687">
        <ele>333.0</ele>
        <time>2012-06-05T07:16:53Z</time>
      </trkpt>
      <trkpt lat="43.214578" lon="-6.042828">
        <ele>334.0</ele>
        <time>2012-06-05T07:16:57Z</time>
      </trkpt>
      <trkpt lat="43.214335" lon="-6.043049">
        <ele>336.0</ele>
        <time>2012-06-05T07:17:01Z</time>
      </trkpt>
      <trkpt lat="43.214255" lon="-6.043373">
        <ele>338.0</ele>
        <time>2012-06-05T07:17:05Z</time>
      </trkpt>
      <trkpt lat="43.214252" lon="-6.04376">
        <ele>340.0</ele>
        <time>2012-06-05T07:17:09Z</time>
      </trkpt>
      <trkpt lat="43.2142" lon="-6.044162">
        <ele>342.0</ele>
        <time>2012-06-05T07:17:13Z</time>
      </trkpt>
      <trkpt lat="43.21413" lon="-6.044574">
        <ele>343.0</ele>
        <time>2012-06-05T07:17:17Z</time>
      </trkpt>
      <trkpt lat="43.214082" lon="-6.044991">
        <ele>344.0</ele>
        <time>2012-06-05T07:17:21Z</time>
      </trkpt>
      <trkpt lat="43.214084" lon="-6.045377">
        <ele>344.0</ele>
        <time>2012-06-05T07:17:25Z</time>
      </trkpt>
      <trkpt lat="43.214133" lon="-6.045729">
        <ele>344.0</ele>
        <time>2012-06-05T07:17:29Z</time>
      </trkpt>
      <trkpt lat="43.214211" lon="-6.046082">
        <ele>344.0</ele>
        <time>2012-06-05T07:17:33Z</time>
      </trkpt>
      <trkpt lat="43.214286" lon="-6.046435">
        <ele>345.0</ele>
        <time>2012-06-05T07:17:37Z</time>
      </trkpt>
      <trkpt lat="43.214363" lon="-6.046784">
        <ele>345.0</ele>
        <time>2012-06-05T07:17:41Z</time>
      </trkpt>
      <trkpt lat="43.214439" lon="-6.047125">
        <ele>346.0</ele>
        <time>2012-06-05T07:17:45Z</time>
      </trkpt>
      <trkpt lat="43.214487" lon="-6.04738">
        <ele>347.0</ele>
        <time>2012-06-05T07:17:48Z</time>
      </trkpt>
      <trkpt lat="43.214542" lon="-6.047721">
        <ele>347.0</ele>
        <time>2012-06-05T07:17:52Z</time>
      </trkpt>
      <trkpt lat="43.214554" lon="-6.04816">
        <ele>348.0</ele>
        <time>2012-06-05T07:17:57Z</time>
      </trkpt>
      <trkpt lat="43.214482" lon="-6.048505">
        <ele>349.0</ele>
        <time>2012-06-05T07:18:01Z</time>
      </trkpt>
      <trkpt lat="43.214377" lon="-6.04885">
        <ele>349.0</ele>
        <time>2012-06-05T07:18:05Z</time>
      </trkpt>
      <trkpt lat="43.214291" lon="-6.049204">
        <ele>349.0</ele>
        <time>2012-06-05T07:18:09Z</time>
      </trkpt>
      <trkpt lat="43.21419" lon="-6.049526">
        <ele>350.0</ele>
        <time>2012-06-05T07:18:13Z</time>
      </trkpt>
      <trkpt lat="43.21408" lon="-6.049825">
        <ele>350.0</ele>
        <time>2012-06-05T07:18:17Z</time>
      </trkpt>
      <trkpt lat="43.213968" lon="-6.050131">
        <ele>351.0</ele>
        <time>2012-06-05T07:18:21Z</time>
      </trkpt>
      <trkpt lat="43.213831" lon="-6.050449">
        <ele>352.0</ele>
        <time>2012-06-05T07:18:25Z</time>
      </trkpt>
      <trkpt lat="43.213655" lon="-6.050742">
        <ele>352.0</ele>
        <time>2012-06-05T07:18:29Z</time>
      </trkpt>
      <trkpt lat="43.213515" lon="-6.051056">
        <ele>352.0</ele>
        <time>2012-06-05T07:18:33Z</time>
      </trkpt>
      <trkpt lat="43.21339" lon="-6.051363">
        <ele>352.0</ele>
        <time>2012-06-05T07:18:37Z</time>
      </trkpt>
      <trkpt lat="43.213331" lon="-6.051514">
        <ele>352.0</ele>
        <time>2012-06-05T07:18:39Z</time>
      </trkpt>
      <trkpt lat="43.213164" lon="-6.05195">
        <ele>352.0</ele>
        <time>2012-06-05T07:18:45Z</time>
      </trkpt>
      <trkpt lat="43.213017" lon="-6.052127">
        <ele>352.0</ele>
        <time>2012-06-05T07:18:49Z</time>
      </trkpt>
      <trkpt lat="43.212741" lon="-6.052146">
        <ele>352.0</ele>
        <time>2012-06-05T07:18:53Z</time>
      </trkpt>
      <trkpt lat="43.212445" lon="-6.052121">
        <ele>353.0</ele>
        <time>2012-06-05T07:18:57Z</time>
      </trkpt>
      <trkpt lat="43.212154" lon="-6.052065">
        <ele>357.0</ele>
        <time>2012-06-05T07:19:01Z</time>
      </trkpt>
      <trkpt lat="43.21198" lon="-6.052061">
        <ele>360.0</ele>
        <time>2012-06-05T07:19:04Z</time>
      </trkpt>
      <trkpt lat="43.211857" lon="-6.052198">
        <ele>364.0</ele>
        <time>2012-06-05T07:19:08Z</time>
      </trkpt>
      <trkpt lat="43.211937" lon="-6.052453">
        <ele>365.0</ele>
        <time>2012-06-05T07:19:12Z</time>
      </trkpt>
      <trkpt lat="43.212063" lon="-6.052714">
        <ele>365.0</ele>
        <time>2012-06-05T07:19:16Z</time>
      </trkpt>
      <trkpt lat="43.212158" lon="-6.053011">
        <ele>364.0</ele>
        <time>2012-06-05T07:19:20Z</time>
      </trkpt>
      <trkpt lat="43.212282" lon="-6.053306">
        <ele>363.0</ele>
        <time>2012-06-05T07:19:24Z</time>
      </trkpt>
      <trkpt lat="43.212454" lon="-6.053688">
        <ele>362.0</ele>
        <time>2012-06-05T07:19:29Z</time>
      </trkpt>
      <trkpt lat="43.212582" lon="-6.054003">
        <ele>362.0</ele>
        <time>2012-06-05T07:19:33Z</time>
      </trkpt>
      <trkpt lat="43.212668" lon="-6.054331">
        <ele>362.0</ele>
        <time>2012-06-05T07:19:37Z</time>
      </trkpt>
      <trkpt lat="43.212666" lon="-6.054671">
        <ele>362.0</ele>
        <time>2012-06-05T07:19:41Z</time>
      </trkpt>
      <trkpt lat="43.212652" lon="-6.054849">
        <ele>362.0</ele>
        <time>2012-06-05T07:19:43Z</time>
      </trkpt>
      <trkpt lat="43.212583" lon="-6.055386">
        <ele>362.0</ele>
        <time>2012-06-05T07:19:49Z</time>
      </trkpt>
      <trkpt lat="43.212545" lon="-6.055586">
        <ele>363.0</ele>
        <time>2012-06-05T07:19:52Z</time>
      </trkpt>
      <trkpt lat="43.212212" lon="-6.055606">
        <ele>369.0</ele>
        <time>2012-06-05T07:19:57Z</time>
      </trkpt>
      <trkpt lat="43.211839" lon="-6.055482">
        <ele>373.0</ele>
        <time>2012-06-05T07:20:01Z</time>
      </trkpt>
      <trkpt lat="43.211493" lon="-6.055385">
        <ele>375.0</ele>
        <time>2012-06-05T07:20:05Z</time>
      </trkpt>
      <trkpt lat="43.211198" lon="-6.055359">
        <ele>375.0</ele>
        <time>2012-06-05T07:20:09Z</time>
      </trkpt>
      <trkpt lat="43.210928" lon="-6.055358">
        <ele>373.0</ele>
        <time>2012-06-05T07:20:13Z</time>
      </trkpt>
      <trkpt lat="43.210804" lon="-6.055376">
        <ele>373.0</ele>
        <time>2012-06-05T07:20:15Z</time>
      </trkpt>
      <trkpt lat="43.210432" lon="-6.055532">
        <ele>370.0</ele>
        <time>2012-06-05T07:20:21Z</time>
      </trkpt>
      <trkpt lat="43.21018" lon="-6.055765">
        <ele>369.0</ele>
        <time>2012-06-05T07:20:25Z</time>
      </trkpt>
      <trkpt lat="43.210046" lon="-6.056066">
        <ele>369.0</ele>
        <time>2012-06-05T07:20:29Z</time>
      </trkpt>
      <trkpt lat="43.209976" lon="-6.056393">
        <ele>369.0</ele>
        <time>2012-06-05T07:20:33Z</time>
      </trkpt>
      <trkpt lat="43.209918" lon="-6.056736">
        <ele>370.0</ele>
        <time>2012-06-05T07:20:37Z</time>
      </trkpt>
      <trkpt lat="43.209858" lon="-6.057079">
        <ele>370.0</ele>
        <time>2012-06-05T07:20:41Z</time>
      </trkpt>
      <trkpt lat="43.209802" lon="-6.057431">
        <ele>371.0</ele>
        <time>2012-06-05T07:20:45Z</time>
      </trkpt>
      <trkpt lat="43.209705" lon="-6.057778">
        <ele>372.0</ele>
        <time>2012-06-05T07:20:49Z</time>
      </trkpt>
      <trkpt lat="43.209548" lon="-6.057933">
        <ele>373.0</ele>
        <time>2012-06-05T07:20:52Z</time>
      </trkpt>
      <trkpt lat="43.209349" lon="-6.058079">
        <ele>374.0</ele>
        <time>2012-06-05T07:20:56Z</time>
      </trkpt>
      <trkpt lat="43.209185" lon="-6.05827">
        <ele>375.0</ele>
        <time>2012-06-05T07:21:00Z</time>
      </trkpt>
      <trkpt lat="43.20892" lon="-6.05815">
        <ele>374.0</ele>
        <time>2012-06-05T07:21:05Z</time>
      </trkpt>
      <trkpt lat="43.20877" lon="-6.057975">
        <ele>374.0</ele>
        <time>2012-06-05T07:21:08Z</time>
      </trkpt>
      <trkpt lat="43.208497" lon="-6.057714">
        <ele>374.0</ele>
        <time>2012-06-05T07:21:13Z</time>
      </trkpt>
      <trkpt lat="43.208265" lon="-6.057516">
        <ele>374.0</ele>
        <time>2012-06-05T07:21:17Z</time>
      </trkpt>
      <trkpt lat="43.208017" lon="-6.057366">
        <ele>374.0</ele>
        <time>2012-06-05T07:21:21Z</time>
      </trkpt>
      <trkpt lat="43.207763" lon="-6.05727">
        <ele>374.0</ele>
        <time>2012-06-05T07:21:25Z</time>
      </trkpt>
      <trkpt lat="43.207573" lon="-6.057211">
        <ele>375.0</ele>
        <time>2012-06-05T07:21:28Z</time>
      </trkpt>
      <trkpt lat="43.207333" lon="-6.057118">
        <ele>374.0</ele>
        <time>2012-06-05T07:21:32Z</time>
      </trkpt>
      <trkpt lat="43.207044" lon="-6.056946">
        <ele>374.0</ele>
        <time>2012-06-05T07:21:37Z</time>
      </trkpt>
      <trkpt lat="43.20681" lon="-6.056812">
        <ele>375.0</ele>
        <time>2012-06-05T07:21:41Z</time>
      </trkpt>
      <trkpt lat="43.206591" lon="-6.056653">
        <ele>376.0</ele>
        <time>2012-06-05T07:21:45Z</time>
      </trkpt>
      <trkpt lat="43.206378" lon="-6.056505">
        <ele>376.0</ele>
        <time>2012-06-05T07:21:49Z</time>
      </trkpt>
      <trkpt lat="43.206181" lon="-6.056344">
        <ele>376.0</ele>
        <time>2012-06-05T07:21:53Z</time>
      </trkpt>
      <trkpt lat="43.205991" lon="-6.056181">
        <ele>376.0</ele>
        <time>2012-06-05T07:21:57Z</time>
      </trkpt>
      <trkpt lat="43.205772" lon="-6.056038">
        <ele>377.0</ele>
        <time>2012-06-05T07:22:01Z</time>
      </trkpt>
      <trkpt lat="43.205552" lon="-6.055902">
        <ele>378.0</ele>
        <time>2012-06-05T07:22:05Z</time>
      </trkpt>
      <trkpt lat="43.205321" lon="-6.0558">
        <ele>378.0</ele>
        <time>2012-06-05T07:22:09Z</time>
      </trkpt>
      <trkpt lat="43.205077" lon="-6.055881">
        <ele>378.0</ele>
        <time>2012-06-05T07:22:13Z</time>
      </trkpt>
      <trkpt lat="43.204876" lon="-6.056066">
        <ele>379.0</ele>
        <time>2012-06-05T07:22:17Z</time>
      </trkpt>
      <trkpt lat="43.204682" lon="-6.056225">
        <ele>380.0</ele>
        <time>2012-06-05T07:22:21Z</time>
      </trkpt>
      <trkpt lat="43.204528" lon="-6.056468">
        <ele>383.0</ele>
        <time>2012-06-05T07:22:25Z</time>
      </trkpt>
      <trkpt lat="43.204397" lon="-6.056754">
        <ele>383.0</ele>
        <time>2012-06-05T07:22:29Z</time>
      </trkpt>
      <trkpt lat="43.204231" lon="-6.057024">
        <ele>384.0</ele>
        <time>2012-06-05T07:22:33Z</time>
      </trkpt>
      <trkpt lat="43.204084" lon="-6.057317">
        <ele>385.0</ele>
        <time>2012-06-05T07:22:37Z</time>
      </trkpt>
      <trkpt lat="43.203971" lon="-6.057624">
        <ele>385.0</ele>
        <time>2012-06-05T07:22:41Z</time>
      </trkpt>
      <trkpt lat="43.203934" lon="-6.057962">
        <ele>386.0</ele>
        <time>2012-06-05T07:22:45Z</time>
      </trkpt>
      <trkpt lat="43.203908" lon="-6.05831">
        <ele>386.0</ele>
        <time>2012-06-05T07:22:49Z</time>
      </trkpt>
      <trkpt lat="43.203888" lon="-6.058653">
        <ele>387.0</ele>
        <time>2012-06-05T07:22:53Z</time>
      </trkpt>
      <trkpt lat="43.203867" lon="-6.058991">
        <ele>387.0</ele>
        <time>2012-06-05T07:22:57Z</time>
      </trkpt>
      <trkpt lat="43.203839" lon="-6.059329">
        <ele>388.0</ele>
        <time>2012-06-05T07:23:01Z</time>
      </trkpt>
      <trkpt lat="43.203786" lon="-6.059668">
        <ele>387.0</ele>
        <time>2012-06-05T07:23:05Z</time>
      </trkpt>
      <trkpt lat="43.203705" lon="-6.060008">
        <ele>388.0</ele>
        <time>2012-06-05T07:23:09Z</time>
      </trkpt>
      <trkpt lat="43.203615" lon="-6.060348">
        <ele>388.0</ele>
        <time>2012-06-05T07:23:13Z</time>
      </trkpt>
      <trkpt lat="43.203539" lon="-6.060684">
        <ele>389.0</ele>
        <time>2012-06-05T07:23:17Z</time>
      </trkpt>
      <trkpt lat="43.203458" lon="-6.060987">
        <ele>390.0</ele>
        <time>2012-06-05T07:23:21Z</time>
      </trkpt>
      <trkpt lat="43.20336" lon="-6.061215">
        <ele>391.0</ele>
        <time>2012-06-05T07:23:25Z</time>
      </trkpt>
      <trkpt lat="43.203248" lon="-6.061387">
        <ele>391.0</ele>
        <time>2012-06-05T07:23:29Z</time>
      </trkpt>
      <trkpt lat="43.203079" lon="-6.061491">
        <ele>392.0</ele>
        <time>2012-06-05T07:23:33Z</time>
      </trkpt>
      <trkpt lat="43.20288" lon="-6.061583">
        <ele>394.0</ele>
        <time>2012-06-05T07:23:37Z</time>
      </trkpt>
      <trkpt lat="43.202658" lon="-6.061678">
        <ele>393.0</ele>
        <time>2012-06-05T07:23:41Z</time>
      </trkpt>
      <trkpt lat="43.202425" lon="-6.0618">
        <ele>393.0</ele>
        <time>2012-06-05T07:23:45Z</time>
      </trkpt>
      <trkpt lat="43.202312" lon="-6.061863">
        <ele>392.0</ele>
        <time>2012-06-05T07:23:47Z</time>
      </trkpt>
      <trkpt lat="43.201968" lon="-6.062099">
        <ele>393.0</ele>
        <time>2012-06-05T07:23:53Z</time>
      </trkpt>
      <trkpt lat="43.201726" lon="-6.062298">
        <ele>393.0</ele>
        <time>2012-06-05T07:23:57Z</time>
      </trkpt>
      <trkpt lat="43.201514" lon="-6.062555">
        <ele>394.0</ele>
        <time>2012-06-05T07:24:01Z</time>
      </trkpt>
      <trkpt lat="43.20138" lon="-6.062919">
        <ele>396.0</ele>
        <time>2012-06-05T07:24:05Z</time>
      </trkpt>
      <trkpt lat="43.201323" lon="-6.063367">
        <ele>398.0</ele>
        <time>2012-06-05T07:24:09Z</time>
      </trkpt>
      <trkpt lat="43.201302" lon="-6.063784">
        <ele>401.0</ele>
        <time>2012-06-05T07:24:13Z</time>
      </trkpt>
      <trkpt lat="43.201345" lon="-6.064152">
        <ele>403.0</ele>
        <time>2012-06-05T07:24:17Z</time>
      </trkpt>
      <trkpt lat="43.201442" lon="-6.064471">
        <ele>404.0</ele>
        <time>2012-06-05T07:24:21Z</time>
      </trkpt>
      <trkpt lat="43.201487" lon="-6.064785">
        <ele>405.0</ele>
        <time>2012-06-05T07:24:25Z</time>
      </trkpt>
      <trkpt lat="43.201531" lon="-6.06509">
        <ele>404.0</ele>
        <time>2012-06-05T07:24:29Z</time>
      </trkpt>
      <trkpt lat="43.201581" lon="-6.065391">
        <ele>404.0</ele>
        <time>2012-06-05T07:24:33Z</time>
      </trkpt>
      <trkpt lat="43.20161" lon="-6.065537">
        <ele>403.0</ele>
        <time>2012-06-05T07:24:35Z</time>
      </trkpt>
      <trkpt lat="43.201634" lon="-6.065838">
        <ele>403.0</ele>
        <time>2012-06-05T07:24:39Z</time>
      </trkpt>
      <trkpt lat="43.201646" lon="-6.066308">
        <ele>402.0</ele>
        <time>2012-06-05T07:24:45Z</time>
      </trkpt>
      <trkpt lat="43.201583" lon="-6.066618">
        <ele>401.0</ele>
        <time>2012-06-05T07:24:49Z</time>
      </trkpt>
      <trkpt lat="43.201419" lon="-6.066921">
        <ele>401.0</ele>
        <time>2012-06-05T07:24:53Z</time>
      </trkpt>
      <trkpt lat="43.201179" lon="-6.06721">
        <ele>401.0</ele>
        <time>2012-06-05T07:24:57Z</time>
      </trkpt>
      <trkpt lat="43.200949" lon="-6.067481">
        <ele>402.0</ele>
        <time>2012-06-05T07:25:01Z</time>
      </trkpt>
      <trkpt lat="43.200807" lon="-6.067672">
        <ele>402.0</ele>
        <time>2012-06-05T07:25:04Z</time>
      </trkpt>
      <trkpt lat="43.200657" lon="-6.067933">
        <ele>402.0</ele>
        <time>2012-06-05T07:25:08Z</time>
      </trkpt>
      <trkpt lat="43.200568" lon="-6.068029">
        <ele>402.0</ele>
        <time>2012-06-05T07:25:10Z</time>
      </trkpt>
      <trkpt lat="43.200323" lon="-6.068208">
        <ele>403.0</ele>
        <time>2012-06-05T07:25:16Z</time>
      </trkpt>
      <trkpt lat="43.200187" lon="-6.068353">
        <ele>404.0</ele>
        <time>2012-06-05T07:25:20Z</time>
      </trkpt>
      <trkpt lat="43.200037" lon="-6.068504">
        <ele>405.0</ele>
        <time>2012-06-05T07:25:24Z</time>
      </trkpt>
      <trkpt lat="43.199855" lon="-6.068638">
        <ele>406.0</ele>
        <time>2012-06-05T07:25:28Z</time>
      </trkpt>
      <trkpt lat="43.199661" lon="-6.068768">
        <ele>407.0</ele>
        <time>2012-06-05T07:25:32Z</time>
      </trkpt>
      <trkpt lat="43.199458" lon="-6.068904">
        <ele>408.0</ele>
        <time>2012-06-05T07:25:36Z</time>
      </trkpt>
      <trkpt lat="43.199251" lon="-6.069034">
        <ele>408.0</ele>
        <time>2012-06-05T07:25:40Z</time>
      </trkpt>
      <trkpt lat="43.199035" lon="-6.069153">
        <ele>409.0</ele>
        <time>2012-06-05T07:25:44Z</time>
      </trkpt>
      <trkpt lat="43.198817" lon="-6.069262">
        <ele>409.0</ele>
        <time>2012-06-05T07:25:48Z</time>
      </trkpt>
      <trkpt lat="43.198496" lon="-6.069297">
        <ele>410.0</ele>
        <time>2012-06-05T07:25:53Z</time>
      </trkpt>
      <trkpt lat="43.198106" lon="-6.069009">
        <ele>410.0</ele>
        <time>2012-06-05T07:25:57Z</time>
      </trkpt>
      <trkpt lat="43.197717" lon="-6.068614">
        <ele>410.0</ele>
        <time>2012-06-05T07:26:01Z</time>
      </trkpt>
      <trkpt lat="43.197423" lon="-6.068415">
        <ele>410.0</ele>
        <time>2012-06-05T07:26:05Z</time>
      </trkpt>
      <trkpt lat="43.197154" lon="-6.068274">
        <ele>411.0</ele>
        <time>2012-06-05T07:26:09Z</time>
      </trkpt>
      <trkpt lat="43.196899" lon="-6.068152">
        <ele>411.0</ele>
        <time>2012-06-05T07:26:13Z</time>
      </trkpt>
      <trkpt lat="43.196659" lon="-6.068036">
        <ele>412.0</ele>
        <time>2012-06-05T07:26:17Z</time>
      </trkpt>
      <trkpt lat="43.196425" lon="-6.067913">
        <ele>412.0</ele>
        <time>2012-06-05T07:26:21Z</time>
      </trkpt>
      <trkpt lat="43.196193" lon="-6.067773">
        <ele>412.0</ele>
        <time>2012-06-05T07:26:25Z</time>
      </trkpt>
      <trkpt lat="43.196019" lon="-6.067684">
        <ele>413.0</ele>
        <time>2012-06-05T07:26:28Z</time>
      </trkpt>
      <trkpt lat="43.195807" lon="-6.067573">
        <ele>414.0</ele>
        <time>2012-06-05T07:26:32Z</time>
      </trkpt>
      <trkpt lat="43.195603" lon="-6.067576">
        <ele>414.0</ele>
        <time>2012-06-05T07:26:36Z</time>
      </trkpt>
      <trkpt lat="43.195447" lon="-6.067869">
        <ele>415.0</ele>
        <time>2012-06-05T07:26:40Z</time>
      </trkpt>
      <trkpt lat="43.195583" lon="-6.068345">
        <ele>416.0</ele>
        <time>2012-06-05T07:26:45Z</time>
      </trkpt>
      <trkpt lat="43.195656" lon="-6.068614">
        <ele>416.0</ele>
        <time>2012-06-05T07:26:48Z</time>
      </trkpt>
      <trkpt lat="43.195664" lon="-6.069044">
        <ele>416.0</ele>
        <time>2012-06-05T07:26:53Z</time>
      </trkpt>
      <trkpt lat="43.195601" lon="-6.069275">
        <ele>416.0</ele>
        <time>2012-06-05T07:26:56Z</time>
      </trkpt>
      <trkpt lat="43.195456" lon="-6.069439">
        <ele>416.0</ele>
        <time>2012-06-05T07:27:00Z</time>
      </trkpt>
      <trkpt lat="43.195327" lon="-6.069573">
        <ele>416.0</ele>
        <time>2012-06-05T07:27:04Z</time>
      </trkpt>
      <trkpt lat="43.195201" lon="-6.069684">
        <ele>416.0</ele>
        <time>2012-06-05T07:27:08Z</time>
      </trkpt>
      <trkpt lat="43.195061" lon="-6.069802">
        <ele>417.0</ele>
        <time>2012-06-05T07:27:12Z</time>
      </trkpt>
      <trkpt lat="43.194904" lon="-6.069931">
        <ele>418.0</ele>
        <time>2012-06-05T07:27:16Z</time>
      </trkpt>
      <trkpt lat="43.194721" lon="-6.070067">
        <ele>419.0</ele>
        <time>2012-06-05T07:27:20Z</time>
      </trkpt>
      <trkpt lat="43.194628" lon="-6.070137">
        <ele>419.0</ele>
        <time>2012-06-05T07:27:22Z</time>
      </trkpt>
      <trkpt lat="43.194354" lon="-6.070551">
        <ele>421.0</ele>
        <time>2012-06-05T07:27:29Z</time>
      </trkpt>
      <trkpt lat="43.194167" lon="-6.070828">
        <ele>422.0</ele>
        <time>2012-06-05T07:27:33Z</time>
      </trkpt>
      <trkpt lat="43.193969" lon="-6.071114">
        <ele>425.0</ele>
        <time>2012-06-05T07:27:37Z</time>
      </trkpt>
      <trkpt lat="43.193814" lon="-6.07142">
        <ele>428.0</ele>
        <time>2012-06-05T07:27:41Z</time>
      </trkpt>
      <trkpt lat="43.193724" lon="-6.071769">
        <ele>429.0</ele>
        <time>2012-06-05T07:27:45Z</time>
      </trkpt>
      <trkpt lat="43.19367" lon="-6.072155">
        <ele>431.0</ele>
        <time>2012-06-05T07:27:49Z</time>
      </trkpt>
      <trkpt lat="43.19362" lon="-6.072595">
        <ele>430.0</ele>
        <time>2012-06-05T07:27:53Z</time>
      </trkpt>
      <trkpt lat="43.193545" lon="-6.073018">
        <ele>430.0</ele>
        <time>2012-06-05T07:27:57Z</time>
      </trkpt>
      <trkpt lat="43.193459" lon="-6.073431">
        <ele>429.0</ele>
        <time>2012-06-05T07:28:01Z</time>
      </trkpt>
      <trkpt lat="43.193317" lon="-6.073713">
        <ele>429.0</ele>
        <time>2012-06-05T07:28:05Z</time>
      </trkpt>
      <trkpt lat="43.193118" lon="-6.073888">
        <ele>430.0</ele>
        <time>2012-06-05T07:28:09Z</time>
      </trkpt>
      <trkpt lat="43.192898" lon="-6.073958">
        <ele>431.0</ele>
        <time>2012-06-05T07:28:13Z</time>
      </trkpt>
      <trkpt lat="43.192667" lon="-6.073968">
        <ele>431.0</ele>
        <time>2012-06-05T07:28:17Z</time>
      </trkpt>
      <trkpt lat="43.192436" lon="-6.073916">
        <ele>431.0</ele>
        <time>2012-06-05T07:28:21Z</time>
      </trkpt>
      <trkpt lat="43.192227" lon="-6.073845">
        <ele>431.0</ele>
        <time>2012-06-05T07:28:25Z</time>
      </trkpt>
      <trkpt lat="43.192035" lon="-6.073802">
        <ele>432.0</ele>
        <time>2012-06-05T07:28:29Z</time>
      </trkpt>
      <trkpt lat="43.191858" lon="-6.07378">
        <ele>432.0</ele>
        <time>2012-06-05T07:28:33Z</time>
      </trkpt>
      <trkpt lat="43.191706" lon="-6.073741">
        <ele>433.0</ele>
        <time>2012-06-05T07:28:37Z</time>
      </trkpt>
      <trkpt lat="43.191566" lon="-6.073771">
        <ele>434.0</ele>
        <time>2012-06-05T07:28:41Z</time>
      </trkpt>
      <trkpt lat="43.191387" lon="-6.074094">
        <ele>435.0</ele>
        <time>2012-06-05T07:28:45Z</time>
      </trkpt>
      <trkpt lat="43.191249" lon="-6.074388">
        <ele>438.0</ele>
        <time>2012-06-05T07:28:49Z</time>
      </trkpt>
      <trkpt lat="43.191122" lon="-6.074674">
        <ele>442.0</ele>
        <time>2012-06-05T07:28:53Z</time>
      </trkpt>
      <trkpt lat="43.19101" lon="-6.074967">
        <ele>444.0</ele>
        <time>2012-06-05T07:28:57Z</time>
      </trkpt>
      <trkpt lat="43.190897" lon="-6.075257">
        <ele>445.0</ele>
        <time>2012-06-05T07:29:01Z</time>
      </trkpt>
      <trkpt lat="43.190794" lon="-6.075561">
        <ele>445.0</ele>
        <time>2012-06-05T07:29:05Z</time>
      </trkpt>
      <trkpt lat="43.190705" lon="-6.075883">
        <ele>445.0</ele>
        <time>2012-06-05T07:29:09Z</time>
      </trkpt>
      <trkpt lat="43.190609" lon="-6.076205">
        <ele>444.0</ele>
        <time>2012-06-05T07:29:13Z</time>
      </trkpt>
      <trkpt lat="43.19047" lon="-6.076469">
        <ele>444.0</ele>
        <time>2012-06-05T07:29:17Z</time>
      </trkpt>
      <trkpt lat="43.190287" lon="-6.076651">
        <ele>445.0</ele>
        <time>2012-06-05T07:29:21Z</time>
      </trkpt>
      <trkpt lat="43.190101" lon="-6.076757">
        <ele>446.0</ele>
        <time>2012-06-05T07:29:25Z</time>
      </trkpt>
      <trkpt lat="43.189899" lon="-6.076765">
        <ele>447.0</ele>
        <time>2012-06-05T07:29:29Z</time>
      </trkpt>
      <trkpt lat="43.189469" lon="-6.076709">
        <ele>448.0</ele>
        <time>2012-06-05T07:29:37Z</time>
      </trkpt>
      <trkpt lat="43.189227" lon="-6.076671">
        <ele>448.0</ele>
        <time>2012-06-05T07:29:41Z</time>
      </trkpt>
      <trkpt lat="43.189163" lon="-6.076681">
        <ele>448.0</ele>
        <time>2012-06-05T07:29:42Z</time>
      </trkpt>
      <trkpt lat="43.188799" lon="-6.076681">
        <ele>451.0</ele>
        <time>2012-06-05T07:29:48Z</time>
      </trkpt>
      <trkpt lat="43.188589" lon="-6.076686">
        <ele>451.0</ele>
        <time>2012-06-05T07:29:52Z</time>
      </trkpt>
      <trkpt lat="43.188432" lon="-6.076801">
        <ele>452.0</ele>
        <time>2012-06-05T07:29:56Z</time>
      </trkpt>
      <trkpt lat="43.188318" lon="-6.076979">
        <ele>452.0</ele>
        <time>2012-06-05T07:30:00Z</time>
      </trkpt>
      <trkpt lat="43.188194" lon="-6.077166">
        <ele>452.0</ele>
        <time>2012-06-05T07:30:04Z</time>
      </trkpt>
      <trkpt lat="43.188132" lon="-6.07726">
        <ele>452.0</ele>
        <time>2012-06-05T07:30:06Z</time>
      </trkpt>
      <trkpt lat="43.188132" lon="-6.07726">
        <time>2012-06-05T07:30:17Z</time>
      </trkpt>
    </trkseg>
    <trkseg>
      <trkpt lat="43.188132" lon="-6.07726">
        <time>2012-06-05T07:30:21Z</time>
      </trkpt>
      <trkpt lat="43.18786" lon="-6.078465">
        <ele>452.0</ele>
        <time>2012-06-05T07:30:24Z</time>
      </trkpt>
      <trkpt lat="43.187617" lon="-6.078441">
        <ele>451.0</ele>
        <time>2012-06-05T07:30:32Z</time>
      </trkpt>
      <trkpt lat="43.187415" lon="-6.078476">
        <ele>450.0</ele>
        <time>2012-06-05T07:30:36Z</time>
      </trkpt>
      <trkpt lat="43.187213" lon="-6.078507">
        <ele>449.0</ele>
        <time>2012-06-05T07:30:40Z</time>
      </trkpt>
      <trkpt lat="43.187031" lon="-6.078542">
        <ele>448.0</ele>
        <time>2012-06-05T07:30:44Z</time>
      </trkpt>
      <trkpt lat="43.186859" lon="-6.078581">
        <ele>448.0</ele>
        <time>2012-06-05T07:30:48Z</time>
      </trkpt>
      <trkpt lat="43.186701" lon="-6.078647">
        <ele>449.0</ele>
        <time>2012-06-05T07:30:52Z</time>
      </trkpt>
      <trkpt lat="43.186571" lon="-6.07879">
        <ele>450.0</ele>
        <time>2012-06-05T07:30:56Z</time>
      </trkpt>
      <trkpt lat="43.186422" lon="-6.078912">
        <ele>450.0</ele>
        <time>2012-06-05T07:31:00Z</time>
      </trkpt>
      <trkpt lat="43.186273" lon="-6.079043">
        <ele>451.0</ele>
        <time>2012-06-05T07:31:04Z</time>
      </trkpt>
      <trkpt lat="43.186115" lon="-6.079155">
        <ele>451.0</ele>
        <time>2012-06-05T07:31:08Z</time>
      </trkpt>
      <trkpt lat="43.185935" lon="-6.079233">
        <ele>452.0</ele>
        <time>2012-06-05T07:31:12Z</time>
      </trkpt>
      <trkpt lat="43.185756" lon="-6.079309">
        <ele>452.0</ele>
        <time>2012-06-05T07:31:16Z</time>
      </trkpt>
      <trkpt lat="43.185576" lon="-6.079386">
        <ele>453.0</ele>
        <time>2012-06-05T07:31:20Z</time>
      </trkpt>
      <trkpt lat="43.185385" lon="-6.079448">
        <ele>453.0</ele>
        <time>2012-06-05T07:31:24Z</time>
      </trkpt>
      <trkpt lat="43.185183" lon="-6.079511">
        <ele>454.0</ele>
        <time>2012-06-05T07:31:28Z</time>
      </trkpt>
      <trkpt lat="43.184987" lon="-6.079587">
        <ele>455.0</ele>
        <time>2012-06-05T07:31:32Z</time>
      </trkpt>
      <trkpt lat="43.184783" lon="-6.079667">
        <ele>455.0</ele>
        <time>2012-06-05T07:31:36Z</time>
      </trkpt>
      <trkpt lat="43.184577" lon="-6.07975">
        <ele>456.0</ele>
        <time>2012-06-05T07:31:40Z</time>
      </trkpt>
      <trkpt lat="43.184374" lon="-6.079849">
        <ele>456.0</ele>
        <time>2012-06-05T07:31:44Z</time>
      </trkpt>
      <trkpt lat="43.184175" lon="-6.079956">
        <ele>457.0</ele>
        <time>2012-06-05T07:31:48Z</time>
      </trkpt>
      <trkpt lat="43.183994" lon="-6.080055">
        <ele>457.0</ele>
        <time>2012-06-05T07:31:52Z</time>
      </trkpt>
      <trkpt lat="43.183906" lon="-6.080102">
        <ele>457.0</ele>
        <time>2012-06-05T07:31:54Z</time>
      </trkpt>
      <trkpt lat="43.183731" lon="-6.080196">
        <ele>457.0</ele>
        <time>2012-06-05T07:31:58Z</time>
      </trkpt>
      <trkpt lat="43.183731" lon="-6.080196">
        <time>2012-06-05T07:32:09Z</time>
      </trkpt>
    </trkseg>
    <trkseg>
      <trkpt lat="43.183731" lon="-6.080196">
        <time>2012-06-05T07:33:45Z</time>
      </trkpt>
      <trkpt lat="43.178972" lon="-6.083972">
        <ele>463.0</ele>
        <time>2012-06-05T07:33:49Z</time>
      </trkpt>
      <trkpt lat="43.178978" lon="-6.08407">
        <ele>465.0</ele>
        <time>2012-06-05T07:33:51Z</time>
      </trkpt>
      <trkpt lat="43.179169" lon="-6.08462">
        <ele>470.0</ele>
        <time>2012-06-05T07:33:57Z</time>
      </trkpt>
      <trkpt lat="43.1792" lon="-6.084841">
        <ele>472.0</ele>
        <time>2012-06-05T07:34:01Z</time>
      </trkpt>
      <trkpt lat="43.178709" lon="-6.084506">
        <ele>476.0</ele>
        <time>2012-06-05T07:34:09Z</time>
      </trkpt>
      <trkpt lat="43.178284" lon="-6.084358">
        <ele>481.0</ele>
        <time>2012-06-05T07:34:13Z</time>
      </trkpt>
      <trkpt lat="43.177931" lon="-6.084392">
        <ele>486.0</ele>
        <time>2012-06-05T07:34:17Z</time>
      </trkpt>
      <trkpt lat="43.177621" lon="-6.084587">
        <ele>489.0</ele>
        <time>2012-06-05T07:34:21Z</time>
      </trkpt>
      <trkpt lat="43.177284" lon="-6.084929">
        <ele>497.0</ele>
        <time>2012-06-05T07:34:25Z</time>
      </trkpt>
      <trkpt lat="43.176997" lon="-6.085273">
        <ele>503.0</ele>
        <time>2012-06-05T07:34:29Z</time>
      </trkpt>
      <trkpt lat="43.176823" lon="-6.08563">
        <ele>506.0</ele>
        <time>2012-06-05T07:34:33Z</time>
      </trkpt>
      <trkpt lat="43.176689" lon="-6.085983">
        <ele>507.0</ele>
        <time>2012-06-05T07:34:37Z</time>
      </trkpt>
      <trkpt lat="43.176579" lon="-6.086382">
        <ele>507.0</ele>
        <time>2012-06-05T07:34:41Z</time>
      </trkpt>
      <trkpt lat="43.176443" lon="-6.086761">
        <ele>507.0</ele>
        <time>2012-06-05T07:34:45Z</time>
      </trkpt>
      <trkpt lat="43.176276" lon="-6.087071">
        <ele>507.0</ele>
        <time>2012-06-05T07:34:49Z</time>
      </trkpt>
      <trkpt lat="43.176134" lon="-6.087247">
        <ele>506.0</ele>
        <time>2012-06-05T07:34:52Z</time>
      </trkpt>
      <trkpt lat="43.175853" lon="-6.087503">
        <ele>505.0</ele>
        <time>2012-06-05T07:34:57Z</time>
      </trkpt>
      <trkpt lat="43.175625" lon="-6.087692">
        <ele>504.0</ele>
        <time>2012-06-05T07:35:01Z</time>
      </trkpt>
      <trkpt lat="43.175385" lon="-6.08784">
        <ele>504.0</ele>
        <time>2012-06-05T07:35:05Z</time>
      </trkpt>
      <trkpt lat="43.175126" lon="-6.087947">
        <ele>505.0</ele>
        <time>2012-06-05T07:35:09Z</time>
      </trkpt>
      <trkpt lat="43.17487" lon="-6.088028">
        <ele>506.0</ele>
        <time>2012-06-05T07:35:13Z</time>
      </trkpt>
      <trkpt lat="43.174652" lon="-6.088129">
        <ele>507.0</ele>
        <time>2012-06-05T07:35:17Z</time>
      </trkpt>
      <trkpt lat="43.17453" lon="-6.088396">
        <ele>508.0</ele>
        <time>2012-06-05T07:35:21Z</time>
      </trkpt>
      <trkpt lat="43.174422" lon="-6.088657">
        <ele>508.0</ele>
        <time>2012-06-05T07:35:25Z</time>
      </trkpt>
      <trkpt lat="43.174373" lon="-6.08878">
        <ele>508.0</ele>
        <time>2012-06-05T07:35:27Z</time>
      </trkpt>
      <trkpt lat="43.174199" lon="-6.089111">
        <ele>504.0</ele>
        <time>2012-06-05T07:35:33Z</time>
      </trkpt>
      <trkpt lat="43.174151" lon="-6.089286">
        <ele>503.0</ele>
        <time>2012-06-05T07:35:37Z</time>
      </trkpt>
      <trkpt lat="43.174151" lon="-6.08951">
        <ele>503.0</ele>
        <time>2012-06-05T07:35:41Z</time>
      </trkpt>
      <trkpt lat="43.174158" lon="-6.089764">
        <ele>503.0</ele>
        <time>2012-06-05T07:35:45Z</time>
      </trkpt>
      <trkpt lat="43.174165" lon="-6.090044">
        <ele>504.0</ele>
        <time>2012-06-05T07:35:49Z</time>
      </trkpt>
      <trkpt lat="43.17417" lon="-6.090403">
        <ele>504.0</ele>
        <time>2012-06-05T07:35:53Z</time>
      </trkpt>
      <trkpt lat="43.174169" lon="-6.090809">
        <ele>504.0</ele>
        <time>2012-06-05T07:35:57Z</time>
      </trkpt>
      <trkpt lat="43.174114" lon="-6.091174">
        <ele>504.0</ele>
        <time>2012-06-05T07:36:01Z</time>
      </trkpt>
      <trkpt lat="43.174056" lon="-6.091498">
        <ele>505.0</ele>
        <time>2012-06-05T07:36:05Z</time>
      </trkpt>
      <trkpt lat="43.174031" lon="-6.091812">
        <ele>506.0</ele>
        <time>2012-06-05T07:36:09Z</time>
      </trkpt>
      <trkpt lat="43.174028" lon="-6.092106">
        <ele>506.0</ele>
        <time>2012-06-05T07:36:13Z</time>
      </trkpt>
      <trkpt lat="43.174047" lon="-6.092382">
        <ele>506.0</ele>
        <time>2012-06-05T07:36:17Z</time>
      </trkpt>
      <trkpt lat="43.174064" lon="-6.092675">
        <ele>506.0</ele>
        <time>2012-06-05T07:36:21Z</time>
      </trkpt>
      <trkpt lat="43.174063" lon="-6.093005">
        <ele>507.0</ele>
        <time>2012-06-05T07:36:25Z</time>
      </trkpt>
      <trkpt lat="43.174017" lon="-6.093343">
        <ele>507.0</ele>
        <time>2012-06-05T07:36:29Z</time>
      </trkpt>
      <trkpt lat="43.173945" lon="-6.093694">
        <ele>507.0</ele>
        <time>2012-06-05T07:36:33Z</time>
      </trkpt>
      <trkpt lat="43.173881" lon="-6.093974">
        <ele>506.0</ele>
        <time>2012-06-05T07:36:36Z</time>
      </trkpt>
      <trkpt lat="43.173789" lon="-6.094275">
        <ele>506.0</ele>
        <time>2012-06-05T07:36:40Z</time>
      </trkpt>
      <trkpt lat="43.173676" lon="-6.094566">
        <ele>507.0</ele>
        <time>2012-06-05T07:36:44Z</time>
      </trkpt>
      <trkpt lat="43.17351" lon="-6.094808">
        <ele>508.0</ele>
        <time>2012-06-05T07:36:48Z</time>
      </trkpt>
      <trkpt lat="43.173423" lon="-6.094913">
        <ele>508.0</ele>
        <time>2012-06-05T07:36:50Z</time>
      </trkpt>
      <trkpt lat="43.173109" lon="-6.095169">
        <ele>510.0</ele>
        <time>2012-06-05T07:36:56Z</time>
      </trkpt>
      <trkpt lat="43.172906" lon="-6.095326">
        <ele>511.0</ele>
        <time>2012-06-05T07:37:00Z</time>
      </trkpt>
      <trkpt lat="43.172692" lon="-6.095453">
        <ele>511.0</ele>
        <time>2012-06-05T07:37:04Z</time>
      </trkpt>
      <trkpt lat="43.172462" lon="-6.095552">
        <ele>511.0</ele>
        <time>2012-06-05T07:37:08Z</time>
      </trkpt>
      <trkpt lat="43.172151" lon="-6.095616">
        <ele>510.0</ele>
        <time>2012-06-05T07:37:13Z</time>
      </trkpt>
      <trkpt lat="43.171886" lon="-6.095608">
        <ele>510.0</ele>
        <time>2012-06-05T07:37:17Z</time>
      </trkpt>
      <trkpt lat="43.171617" lon="-6.0956">
        <ele>511.0</ele>
        <time>2012-06-05T07:37:21Z</time>
      </trkpt>
      <trkpt lat="43.171309" lon="-6.095598">
        <ele>512.0</ele>
        <time>2012-06-05T07:37:25Z</time>
      </trkpt>
      <trkpt lat="43.170928" lon="-6.095625">
        <ele>513.0</ele>
        <time>2012-06-05T07:37:29Z</time>
      </trkpt>
      <trkpt lat="43.170577" lon="-6.095701">
        <ele>514.0</ele>
        <time>2012-06-05T07:37:33Z</time>
      </trkpt>
      <trkpt lat="43.170256" lon="-6.095799">
        <ele>514.0</ele>
        <time>2012-06-05T07:37:37Z</time>
      </trkpt>
      <trkpt lat="43.169954" lon="-6.095903">
        <ele>514.0</ele>
        <time>2012-06-05T07:37:41Z</time>
      </trkpt>
      <trkpt lat="43.16966" lon="-6.095867">
        <ele>514.0</ele>
        <time>2012-06-05T07:37:45Z</time>
      </trkpt>
      <trkpt lat="43.16935" lon="-6.095817">
        <ele>513.0</ele>
        <time>2012-06-05T07:37:49Z</time>
      </trkpt>
      <trkpt lat="43.169073" lon="-6.095689">
        <ele>513.0</ele>
        <time>2012-06-05T07:37:53Z</time>
      </trkpt>
      <trkpt lat="43.168805" lon="-6.095579">
        <ele>512.0</ele>
        <time>2012-06-05T07:37:57Z</time>
      </trkpt>
      <trkpt lat="43.168548" lon="-6.095478">
        <ele>512.0</ele>
        <time>2012-06-05T07:38:01Z</time>
      </trkpt>
      <trkpt lat="43.168369" lon="-6.095422">
        <ele>512.0</ele>
        <time>2012-06-05T07:38:04Z</time>
      </trkpt>
      <trkpt lat="43.168179" lon="-6.095413">
        <ele>512.0</ele>
        <time>2012-06-05T07:38:08Z</time>
      </trkpt>
      <trkpt lat="43.168018" lon="-6.095454">
        <ele>513.0</ele>
        <time>2012-06-05T07:38:12Z</time>
      </trkpt>
      <trkpt lat="43.167858" lon="-6.095506">
        <ele>513.0</ele>
        <time>2012-06-05T07:38:16Z</time>
      </trkpt>
      <trkpt lat="43.167689" lon="-6.095523">
        <ele>515.0</ele>
        <time>2012-06-05T07:38:20Z</time>
      </trkpt>
      <trkpt lat="43.167481" lon="-6.095569">
        <ele>516.0</ele>
        <time>2012-06-05T07:38:24Z</time>
      </trkpt>
      <trkpt lat="43.167279" lon="-6.0957">
        <ele>516.0</ele>
        <time>2012-06-05T07:38:28Z</time>
      </trkpt>
      <trkpt lat="43.16713" lon="-6.095902">
        <ele>517.0</ele>
        <time>2012-06-05T07:38:32Z</time>
      </trkpt>
      <trkpt lat="43.166985" lon="-6.096097">
        <ele>518.0</ele>
        <time>2012-06-05T07:38:36Z</time>
      </trkpt>
      <trkpt lat="43.166837" lon="-6.096256">
        <ele>518.0</ele>
        <time>2012-06-05T07:38:40Z</time>
      </trkpt>
      <trkpt lat="43.166566" lon="-6.096302">
        <ele>522.0</ele>
        <time>2012-06-05T07:38:45Z</time>
      </trkpt>
      <trkpt lat="43.166264" lon="-6.096346">
        <ele>524.0</ele>
        <time>2012-06-05T07:38:49Z</time>
      </trkpt>
      <trkpt lat="43.165948" lon="-6.0964">
        <ele>525.0</ele>
        <time>2012-06-05T07:38:53Z</time>
      </trkpt>
      <trkpt lat="43.165615" lon="-6.096474">
        <ele>527.0</ele>
        <time>2012-06-05T07:38:57Z</time>
      </trkpt>
      <trkpt lat="43.165323" lon="-6.096562">
        <ele>528.0</ele>
        <time>2012-06-05T07:39:01Z</time>
      </trkpt>
      <trkpt lat="43.165119" lon="-6.09663">
        <ele>528.0</ele>
        <time>2012-06-05T07:39:04Z</time>
      </trkpt>
      <trkpt lat="43.164795" lon="-6.096757">
        <ele>528.0</ele>
        <time>2012-06-05T07:39:09Z</time>
      </trkpt>
      <trkpt lat="43.164547" lon="-6.096857">
        <ele>529.0</ele>
        <time>2012-06-05T07:39:13Z</time>
      </trkpt>
      <trkpt lat="43.164302" lon="-6.096939">
        <ele>529.0</ele>
        <time>2012-06-05T07:39:17Z</time>
      </trkpt>
      <trkpt lat="43.16406" lon="-6.096999">
        <ele>530.0</ele>
        <time>2012-06-05T07:39:21Z</time>
      </trkpt>
      <trkpt lat="43.163827" lon="-6.096999">
        <ele>531.0</ele>
        <time>2012-06-05T07:39:25Z</time>
      </trkpt>
      <trkpt lat="43.16363" lon="-6.096891">
        <ele>531.0</ele>
        <time>2012-06-05T07:39:29Z</time>
      </trkpt>
      <trkpt lat="43.163471" lon="-6.096557">
        <ele>532.0</ele>
        <time>2012-06-05T07:39:33Z</time>
      </trkpt>
      <trkpt lat="43.163344" lon="-6.096105">
        <ele>532.0</ele>
        <time>2012-06-05T07:39:37Z</time>
      </trkpt>
      <trkpt lat="43.163183" lon="-6.095865">
        <ele>532.0</ele>
        <time>2012-06-05T07:39:41Z</time>
      </trkpt>
      <trkpt lat="43.162986" lon="-6.095717">
        <ele>531.0</ele>
        <time>2012-06-05T07:39:45Z</time>
      </trkpt>
      <trkpt lat="43.16279" lon="-6.09587">
        <ele>532.0</ele>
        <time>2012-06-05T07:39:49Z</time>
      </trkpt>
      <trkpt lat="43.162597" lon="-6.096043">
        <ele>533.0</ele>
        <time>2012-06-05T07:39:53Z</time>
      </trkpt>
      <trkpt lat="43.162397" lon="-6.096224">
        <ele>534.0</ele>
        <time>2012-06-05T07:39:57Z</time>
      </trkpt>
      <trkpt lat="43.162197" lon="-6.096414">
        <ele>535.0</ele>
        <time>2012-06-05T07:40:01Z</time>
      </trkpt>
      <trkpt lat="43.162013" lon="-6.096477">
        <ele>537.0</ele>
        <time>2012-06-05T07:40:04Z</time>
      </trkpt>
      <trkpt lat="43.161722" lon="-6.096405">
        <ele>544.0</ele>
        <time>2012-06-05T07:40:09Z</time>
      </trkpt>
      <trkpt lat="43.161538" lon="-6.096338">
        <ele>547.0</ele>
        <time>2012-06-05T07:40:12Z</time>
      </trkpt>
      <trkpt lat="43.161223" lon="-6.096288">
        <ele>549.0</ele>
        <time>2012-06-05T07:40:17Z</time>
      </trkpt>
      <trkpt lat="43.161014" lon="-6.096311">
        <ele>549.0</ele>
        <time>2012-06-05T07:40:20Z</time>
      </trkpt>
      <trkpt lat="43.160677" lon="-6.096344">
        <ele>549.0</ele>
        <time>2012-06-05T07:40:25Z</time>
      </trkpt>
      <trkpt lat="43.160416" lon="-6.096365">
        <ele>549.0</ele>
        <time>2012-06-05T07:40:29Z</time>
      </trkpt>
      <trkpt lat="43.160156" lon="-6.096426">
        <ele>549.0</ele>
        <time>2012-06-05T07:40:33Z</time>
      </trkpt>
      <trkpt lat="43.159965" lon="-6.096451">
        <ele>549.0</ele>
        <time>2012-06-05T07:40:36Z</time>
      </trkpt>
      <trkpt lat="43.159658" lon="-6.096469">
        <ele>550.0</ele>
        <time>2012-06-05T07:40:41Z</time>
      </trkpt>
      <trkpt lat="43.159216" lon="-6.096549">
        <ele>550.0</ele>
        <time>2012-06-05T07:40:49Z</time>
      </trkpt>
      <trkpt lat="43.159008" lon="-6.096598">
        <ele>551.0</ele>
        <time>2012-06-05T07:40:53Z</time>
      </trkpt>
      <trkpt lat="43.158804" lon="-6.096644">
        <ele>551.0</ele>
        <time>2012-06-05T07:40:57Z</time>
      </trkpt>
      <trkpt lat="43.158607" lon="-6.096689">
        <ele>551.0</ele>
        <time>2012-06-05T07:41:01Z</time>
      </trkpt>
      <trkpt lat="43.158415" lon="-6.096721">
        <ele>551.0</ele>
        <time>2012-06-05T07:41:05Z</time>
      </trkpt>
      <trkpt lat="43.158221" lon="-6.096758">
        <ele>551.0</ele>
        <time>2012-06-05T07:41:09Z</time>
      </trkpt>
      <trkpt lat="43.158025" lon="-6.096814">
        <ele>553.0</ele>
        <time>2012-06-05T07:41:13Z</time>
      </trkpt>
      <trkpt lat="43.157819" lon="-6.096873">
        <ele>554.0</ele>
        <time>2012-06-05T07:41:17Z</time>
      </trkpt>
      <trkpt lat="43.157601" lon="-6.096932">
        <ele>555.0</ele>
        <time>2012-06-05T07:41:21Z</time>
      </trkpt>
      <trkpt lat="43.157368" lon="-6.096995">
        <ele>555.0</ele>
        <time>2012-06-05T07:41:25Z</time>
      </trkpt>
      <trkpt lat="43.157106" lon="-6.097044">
        <ele>556.0</ele>
        <time>2012-06-05T07:41:29Z</time>
      </trkpt>
      <trkpt lat="43.156835" lon="-6.097103">
        <ele>557.0</ele>
        <time>2012-06-05T07:41:33Z</time>
      </trkpt>
      <trkpt lat="43.156546" lon="-6.097172">
        <ele>557.0</ele>
        <time>2012-06-05T07:41:37Z</time>
      </trkpt>
      <trkpt lat="43.156232" lon="-6.097126">
        <ele>557.0</ele>
        <time>2012-06-05T07:41:41Z</time>
      </trkpt>
      <trkpt lat="43.155933" lon="-6.097066">
        <ele>557.0</ele>
        <time>2012-06-05T07:41:45Z</time>
      </trkpt>
      <trkpt lat="43.155654" lon="-6.096985">
        <ele>557.0</ele>
        <time>2012-06-05T07:41:49Z</time>
      </trkpt>
      <trkpt lat="43.155396" lon="-6.096916">
        <ele>557.0</ele>
        <time>2012-06-05T07:41:53Z</time>
      </trkpt>
      <trkpt lat="43.15516" lon="-6.096829">
        <ele>558.0</ele>
        <time>2012-06-05T07:41:57Z</time>
      </trkpt>
      <trkpt lat="43.154947" lon="-6.096651">
        <ele>560.0</ele>
        <time>2012-06-05T07:42:01Z</time>
      </trkpt>
      <trkpt lat="43.154793" lon="-6.096508">
        <ele>560.0</ele>
        <time>2012-06-05T07:42:04Z</time>
      </trkpt>
      <trkpt lat="43.154595" lon="-6.096327">
        <ele>559.0</ele>
        <time>2012-06-05T07:42:08Z</time>
      </trkpt>
      <trkpt lat="43.154405" lon="-6.096143">
        <ele>558.0</ele>
        <time>2012-06-05T07:42:12Z</time>
      </trkpt>
      <trkpt lat="43.154263" lon="-6.095959">
        <ele>558.0</ele>
        <time>2012-06-05T07:42:16Z</time>
      </trkpt>
      <trkpt lat="43.154105" lon="-6.095474">
        <ele>558.0</ele>
        <time>2012-06-05T07:42:21Z</time>
      </trkpt>
      <trkpt lat="43.153993" lon="-6.09504">
        <ele>559.0</ele>
        <time>2012-06-05T07:42:25Z</time>
      </trkpt>
      <trkpt lat="43.153895" lon="-6.094595">
        <ele>560.0</ele>
        <time>2012-06-05T07:42:29Z</time>
      </trkpt>
      <trkpt lat="43.153843" lon="-6.094405">
        <ele>561.0</ele>
        <time>2012-06-05T07:42:31Z</time>
      </trkpt>
      <trkpt lat="43.153614" lon="-6.093924">
        <ele>561.0</ele>
        <time>2012-06-05T07:42:37Z</time>
      </trkpt>
      <trkpt lat="43.153454" lon="-6.093642">
        <ele>561.0</ele>
        <time>2012-06-05T07:42:41Z</time>
      </trkpt>
      <trkpt lat="43.153378" lon="-6.093509">
        <ele>561.0</ele>
        <time>2012-06-05T07:42:43Z</time>
      </trkpt>
      <trkpt lat="43.153176" lon="-6.09312">
        <ele>562.0</ele>
        <time>2012-06-05T07:42:49Z</time>
      </trkpt>
      <trkpt lat="43.153036" lon="-6.092855">
        <ele>562.0</ele>
        <time>2012-06-05T07:42:53Z</time>
      </trkpt>
      <trkpt lat="43.1529" lon="-6.092584">
        <ele>563.0</ele>
        <time>2012-06-05T07:42:57Z</time>
      </trkpt>
      <trkpt lat="43.152761" lon="-6.092312">
        <ele>563.0</ele>
        <time>2012-06-05T07:43:01Z</time>
      </trkpt>
      <trkpt lat="43.152623" lon="-6.092038">
        <ele>564.0</ele>
        <time>2012-06-05T07:43:05Z</time>
      </trkpt>
      <trkpt lat="43.152479" lon="-6.091781">
        <ele>565.0</ele>
        <time>2012-06-05T07:43:09Z</time>
      </trkpt>
      <trkpt lat="43.152321" lon="-6.091583">
        <ele>565.0</ele>
        <time>2012-06-05T07:43:13Z</time>
      </trkpt>
      <trkpt lat="43.152239" lon="-6.091463">
        <ele>565.0</ele>
        <time>2012-06-05T07:43:15Z</time>
      </trkpt>
      <trkpt lat="43.151938" lon="-6.091254">
        <ele>565.0</ele>
        <time>2012-06-05T07:43:21Z</time>
      </trkpt>
      <trkpt lat="43.151738" lon="-6.091178">
        <ele>565.0</ele>
        <time>2012-06-05T07:43:25Z</time>
      </trkpt>
      <trkpt lat="43.151535" lon="-6.091199">
        <ele>565.0</ele>
        <time>2012-06-05T07:43:29Z</time>
      </trkpt>
      <trkpt lat="43.151341" lon="-6.091282">
        <ele>565.0</ele>
        <time>2012-06-05T07:43:33Z</time>
      </trkpt>
      <trkpt lat="43.151158" lon="-6.091327">
        <ele>566.0</ele>
        <time>2012-06-05T07:43:37Z</time>
      </trkpt>
      <trkpt lat="43.150982" lon="-6.091334">
        <ele>567.0</ele>
        <time>2012-06-05T07:43:41Z</time>
      </trkpt>
      <trkpt lat="43.150804" lon="-6.091317">
        <ele>568.0</ele>
        <time>2012-06-05T07:43:45Z</time>
      </trkpt>
      <trkpt lat="43.150625" lon="-6.091269">
        <ele>568.0</ele>
        <time>2012-06-05T07:43:49Z</time>
      </trkpt>
      <trkpt lat="43.150445" lon="-6.091189">
        <ele>569.0</ele>
        <time>2012-06-05T07:43:53Z</time>
      </trkpt>
      <trkpt lat="43.150258" lon="-6.091081">
        <ele>570.0</ele>
        <time>2012-06-05T07:43:57Z</time>
      </trkpt>
      <trkpt lat="43.150061" lon="-6.090937">
        <ele>571.0</ele>
        <time>2012-06-05T07:44:01Z</time>
      </trkpt>
      <trkpt lat="43.149881" lon="-6.090742">
        <ele>571.0</ele>
        <time>2012-06-05T07:44:05Z</time>
      </trkpt>
      <trkpt lat="43.149692" lon="-6.090575">
        <ele>571.0</ele>
        <time>2012-06-05T07:44:09Z</time>
      </trkpt>
      <trkpt lat="43.149456" lon="-6.090445">
        <ele>571.0</ele>
        <time>2012-06-05T07:44:13Z</time>
      </trkpt>
      <trkpt lat="43.149279" lon="-6.090353">
        <ele>572.0</ele>
        <time>2012-06-05T07:44:16Z</time>
      </trkpt>
      <trkpt lat="43.149067" lon="-6.090216">
        <ele>572.0</ele>
        <time>2012-06-05T07:44:20Z</time>
      </trkpt>
      <trkpt lat="43.148885" lon="-6.090041">
        <ele>572.0</ele>
        <time>2012-06-05T07:44:24Z</time>
      </trkpt>
      <trkpt lat="43.148797" lon="-6.089943">
        <ele>572.0</ele>
        <time>2012-06-05T07:44:26Z</time>
      </trkpt>
      <trkpt lat="43.148534" lon="-6.089371">
        <ele>573.0</ele>
        <time>2012-06-05T07:44:33Z</time>
      </trkpt>
      <trkpt lat="43.148402" lon="-6.088955">
        <ele>573.0</ele>
        <time>2012-06-05T07:44:37Z</time>
      </trkpt>
      <trkpt lat="43.148295" lon="-6.08856">
        <ele>573.0</ele>
        <time>2012-06-05T07:44:41Z</time>
      </trkpt>
      <trkpt lat="43.148203" lon="-6.08821">
        <ele>573.0</ele>
        <time>2012-06-05T07:44:45Z</time>
      </trkpt>
      <trkpt lat="43.148104" lon="-6.087888">
        <ele>572.0</ele>
        <time>2012-06-05T07:44:49Z</time>
      </trkpt>
      <trkpt lat="43.147997" lon="-6.08758">
        <ele>573.0</ele>
        <time>2012-06-05T07:44:53Z</time>
      </trkpt>
      <trkpt lat="43.14783" lon="-6.08735">
        <ele>573.0</ele>
        <time>2012-06-05T07:44:57Z</time>
      </trkpt>
      <trkpt lat="43.14745" lon="-6.086985">
        <ele>573.0</ele>
        <time>2012-06-05T07:45:05Z</time>
      </trkpt>
      <trkpt lat="43.147244" lon="-6.086815">
        <ele>572.0</ele>
        <time>2012-06-05T07:45:09Z</time>
      </trkpt>
      <trkpt lat="43.147081" lon="-6.086696">
        <ele>571.0</ele>
        <time>2012-06-05T07:45:12Z</time>
      </trkpt>
      <trkpt lat="43.146803" lon="-6.086472">
        <ele>570.0</ele>
        <time>2012-06-05T07:45:17Z</time>
      </trkpt>
      <trkpt lat="43.146583" lon="-6.086283">
        <ele>569.0</ele>
        <time>2012-06-05T07:45:21Z</time>
      </trkpt>
      <trkpt lat="43.146357" lon="-6.086128">
        <ele>568.0</ele>
        <time>2012-06-05T07:45:25Z</time>
      </trkpt>
      <trkpt lat="43.146127" lon="-6.086001">
        <ele>568.0</ele>
        <time>2012-06-05T07:45:29Z</time>
      </trkpt>
      <trkpt lat="43.145905" lon="-6.085891">
        <ele>568.0</ele>
        <time>2012-06-05T07:45:33Z</time>
      </trkpt>
      <trkpt lat="43.145467" lon="-6.085717">
        <ele>568.0</ele>
        <time>2012-06-05T07:45:41Z</time>
      </trkpt>
      <trkpt lat="43.145253" lon="-6.085604">
        <ele>567.0</ele>
        <time>2012-06-05T07:45:45Z</time>
      </trkpt>
      <trkpt lat="43.144938" lon="-6.085219">
        <ele>568.0</ele>
        <time>2012-06-05T07:45:53Z</time>
      </trkpt>
      <trkpt lat="43.144861" lon="-6.085118">
        <ele>568.0</ele>
        <time>2012-06-05T07:45:55Z</time>
      </trkpt>
      <trkpt lat="43.14461" lon="-6.08491">
        <ele>569.0</ele>
        <time>2012-06-05T07:46:01Z</time>
      </trkpt>
      <trkpt lat="43.144276" lon="-6.084737">
        <ele>569.0</ele>
        <time>2012-06-05T07:46:09Z</time>
      </trkpt>
      <trkpt lat="43.144116" lon="-6.084668">
        <ele>569.0</ele>
        <time>2012-06-05T07:46:13Z</time>
      </trkpt>
      <trkpt lat="43.143967" lon="-6.084623">
        <ele>570.0</ele>
        <time>2012-06-05T07:46:17Z</time>
      </trkpt>
      <trkpt lat="43.14383" lon="-6.0846">
        <ele>570.0</ele>
        <time>2012-06-05T07:46:21Z</time>
      </trkpt>
      <trkpt lat="43.143693" lon="-6.084574">
        <ele>570.0</ele>
        <time>2012-06-05T07:46:25Z</time>
      </trkpt>
      <trkpt lat="43.143623" lon="-6.08457">
        <ele>570.0</ele>
        <time>2012-06-05T07:46:27Z</time>
      </trkpt>
      <trkpt lat="43.14338" lon="-6.084586">
        <ele>572.0</ele>
        <time>2012-06-05T07:46:33Z</time>
      </trkpt>
      <trkpt lat="43.143183" lon="-6.0846">
        <ele>573.0</ele>
        <time>2012-06-05T07:46:37Z</time>
      </trkpt>
      <trkpt lat="43.142884" lon="-6.084582">
        <ele>574.0</ele>
        <time>2012-06-05T07:46:41Z</time>
      </trkpt>
      <trkpt lat="43.142556" lon="-6.084382">
        <ele>574.0</ele>
        <time>2012-06-05T07:46:45Z</time>
      </trkpt>
      <trkpt lat="43.142356" lon="-6.084103">
        <ele>575.0</ele>
        <time>2012-06-05T07:46:49Z</time>
      </trkpt>
      <trkpt lat="43.142202" lon="-6.083805">
        <ele>575.0</ele>
        <time>2012-06-05T07:46:53Z</time>
      </trkpt>
      <trkpt lat="43.142023" lon="-6.083554">
        <ele>576.0</ele>
        <time>2012-06-05T07:46:57Z</time>
      </trkpt>
      <trkpt lat="43.141818" lon="-6.083409">
        <ele>576.0</ele>
        <time>2012-06-05T07:47:01Z</time>
      </trkpt>
      <trkpt lat="43.141641" lon="-6.083292">
        <ele>576.0</ele>
        <time>2012-06-05T07:47:05Z</time>
      </trkpt>
      <trkpt lat="43.141575" lon="-6.083246">
        <ele>576.0</ele>
        <time>2012-06-05T07:47:07Z</time>
      </trkpt>
      <trkpt lat="43.141431" lon="-6.08302">
        <ele>577.0</ele>
        <time>2012-06-05T07:47:13Z</time>
      </trkpt>
      <trkpt lat="43.141368" lon="-6.082798">
        <ele>579.0</ele>
        <time>2012-06-05T07:47:17Z</time>
      </trkpt>
      <trkpt lat="43.141298" lon="-6.082516">
        <ele>580.0</ele>
        <time>2012-06-05T07:47:21Z</time>
      </trkpt>
      <trkpt lat="43.141211" lon="-6.082208">
        <ele>580.0</ele>
        <time>2012-06-05T07:47:25Z</time>
      </trkpt>
      <trkpt lat="43.141002" lon="-6.081695">
        <ele>581.0</ele>
        <time>2012-06-05T07:47:33Z</time>
      </trkpt>
      <trkpt lat="43.140847" lon="-6.081538">
        <ele>581.0</ele>
        <time>2012-06-05T07:47:37Z</time>
      </trkpt>
      <trkpt lat="43.140685" lon="-6.081416">
        <ele>582.0</ele>
        <time>2012-06-05T07:47:41Z</time>
      </trkpt>
      <trkpt lat="43.14053" lon="-6.081322">
        <ele>583.0</ele>
        <time>2012-06-05T07:47:45Z</time>
      </trkpt>
      <trkpt lat="43.140408" lon="-6.081205">
        <ele>583.0</ele>
        <time>2012-06-05T07:47:49Z</time>
      </trkpt>
      <trkpt lat="43.140309" lon="-6.081049">
        <ele>585.0</ele>
        <time>2012-06-05T07:47:53Z</time>
      </trkpt>
      <trkpt lat="43.140186" lon="-6.080819">
        <ele>587.0</ele>
        <time>2012-06-05T07:47:57Z</time>
      </trkpt>
      <trkpt lat="43.140076" lon="-6.080547">
        <ele>588.0</ele>
        <time>2012-06-05T07:48:01Z</time>
      </trkpt>
      <trkpt lat="43.139979" lon="-6.080274">
        <ele>589.0</ele>
        <time>2012-06-05T07:48:05Z</time>
      </trkpt>
      <trkpt lat="43.139929" lon="-6.080149">
        <ele>590.0</ele>
        <time>2012-06-05T07:48:07Z</time>
      </trkpt>
      <trkpt lat="43.139724" lon="-6.079858">
        <ele>590.0</ele>
        <time>2012-06-05T07:48:13Z</time>
      </trkpt>
      <trkpt lat="43.139544" lon="-6.079767">
        <ele>590.0</ele>
        <time>2012-06-05T07:48:17Z</time>
      </trkpt>
      <trkpt lat="43.139379" lon="-6.079675">
        <ele>589.0</ele>
        <time>2012-06-05T07:48:21Z</time>
      </trkpt>
      <trkpt lat="43.13922" lon="-6.079536">
        <ele>590.0</ele>
        <time>2012-06-05T07:48:25Z</time>
      </trkpt>
      <trkpt lat="43.13908" lon="-6.079326">
        <ele>591.0</ele>
        <time>2012-06-05T07:48:29Z</time>
      </trkpt>
      <trkpt lat="43.139003" lon="-6.079022">
        <ele>593.0</ele>
        <time>2012-06-05T07:48:33Z</time>
      </trkpt>
      <trkpt lat="43.138982" lon="-6.07869">
        <ele>594.0</ele>
        <time>2012-06-05T07:48:37Z</time>
      </trkpt>
      <trkpt lat="43.139011" lon="-6.078376">
        <ele>594.0</ele>
        <time>2012-06-05T07:48:41Z</time>
      </trkpt>
      <trkpt lat="43.139061" lon="-6.078079">
        <ele>594.0</ele>
        <time>2012-06-05T07:48:45Z</time>
      </trkpt>
      <trkpt lat="43.139115" lon="-6.077794">
        <ele>594.0</ele>
        <time>2012-06-05T07:48:49Z</time>
      </trkpt>
      <trkpt lat="43.139137" lon="-6.077519">
        <ele>594.0</ele>
        <time>2012-06-05T07:48:53Z</time>
      </trkpt>
      <trkpt lat="43.139112" lon="-6.077273">
        <ele>594.0</ele>
        <time>2012-06-05T07:48:57Z</time>
      </trkpt>
      <trkpt lat="43.139059" lon="-6.07703">
        <ele>594.0</ele>
        <time>2012-06-05T07:49:01Z</time>
      </trkpt>
      <trkpt lat="43.138999" lon="-6.076791">
        <ele>595.0</ele>
        <time>2012-06-05T07:49:05Z</time>
      </trkpt>
      <trkpt lat="43.138932" lon="-6.076556">
        <ele>595.0</ele>
        <time>2012-06-05T07:49:09Z</time>
      </trkpt>
      <trkpt lat="43.138792" lon="-6.076138">
        <ele>596.0</ele>
        <time>2012-06-05T07:49:17Z</time>
      </trkpt>
      <trkpt lat="43.138596" lon="-6.075673">
        <ele>597.0</ele>
        <time>2012-06-05T07:49:25Z</time>
      </trkpt>
      <trkpt lat="43.138355" lon="-6.075239">
        <ele>598.0</ele>
        <time>2012-06-05T07:49:33Z</time>
      </trkpt>
      <trkpt lat="43.13821" lon="-6.075148">
        <ele>598.0</ele>
        <time>2012-06-05T07:49:37Z</time>
      </trkpt>
      <trkpt lat="43.138049" lon="-6.075119">
        <ele>599.0</ele>
        <time>2012-06-05T07:49:41Z</time>
      </trkpt>
      <trkpt lat="43.137887" lon="-6.075101">
        <ele>600.0</ele>
        <time>2012-06-05T07:49:45Z</time>
      </trkpt>
      <trkpt lat="43.137569" lon="-6.075034">
        <ele>603.0</ele>
        <time>2012-06-05T07:49:53Z</time>
      </trkpt>
      <trkpt lat="43.137392" lon="-6.074976">
        <ele>604.0</ele>
        <time>2012-06-05T07:49:57Z</time>
      </trkpt>
      <trkpt lat="43.137213" lon="-6.074898">
        <ele>605.0</ele>
        <time>2012-06-05T07:50:01Z</time>
      </trkpt>
      <trkpt lat="43.137032" lon="-6.074807">
        <ele>605.0</ele>
        <time>2012-06-05T07:50:05Z</time>
      </trkpt>
      <trkpt lat="43.136857" lon="-6.074707">
        <ele>605.0</ele>
        <time>2012-06-05T07:50:09Z</time>
      </trkpt>
      <trkpt lat="43.136687" lon="-6.074588">
        <ele>606.0</ele>
        <time>2012-06-05T07:50:13Z</time>
      </trkpt>
      <trkpt lat="43.136513" lon="-6.074475">
        <ele>607.0</ele>
        <time>2012-06-05T07:50:17Z</time>
      </trkpt>
      <trkpt lat="43.136338" lon="-6.074381">
        <ele>607.0</ele>
        <time>2012-06-05T07:50:21Z</time>
      </trkpt>
      <trkpt lat="43.136185" lon="-6.07428">
        <ele>608.0</ele>
        <time>2012-06-05T07:50:25Z</time>
      </trkpt>
      <trkpt lat="43.136032" lon="-6.074187">
        <ele>609.0</ele>
        <time>2012-06-05T07:50:29Z</time>
      </trkpt>
      <trkpt lat="43.135955" lon="-6.074152">
        <ele>610.0</ele>
        <time>2012-06-05T07:50:31Z</time>
      </trkpt>
      <trkpt lat="43.135719" lon="-6.074164">
        <ele>610.0</ele>
        <time>2012-06-05T07:50:37Z</time>
      </trkpt>
      <trkpt lat="43.135522" lon="-6.074155">
        <ele>611.0</ele>
        <time>2012-06-05T07:50:41Z</time>
      </trkpt>
      <trkpt lat="43.13527" lon="-6.074117">
        <ele>611.0</ele>
        <time>2012-06-05T07:50:45Z</time>
      </trkpt>
      <trkpt lat="43.134991" lon="-6.07406">
        <ele>612.0</ele>
        <time>2012-06-05T07:50:49Z</time>
      </trkpt>
      <trkpt lat="43.134716" lon="-6.073998">
        <ele>612.0</ele>
        <time>2012-06-05T07:50:53Z</time>
      </trkpt>
      <trkpt lat="43.134515" lon="-6.073978">
        <ele>612.0</ele>
        <time>2012-06-05T07:50:56Z</time>
      </trkpt>
      <trkpt lat="43.134206" lon="-6.074084">
        <ele>613.0</ele>
        <time>2012-06-05T07:51:01Z</time>
      </trkpt>
      <trkpt lat="43.133991" lon="-6.074272">
        <ele>613.0</ele>
        <time>2012-06-05T07:51:05Z</time>
      </trkpt>
      <trkpt lat="43.133804" lon="-6.074436">
        <ele>614.0</ele>
        <time>2012-06-05T07:51:09Z</time>
      </trkpt>
      <trkpt lat="43.133624" lon="-6.074568">
        <ele>615.0</ele>
        <time>2012-06-05T07:51:13Z</time>
      </trkpt>
      <trkpt lat="43.133432" lon="-6.074584">
        <ele>616.0</ele>
        <time>2012-06-05T07:51:17Z</time>
      </trkpt>
      <trkpt lat="43.133256" lon="-6.074496">
        <ele>616.0</ele>
        <time>2012-06-05T07:51:21Z</time>
      </trkpt>
      <trkpt lat="43.13309" lon="-6.074396">
        <ele>617.0</ele>
        <time>2012-06-05T07:51:25Z</time>
      </trkpt>
      <trkpt lat="43.132934" lon="-6.074306">
        <ele>617.0</ele>
        <time>2012-06-05T07:51:29Z</time>
      </trkpt>
      <trkpt lat="43.132774" lon="-6.074237">
        <ele>617.0</ele>
        <time>2012-06-05T07:51:33Z</time>
      </trkpt>
      <trkpt lat="43.13261" lon="-6.074184">
        <ele>618.0</ele>
        <time>2012-06-05T07:51:37Z</time>
      </trkpt>
      <trkpt lat="43.132277" lon="-6.074102">
        <ele>618.0</ele>
        <time>2012-06-05T07:51:45Z</time>
      </trkpt>
      <trkpt lat="43.132115" lon="-6.074095">
        <ele>618.0</ele>
        <time>2012-06-05T07:51:49Z</time>
      </trkpt>
      <trkpt lat="43.131962" lon="-6.074096">
        <ele>618.0</ele>
        <time>2012-06-05T07:51:53Z</time>
      </trkpt>
      <trkpt lat="43.13183" lon="-6.074042">
        <ele>619.0</ele>
        <time>2012-06-05T07:51:57Z</time>
      </trkpt>
      <trkpt lat="43.131714" lon="-6.073882">
        <ele>619.0</ele>
        <time>2012-06-05T07:52:01Z</time>
      </trkpt>
      <trkpt lat="43.131591" lon="-6.073698">
        <ele>619.0</ele>
        <time>2012-06-05T07:52:05Z</time>
      </trkpt>
      <trkpt lat="43.131449" lon="-6.073523">
        <ele>620.0</ele>
        <time>2012-06-05T07:52:09Z</time>
      </trkpt>
      <trkpt lat="43.131294" lon="-6.073405">
        <ele>620.0</ele>
        <time>2012-06-05T07:52:13Z</time>
      </trkpt>
      <trkpt lat="43.131148" lon="-6.07336">
        <ele>620.0</ele>
        <time>2012-06-05T07:52:17Z</time>
      </trkpt>
      <trkpt lat="43.131012" lon="-6.073307">
        <ele>621.0</ele>
        <time>2012-06-05T07:52:21Z</time>
      </trkpt>
      <trkpt lat="43.130882" lon="-6.073239">
        <ele>621.0</ele>
        <time>2012-06-05T07:52:25Z</time>
      </trkpt>
      <trkpt lat="43.130818" lon="-6.073209">
        <ele>622.0</ele>
        <time>2012-06-05T07:52:27Z</time>
      </trkpt>
      <trkpt lat="43.130623" lon="-6.073098">
        <ele>622.0</ele>
        <time>2012-06-05T07:52:33Z</time>
      </trkpt>
      <trkpt lat="43.130486" lon="-6.073037">
        <ele>623.0</ele>
        <time>2012-06-05T07:52:37Z</time>
      </trkpt>
      <trkpt lat="43.130342" lon="-6.072971">
        <ele>623.0</ele>
        <time>2012-06-05T07:52:41Z</time>
      </trkpt>
      <trkpt lat="43.130195" lon="-6.072892">
        <ele>624.0</ele>
        <time>2012-06-05T07:52:45Z</time>
      </trkpt>
      <trkpt lat="43.130048" lon="-6.0728">
        <ele>624.0</ele>
        <time>2012-06-05T07:52:49Z</time>
      </trkpt>
      <trkpt lat="43.129897" lon="-6.072699">
        <ele>625.0</ele>
        <time>2012-06-05T07:52:53Z</time>
      </trkpt>
      <trkpt lat="43.129751" lon="-6.072594">
        <ele>625.0</ele>
        <time>2012-06-05T07:52:57Z</time>
      </trkpt>
      <trkpt lat="43.129613" lon="-6.072459">
        <ele>625.0</ele>
        <time>2012-06-05T07:53:01Z</time>
      </trkpt>
      <trkpt lat="43.129464" lon="-6.0723">
        <ele>626.0</ele>
        <time>2012-06-05T07:53:05Z</time>
      </trkpt>
      <trkpt lat="43.129303" lon="-6.072116">
        <ele>627.0</ele>
        <time>2012-06-05T07:53:09Z</time>
      </trkpt>
      <trkpt lat="43.129223" lon="-6.072018">
        <ele>628.0</ele>
        <time>2012-06-05T07:53:11Z</time>
      </trkpt>
      <trkpt lat="43.128998" lon="-6.071713">
        <ele>628.0</ele>
        <time>2012-06-05T07:53:17Z</time>
      </trkpt>
      <trkpt lat="43.128868" lon="-6.071506">
        <ele>628.0</ele>
        <time>2012-06-05T07:53:21Z</time>
      </trkpt>
      <trkpt lat="43.12875" lon="-6.071301">
        <ele>628.0</ele>
        <time>2012-06-05T07:53:25Z</time>
      </trkpt>
      <trkpt lat="43.12869" lon="-6.071207">
        <ele>628.0</ele>
        <time>2012-06-05T07:53:27Z</time>
      </trkpt>
      <trkpt lat="43.128482" lon="-6.070994">
        <ele>628.0</ele>
        <time>2012-06-05T07:53:33Z</time>
      </trkpt>
      <trkpt lat="43.128344" lon="-6.070888">
        <ele>628.0</ele>
        <time>2012-06-05T07:53:37Z</time>
      </trkpt>
      <trkpt lat="43.128239" lon="-6.070778">
        <ele>628.0</ele>
        <time>2012-06-05T07:53:41Z</time>
      </trkpt>
      <trkpt lat="43.128116" lon="-6.070635">
        <ele>629.0</ele>
        <time>2012-06-05T07:53:45Z</time>
      </trkpt>
      <trkpt lat="43.127997" lon="-6.070461">
        <ele>631.0</ele>
        <time>2012-06-05T07:53:49Z</time>
      </trkpt>
      <trkpt lat="43.127887" lon="-6.070278">
        <ele>632.0</ele>
        <time>2012-06-05T07:53:53Z</time>
      </trkpt>
      <trkpt lat="43.127789" lon="-6.070104">
        <ele>633.0</ele>
        <time>2012-06-05T07:53:57Z</time>
      </trkpt>
      <trkpt lat="43.127682" lon="-6.069939">
        <ele>634.0</ele>
        <time>2012-06-05T07:54:01Z</time>
      </trkpt>
      <trkpt lat="43.127585" lon="-6.069777">
        <ele>634.0</ele>
        <time>2012-06-05T07:54:05Z</time>
      </trkpt>
      <trkpt lat="43.127498" lon="-6.069616">
        <ele>635.0</ele>
        <time>2012-06-05T07:54:09Z</time>
      </trkpt>
      <trkpt lat="43.12742" lon="-6.069461">
        <ele>635.0</ele>
        <time>2012-06-05T07:54:13Z</time>
      </trkpt>
      <trkpt lat="43.127334" lon="-6.069316">
        <ele>636.0</ele>
        <time>2012-06-05T07:54:17Z</time>
      </trkpt>
      <trkpt lat="43.127252" lon="-6.069164">
        <ele>636.0</ele>
        <time>2012-06-05T07:54:21Z</time>
      </trkpt>
      <trkpt lat="43.127172" lon="-6.068989">
        <ele>636.0</ele>
        <time>2012-06-05T07:54:25Z</time>
      </trkpt>
      <trkpt lat="43.127083" lon="-6.068777">
        <ele>637.0</ele>
        <time>2012-06-05T07:54:29Z</time>
      </trkpt>
      <trkpt lat="43.126995" lon="-6.068553">
        <ele>639.0</ele>
        <time>2012-06-05T07:54:33Z</time>
      </trkpt>
      <trkpt lat="43.126914" lon="-6.068078">
        <ele>640.0</ele>
        <time>2012-06-05T07:54:41Z</time>
      </trkpt>
      <trkpt lat="43.126867" lon="-6.067851">
        <ele>641.0</ele>
        <time>2012-06-05T07:54:45Z</time>
      </trkpt>
      <trkpt lat="43.126777" lon="-6.067639">
        <ele>642.0</ele>
        <time>2012-06-05T07:54:49Z</time>
      </trkpt>
      <trkpt lat="43.126628" lon="-6.067514">
        <ele>643.0</ele>
        <time>2012-06-05T07:54:53Z</time>
      </trkpt>
      <trkpt lat="43.126495" lon="-6.067401">
        <ele>644.0</ele>
        <time>2012-06-05T07:54:57Z</time>
      </trkpt>
      <trkpt lat="43.126378" lon="-6.067303">
        <ele>645.0</ele>
        <time>2012-06-05T07:55:01Z</time>
      </trkpt>
      <trkpt lat="43.126265" lon="-6.067201">
        <ele>645.0</ele>
        <time>2012-06-05T07:55:05Z</time>
      </trkpt>
      <trkpt lat="43.126158" lon="-6.06709">
        <ele>645.0</ele>
        <time>2012-06-05T07:55:09Z</time>
      </trkpt>
      <trkpt lat="43.126059" lon="-6.066977">
        <ele>645.0</ele>
        <time>2012-06-05T07:55:13Z</time>
      </trkpt>
      <trkpt lat="43.125991" lon="-6.066889">
        <ele>645.0</ele>
        <time>2012-06-05T07:55:16Z</time>
      </trkpt>
      <trkpt lat="43.125882" lon="-6.066719">
        <ele>646.0</ele>
        <time>2012-06-05T07:55:21Z</time>
      </trkpt>
      <trkpt lat="43.125797" lon="-6.066496">
        <ele>649.0</ele>
        <time>2012-06-05T07:55:25Z</time>
      </trkpt>
      <trkpt lat="43.125731" lon="-6.06627">
        <ele>652.0</ele>
        <time>2012-06-05T07:55:29Z</time>
      </trkpt>
      <trkpt lat="43.125687" lon="-6.06605">
        <ele>653.0</ele>
        <time>2012-06-05T07:55:33Z</time>
      </trkpt>
      <trkpt lat="43.12564" lon="-6.065819">
        <ele>654.0</ele>
        <time>2012-06-05T07:55:37Z</time>
      </trkpt>
      <trkpt lat="43.125592" lon="-6.065578">
        <ele>655.0</ele>
        <time>2012-06-05T07:55:41Z</time>
      </trkpt>
      <trkpt lat="43.125546" lon="-6.065344">
        <ele>656.0</ele>
        <time>2012-06-05T07:55:45Z</time>
      </trkpt>
      <trkpt lat="43.125512" lon="-6.065117">
        <ele>656.0</ele>
        <time>2012-06-05T07:55:49Z</time>
      </trkpt>
      <trkpt lat="43.125481" lon="-6.064896">
        <ele>656.0</ele>
        <time>2012-06-05T07:55:53Z</time>
      </trkpt>
      <trkpt lat="43.12539" lon="-6.06447">
        <ele>656.0</ele>
        <time>2012-06-05T07:56:01Z</time>
      </trkpt>
      <trkpt lat="43.125302" lon="-6.064035">
        <ele>657.0</ele>
        <time>2012-06-05T07:56:09Z</time>
      </trkpt>
      <trkpt lat="43.125196" lon="-6.063591">
        <ele>660.0</ele>
        <time>2012-06-05T07:56:17Z</time>
      </trkpt>
      <trkpt lat="43.125196" lon="-6.063354">
        <ele>661.0</ele>
        <time>2012-06-05T07:56:21Z</time>
      </trkpt>
      <trkpt lat="43.125201" lon="-6.063229">
        <ele>662.0</ele>
        <time>2012-06-05T07:56:23Z</time>
      </trkpt>
      <trkpt lat="43.125256" lon="-6.062872">
        <ele>663.0</ele>
        <time>2012-06-05T07:56:29Z</time>
      </trkpt>
      <trkpt lat="43.12532" lon="-6.062647">
        <ele>665.0</ele>
        <time>2012-06-05T07:56:33Z</time>
      </trkpt>
      <trkpt lat="43.125384" lon="-6.062433">
        <ele>666.0</ele>
        <time>2012-06-05T07:56:37Z</time>
      </trkpt>
      <trkpt lat="43.125453" lon="-6.06222">
        <ele>667.0</ele>
        <time>2012-06-05T07:56:41Z</time>
      </trkpt>
      <trkpt lat="43.125549" lon="-6.061997">
        <ele>668.0</ele>
        <time>2012-06-05T07:56:45Z</time>
      </trkpt>
      <trkpt lat="43.12572" lon="-6.061825">
        <ele>671.0</ele>
        <time>2012-06-05T07:56:49Z</time>
      </trkpt>
      <trkpt lat="43.125951" lon="-6.061647">
        <ele>675.0</ele>
        <time>2012-06-05T07:56:53Z</time>
      </trkpt>
      <trkpt lat="43.126205" lon="-6.061486">
        <ele>678.0</ele>
        <time>2012-06-05T07:56:57Z</time>
      </trkpt>
      <trkpt lat="43.126465" lon="-6.061334">
        <ele>679.0</ele>
        <time>2012-06-05T07:57:01Z</time>
      </trkpt>
      <trkpt lat="43.126713" lon="-6.061185">
        <ele>681.0</ele>
        <time>2012-06-05T07:57:05Z</time>
      </trkpt>
      <trkpt lat="43.126949" lon="-6.061024">
        <ele>681.0</ele>
        <time>2012-06-05T07:57:09Z</time>
      </trkpt>
      <trkpt lat="43.127138" lon="-6.060759">
        <ele>682.0</ele>
        <time>2012-06-05T07:57:13Z</time>
      </trkpt>
      <trkpt lat="43.12716" lon="-6.060663">
        <ele>682.0</ele>
        <time>2012-06-05T07:57:14Z</time>
      </trkpt>
      <trkpt lat="43.126979" lon="-6.060244">
        <ele>687.0</ele>
        <time>2012-06-05T07:57:21Z</time>
      </trkpt>
      <trkpt lat="43.126803" lon="-6.060173">
        <ele>687.0</ele>
        <time>2012-06-05T07:57:24Z</time>
      </trkpt>
      <trkpt lat="43.126598" lon="-6.060092">
        <ele>687.0</ele>
        <time>2012-06-05T07:57:28Z</time>
      </trkpt>
      <trkpt lat="43.126396" lon="-6.060016">
        <ele>687.0</ele>
        <time>2012-06-05T07:57:32Z</time>
      </trkpt>
      <trkpt lat="43.126204" lon="-6.059962">
        <ele>687.0</ele>
        <time>2012-06-05T07:57:36Z</time>
      </trkpt>
      <trkpt lat="43.12602" lon="-6.05997">
        <ele>688.0</ele>
        <time>2012-06-05T07:57:40Z</time>
      </trkpt>
      <trkpt lat="43.125845" lon="-6.06008">
        <ele>688.0</ele>
        <time>2012-06-05T07:57:44Z</time>
      </trkpt>
      <trkpt lat="43.125667" lon="-6.060164">
        <ele>689.0</ele>
        <time>2012-06-05T07:57:48Z</time>
      </trkpt>
      <trkpt lat="43.12548" lon="-6.060207">
        <ele>689.0</ele>
        <time>2012-06-05T07:57:52Z</time>
      </trkpt>
      <trkpt lat="43.125287" lon="-6.060227">
        <ele>690.0</ele>
        <time>2012-06-05T07:57:56Z</time>
      </trkpt>
      <trkpt lat="43.12507" lon="-6.060066">
        <ele>691.0</ele>
        <time>2012-06-05T07:58:01Z</time>
      </trkpt>
      <trkpt lat="43.124869" lon="-6.059661">
        <ele>692.0</ele>
        <time>2012-06-05T07:58:05Z</time>
      </trkpt>
      <trkpt lat="43.124773" lon="-6.059385">
        <ele>693.0</ele>
        <time>2012-06-05T07:58:08Z</time>
      </trkpt>
      <trkpt lat="43.124604" lon="-6.059001">
        <ele>694.0</ele>
        <time>2012-06-05T07:58:13Z</time>
      </trkpt>
      <trkpt lat="43.124496" lon="-6.058782">
        <ele>694.0</ele>
        <time>2012-06-05T07:58:16Z</time>
      </trkpt>
      <trkpt lat="43.124366" lon="-6.058499">
        <ele>695.0</ele>
        <time>2012-06-05T07:58:20Z</time>
      </trkpt>
      <trkpt lat="43.124239" lon="-6.058225">
        <ele>695.0</ele>
        <time>2012-06-05T07:58:24Z</time>
      </trkpt>
      <trkpt lat="43.124112" lon="-6.057948">
        <ele>696.0</ele>
        <time>2012-06-05T07:58:28Z</time>
      </trkpt>
      <trkpt lat="43.12406" lon="-6.057811">
        <ele>696.0</ele>
        <time>2012-06-05T07:58:30Z</time>
      </trkpt>
      <trkpt lat="43.123857" lon="-6.057293">
        <ele>695.0</ele>
        <time>2012-06-05T07:58:37Z</time>
      </trkpt>
      <trkpt lat="43.123752" lon="-6.057035">
        <ele>696.0</ele>
        <time>2012-06-05T07:58:40Z</time>
      </trkpt>
      <trkpt lat="43.123544" lon="-6.056617">
        <ele>697.0</ele>
        <time>2012-06-05T07:58:45Z</time>
      </trkpt>
      <trkpt lat="43.123245" lon="-6.056237">
        <ele>698.0</ele>
        <time>2012-06-05T07:58:49Z</time>
      </trkpt>
      <trkpt lat="43.122856" lon="-6.055975">
        <ele>700.0</ele>
        <time>2012-06-05T07:58:53Z</time>
      </trkpt>
      <trkpt lat="43.122438" lon="-6.055834">
        <ele>701.0</ele>
        <time>2012-06-05T07:58:57Z</time>
      </trkpt>
      <trkpt lat="43.121967" lon="-6.055781">
        <ele>701.0</ele>
        <time>2012-06-05T07:59:01Z</time>
      </trkpt>
      <trkpt lat="43.121508" lon="-6.055757">
        <ele>701.0</ele>
        <time>2012-06-05T07:59:05Z</time>
      </trkpt>
      <trkpt lat="43.121045" lon="-6.055798">
        <ele>701.0</ele>
        <time>2012-06-05T07:59:09Z</time>
      </trkpt>
      <trkpt lat="43.120611" lon="-6.05585">
        <ele>700.0</ele>
        <time>2012-06-05T07:59:13Z</time>
      </trkpt>
      <trkpt lat="43.120251" lon="-6.055897">
        <ele>701.0</ele>
        <time>2012-06-05T07:59:17Z</time>
      </trkpt>
      <trkpt lat="43.119928" lon="-6.05593">
        <ele>700.0</ele>
        <time>2012-06-05T07:59:21Z</time>
      </trkpt>
      <trkpt lat="43.119622" lon="-6.055945">
        <ele>700.0</ele>
        <time>2012-06-05T07:59:25Z</time>
      </trkpt>
      <trkpt lat="43.119328" lon="-6.055931">
        <ele>700.0</ele>
        <time>2012-06-05T07:59:29Z</time>
      </trkpt>
      <trkpt lat="43.119042" lon="-6.055895">
        <ele>701.0</ele>
        <time>2012-06-05T07:59:33Z</time>
      </trkpt>
      <trkpt lat="43.11877" lon="-6.055832">
        <ele>701.0</ele>
        <time>2012-06-05T07:59:37Z</time>
      </trkpt>
      <trkpt lat="43.118495" lon="-6.055767">
        <ele>702.0</ele>
        <time>2012-06-05T07:59:41Z</time>
      </trkpt>
      <trkpt lat="43.118414" lon="-6.055317">
        <ele>702.0</ele>
        <time>2012-06-05T07:59:45Z</time>
      </trkpt>
      <trkpt lat="43.118365" lon="-6.054929">
        <ele>703.0</ele>
        <time>2012-06-05T07:59:49Z</time>
      </trkpt>
      <trkpt lat="43.118331" lon="-6.054655">
        <ele>703.0</ele>
        <time>2012-06-05T07:59:53Z</time>
      </trkpt>
      <trkpt lat="43.118301" lon="-6.054448">
        <ele>702.0</ele>
        <time>2012-06-05T07:59:57Z</time>
      </trkpt>
      <trkpt lat="43.118234" lon="-6.054389">
        <ele>702.0</ele>
        <time>2012-06-05T07:59:59Z</time>
      </trkpt>
      <trkpt lat="43.119533" lon="-6.052786">
        <ele>706.0</ele>
        <time>2012-06-05T08:00:05Z</time>
      </trkpt>
      <trkpt lat="43.119665" lon="-6.052467">
        <ele>706.0</ele>
        <time>2012-06-05T08:00:09Z</time>
      </trkpt>
      <trkpt lat="43.11968" lon="-6.05237">
        <ele>706.0</ele>
        <time>2012-06-05T08:00:11Z</time>
      </trkpt>
      <trkpt lat="43.119544" lon="-6.052267">
        <ele>709.0</ele>
        <time>2012-06-05T08:00:16Z</time>
      </trkpt>
      <trkpt lat="43.119329" lon="-6.052232">
        <ele>710.0</ele>
        <time>2012-06-05T08:00:20Z</time>
      </trkpt>
      <trkpt lat="43.119329" lon="-6.052232">
        <time>2012-06-05T08:00:31Z</time>
      </trkpt>
    </trkseg>
    <trkseg>
      <trkpt lat="43.119329" lon="-6.052232">
        <time>2012-06-05T08:00:49Z</time>
      </trkpt>
      <trkpt lat="43.119677" lon="-6.0494">
        <ele>706.0</ele>
        <time>2012-06-05T08:00:51Z</time>
      </trkpt>
      <trkpt lat="43.119733" lon="-6.049155">
        <ele>706.0</ele>
        <time>2012-06-05T08:00:54Z</time>
      </trkpt>
      <trkpt lat="43.119784" lon="-6.048887">
        <ele>705.0</ele>
        <time>2012-06-05T08:00:58Z</time>
      </trkpt>
      <trkpt lat="43.119806" lon="-6.048681">
        <ele>705.0</ele>
        <time>2012-06-05T08:01:02Z</time>
      </trkpt>
      <trkpt lat="43.119564" lon="-6.048726">
        <ele>705.0</ele>
        <time>2012-06-05T08:01:07Z</time>
      </trkpt>
      <trkpt lat="43.119306" lon="-6.048824">
        <ele>705.0</ele>
        <time>2012-06-05T08:01:11Z</time>
      </trkpt>
      <trkpt lat="43.119089" lon="-6.048904">
        <ele>705.0</ele>
        <time>2012-06-05T08:01:15Z</time>
      </trkpt>
      <trkpt lat="43.119024" lon="-6.048907">
        <ele>705.0</ele>
        <time>2012-06-05T08:01:17Z</time>
      </trkpt>
      <trkpt lat="43.118962" lon="-6.048837">
        <ele>706.0</ele>
        <time>2012-06-05T08:01:21Z</time>
      </trkpt>
      <trkpt lat="43.118889" lon="-6.048795">
        <ele>706.0</ele>
        <time>2012-06-05T08:01:25Z</time>
      </trkpt>
      <trkpt lat="43.118833" lon="-6.048752">
        <ele>706.0</ele>
        <time>2012-06-05T08:01:28Z</time>
      </trkpt>
      <trkpt lat="43.118743" lon="-6.048664">
        <ele>706.0</ele>
        <time>2012-06-05T08:01:33Z</time>
      </trkpt>
      <trkpt lat="43.118662" lon="-6.048569">
        <ele>706.0</ele>
        <time>2012-06-05T08:01:38Z</time>
      </trkpt>
      <trkpt lat="43.118576" lon="-6.048534">
        <ele>707.0</ele>
        <time>2012-06-05T08:01:42Z</time>
      </trkpt>
      <trkpt lat="43.11828" lon="-6.048636">
        <ele>710.0</ele>
        <time>2012-06-05T08:01:54Z</time>
      </trkpt>
      <trkpt lat="43.118125" lon="-6.04868">
        <ele>711.0</ele>
        <time>2012-06-05T08:01:58Z</time>
      </trkpt>
      <trkpt lat="43.117957" lon="-6.048693">
        <ele>712.0</ele>
        <time>2012-06-05T08:02:02Z</time>
      </trkpt>
      <trkpt lat="43.117772" lon="-6.048754">
        <ele>713.0</ele>
        <time>2012-06-05T08:02:06Z</time>
      </trkpt>
      <trkpt lat="43.117568" lon="-6.048843">
        <ele>713.0</ele>
        <time>2012-06-05T08:02:10Z</time>
      </trkpt>
      <trkpt lat="43.117357" lon="-6.048922">
        <ele>714.0</ele>
        <time>2012-06-05T08:02:14Z</time>
      </trkpt>
      <trkpt lat="43.117087" lon="-6.049072">
        <ele>714.0</ele>
        <time>2012-06-05T08:02:19Z</time>
      </trkpt>
      <trkpt lat="43.116834" lon="-6.049191">
        <ele>714.0</ele>
        <time>2012-06-05T08:02:23Z</time>
      </trkpt>
      <trkpt lat="43.116578" lon="-6.049303">
        <ele>714.0</ele>
        <time>2012-06-05T08:02:27Z</time>
      </trkpt>
      <trkpt lat="43.116335" lon="-6.049413">
        <ele>714.0</ele>
        <time>2012-06-05T08:02:31Z</time>
      </trkpt>
      <trkpt lat="43.1161" lon="-6.049549">
        <ele>716.0</ele>
        <time>2012-06-05T08:02:35Z</time>
      </trkpt>
      <trkpt lat="43.115923" lon="-6.049648">
        <ele>717.0</ele>
        <time>2012-06-05T08:02:38Z</time>
      </trkpt>
      <trkpt lat="43.115688" lon="-6.049763">
        <ele>718.0</ele>
        <time>2012-06-05T08:02:42Z</time>
      </trkpt>
      <trkpt lat="43.115454" lon="-6.049883">
        <ele>718.0</ele>
        <time>2012-06-05T08:02:46Z</time>
      </trkpt>
      <trkpt lat="43.115217" lon="-6.049977">
        <ele>718.0</ele>
        <time>2012-06-05T08:02:50Z</time>
      </trkpt>
      <trkpt lat="43.114976" lon="-6.050036">
        <ele>718.0</ele>
        <time>2012-06-05T08:02:54Z</time>
      </trkpt>
      <trkpt lat="43.114746" lon="-6.050046">
        <ele>718.0</ele>
        <time>2012-06-05T08:02:58Z</time>
      </trkpt>
      <trkpt lat="43.114527" lon="-6.050046">
        <ele>719.0</ele>
        <time>2012-06-05T08:03:02Z</time>
      </trkpt>
      <trkpt lat="43.114318" lon="-6.050063">
        <ele>719.0</ele>
        <time>2012-06-05T08:03:06Z</time>
      </trkpt>
      <trkpt lat="43.114114" lon="-6.050072">
        <ele>719.0</ele>
        <time>2012-06-05T08:03:10Z</time>
      </trkpt>
      <trkpt lat="43.113913" lon="-6.050066">
        <ele>720.0</ele>
        <time>2012-06-05T08:03:14Z</time>
      </trkpt>
      <trkpt lat="43.113712" lon="-6.050043">
        <ele>720.0</ele>
        <time>2012-06-05T08:03:18Z</time>
      </trkpt>
      <trkpt lat="43.113512" lon="-6.050008">
        <ele>720.0</ele>
        <time>2012-06-05T08:03:22Z</time>
      </trkpt>
      <trkpt lat="43.113321" lon="-6.049958">
        <ele>720.0</ele>
        <time>2012-06-05T08:03:26Z</time>
      </trkpt>
      <trkpt lat="43.113141" lon="-6.049887">
        <ele>720.0</ele>
        <time>2012-06-05T08:03:30Z</time>
      </trkpt>
      <trkpt lat="43.112972" lon="-6.049797">
        <ele>720.0</ele>
        <time>2012-06-05T08:03:34Z</time>
      </trkpt>
      <trkpt lat="43.112814" lon="-6.049699">
        <ele>720.0</ele>
        <time>2012-06-05T08:03:38Z</time>
      </trkpt>
      <trkpt lat="43.112663" lon="-6.049608">
        <ele>720.0</ele>
        <time>2012-06-05T08:03:42Z</time>
      </trkpt>
      <trkpt lat="43.112521" lon="-6.049516">
        <ele>720.0</ele>
        <time>2012-06-05T08:03:46Z</time>
      </trkpt>
      <trkpt lat="43.112392" lon="-6.049416">
        <ele>720.0</ele>
        <time>2012-06-05T08:03:50Z</time>
      </trkpt>
      <trkpt lat="43.112266" lon="-6.04934">
        <ele>720.0</ele>
        <time>2012-06-05T08:03:54Z</time>
      </trkpt>
      <trkpt lat="43.112138" lon="-6.049321">
        <ele>720.0</ele>
        <time>2012-06-05T08:03:58Z</time>
      </trkpt>
      <trkpt lat="43.112008" lon="-6.049332">
        <ele>720.0</ele>
        <time>2012-06-05T08:04:02Z</time>
      </trkpt>
      <trkpt lat="43.111915" lon="-6.049329">
        <ele>720.0</ele>
        <time>2012-06-05T08:04:05Z</time>
      </trkpt>
      <trkpt lat="43.111737" lon="-6.049314">
        <ele>720.0</ele>
        <time>2012-06-05T08:04:11Z</time>
      </trkpt>
      <trkpt lat="43.11165" lon="-6.0493">
        <ele>720.0</ele>
        <time>2012-06-05T08:04:14Z</time>
      </trkpt>
      <trkpt lat="43.111564" lon="-6.049284">
        <ele>720.0</ele>
        <time>2012-06-05T08:04:17Z</time>
      </trkpt>
      <trkpt lat="43.111389" lon="-6.049224">
        <ele>720.0</ele>
        <time>2012-06-05T08:04:23Z</time>
      </trkpt>
      <trkpt lat="43.1113" lon="-6.049184">
        <ele>720.0</ele>
        <time>2012-06-05T08:04:26Z</time>
      </trkpt>
      <trkpt lat="43.11118" lon="-6.049132">
        <ele>720.0</ele>
        <time>2012-06-05T08:04:30Z</time>
      </trkpt>
      <trkpt lat="43.111054" lon="-6.049098">
        <ele>720.0</ele>
        <time>2012-06-05T08:04:34Z</time>
      </trkpt>
      <trkpt lat="43.110918" lon="-6.049073">
        <ele>720.0</ele>
        <time>2012-06-05T08:04:38Z</time>
      </trkpt>
      <trkpt lat="43.110767" lon="-6.049043">
        <ele>720.0</ele>
        <time>2012-06-05T08:04:42Z</time>
      </trkpt>
      <trkpt lat="43.110686" lon="-6.049023">
        <ele>720.0</ele>
        <time>2012-06-05T08:04:44Z</time>
      </trkpt>
      <trkpt lat="43.110452" lon="-6.048854">
        <ele>721.0</ele>
        <time>2012-06-05T08:04:50Z</time>
      </trkpt>
      <trkpt lat="43.1103" lon="-6.04874">
        <ele>721.0</ele>
        <time>2012-06-05T08:04:54Z</time>
      </trkpt>
      <trkpt lat="43.110147" lon="-6.048659">
        <ele>722.0</ele>
        <time>2012-06-05T08:04:58Z</time>
      </trkpt>
      <trkpt lat="43.10999" lon="-6.048595">
        <ele>722.0</ele>
        <time>2012-06-05T08:05:02Z</time>
      </trkpt>
      <trkpt lat="43.109831" lon="-6.048538">
        <ele>722.0</ele>
        <time>2012-06-05T08:05:06Z</time>
      </trkpt>
      <trkpt lat="43.109669" lon="-6.048482">
        <ele>722.0</ele>
        <time>2012-06-05T08:05:10Z</time>
      </trkpt>
      <trkpt lat="43.109505" lon="-6.048424">
        <ele>722.0</ele>
        <time>2012-06-05T08:05:14Z</time>
      </trkpt>
      <trkpt lat="43.109338" lon="-6.048364">
        <ele>722.0</ele>
        <time>2012-06-05T08:05:18Z</time>
      </trkpt>
      <trkpt lat="43.109171" lon="-6.048316">
        <ele>722.0</ele>
        <time>2012-06-05T08:05:22Z</time>
      </trkpt>
      <trkpt lat="43.109007" lon="-6.04829">
        <ele>723.0</ele>
        <time>2012-06-05T08:05:26Z</time>
      </trkpt>
      <trkpt lat="43.108847" lon="-6.048288">
        <ele>723.0</ele>
        <time>2012-06-05T08:05:30Z</time>
      </trkpt>
      <trkpt lat="43.108696" lon="-6.048306">
        <ele>723.0</ele>
        <time>2012-06-05T08:05:34Z</time>
      </trkpt>
      <trkpt lat="43.108557" lon="-6.048318">
        <ele>723.0</ele>
        <time>2012-06-05T08:05:38Z</time>
      </trkpt>
      <trkpt lat="43.108429" lon="-6.048306">
        <ele>723.0</ele>
        <time>2012-06-05T08:05:42Z</time>
      </trkpt>
      <trkpt lat="43.108338" lon="-6.048289">
        <ele>724.0</ele>
        <time>2012-06-05T08:05:45Z</time>
      </trkpt>
      <trkpt lat="43.10818" lon="-6.048271">
        <ele>724.0</ele>
        <time>2012-06-05T08:05:50Z</time>
      </trkpt>
      <trkpt lat="43.108043" lon="-6.048249">
        <ele>724.0</ele>
        <time>2012-06-05T08:05:54Z</time>
      </trkpt>
      <trkpt lat="43.107906" lon="-6.048215">
        <ele>724.0</ele>
        <time>2012-06-05T08:05:58Z</time>
      </trkpt>
      <trkpt lat="43.107759" lon="-6.048179">
        <ele>724.0</ele>
        <time>2012-06-05T08:06:02Z</time>
      </trkpt>
      <trkpt lat="43.107601" lon="-6.048086">
        <ele>724.0</ele>
        <time>2012-06-05T08:06:06Z</time>
      </trkpt>
      <trkpt lat="43.107468" lon="-6.047974">
        <ele>724.0</ele>
        <time>2012-06-05T08:06:10Z</time>
      </trkpt>
      <trkpt lat="43.107406" lon="-6.047913">
        <ele>724.0</ele>
        <time>2012-06-05T08:06:12Z</time>
      </trkpt>
      <trkpt lat="43.107199" lon="-6.047781">
        <ele>724.0</ele>
        <time>2012-06-05T08:06:19Z</time>
      </trkpt>
      <trkpt lat="43.107119" lon="-6.047722">
        <ele>724.0</ele>
        <time>2012-06-05T08:06:22Z</time>
      </trkpt>
      <trkpt lat="43.107039" lon="-6.047657">
        <ele>724.0</ele>
        <time>2012-06-05T08:06:25Z</time>
      </trkpt>
      <trkpt lat="43.106955" lon="-6.047616">
        <ele>724.0</ele>
        <time>2012-06-05T08:06:28Z</time>
      </trkpt>
      <trkpt lat="43.106783" lon="-6.04758">
        <ele>725.0</ele>
        <time>2012-06-05T08:06:34Z</time>
      </trkpt>
      <trkpt lat="43.106707" lon="-6.047589">
        <ele>725.0</ele>
        <time>2012-06-05T08:06:38Z</time>
      </trkpt>
      <trkpt lat="43.106644" lon="-6.047594">
        <ele>725.0</ele>
        <time>2012-06-05T08:06:42Z</time>
      </trkpt>
      <trkpt lat="43.106415" lon="-6.047627">
        <ele>725.0</ele>
        <time>2012-06-05T08:06:55Z</time>
      </trkpt>
      <trkpt lat="43.106246" lon="-6.047658">
        <ele>726.0</ele>
        <time>2012-06-05T08:07:01Z</time>
      </trkpt>
      <trkpt lat="43.106048" lon="-6.047696">
        <ele>726.0</ele>
        <time>2012-06-05T08:07:07Z</time>
      </trkpt>
      <trkpt lat="43.105907" lon="-6.04773">
        <ele>726.0</ele>
        <time>2012-06-05T08:07:11Z</time>
      </trkpt>
      <trkpt lat="43.105758" lon="-6.04773">
        <ele>726.0</ele>
        <time>2012-06-05T08:07:15Z</time>
      </trkpt>
      <trkpt lat="43.105599" lon="-6.047716">
        <ele>727.0</ele>
        <time>2012-06-05T08:07:19Z</time>
      </trkpt>
      <trkpt lat="43.105427" lon="-6.0477">
        <ele>728.0</ele>
        <time>2012-06-05T08:07:23Z</time>
      </trkpt>
      <trkpt lat="43.105246" lon="-6.047684">
        <ele>729.0</ele>
        <time>2012-06-05T08:07:27Z</time>
      </trkpt>
      <trkpt lat="43.105055" lon="-6.047667">
        <ele>729.0</ele>
        <time>2012-06-05T08:07:31Z</time>
      </trkpt>
      <trkpt lat="43.104852" lon="-6.047642">
        <ele>729.0</ele>
        <time>2012-06-05T08:07:35Z</time>
      </trkpt>
      <trkpt lat="43.104633" lon="-6.047595">
        <ele>729.0</ele>
        <time>2012-06-05T08:07:39Z</time>
      </trkpt>
      <trkpt lat="43.104408" lon="-6.047514">
        <ele>729.0</ele>
        <time>2012-06-05T08:07:43Z</time>
      </trkpt>
      <trkpt lat="43.104171" lon="-6.047425">
        <ele>729.0</ele>
        <time>2012-06-05T08:07:47Z</time>
      </trkpt>
      <trkpt lat="43.103899" lon="-6.047347">
        <ele>729.0</ele>
        <time>2012-06-05T08:07:51Z</time>
      </trkpt>
      <trkpt lat="43.103614" lon="-6.047266">
        <ele>730.0</ele>
        <time>2012-06-05T08:07:55Z</time>
      </trkpt>
      <trkpt lat="43.10333" lon="-6.047197">
        <ele>731.0</ele>
        <time>2012-06-05T08:07:59Z</time>
      </trkpt>
      <trkpt lat="43.103075" lon="-6.047049">
        <ele>731.0</ele>
        <time>2012-06-05T08:08:03Z</time>
      </trkpt>
      <trkpt lat="43.102917" lon="-6.046917">
        <ele>732.0</ele>
        <time>2012-06-05T08:08:06Z</time>
      </trkpt>
      <trkpt lat="43.102719" lon="-6.046768">
        <ele>733.0</ele>
        <time>2012-06-05T08:08:10Z</time>
      </trkpt>
      <trkpt lat="43.102518" lon="-6.046646">
        <ele>734.0</ele>
        <time>2012-06-05T08:08:14Z</time>
      </trkpt>
      <trkpt lat="43.10232" lon="-6.046567">
        <ele>734.0</ele>
        <time>2012-06-05T08:08:18Z</time>
      </trkpt>
      <trkpt lat="43.10213" lon="-6.046483">
        <ele>735.0</ele>
        <time>2012-06-05T08:08:22Z</time>
      </trkpt>
      <trkpt lat="43.10194" lon="-6.046417">
        <ele>735.0</ele>
        <time>2012-06-05T08:08:26Z</time>
      </trkpt>
      <trkpt lat="43.101755" lon="-6.046379">
        <ele>735.0</ele>
        <time>2012-06-05T08:08:30Z</time>
      </trkpt>
      <trkpt lat="43.101623" lon="-6.046318">
        <ele>735.0</ele>
        <time>2012-06-05T08:08:34Z</time>
      </trkpt>
      <trkpt lat="43.101481" lon="-6.046261">
        <ele>735.0</ele>
        <time>2012-06-05T08:08:38Z</time>
      </trkpt>
      <trkpt lat="43.101325" lon="-6.046167">
        <ele>736.0</ele>
        <time>2012-06-05T08:08:42Z</time>
      </trkpt>
      <trkpt lat="43.10117" lon="-6.046049">
        <ele>736.0</ele>
        <time>2012-06-05T08:08:46Z</time>
      </trkpt>
      <trkpt lat="43.101027" lon="-6.045932">
        <ele>737.0</ele>
        <time>2012-06-05T08:08:50Z</time>
      </trkpt>
      <trkpt lat="43.100918" lon="-6.045803">
        <ele>737.0</ele>
        <time>2012-06-05T08:08:54Z</time>
      </trkpt>
      <trkpt lat="43.100723" lon="-6.045379">
        <ele>741.0</ele>
        <time>2012-06-05T08:09:02Z</time>
      </trkpt>
      <trkpt lat="43.100646" lon="-6.045013">
        <ele>748.0</ele>
        <time>2012-06-05T08:09:07Z</time>
      </trkpt>
      <trkpt lat="43.100733" lon="-6.044591">
        <ele>758.0</ele>
        <time>2012-06-05T08:09:11Z</time>
      </trkpt>
      <trkpt lat="43.100731" lon="-6.044171">
        <ele>760.0</ele>
        <time>2012-06-05T08:09:15Z</time>
      </trkpt>
      <trkpt lat="43.100789" lon="-6.043706">
        <ele>762.0</ele>
        <time>2012-06-05T08:09:19Z</time>
      </trkpt>
      <trkpt lat="43.100836" lon="-6.043391">
        <ele>764.0</ele>
        <time>2012-06-05T08:09:22Z</time>
      </trkpt>
      <trkpt lat="43.10084" lon="-6.043064">
        <ele>766.0</ele>
        <time>2012-06-05T08:09:26Z</time>
      </trkpt>
      <trkpt lat="43.100804" lon="-6.042817">
        <ele>772.0</ele>
        <time>2012-06-05T08:09:30Z</time>
      </trkpt>
      <trkpt lat="43.100749" lon="-6.042544">
        <ele>773.0</ele>
        <time>2012-06-05T08:09:34Z</time>
      </trkpt>
      <trkpt lat="43.100718" lon="-6.042401">
        <ele>772.0</ele>
        <time>2012-06-05T08:09:36Z</time>
      </trkpt>
      <trkpt lat="43.100606" lon="-6.041963">
        <ele>770.0</ele>
        <time>2012-06-05T08:09:42Z</time>
      </trkpt>
      <trkpt lat="43.10055" lon="-6.041689">
        <ele>769.0</ele>
        <time>2012-06-05T08:09:46Z</time>
      </trkpt>
      <trkpt lat="43.100498" lon="-6.041439">
        <ele>768.0</ele>
        <time>2012-06-05T08:09:50Z</time>
      </trkpt>
      <trkpt lat="43.100429" lon="-6.041242">
        <ele>768.0</ele>
        <time>2012-06-05T08:09:54Z</time>
      </trkpt>
      <trkpt lat="43.100358" lon="-6.041066">
        <ele>768.0</ele>
        <time>2012-06-05T08:09:58Z</time>
      </trkpt>
      <trkpt lat="43.100289" lon="-6.040911">
        <ele>768.0</ele>
        <time>2012-06-05T08:10:02Z</time>
      </trkpt>
      <trkpt lat="43.100242" lon="-6.040828">
        <ele>768.0</ele>
        <time>2012-06-05T08:10:05Z</time>
      </trkpt>
      <trkpt lat="43.100102" lon="-6.040791">
        <ele>768.0</ele>
        <time>2012-06-05T08:10:11Z</time>
      </trkpt>
      <trkpt lat="43.10003" lon="-6.040794">
        <ele>768.0</ele>
        <time>2012-06-05T08:10:14Z</time>
      </trkpt>
      <trkpt lat="43.099946" lon="-6.040806">
        <ele>768.0</ele>
        <time>2012-06-05T08:10:17Z</time>
      </trkpt>
      <trkpt lat="43.099772" lon="-6.040861">
        <ele>767.0</ele>
        <time>2012-06-05T08:10:23Z</time>
      </trkpt>
      <trkpt lat="43.099417" lon="-6.041628">
        <ele>770.0</ele>
        <time>2012-06-05T08:10:31Z</time>
      </trkpt>
      <trkpt lat="43.099223" lon="-6.042221">
        <ele>795.0</ele>
        <time>2012-06-05T08:10:35Z</time>
      </trkpt>
      <trkpt lat="43.099167" lon="-6.042531">
        <ele>817.0</ele>
        <time>2012-06-05T08:10:38Z</time>
      </trkpt>
      <trkpt lat="43.099101" lon="-6.042817">
        <ele>831.0</ele>
        <time>2012-06-05T08:10:42Z</time>
      </trkpt>
      <trkpt lat="43.099033" lon="-6.043035">
        <ele>834.0</ele>
        <time>2012-06-05T08:10:46Z</time>
      </trkpt>
      <trkpt lat="43.098949" lon="-6.043219">
        <ele>834.0</ele>
        <time>2012-06-05T08:10:50Z</time>
      </trkpt>
      <trkpt lat="43.098893" lon="-6.043318">
        <ele>833.0</ele>
        <time>2012-06-05T08:10:53Z</time>
      </trkpt>
      <trkpt lat="43.098769" lon="-6.043456">
        <ele>831.0</ele>
        <time>2012-06-05T08:10:59Z</time>
      </trkpt>
      <trkpt lat="43.09865" lon="-6.043536">
        <ele>830.0</ele>
        <time>2012-06-05T08:11:03Z</time>
      </trkpt>
      <trkpt lat="43.098509" lon="-6.043639">
        <ele>828.0</ele>
        <time>2012-06-05T08:11:07Z</time>
      </trkpt>
      <trkpt lat="43.098348" lon="-6.043743">
        <ele>827.0</ele>
        <time>2012-06-05T08:11:11Z</time>
      </trkpt>
      <trkpt lat="43.098192" lon="-6.043827">
        <ele>825.0</ele>
        <time>2012-06-05T08:11:15Z</time>
      </trkpt>
      <trkpt lat="43.098036" lon="-6.043905">
        <ele>823.0</ele>
        <time>2012-06-05T08:11:19Z</time>
      </trkpt>
      <trkpt lat="43.097892" lon="-6.043976">
        <ele>822.0</ele>
        <time>2012-06-05T08:11:23Z</time>
      </trkpt>
      <trkpt lat="43.09776" lon="-6.04406">
        <ele>822.0</ele>
        <time>2012-06-05T08:11:27Z</time>
      </trkpt>
      <trkpt lat="43.097715" lon="-6.044222">
        <ele>821.0</ele>
        <time>2012-06-05T08:11:31Z</time>
      </trkpt>
      <trkpt lat="43.09767" lon="-6.044389">
        <ele>821.0</ele>
        <time>2012-06-05T08:11:35Z</time>
      </trkpt>
      <trkpt lat="43.097613" lon="-6.044561">
        <ele>820.0</ele>
        <time>2012-06-05T08:11:39Z</time>
      </trkpt>
      <trkpt lat="43.09757" lon="-6.044743">
        <ele>820.0</ele>
        <time>2012-06-05T08:11:43Z</time>
      </trkpt>
      <trkpt lat="43.097539" lon="-6.044916">
        <ele>820.0</ele>
        <time>2012-06-05T08:11:47Z</time>
      </trkpt>
      <trkpt lat="43.097522" lon="-6.045088">
        <ele>819.0</ele>
        <time>2012-06-05T08:11:51Z</time>
      </trkpt>
      <trkpt lat="43.097522" lon="-6.045177">
        <ele>819.0</ele>
        <time>2012-06-05T08:11:53Z</time>
      </trkpt>
      <trkpt lat="43.09736" lon="-6.045183">
        <ele>825.0</ele>
        <time>2012-06-05T08:12:03Z</time>
      </trkpt>
      <trkpt lat="43.097289" lon="-6.044774">
        <ele>832.0</ele>
        <time>2012-06-05T08:12:07Z</time>
      </trkpt>
      <trkpt lat="43.097249" lon="-6.044499">
        <ele>833.0</ele>
        <time>2012-06-05T08:12:10Z</time>
      </trkpt>
      <trkpt lat="43.097193" lon="-6.044179">
        <ele>832.0</ele>
        <time>2012-06-05T08:12:14Z</time>
      </trkpt>
      <trkpt lat="43.097141" lon="-6.043882">
        <ele>832.0</ele>
        <time>2012-06-05T08:12:18Z</time>
      </trkpt>
      <trkpt lat="43.097091" lon="-6.043641">
        <ele>833.0</ele>
        <time>2012-06-05T08:12:22Z</time>
      </trkpt>
      <trkpt lat="43.097075" lon="-6.043422">
        <ele>835.0</ele>
        <time>2012-06-05T08:12:26Z</time>
      </trkpt>
      <trkpt lat="43.097089" lon="-6.043236">
        <ele>835.0</ele>
        <time>2012-06-05T08:12:30Z</time>
      </trkpt>
      <trkpt lat="43.097122" lon="-6.04305">
        <ele>836.0</ele>
        <time>2012-06-05T08:12:34Z</time>
      </trkpt>
      <trkpt lat="43.097156" lon="-6.042792">
        <ele>836.0</ele>
        <time>2012-06-05T08:12:38Z</time>
      </trkpt>
      <trkpt lat="43.097284" lon="-6.042583">
        <ele>836.0</ele>
        <time>2012-06-05T08:12:42Z</time>
      </trkpt>
      <trkpt lat="43.097383" lon="-6.042383">
        <ele>837.0</ele>
        <time>2012-06-05T08:12:46Z</time>
      </trkpt>
      <trkpt lat="43.097459" lon="-6.042197">
        <ele>837.0</ele>
        <time>2012-06-05T08:12:50Z</time>
      </trkpt>
      <trkpt lat="43.097479" lon="-6.042101">
        <ele>837.0</ele>
        <time>2012-06-05T08:12:52Z</time>
      </trkpt>
      <trkpt lat="43.097479" lon="-6.042101">
        <time>2012-06-05T08:13:03Z</time>
      </trkpt>
    </trkseg>
    <trkseg>
      <trkpt lat="43.097479" lon="-6.042101">
        <time>2012-06-05T08:13:06Z</time>
      </trkpt>
      <trkpt lat="43.097353" lon="-6.042541">
        <ele>844.0</ele>
        <time>2012-06-05T08:13:10Z</time>
      </trkpt>
      <trkpt lat="43.097129" lon="-6.042817">
        <ele>845.0</ele>
        <time>2012-06-05T08:13:14Z</time>
      </trkpt>
      <trkpt lat="43.096953" lon="-6.043053">
        <ele>847.0</ele>
        <time>2012-06-05T08:13:18Z</time>
      </trkpt>
      <trkpt lat="43.096828" lon="-6.043219">
        <ele>848.0</ele>
        <time>2012-06-05T08:13:22Z</time>
      </trkpt>
      <trkpt lat="43.096716" lon="-6.043347">
        <ele>849.0</ele>
        <time>2012-06-05T08:13:26Z</time>
      </trkpt>
      <trkpt lat="43.096429" lon="-6.043452">
        <ele>850.0</ele>
        <time>2012-06-05T08:13:34Z</time>
      </trkpt>
      <trkpt lat="43.096238" lon="-6.04344">
        <ele>851.0</ele>
        <time>2012-06-05T08:13:38Z</time>
      </trkpt>
      <trkpt lat="43.096233" lon="-6.04323">
        <ele>851.0</ele>
        <time>2012-06-05T08:13:42Z</time>
      </trkpt>
      <trkpt lat="43.096358" lon="-6.042893">
        <ele>852.0</ele>
        <time>2012-06-05T08:13:46Z</time>
      </trkpt>
      <trkpt lat="43.0965" lon="-6.042653">
        <ele>853.0</ele>
        <time>2012-06-05T08:13:49Z</time>
      </trkpt>
      <trkpt lat="43.096659" lon="-6.042298">
        <ele>855.0</ele>
        <time>2012-06-05T08:13:54Z</time>
      </trkpt>
      <trkpt lat="43.096712" lon="-6.042177">
        <ele>855.0</ele>
        <time>2012-06-05T08:13:56Z</time>
      </trkpt>
      <trkpt lat="43.096801" lon="-6.04196">
        <ele>855.0</ele>
        <time>2012-06-05T08:14:00Z</time>
      </trkpt>
      <trkpt lat="43.096891" lon="-6.041673">
        <ele>856.0</ele>
        <time>2012-06-05T08:14:06Z</time>
      </trkpt>
      <trkpt lat="43.096943" lon="-6.041508">
        <ele>855.0</ele>
        <time>2012-06-05T08:14:10Z</time>
      </trkpt>
      <trkpt lat="43.097053" lon="-6.04138">
        <ele>855.0</ele>
        <time>2012-06-05T08:14:14Z</time>
      </trkpt>
      <trkpt lat="43.09711" lon="-6.041311">
        <ele>855.0</ele>
        <time>2012-06-05T08:14:16Z</time>
      </trkpt>
      <trkpt lat="43.097203" lon="-6.041019">
        <ele>855.0</ele>
        <time>2012-06-05T08:14:22Z</time>
      </trkpt>
      <trkpt lat="43.097272" lon="-6.040824">
        <ele>854.0</ele>
        <time>2012-06-05T08:14:26Z</time>
      </trkpt>
      <trkpt lat="43.097349" lon="-6.040617">
        <ele>854.0</ele>
        <time>2012-06-05T08:14:30Z</time>
      </trkpt>
      <trkpt lat="43.097437" lon="-6.040433">
        <ele>853.0</ele>
        <time>2012-06-05T08:14:34Z</time>
      </trkpt>
      <trkpt lat="43.097518" lon="-6.040359">
        <ele>853.0</ele>
        <time>2012-06-05T08:14:37Z</time>
      </trkpt>
      <trkpt lat="43.09764" lon="-6.040243">
        <ele>853.0</ele>
        <time>2012-06-05T08:14:41Z</time>
      </trkpt>
      <trkpt lat="43.097796" lon="-6.039846">
        <ele>852.0</ele>
        <time>2012-06-05T08:14:49Z</time>
      </trkpt>
      <trkpt lat="43.09776" lon="-6.039581">
        <ele>852.0</ele>
        <time>2012-06-05T08:14:53Z</time>
      </trkpt>
      <trkpt lat="43.097766" lon="-6.039401">
        <ele>852.0</ele>
        <time>2012-06-05T08:14:57Z</time>
      </trkpt>
      <trkpt lat="43.097729" lon="-6.039232">
        <ele>852.0</ele>
        <time>2012-06-05T08:15:01Z</time>
      </trkpt>
      <trkpt lat="43.09766" lon="-6.039082">
        <ele>852.0</ele>
        <time>2012-06-05T08:15:05Z</time>
      </trkpt>
      <trkpt lat="43.097627" lon="-6.038978">
        <ele>852.0</ele>
        <time>2012-06-05T08:15:08Z</time>
      </trkpt>
      <trkpt lat="43.097564" lon="-6.038783">
        <ele>853.0</ele>
        <time>2012-06-05T08:15:14Z</time>
      </trkpt>
      <trkpt lat="43.097527" lon="-6.03869">
        <ele>853.0</ele>
        <time>2012-06-05T08:15:17Z</time>
      </trkpt>
      <trkpt lat="43.097488" lon="-6.038597">
        <ele>853.0</ele>
        <time>2012-06-05T08:15:20Z</time>
      </trkpt>
      <trkpt lat="43.097406" lon="-6.038412">
        <ele>853.0</ele>
        <time>2012-06-05T08:15:26Z</time>
      </trkpt>
      <trkpt lat="43.097371" lon="-6.038321">
        <ele>854.0</ele>
        <time>2012-06-05T08:15:29Z</time>
      </trkpt>
      <trkpt lat="43.097331" lon="-6.038233">
        <ele>854.0</ele>
        <time>2012-06-05T08:15:32Z</time>
      </trkpt>
      <trkpt lat="43.097284" lon="-6.038147">
        <ele>854.0</ele>
        <time>2012-06-05T08:15:35Z</time>
      </trkpt>
      <trkpt lat="43.097032" lon="-6.037895">
        <ele>854.0</ele>
        <time>2012-06-05T08:15:45Z</time>
      </trkpt>
      <trkpt lat="43.096872" lon="-6.03785">
        <ele>855.0</ele>
        <time>2012-06-05T08:15:49Z</time>
      </trkpt>
      <trkpt lat="43.096689" lon="-6.037839">
        <ele>855.0</ele>
        <time>2012-06-05T08:15:53Z</time>
      </trkpt>
      <trkpt lat="43.096662" lon="-6.037345">
        <ele>858.0</ele>
        <time>2012-06-05T08:16:01Z</time>
      </trkpt>
      <trkpt lat="43.096648" lon="-6.037083">
        <ele>859.0</ele>
        <time>2012-06-05T08:16:05Z</time>
      </trkpt>
      <trkpt lat="43.096628" lon="-6.036847">
        <ele>861.0</ele>
        <time>2012-06-05T08:16:09Z</time>
      </trkpt>
      <trkpt lat="43.096596" lon="-6.036636">
        <ele>863.0</ele>
        <time>2012-06-05T08:16:13Z</time>
      </trkpt>
      <trkpt lat="43.096505" lon="-6.036408">
        <ele>865.0</ele>
        <time>2012-06-05T08:16:17Z</time>
      </trkpt>
      <trkpt lat="43.096396" lon="-6.036172">
        <ele>868.0</ele>
        <time>2012-06-05T08:16:22Z</time>
      </trkpt>
      <trkpt lat="43.096309" lon="-6.035994">
        <ele>870.0</ele>
        <time>2012-06-05T08:16:26Z</time>
      </trkpt>
      <trkpt lat="43.096245" lon="-6.035938">
        <ele>871.0</ele>
        <time>2012-06-05T08:16:29Z</time>
      </trkpt>
      <trkpt lat="43.096027" lon="-6.036158">
        <ele>878.0</ele>
        <time>2012-06-05T08:16:34Z</time>
      </trkpt>
      <trkpt lat="43.095872" lon="-6.036355">
        <ele>883.0</ele>
        <time>2012-06-05T08:16:37Z</time>
      </trkpt>
      <trkpt lat="43.095694" lon="-6.036487">
        <ele>889.0</ele>
        <time>2012-06-05T08:16:41Z</time>
      </trkpt>
      <trkpt lat="43.095476" lon="-6.036538">
        <ele>893.0</ele>
        <time>2012-06-05T08:16:45Z</time>
      </trkpt>
      <trkpt lat="43.095296" lon="-6.036528">
        <ele>898.0</ele>
        <time>2012-06-05T08:16:49Z</time>
      </trkpt>
      <trkpt lat="43.095207" lon="-6.036502">
        <ele>899.0</ele>
        <time>2012-06-05T08:16:51Z</time>
      </trkpt>
      <trkpt lat="43.094975" lon="-6.036333">
        <ele>904.0</ele>
        <time>2012-06-05T08:16:57Z</time>
      </trkpt>
      <trkpt lat="43.094827" lon="-6.036213">
        <ele>907.0</ele>
        <time>2012-06-05T08:17:01Z</time>
      </trkpt>
      <trkpt lat="43.094672" lon="-6.036126">
        <ele>909.0</ele>
        <time>2012-06-05T08:17:05Z</time>
      </trkpt>
      <trkpt lat="43.094503" lon="-6.036115">
        <ele>911.0</ele>
        <time>2012-06-05T08:17:09Z</time>
      </trkpt>
      <trkpt lat="43.094416" lon="-6.036132">
        <ele>912.0</ele>
        <time>2012-06-05T08:17:11Z</time>
      </trkpt>
      <trkpt lat="43.094148" lon="-6.036232">
        <ele>914.0</ele>
        <time>2012-06-05T08:17:17Z</time>
      </trkpt>
      <trkpt lat="43.09398" lon="-6.036318">
        <ele>915.0</ele>
        <time>2012-06-05T08:17:21Z</time>
      </trkpt>
      <trkpt lat="43.093815" lon="-6.036392">
        <ele>916.0</ele>
        <time>2012-06-05T08:17:25Z</time>
      </trkpt>
      <trkpt lat="43.093638" lon="-6.036433">
        <ele>917.0</ele>
        <time>2012-06-05T08:17:29Z</time>
      </trkpt>
      <trkpt lat="43.093456" lon="-6.036469">
        <ele>918.0</ele>
        <time>2012-06-05T08:17:33Z</time>
      </trkpt>
      <trkpt lat="43.093364" lon="-6.036488">
        <ele>918.0</ele>
        <time>2012-06-05T08:17:35Z</time>
      </trkpt>
      <trkpt lat="43.093087" lon="-6.03652">
        <ele>918.0</ele>
        <time>2012-06-05T08:17:41Z</time>
      </trkpt>
      <trkpt lat="43.092906" lon="-6.036526">
        <ele>919.0</ele>
        <time>2012-06-05T08:17:45Z</time>
      </trkpt>
      <trkpt lat="43.092723" lon="-6.036501">
        <ele>919.0</ele>
        <time>2012-06-05T08:17:49Z</time>
      </trkpt>
      <trkpt lat="43.092552" lon="-6.036444">
        <ele>919.0</ele>
        <time>2012-06-05T08:17:53Z</time>
      </trkpt>
      <trkpt lat="43.092392" lon="-6.036348">
        <ele>918.0</ele>
        <time>2012-06-05T08:17:57Z</time>
      </trkpt>
      <trkpt lat="43.092243" lon="-6.03624">
        <ele>918.0</ele>
        <time>2012-06-05T08:18:01Z</time>
      </trkpt>
      <trkpt lat="43.092083" lon="-6.036168">
        <ele>918.0</ele>
        <time>2012-06-05T08:18:05Z</time>
      </trkpt>
      <trkpt lat="43.091941" lon="-6.036034">
        <ele>918.0</ele>
        <time>2012-06-05T08:18:09Z</time>
      </trkpt>
      <trkpt lat="43.091817" lon="-6.035894">
        <ele>918.0</ele>
        <time>2012-06-05T08:18:13Z</time>
      </trkpt>
      <trkpt lat="43.091679" lon="-6.035793">
        <ele>918.0</ele>
        <time>2012-06-05T08:18:17Z</time>
      </trkpt>
      <trkpt lat="43.091614" lon="-6.035738">
        <ele>918.0</ele>
        <time>2012-06-05T08:18:19Z</time>
      </trkpt>
      <trkpt lat="43.09141" lon="-6.035551">
        <ele>918.0</ele>
        <time>2012-06-05T08:18:25Z</time>
      </trkpt>
      <trkpt lat="43.091462" lon="-6.034942">
        <ele>923.0</ele>
        <time>2012-06-05T08:18:30Z</time>
      </trkpt>
      <trkpt lat="43.091314" lon="-6.034513">
        <ele>927.0</ele>
        <time>2012-06-05T08:18:34Z</time>
      </trkpt>
      <trkpt lat="43.091271" lon="-6.034275">
        <ele>930.0</ele>
        <time>2012-06-05T08:18:37Z</time>
      </trkpt>
      <trkpt lat="43.091212" lon="-6.03401">
        <ele>934.0</ele>
        <time>2012-06-05T08:18:41Z</time>
      </trkpt>
      <trkpt lat="43.091203" lon="-6.033773">
        <ele>938.0</ele>
        <time>2012-06-05T08:18:45Z</time>
      </trkpt>
      <trkpt lat="43.091179" lon="-6.033539">
        <ele>942.0</ele>
        <time>2012-06-05T08:18:49Z</time>
      </trkpt>
      <trkpt lat="43.091219" lon="-6.033263">
        <ele>945.0</ele>
        <time>2012-06-05T08:18:53Z</time>
      </trkpt>
      <trkpt lat="43.091228" lon="-6.032997">
        <ele>947.0</ele>
        <time>2012-06-05T08:18:57Z</time>
      </trkpt>
      <trkpt lat="43.091226" lon="-6.032798">
        <ele>950.0</ele>
        <time>2012-06-05T08:19:02Z</time>
      </trkpt>
      <trkpt lat="43.091173" lon="-6.032749">
        <ele>953.0</ele>
        <time>2012-06-05T08:19:09Z</time>
      </trkpt>
      <trkpt lat="43.091173" lon="-6.032749">
        <time>2012-06-05T08:19:20Z</time>
      </trkpt>
    </trkseg>
    <trkseg>
      <trkpt lat="43.091173" lon="-6.032749">
        <time>2012-06-05T08:19:33Z</time>
      </trkpt>
      <trkpt lat="43.090952" lon="-6.032615">
        <ele>957.0</ele>
        <time>2012-06-05T08:19:42Z</time>
      </trkpt>
      <trkpt lat="43.090884" lon="-6.032631">
        <ele>957.0</ele>
        <time>2012-06-05T08:19:46Z</time>
      </trkpt>
      <trkpt lat="43.090727" lon="-6.032691">
        <ele>957.0</ele>
        <time>2012-06-05T08:19:51Z</time>
      </trkpt>
      <trkpt lat="43.090558" lon="-6.032792">
        <ele>957.0</ele>
        <time>2012-06-05T08:19:55Z</time>
      </trkpt>
      <trkpt lat="43.090375" lon="-6.032913">
        <ele>957.0</ele>
        <time>2012-06-05T08:19:59Z</time>
      </trkpt>
      <trkpt lat="43.090235" lon="-6.033044">
        <ele>957.0</ele>
        <time>2012-06-05T08:20:03Z</time>
      </trkpt>
      <trkpt lat="43.090133" lon="-6.033162">
        <ele>957.0</ele>
        <time>2012-06-05T08:20:07Z</time>
      </trkpt>
      <trkpt lat="43.090026" lon="-6.033278">
        <ele>957.0</ele>
        <time>2012-06-05T08:20:11Z</time>
      </trkpt>
      <trkpt lat="43.08992" lon="-6.033422">
        <ele>957.0</ele>
        <time>2012-06-05T08:20:15Z</time>
      </trkpt>
      <trkpt lat="43.089822" lon="-6.033558">
        <ele>957.0</ele>
        <time>2012-06-05T08:20:19Z</time>
      </trkpt>
      <trkpt lat="43.089727" lon="-6.033687">
        <ele>957.0</ele>
        <time>2012-06-05T08:20:23Z</time>
      </trkpt>
      <trkpt lat="43.08964" lon="-6.033822">
        <ele>957.0</ele>
        <time>2012-06-05T08:20:27Z</time>
      </trkpt>
      <trkpt lat="43.089545" lon="-6.033937">
        <ele>956.0</ele>
        <time>2012-06-05T08:20:31Z</time>
      </trkpt>
      <trkpt lat="43.089476" lon="-6.034018">
        <ele>956.0</ele>
        <time>2012-06-05T08:20:34Z</time>
      </trkpt>
      <trkpt lat="43.08938" lon="-6.034147">
        <ele>956.0</ele>
        <time>2012-06-05T08:20:38Z</time>
      </trkpt>
      <trkpt lat="43.089307" lon="-6.034345">
        <ele>956.0</ele>
        <time>2012-06-05T08:20:42Z</time>
      </trkpt>
      <trkpt lat="43.089252" lon="-6.034511">
        <ele>957.0</ele>
        <time>2012-06-05T08:20:46Z</time>
      </trkpt>
      <trkpt lat="43.089217" lon="-6.034614">
        <ele>957.0</ele>
        <time>2012-06-05T08:20:49Z</time>
      </trkpt>
      <trkpt lat="43.08918" lon="-6.034694">
        <ele>957.0</ele>
        <time>2012-06-05T08:20:52Z</time>
      </trkpt>
      <trkpt lat="43.089062" lon="-6.034822">
        <ele>958.0</ele>
        <time>2012-06-05T08:21:00Z</time>
      </trkpt>
      <trkpt lat="43.088918" lon="-6.034892">
        <ele>959.0</ele>
        <time>2012-06-05T08:21:07Z</time>
      </trkpt>
      <trkpt lat="43.088706" lon="-6.034915">
        <ele>962.0</ele>
        <time>2012-06-05T08:21:17Z</time>
      </trkpt>
      <trkpt lat="43.088634" lon="-6.03494">
        <ele>963.0</ele>
        <time>2012-06-05T08:21:21Z</time>
      </trkpt>
      <trkpt lat="43.088634" lon="-6.03494">
        <time>2012-06-05T08:21:32Z</time>
      </trkpt>
    </trkseg>
    <trkseg>
      <trkpt lat="43.088634" lon="-6.03494">
        <time>2012-06-05T08:21:33Z</time>
      </trkpt>
      <trkpt lat="43.088361" lon="-6.035124">
        <ele>968.0</ele>
        <time>2012-06-05T08:21:36Z</time>
      </trkpt>
      <trkpt lat="43.088293" lon="-6.035164">
        <ele>969.0</ele>
        <time>2012-06-05T08:21:39Z</time>
      </trkpt>
      <trkpt lat="43.088221" lon="-6.035212">
        <ele>969.0</ele>
        <time>2012-06-05T08:21:42Z</time>
      </trkpt>
      <trkpt lat="43.08807" lon="-6.035311">
        <ele>971.0</ele>
        <time>2012-06-05T08:21:48Z</time>
      </trkpt>
      <trkpt lat="43.087996" lon="-6.035349">
        <ele>971.0</ele>
        <time>2012-06-05T08:21:51Z</time>
      </trkpt>
      <trkpt lat="43.087913" lon="-6.03538">
        <ele>972.0</ele>
        <time>2012-06-05T08:21:54Z</time>
      </trkpt>
      <trkpt lat="43.087822" lon="-6.035405">
        <ele>972.0</ele>
        <time>2012-06-05T08:21:57Z</time>
      </trkpt>
      <trkpt lat="43.087659" lon="-6.035454">
        <ele>973.0</ele>
        <time>2012-06-05T08:22:03Z</time>
      </trkpt>
      <trkpt lat="43.087576" lon="-6.035481">
        <ele>973.0</ele>
        <time>2012-06-05T08:22:06Z</time>
      </trkpt>
      <trkpt lat="43.087399" lon="-6.035543">
        <ele>974.0</ele>
        <time>2012-06-05T08:22:12Z</time>
      </trkpt>
      <trkpt lat="43.087267" lon="-6.03558">
        <ele>974.0</ele>
        <time>2012-06-05T08:22:16Z</time>
      </trkpt>
      <trkpt lat="43.087126" lon="-6.035608">
        <ele>974.0</ele>
        <time>2012-06-05T08:22:20Z</time>
      </trkpt>
      <trkpt lat="43.086981" lon="-6.035626">
        <ele>975.0</ele>
        <time>2012-06-05T08:22:24Z</time>
      </trkpt>
      <trkpt lat="43.086823" lon="-6.035622">
        <ele>975.0</ele>
        <time>2012-06-05T08:22:28Z</time>
      </trkpt>
      <trkpt lat="43.086738" lon="-6.035599">
        <ele>975.0</ele>
        <time>2012-06-05T08:22:31Z</time>
      </trkpt>
      <trkpt lat="43.086601" lon="-6.035382">
        <ele>977.0</ele>
        <time>2012-06-05T08:22:36Z</time>
      </trkpt>
      <trkpt lat="43.086511" lon="-6.035191">
        <ele>978.0</ele>
        <time>2012-06-05T08:22:40Z</time>
      </trkpt>
      <trkpt lat="43.086471" lon="-6.034959">
        <ele>978.0</ele>
        <time>2012-06-05T08:22:44Z</time>
      </trkpt>
      <trkpt lat="43.086467" lon="-6.034728">
        <ele>979.0</ele>
        <time>2012-06-05T08:22:48Z</time>
      </trkpt>
      <trkpt lat="43.086478" lon="-6.034515">
        <ele>979.0</ele>
        <time>2012-06-05T08:22:52Z</time>
      </trkpt>
      <trkpt lat="43.086484" lon="-6.034413">
        <ele>980.0</ele>
        <time>2012-06-05T08:22:54Z</time>
      </trkpt>
      <trkpt lat="43.086553" lon="-6.034086">
        <ele>981.0</ele>
        <time>2012-06-05T08:23:03Z</time>
      </trkpt>
      <trkpt lat="43.08658" lon="-6.033872">
        <ele>982.0</ele>
        <time>2012-06-05T08:23:08Z</time>
      </trkpt>
      <trkpt lat="43.086588" lon="-6.033629">
        <ele>983.0</ele>
        <time>2012-06-05T08:23:12Z</time>
      </trkpt>
      <trkpt lat="43.0866" lon="-6.033079">
        <ele>985.0</ele>
        <time>2012-06-05T08:23:20Z</time>
      </trkpt>
      <trkpt lat="43.086593" lon="-6.032958">
        <ele>985.0</ele>
        <time>2012-06-05T08:23:22Z</time>
      </trkpt>
      <trkpt lat="43.086528" lon="-6.032609">
        <ele>986.0</ele>
        <time>2012-06-05T08:23:28Z</time>
      </trkpt>
      <trkpt lat="43.086423" lon="-6.0323">
        <ele>986.0</ele>
        <time>2012-06-05T08:23:32Z</time>
      </trkpt>
      <trkpt lat="43.086314" lon="-6.031978">
        <ele>987.0</ele>
        <time>2012-06-05T08:23:36Z</time>
      </trkpt>
      <trkpt lat="43.086264" lon="-6.031717">
        <ele>988.0</ele>
        <time>2012-06-05T08:23:40Z</time>
      </trkpt>
      <trkpt lat="43.086248" lon="-6.031593">
        <ele>988.0</ele>
        <time>2012-06-05T08:23:42Z</time>
      </trkpt>
      <trkpt lat="43.086217" lon="-6.031279">
        <ele>990.0</ele>
        <time>2012-06-05T08:23:48Z</time>
      </trkpt>
      <trkpt lat="43.0862" lon="-6.031089">
        <ele>990.0</ele>
        <time>2012-06-05T08:23:52Z</time>
      </trkpt>
      <trkpt lat="43.086199" lon="-6.03091">
        <ele>991.0</ele>
        <time>2012-06-05T08:23:56Z</time>
      </trkpt>
      <trkpt lat="43.086204" lon="-6.030825">
        <ele>991.0</ele>
        <time>2012-06-05T08:23:58Z</time>
      </trkpt>
      <trkpt lat="43.086219" lon="-6.030587">
        <ele>992.0</ele>
        <time>2012-06-05T08:24:04Z</time>
      </trkpt>
      <trkpt lat="43.086224" lon="-6.030477">
        <ele>993.0</ele>
        <time>2012-06-05T08:24:07Z</time>
      </trkpt>
      <trkpt lat="43.086231" lon="-6.030367">
        <ele>993.0</ele>
        <time>2012-06-05T08:24:10Z</time>
      </trkpt>
      <trkpt lat="43.08633" lon="-6.030255">
        <ele>995.0</ele>
        <time>2012-06-05T08:24:16Z</time>
      </trkpt>
      <trkpt lat="43.086497" lon="-6.03029">
        <ele>996.0</ele>
        <time>2012-06-05T08:24:20Z</time>
      </trkpt>
      <trkpt lat="43.086687" lon="-6.030399">
        <ele>998.0</ele>
        <time>2012-06-05T08:24:24Z</time>
      </trkpt>
      <trkpt lat="43.086873" lon="-6.030538">
        <ele>1001.0</ele>
        <time>2012-06-05T08:24:28Z</time>
      </trkpt>
      <trkpt lat="43.087056" lon="-6.030671">
        <ele>1016.0</ele>
        <time>2012-06-05T08:24:32Z</time>
      </trkpt>
      <trkpt lat="43.087241" lon="-6.030817">
        <ele>1029.0</ele>
        <time>2012-06-05T08:24:36Z</time>
      </trkpt>
      <trkpt lat="43.087416" lon="-6.03094">
        <ele>1031.0</ele>
        <time>2012-06-05T08:24:40Z</time>
      </trkpt>
      <trkpt lat="43.087589" lon="-6.031025">
        <ele>1029.0</ele>
        <time>2012-06-05T08:24:44Z</time>
      </trkpt>
      <trkpt lat="43.087757" lon="-6.031118">
        <ele>1027.0</ele>
        <time>2012-06-05T08:24:48Z</time>
      </trkpt>
      <trkpt lat="43.087917" lon="-6.031231">
        <ele>1025.0</ele>
        <time>2012-06-05T08:24:52Z</time>
      </trkpt>
      <trkpt lat="43.088095" lon="-6.031345">
        <ele>1024.0</ele>
        <time>2012-06-05T08:24:56Z</time>
      </trkpt>
      <trkpt lat="43.088284" lon="-6.03138">
        <ele>1022.0</ele>
        <time>2012-06-05T08:25:00Z</time>
      </trkpt>
      <trkpt lat="43.088389" lon="-6.031232">
        <ele>1022.0</ele>
        <time>2012-06-05T08:25:04Z</time>
      </trkpt>
      <trkpt lat="43.088359" lon="-6.031106">
        <ele>1022.0</ele>
        <time>2012-06-05T08:25:07Z</time>
      </trkpt>
      <trkpt lat="43.088282" lon="-6.030943">
        <ele>1022.0</ele>
        <time>2012-06-05T08:25:11Z</time>
      </trkpt>
      <trkpt lat="43.088181" lon="-6.030794">
        <ele>1023.0</ele>
        <time>2012-06-05T08:25:16Z</time>
      </trkpt>
      <trkpt lat="43.088128" lon="-6.030727">
        <ele>1025.0</ele>
        <time>2012-06-05T08:25:20Z</time>
      </trkpt>
      <trkpt lat="43.088061" lon="-6.03062">
        <ele>1028.0</ele>
        <time>2012-06-05T08:25:26Z</time>
      </trkpt>
      <trkpt lat="43.087951" lon="-6.030464">
        <ele>1030.0</ele>
        <time>2012-06-05T08:25:32Z</time>
      </trkpt>
      <trkpt lat="43.08786" lon="-6.030325">
        <ele>1032.0</ele>
        <time>2012-06-05T08:25:36Z</time>
      </trkpt>
      <trkpt lat="43.087763" lon="-6.030174">
        <ele>1032.0</ele>
        <time>2012-06-05T08:25:40Z</time>
      </trkpt>
      <trkpt lat="43.087712" lon="-6.030111">
        <ele>1034.0</ele>
        <time>2012-06-05T08:25:43Z</time>
      </trkpt>
      <trkpt lat="43.08766" lon="-6.03006">
        <ele>1036.0</ele>
        <time>2012-06-05T08:25:46Z</time>
      </trkpt>
      <trkpt lat="43.087544" lon="-6.029952">
        <ele>1038.0</ele>
        <time>2012-06-05T08:25:52Z</time>
      </trkpt>
      <trkpt lat="43.087463" lon="-6.029917">
        <ele>1039.0</ele>
        <time>2012-06-05T08:25:55Z</time>
      </trkpt>
      <trkpt lat="43.087375" lon="-6.029877">
        <ele>1040.0</ele>
        <time>2012-06-05T08:25:58Z</time>
      </trkpt>
      <trkpt lat="43.087291" lon="-6.029825">
        <ele>1040.0</ele>
        <time>2012-06-05T08:26:01Z</time>
      </trkpt>
      <trkpt lat="43.087096" lon="-6.029664">
        <ele>1040.0</ele>
        <time>2012-06-05T08:26:08Z</time>
      </trkpt>
      <trkpt lat="43.086973" lon="-6.02955">
        <ele>1040.0</ele>
        <time>2012-06-05T08:26:12Z</time>
      </trkpt>
      <trkpt lat="43.086849" lon="-6.029428">
        <ele>1040.0</ele>
        <time>2012-06-05T08:26:16Z</time>
      </trkpt>
      <trkpt lat="43.086729" lon="-6.029299">
        <ele>1040.0</ele>
        <time>2012-06-05T08:26:20Z</time>
      </trkpt>
      <trkpt lat="43.086604" lon="-6.029202">
        <ele>1040.0</ele>
        <time>2012-06-05T08:26:24Z</time>
      </trkpt>
      <trkpt lat="43.086475" lon="-6.029114">
        <ele>1040.0</ele>
        <time>2012-06-05T08:26:28Z</time>
      </trkpt>
      <trkpt lat="43.08635" lon="-6.029039">
        <ele>1040.0</ele>
        <time>2012-06-05T08:26:32Z</time>
      </trkpt>
      <trkpt lat="43.086289" lon="-6.029011">
        <ele>1041.0</ele>
        <time>2012-06-05T08:26:34Z</time>
      </trkpt>
      <trkpt lat="43.086126" lon="-6.028958">
        <ele>1041.0</ele>
        <time>2012-06-05T08:26:40Z</time>
      </trkpt>
      <trkpt lat="43.086048" lon="-6.028937">
        <ele>1041.0</ele>
        <time>2012-06-05T08:26:43Z</time>
      </trkpt>
      <trkpt lat="43.085965" lon="-6.028916">
        <ele>1041.0</ele>
        <time>2012-06-05T08:26:46Z</time>
      </trkpt>
      <trkpt lat="43.085804" lon="-6.028853">
        <ele>1042.0</ele>
        <time>2012-06-05T08:26:52Z</time>
      </trkpt>
      <trkpt lat="43.085719" lon="-6.028824">
        <ele>1042.0</ele>
        <time>2012-06-05T08:26:55Z</time>
      </trkpt>
      <trkpt lat="43.085569" lon="-6.028769">
        <ele>1043.0</ele>
        <time>2012-06-05T08:27:00Z</time>
      </trkpt>
      <trkpt lat="43.085445" lon="-6.028709">
        <ele>1044.0</ele>
        <time>2012-06-05T08:27:04Z</time>
      </trkpt>
      <trkpt lat="43.085323" lon="-6.028648">
        <ele>1045.0</ele>
        <time>2012-06-05T08:27:08Z</time>
      </trkpt>
      <trkpt lat="43.085241" lon="-6.028605">
        <ele>1045.0</ele>
        <time>2012-06-05T08:27:11Z</time>
      </trkpt>
      <trkpt lat="43.085165" lon="-6.028575">
        <ele>1047.0</ele>
        <time>2012-06-05T08:27:14Z</time>
      </trkpt>
      <trkpt lat="43.085031" lon="-6.028646">
        <ele>1056.0</ele>
        <time>2012-06-05T08:27:20Z</time>
      </trkpt>
      <trkpt lat="43.084852" lon="-6.028664">
        <ele>1061.0</ele>
        <time>2012-06-05T08:27:24Z</time>
      </trkpt>
      <trkpt lat="43.084632" lon="-6.028782">
        <ele>1065.0</ele>
        <time>2012-06-05T08:27:28Z</time>
      </trkpt>
      <trkpt lat="43.084385" lon="-6.028868">
        <ele>1069.0</ele>
        <time>2012-06-05T08:27:32Z</time>
      </trkpt>
      <trkpt lat="43.084132" lon="-6.028992">
        <ele>1071.0</ele>
        <time>2012-06-05T08:27:36Z</time>
      </trkpt>
      <trkpt lat="43.083885" lon="-6.029065">
        <ele>1074.0</ele>
        <time>2012-06-05T08:27:40Z</time>
      </trkpt>
      <trkpt lat="43.083623" lon="-6.029159">
        <ele>1076.0</ele>
        <time>2012-06-05T08:27:44Z</time>
      </trkpt>
      <trkpt lat="43.083444" lon="-6.02923">
        <ele>1077.0</ele>
        <time>2012-06-05T08:27:47Z</time>
      </trkpt>
      <trkpt lat="43.083244" lon="-6.029285">
        <ele>1078.0</ele>
        <time>2012-06-05T08:27:51Z</time>
      </trkpt>
      <trkpt lat="43.083084" lon="-6.029323">
        <ele>1080.0</ele>
        <time>2012-06-05T08:27:55Z</time>
      </trkpt>
      <trkpt lat="43.083003" lon="-6.029309">
        <ele>1081.0</ele>
        <time>2012-06-05T08:27:58Z</time>
      </trkpt>
      <trkpt lat="43.082925" lon="-6.029301">
        <ele>1083.0</ele>
        <time>2012-06-05T08:28:02Z</time>
      </trkpt>
      <trkpt lat="43.082776" lon="-6.029192">
        <ele>1086.0</ele>
        <time>2012-06-05T08:28:08Z</time>
      </trkpt>
      <trkpt lat="43.082506" lon="-6.02922">
        <ele>1089.0</ele>
        <time>2012-06-05T08:28:16Z</time>
      </trkpt>
      <trkpt lat="43.082362" lon="-6.029356">
        <ele>1091.0</ele>
        <time>2012-06-05T08:28:20Z</time>
      </trkpt>
      <trkpt lat="43.082203" lon="-6.029454">
        <ele>1092.0</ele>
        <time>2012-06-05T08:28:24Z</time>
      </trkpt>
      <trkpt lat="43.082032" lon="-6.029541">
        <ele>1094.0</ele>
        <time>2012-06-05T08:28:28Z</time>
      </trkpt>
      <trkpt lat="43.081853" lon="-6.029668">
        <ele>1095.0</ele>
        <time>2012-06-05T08:28:32Z</time>
      </trkpt>
      <trkpt lat="43.081667" lon="-6.02979">
        <ele>1096.0</ele>
        <time>2012-06-05T08:28:36Z</time>
      </trkpt>
      <trkpt lat="43.081474" lon="-6.029871">
        <ele>1100.0</ele>
        <time>2012-06-05T08:28:40Z</time>
      </trkpt>
      <trkpt lat="43.081277" lon="-6.029949">
        <ele>1106.0</ele>
        <time>2012-06-05T08:28:44Z</time>
      </trkpt>
      <trkpt lat="43.081087" lon="-6.030034">
        <ele>1108.0</ele>
        <time>2012-06-05T08:28:48Z</time>
      </trkpt>
      <trkpt lat="43.080906" lon="-6.030122">
        <ele>1109.0</ele>
        <time>2012-06-05T08:28:52Z</time>
      </trkpt>
      <trkpt lat="43.080734" lon="-6.030215">
        <ele>1110.0</ele>
        <time>2012-06-05T08:28:56Z</time>
      </trkpt>
      <trkpt lat="43.080652" lon="-6.030265">
        <ele>1110.0</ele>
        <time>2012-06-05T08:28:58Z</time>
      </trkpt>
      <trkpt lat="43.080412" lon="-6.030366">
        <ele>1110.0</ele>
        <time>2012-06-05T08:29:04Z</time>
      </trkpt>
      <trkpt lat="43.080337" lon="-6.030398">
        <ele>1110.0</ele>
        <time>2012-06-05T08:29:06Z</time>
      </trkpt>
      <trkpt lat="43.080114" lon="-6.03043">
        <ele>1110.0</ele>
        <time>2012-06-05T08:29:12Z</time>
      </trkpt>
      <trkpt lat="43.080044" lon="-6.030431">
        <ele>1110.0</ele>
        <time>2012-06-05T08:29:14Z</time>
      </trkpt>
      <trkpt lat="43.079898" lon="-6.030428">
        <ele>1110.0</ele>
        <time>2012-06-05T08:29:19Z</time>
      </trkpt>
      <trkpt lat="43.079823" lon="-6.030439">
        <ele>1110.0</ele>
        <time>2012-06-05T08:29:23Z</time>
      </trkpt>
      <trkpt lat="43.079751" lon="-6.030436">
        <ele>1110.0</ele>
        <time>2012-06-05T08:29:27Z</time>
      </trkpt>
      <trkpt lat="43.079612" lon="-6.03045">
        <ele>1110.0</ele>
        <time>2012-06-05T08:29:35Z</time>
      </trkpt>
      <trkpt lat="43.079469" lon="-6.030462">
        <ele>1111.0</ele>
        <time>2012-06-05T08:29:42Z</time>
      </trkpt>
      <trkpt lat="43.079329" lon="-6.030465">
        <ele>1111.0</ele>
        <time>2012-06-05T08:29:48Z</time>
      </trkpt>
      <trkpt lat="43.079254" lon="-6.030463">
        <ele>1111.0</ele>
        <time>2012-06-05T08:29:51Z</time>
      </trkpt>
      <trkpt lat="43.079177" lon="-6.030472">
        <ele>1111.0</ele>
        <time>2012-06-05T08:29:54Z</time>
      </trkpt>
      <trkpt lat="43.0791" lon="-6.030481">
        <ele>1111.0</ele>
        <time>2012-06-05T08:29:57Z</time>
      </trkpt>
      <trkpt lat="43.079004" lon="-6.030483">
        <ele>1112.0</ele>
        <time>2012-06-05T08:30:01Z</time>
      </trkpt>
      <trkpt lat="43.078907" lon="-6.03048">
        <ele>1112.0</ele>
        <time>2012-06-05T08:30:05Z</time>
      </trkpt>
      <trkpt lat="43.078787" lon="-6.030237">
        <ele>1114.0</ele>
        <time>2012-06-05T08:30:12Z</time>
      </trkpt>
      <trkpt lat="43.078703" lon="-6.030207">
        <ele>1115.0</ele>
        <time>2012-06-05T08:30:15Z</time>
      </trkpt>
      <trkpt lat="43.07855" lon="-6.030154">
        <ele>1117.0</ele>
        <time>2012-06-05T08:30:20Z</time>
      </trkpt>
      <trkpt lat="43.078412" lon="-6.030113">
        <ele>1118.0</ele>
        <time>2012-06-05T08:30:24Z</time>
      </trkpt>
      <trkpt lat="43.078344" lon="-6.030105">
        <ele>1119.0</ele>
        <time>2012-06-05T08:30:26Z</time>
      </trkpt>
      <trkpt lat="43.078199" lon="-6.030091">
        <ele>1120.0</ele>
        <time>2012-06-05T08:30:31Z</time>
      </trkpt>
      <trkpt lat="43.078091" lon="-6.030071">
        <ele>1121.0</ele>
        <time>2012-06-05T08:30:35Z</time>
      </trkpt>
      <trkpt lat="43.077917" lon="-6.030167">
        <ele>1123.0</ele>
        <time>2012-06-05T08:30:40Z</time>
      </trkpt>
      <trkpt lat="43.077897" lon="-6.030469">
        <ele>1135.0</ele>
        <time>2012-06-05T08:30:44Z</time>
      </trkpt>
      <trkpt lat="43.077884" lon="-6.030744">
        <ele>1140.0</ele>
        <time>2012-06-05T08:30:48Z</time>
      </trkpt>
      <trkpt lat="43.077931" lon="-6.031039">
        <ele>1145.0</ele>
        <time>2012-06-05T08:30:52Z</time>
      </trkpt>
      <trkpt lat="43.077947" lon="-6.031342">
        <ele>1156.0</ele>
        <time>2012-06-05T08:30:56Z</time>
      </trkpt>
      <trkpt lat="43.078003" lon="-6.03159">
        <ele>1157.0</ele>
        <time>2012-06-05T08:31:00Z</time>
      </trkpt>
      <trkpt lat="43.078056" lon="-6.031786">
        <ele>1159.0</ele>
        <time>2012-06-05T08:31:04Z</time>
      </trkpt>
      <trkpt lat="43.0781" lon="-6.031971">
        <ele>1160.0</ele>
        <time>2012-06-05T08:31:08Z</time>
      </trkpt>
      <trkpt lat="43.07814" lon="-6.032166">
        <ele>1162.0</ele>
        <time>2012-06-05T08:31:12Z</time>
      </trkpt>
      <trkpt lat="43.078167" lon="-6.032373">
        <ele>1163.0</ele>
        <time>2012-06-05T08:31:16Z</time>
      </trkpt>
      <trkpt lat="43.078184" lon="-6.032572">
        <ele>1164.0</ele>
        <time>2012-06-05T08:31:20Z</time>
      </trkpt>
      <trkpt lat="43.078182" lon="-6.032785">
        <ele>1165.0</ele>
        <time>2012-06-05T08:31:24Z</time>
      </trkpt>
      <trkpt lat="43.078179" lon="-6.033004">
        <ele>1166.0</ele>
        <time>2012-06-05T08:31:28Z</time>
      </trkpt>
      <trkpt lat="43.078192" lon="-6.033251">
        <ele>1166.0</ele>
        <time>2012-06-05T08:31:32Z</time>
      </trkpt>
      <trkpt lat="43.07819" lon="-6.03351">
        <ele>1167.0</ele>
        <time>2012-06-05T08:31:36Z</time>
      </trkpt>
      <trkpt lat="43.078178" lon="-6.033635">
        <ele>1167.0</ele>
        <time>2012-06-05T08:31:38Z</time>
      </trkpt>
      <trkpt lat="43.078138" lon="-6.033956">
        <ele>1167.0</ele>
        <time>2012-06-05T08:31:44Z</time>
      </trkpt>
      <trkpt lat="43.078101" lon="-6.034155">
        <ele>1168.0</ele>
        <time>2012-06-05T08:31:48Z</time>
      </trkpt>
      <trkpt lat="43.078076" lon="-6.034244">
        <ele>1168.0</ele>
        <time>2012-06-05T08:31:50Z</time>
      </trkpt>
      <trkpt lat="43.078035" lon="-6.034418">
        <ele>1168.0</ele>
        <time>2012-06-05T08:31:54Z</time>
      </trkpt>
      <trkpt lat="43.077981" lon="-6.034609">
        <ele>1168.0</ele>
        <time>2012-06-05T08:31:59Z</time>
      </trkpt>
      <trkpt lat="43.077957" lon="-6.034721">
        <ele>1168.0</ele>
        <time>2012-06-05T08:32:02Z</time>
      </trkpt>
      <trkpt lat="43.077962" lon="-6.034926">
        <ele>1168.0</ele>
        <time>2012-06-05T08:32:07Z</time>
      </trkpt>
      <trkpt lat="43.077964" lon="-6.035109">
        <ele>1169.0</ele>
        <time>2012-06-05T08:32:11Z</time>
      </trkpt>
      <trkpt lat="43.077945" lon="-6.035295">
        <ele>1170.0</ele>
        <time>2012-06-05T08:32:15Z</time>
      </trkpt>
      <trkpt lat="43.077922" lon="-6.035473">
        <ele>1171.0</ele>
        <time>2012-06-05T08:32:19Z</time>
      </trkpt>
      <trkpt lat="43.077903" lon="-6.035648">
        <ele>1172.0</ele>
        <time>2012-06-05T08:32:23Z</time>
      </trkpt>
      <trkpt lat="43.077868" lon="-6.035829">
        <ele>1173.0</ele>
        <time>2012-06-05T08:32:27Z</time>
      </trkpt>
      <trkpt lat="43.077794" lon="-6.036006">
        <ele>1174.0</ele>
        <time>2012-06-05T08:32:31Z</time>
      </trkpt>
      <trkpt lat="43.077756" lon="-6.036087">
        <ele>1174.0</ele>
        <time>2012-06-05T08:32:33Z</time>
      </trkpt>
      <trkpt lat="43.07767" lon="-6.036238">
        <ele>1175.0</ele>
        <time>2012-06-05T08:32:37Z</time>
      </trkpt>
      <trkpt lat="43.077493" lon="-6.036167">
        <ele>1180.0</ele>
        <time>2012-06-05T08:32:44Z</time>
      </trkpt>
      <trkpt lat="43.077343" lon="-6.035694">
        <ele>1188.0</ele>
        <time>2012-06-05T08:32:48Z</time>
      </trkpt>
      <trkpt lat="43.07722" lon="-6.035285">
        <ele>1191.0</ele>
        <time>2012-06-05T08:32:52Z</time>
      </trkpt>
      <trkpt lat="43.077136" lon="-6.035022">
        <ele>1195.0</ele>
        <time>2012-06-05T08:32:55Z</time>
      </trkpt>
      <trkpt lat="43.077019" lon="-6.034729">
        <ele>1199.0</ele>
        <time>2012-06-05T08:32:59Z</time>
      </trkpt>
      <trkpt lat="43.076895" lon="-6.034453">
        <ele>1202.0</ele>
        <time>2012-06-05T08:33:03Z</time>
      </trkpt>
      <trkpt lat="43.076725" lon="-6.034259">
        <ele>1204.0</ele>
        <time>2012-06-05T08:33:07Z</time>
      </trkpt>
      <trkpt lat="43.076593" lon="-6.034016">
        <ele>1207.0</ele>
        <time>2012-06-05T08:33:11Z</time>
      </trkpt>
      <trkpt lat="43.076514" lon="-6.033793">
        <ele>1208.0</ele>
        <time>2012-06-05T08:33:15Z</time>
      </trkpt>
      <trkpt lat="43.076491" lon="-6.033571">
        <ele>1209.0</ele>
        <time>2012-06-05T08:33:19Z</time>
      </trkpt>
      <trkpt lat="43.076459" lon="-6.033382">
        <ele>1210.0</ele>
        <time>2012-06-05T08:33:24Z</time>
      </trkpt>
      <trkpt lat="43.076401" lon="-6.033348">
        <ele>1211.0</ele>
        <time>2012-06-05T08:33:29Z</time>
      </trkpt>
      <trkpt lat="43.076326" lon="-6.033374">
        <ele>1212.0</ele>
        <time>2012-06-05T08:33:35Z</time>
      </trkpt>
      <trkpt lat="43.076194" lon="-6.033465">
        <ele>1213.0</ele>
        <time>2012-06-05T08:33:43Z</time>
      </trkpt>
      <trkpt lat="43.076128" lon="-6.033519">
        <ele>1213.0</ele>
        <time>2012-06-05T08:33:46Z</time>
      </trkpt>
      <trkpt lat="43.075988" lon="-6.033615">
        <ele>1213.0</ele>
        <time>2012-06-05T08:33:52Z</time>
      </trkpt>
      <trkpt lat="43.075912" lon="-6.033647">
        <ele>1213.0</ele>
        <time>2012-06-05T08:33:55Z</time>
      </trkpt>
      <trkpt lat="43.075836" lon="-6.033677">
        <ele>1213.0</ele>
        <time>2012-06-05T08:33:58Z</time>
      </trkpt>
      <trkpt lat="43.075679" lon="-6.033739">
        <ele>1213.0</ele>
        <time>2012-06-05T08:34:04Z</time>
      </trkpt>
      <trkpt lat="43.075598" lon="-6.033775">
        <ele>1212.0</ele>
        <time>2012-06-05T08:34:07Z</time>
      </trkpt>
      <trkpt lat="43.075515" lon="-6.033817">
        <ele>1212.0</ele>
        <time>2012-06-05T08:34:10Z</time>
      </trkpt>
      <trkpt lat="43.075353" lon="-6.033875">
        <ele>1212.0</ele>
        <time>2012-06-05T08:34:16Z</time>
      </trkpt>
      <trkpt lat="43.075281" lon="-6.033889">
        <ele>1212.0</ele>
        <time>2012-06-05T08:34:19Z</time>
      </trkpt>
      <trkpt lat="43.07521" lon="-6.0339">
        <ele>1211.0</ele>
        <time>2012-06-05T08:34:22Z</time>
      </trkpt>
      <trkpt lat="43.075082" lon="-6.033908">
        <ele>1211.0</ele>
        <time>2012-06-05T08:34:27Z</time>
      </trkpt>
      <trkpt lat="43.074999" lon="-6.033906">
        <ele>1210.0</ele>
        <time>2012-06-05T08:34:30Z</time>
      </trkpt>
      <trkpt lat="43.074818" lon="-6.033891">
        <ele>1210.0</ele>
        <time>2012-06-05T08:34:36Z</time>
      </trkpt>
      <trkpt lat="43.074699" lon="-6.033796">
        <ele>1210.0</ele>
        <time>2012-06-05T08:34:40Z</time>
      </trkpt>
      <trkpt lat="43.074615" lon="-6.033519">
        <ele>1209.0</ele>
        <time>2012-06-05T08:34:44Z</time>
      </trkpt>
      <trkpt lat="43.07458" lon="-6.033072">
        <ele>1209.0</ele>
        <time>2012-06-05T08:34:48Z</time>
      </trkpt>
      <trkpt lat="43.074487" lon="-6.032722">
        <ele>1209.0</ele>
        <time>2012-06-05T08:34:52Z</time>
      </trkpt>
      <trkpt lat="43.074425" lon="-6.032441">
        <ele>1209.0</ele>
        <time>2012-06-05T08:34:56Z</time>
      </trkpt>
      <trkpt lat="43.074456" lon="-6.032202">
        <ele>1209.0</ele>
        <time>2012-06-05T08:35:00Z</time>
      </trkpt>
      <trkpt lat="43.074467" lon="-6.031983">
        <ele>1209.0</ele>
        <time>2012-06-05T08:35:04Z</time>
      </trkpt>
      <trkpt lat="43.074515" lon="-6.031739">
        <ele>1209.0</ele>
        <time>2012-06-05T08:35:08Z</time>
      </trkpt>
      <trkpt lat="43.074591" lon="-6.031527">
        <ele>1210.0</ele>
        <time>2012-06-05T08:35:12Z</time>
      </trkpt>
      <trkpt lat="43.074665" lon="-6.031358">
        <ele>1212.0</ele>
        <time>2012-06-05T08:35:16Z</time>
      </trkpt>
      <trkpt lat="43.074685" lon="-6.031275">
        <ele>1213.0</ele>
        <time>2012-06-05T08:35:18Z</time>
      </trkpt>
      <trkpt lat="43.074737" lon="-6.031056">
        <ele>1215.0</ele>
        <time>2012-06-05T08:35:24Z</time>
      </trkpt>
      <trkpt lat="43.074757" lon="-6.030947">
        <ele>1216.0</ele>
        <time>2012-06-05T08:35:27Z</time>
      </trkpt>
      <trkpt lat="43.07477" lon="-6.030744">
        <ele>1218.0</ele>
        <time>2012-06-05T08:35:32Z</time>
      </trkpt>
      <trkpt lat="43.07476" lon="-6.030556">
        <ele>1219.0</ele>
        <time>2012-06-05T08:35:36Z</time>
      </trkpt>
      <trkpt lat="43.074737" lon="-6.03037">
        <ele>1221.0</ele>
        <time>2012-06-05T08:35:40Z</time>
      </trkpt>
      <trkpt lat="43.074706" lon="-6.03019">
        <ele>1222.0</ele>
        <time>2012-06-05T08:35:44Z</time>
      </trkpt>
      <trkpt lat="43.074656" lon="-6.030009">
        <ele>1224.0</ele>
        <time>2012-06-05T08:35:48Z</time>
      </trkpt>
      <trkpt lat="43.074595" lon="-6.029841">
        <ele>1226.0</ele>
        <time>2012-06-05T08:35:52Z</time>
      </trkpt>
      <trkpt lat="43.074567" lon="-6.029763">
        <ele>1227.0</ele>
        <time>2012-06-05T08:35:54Z</time>
      </trkpt>
      <trkpt lat="43.074478" lon="-6.029563">
        <ele>1229.0</ele>
        <time>2012-06-05T08:36:00Z</time>
      </trkpt>
      <trkpt lat="43.074432" lon="-6.029477">
        <ele>1230.0</ele>
        <time>2012-06-05T08:36:03Z</time>
      </trkpt>
      <trkpt lat="43.074374" lon="-6.02941">
        <ele>1231.0</ele>
        <time>2012-06-05T08:36:06Z</time>
      </trkpt>
      <trkpt lat="43.074233" lon="-6.029309">
        <ele>1234.0</ele>
        <time>2012-06-05T08:36:12Z</time>
      </trkpt>
      <trkpt lat="43.074149" lon="-6.029287">
        <ele>1234.0</ele>
        <time>2012-06-05T08:36:15Z</time>
      </trkpt>
      <trkpt lat="43.074016" lon="-6.029291">
        <ele>1235.0</ele>
        <time>2012-06-05T08:36:19Z</time>
      </trkpt>
      <trkpt lat="43.073872" lon="-6.029306">
        <ele>1236.0</ele>
        <time>2012-06-05T08:36:23Z</time>
      </trkpt>
      <trkpt lat="43.073714" lon="-6.029348">
        <ele>1237.0</ele>
        <time>2012-06-05T08:36:27Z</time>
      </trkpt>
      <trkpt lat="43.073532" lon="-6.029433">
        <ele>1238.0</ele>
        <time>2012-06-05T08:36:31Z</time>
      </trkpt>
      <trkpt lat="43.073358" lon="-6.029508">
        <ele>1239.0</ele>
        <time>2012-06-05T08:36:35Z</time>
      </trkpt>
      <trkpt lat="43.073182" lon="-6.029555">
        <ele>1239.0</ele>
        <time>2012-06-05T08:36:39Z</time>
      </trkpt>
      <trkpt lat="43.073011" lon="-6.029578">
        <ele>1240.0</ele>
        <time>2012-06-05T08:36:43Z</time>
      </trkpt>
      <trkpt lat="43.072854" lon="-6.029574">
        <ele>1241.0</ele>
        <time>2012-06-05T08:36:47Z</time>
      </trkpt>
      <trkpt lat="43.07271" lon="-6.029554">
        <ele>1241.0</ele>
        <time>2012-06-05T08:36:51Z</time>
      </trkpt>
      <trkpt lat="43.07258" lon="-6.029522">
        <ele>1242.0</ele>
        <time>2012-06-05T08:36:55Z</time>
      </trkpt>
      <trkpt lat="43.072453" lon="-6.02949">
        <ele>1242.0</ele>
        <time>2012-06-05T08:36:59Z</time>
      </trkpt>
      <trkpt lat="43.072321" lon="-6.029461">
        <ele>1243.0</ele>
        <time>2012-06-05T08:37:03Z</time>
      </trkpt>
      <trkpt lat="43.072185" lon="-6.02943">
        <ele>1243.0</ele>
        <time>2012-06-05T08:37:07Z</time>
      </trkpt>
      <trkpt lat="43.072055" lon="-6.029391">
        <ele>1244.0</ele>
        <time>2012-06-05T08:37:11Z</time>
      </trkpt>
      <trkpt lat="43.071924" lon="-6.029341">
        <ele>1244.0</ele>
        <time>2012-06-05T08:37:15Z</time>
      </trkpt>
      <trkpt lat="43.071797" lon="-6.029296">
        <ele>1244.0</ele>
        <time>2012-06-05T08:37:19Z</time>
      </trkpt>
      <trkpt lat="43.071645" lon="-6.029221">
        <ele>1244.0</ele>
        <time>2012-06-05T08:37:24Z</time>
      </trkpt>
      <trkpt lat="43.071513" lon="-6.029141">
        <ele>1245.0</ele>
        <time>2012-06-05T08:37:28Z</time>
      </trkpt>
      <trkpt lat="43.071375" lon="-6.029061">
        <ele>1245.0</ele>
        <time>2012-06-05T08:37:32Z</time>
      </trkpt>
      <trkpt lat="43.071235" lon="-6.028977">
        <ele>1245.0</ele>
        <time>2012-06-05T08:37:36Z</time>
      </trkpt>
      <trkpt lat="43.071094" lon="-6.028891">
        <ele>1245.0</ele>
        <time>2012-06-05T08:37:40Z</time>
      </trkpt>
      <trkpt lat="43.070947" lon="-6.0288">
        <ele>1246.0</ele>
        <time>2012-06-05T08:37:44Z</time>
      </trkpt>
      <trkpt lat="43.070797" lon="-6.028694">
        <ele>1246.0</ele>
        <time>2012-06-05T08:37:48Z</time>
      </trkpt>
      <trkpt lat="43.070654" lon="-6.028386">
        <ele>1248.0</ele>
        <time>2012-06-05T08:37:52Z</time>
      </trkpt>
      <trkpt lat="43.070516" lon="-6.027955">
        <ele>1264.0</ele>
        <time>2012-06-05T08:37:56Z</time>
      </trkpt>
      <trkpt lat="43.07038" lon="-6.027616">
        <ele>1277.0</ele>
        <time>2012-06-05T08:38:00Z</time>
      </trkpt>
      <trkpt lat="43.070343" lon="-6.027544">
        <ele>1280.0</ele>
        <time>2012-06-05T08:38:01Z</time>
      </trkpt>
      <trkpt lat="43.070137" lon="-6.027229">
        <ele>1294.0</ele>
        <time>2012-06-05T08:38:07Z</time>
      </trkpt>
      <trkpt lat="43.07" lon="-6.027028">
        <ele>1297.0</ele>
        <time>2012-06-05T08:38:11Z</time>
      </trkpt>
      <trkpt lat="43.069863" lon="-6.026794">
        <ele>1299.0</ele>
        <time>2012-06-05T08:38:15Z</time>
      </trkpt>
      <trkpt lat="43.06969" lon="-6.026431">
        <ele>1300.0</ele>
        <time>2012-06-05T08:38:20Z</time>
      </trkpt>
      <trkpt lat="43.069569" lon="-6.02623">
        <ele>1302.0</ele>
        <time>2012-06-05T08:38:23Z</time>
      </trkpt>
      <trkpt lat="43.06936" lon="-6.025907">
        <ele>1303.0</ele>
        <time>2012-06-05T08:38:28Z</time>
      </trkpt>
      <trkpt lat="43.069177" lon="-6.025687">
        <ele>1301.0</ele>
        <time>2012-06-05T08:38:32Z</time>
      </trkpt>
      <trkpt lat="43.068993" lon="-6.025482">
        <ele>1299.0</ele>
        <time>2012-06-05T08:38:36Z</time>
      </trkpt>
      <trkpt lat="43.068822" lon="-6.025266">
        <ele>1299.0</ele>
        <time>2012-06-05T08:38:40Z</time>
      </trkpt>
      <trkpt lat="43.068672" lon="-6.025035">
        <ele>1300.0</ele>
        <time>2012-06-05T08:38:44Z</time>
      </trkpt>
      <trkpt lat="43.06852" lon="-6.024829">
        <ele>1303.0</ele>
        <time>2012-06-05T08:38:48Z</time>
      </trkpt>
      <trkpt lat="43.068393" lon="-6.024671">
        <ele>1306.0</ele>
        <time>2012-06-05T08:38:52Z</time>
      </trkpt>
      <trkpt lat="43.068333" lon="-6.024605">
        <ele>1308.0</ele>
        <time>2012-06-05T08:38:54Z</time>
      </trkpt>
      <trkpt lat="43.068215" lon="-6.024466">
        <ele>1308.0</ele>
        <time>2012-06-05T08:39:00Z</time>
      </trkpt>
      <trkpt lat="43.068166" lon="-6.024407">
        <ele>1308.0</ele>
        <time>2012-06-05T08:39:04Z</time>
      </trkpt>
      <trkpt lat="43.068166" lon="-6.024407">
        <time>2012-06-05T08:39:15Z</time>
      </trkpt>
    </trkseg>
    <trkseg>
      <trkpt lat="43.068166" lon="-6.024407">
        <time>2012-06-05T08:39:28Z</time>
      </trkpt>
      <trkpt lat="43.068042" lon="-6.024626">
        <ele>1307.0</ele>
        <time>2012-06-05T08:39:31Z</time>
      </trkpt>
      <trkpt lat="43.06796" lon="-6.024733">
        <ele>1307.0</ele>
        <time>2012-06-05T08:39:35Z</time>
      </trkpt>
      <trkpt lat="43.06778" lon="-6.024875">
        <ele>1307.0</ele>
        <time>2012-06-05T08:39:41Z</time>
      </trkpt>
      <trkpt lat="43.067593" lon="-6.024987">
        <ele>1307.0</ele>
        <time>2012-06-05T08:39:45Z</time>
      </trkpt>
      <trkpt lat="43.067392" lon="-6.02511">
        <ele>1307.0</ele>
        <time>2012-06-05T08:39:49Z</time>
      </trkpt>
      <trkpt lat="43.067256" lon="-6.025219">
        <ele>1307.0</ele>
        <time>2012-06-05T08:39:53Z</time>
      </trkpt>
      <trkpt lat="43.067199" lon="-6.02526">
        <ele>1307.0</ele>
        <time>2012-06-05T08:39:55Z</time>
      </trkpt>
      <trkpt lat="43.067044" lon="-6.025345">
        <ele>1307.0</ele>
        <time>2012-06-05T08:40:01Z</time>
      </trkpt>
      <trkpt lat="43.06697" lon="-6.025377">
        <ele>1307.0</ele>
        <time>2012-06-05T08:40:04Z</time>
      </trkpt>
      <trkpt lat="43.066899" lon="-6.025396">
        <ele>1307.0</ele>
        <time>2012-06-05T08:40:07Z</time>
      </trkpt>
      <trkpt lat="43.066767" lon="-6.025417">
        <ele>1307.0</ele>
        <time>2012-06-05T08:40:13Z</time>
      </trkpt>
      <trkpt lat="43.066703" lon="-6.025415">
        <ele>1308.0</ele>
        <time>2012-06-05T08:40:16Z</time>
      </trkpt>
      <trkpt lat="43.06662" lon="-6.025382">
        <ele>1308.0</ele>
        <time>2012-06-05T08:40:20Z</time>
      </trkpt>
      <trkpt lat="43.066545" lon="-6.024963">
        <ele>1308.0</ele>
        <time>2012-06-05T08:40:25Z</time>
      </trkpt>
      <trkpt lat="43.066402" lon="-6.024565">
        <ele>1309.0</ele>
        <time>2012-06-05T08:40:29Z</time>
      </trkpt>
      <trkpt lat="43.066162" lon="-6.024295">
        <ele>1310.0</ele>
        <time>2012-06-05T08:40:33Z</time>
      </trkpt>
      <trkpt lat="43.065984" lon="-6.023936">
        <ele>1311.0</ele>
        <time>2012-06-05T08:40:37Z</time>
      </trkpt>
      <trkpt lat="43.065776" lon="-6.023577">
        <ele>1319.0</ele>
        <time>2012-06-05T08:40:41Z</time>
      </trkpt>
      <trkpt lat="43.065647" lon="-6.023222">
        <ele>1325.0</ele>
        <time>2012-06-05T08:40:45Z</time>
      </trkpt>
      <trkpt lat="43.065527" lon="-6.022965">
        <ele>1328.0</ele>
        <time>2012-06-05T08:40:49Z</time>
      </trkpt>
      <trkpt lat="43.065406" lon="-6.022757">
        <ele>1328.0</ele>
        <time>2012-06-05T08:40:53Z</time>
      </trkpt>
      <trkpt lat="43.065275" lon="-6.022592">
        <ele>1328.0</ele>
        <time>2012-06-05T08:40:57Z</time>
      </trkpt>
      <trkpt lat="43.065125" lon="-6.022472">
        <ele>1328.0</ele>
        <time>2012-06-05T08:41:01Z</time>
      </trkpt>
      <trkpt lat="43.064972" lon="-6.022397">
        <ele>1329.0</ele>
        <time>2012-06-05T08:41:05Z</time>
      </trkpt>
      <trkpt lat="43.064898" lon="-6.022361">
        <ele>1329.0</ele>
        <time>2012-06-05T08:41:08Z</time>
      </trkpt>
      <trkpt lat="43.064812" lon="-6.0223">
        <ele>1329.0</ele>
        <time>2012-06-05T08:41:12Z</time>
      </trkpt>
      <trkpt lat="43.064752" lon="-6.022256">
        <ele>1329.0</ele>
        <time>2012-06-05T08:41:14Z</time>
      </trkpt>
      <trkpt lat="43.064929" lon="-6.022415">
        <ele>1330.0</ele>
        <time>2012-06-05T08:41:22Z</time>
      </trkpt>
      <trkpt lat="43.065027" lon="-6.022475">
        <ele>1331.0</ele>
        <time>2012-06-05T08:41:26Z</time>
      </trkpt>
      <trkpt lat="43.065117" lon="-6.022519">
        <ele>1331.0</ele>
        <time>2012-06-05T08:41:30Z</time>
      </trkpt>
      <trkpt lat="43.065117" lon="-6.022519">
        <time>2012-06-05T08:41:41Z</time>
      </trkpt>
    </trkseg>
    <trkseg>
      <trkpt lat="43.065117" lon="-6.022519">
        <time>2012-06-05T08:41:52Z</time>
      </trkpt>
      <trkpt lat="43.065016" lon="-6.022583">
        <ele>1335.0</ele>
        <time>2012-06-05T08:41:56Z</time>
      </trkpt>
      <trkpt lat="43.064813" lon="-6.02238">
        <ele>1337.0</ele>
        <time>2012-06-05T08:42:03Z</time>
      </trkpt>
      <trkpt lat="43.064628" lon="-6.021939">
        <ele>1340.0</ele>
        <time>2012-06-05T08:42:08Z</time>
      </trkpt>
      <trkpt lat="43.064462" lon="-6.021737">
        <ele>1343.0</ele>
        <time>2012-06-05T08:42:11Z</time>
      </trkpt>
      <trkpt lat="43.0643" lon="-6.021595">
        <ele>1347.0</ele>
        <time>2012-06-05T08:42:15Z</time>
      </trkpt>
      <trkpt lat="43.064221" lon="-6.021544">
        <ele>1349.0</ele>
        <time>2012-06-05T08:42:18Z</time>
      </trkpt>
      <trkpt lat="43.064082" lon="-6.021495">
        <ele>1355.0</ele>
        <time>2012-06-05T08:42:24Z</time>
      </trkpt>
      <trkpt lat="43.064011" lon="-6.021493">
        <ele>1357.0</ele>
        <time>2012-06-05T08:42:27Z</time>
      </trkpt>
      <trkpt lat="43.063932" lon="-6.021478">
        <ele>1360.0</ele>
        <time>2012-06-05T08:42:30Z</time>
      </trkpt>
      <trkpt lat="43.063761" lon="-6.021453">
        <ele>1364.0</ele>
        <time>2012-06-05T08:42:36Z</time>
      </trkpt>
      <trkpt lat="43.063672" lon="-6.021425">
        <ele>1367.0</ele>
        <time>2012-06-05T08:42:39Z</time>
      </trkpt>
      <trkpt lat="43.063543" lon="-6.021383">
        <ele>1369.0</ele>
        <time>2012-06-05T08:42:43Z</time>
      </trkpt>
      <trkpt lat="43.063475" lon="-6.02134">
        <ele>1371.0</ele>
        <time>2012-06-05T08:42:45Z</time>
      </trkpt>
      <trkpt lat="43.063276" lon="-6.021122">
        <ele>1374.0</ele>
        <time>2012-06-05T08:42:51Z</time>
      </trkpt>
      <trkpt lat="43.063162" lon="-6.021008">
        <ele>1377.0</ele>
        <time>2012-06-05T08:42:55Z</time>
      </trkpt>
      <trkpt lat="43.063145" lon="-6.020922">
        <ele>1378.0</ele>
        <time>2012-06-05T08:42:58Z</time>
      </trkpt>
      <trkpt lat="43.063184" lon="-6.020707">
        <ele>1381.0</ele>
        <time>2012-06-05T08:43:04Z</time>
      </trkpt>
      <trkpt lat="43.06325" lon="-6.020481">
        <ele>1383.0</ele>
        <time>2012-06-05T08:43:08Z</time>
      </trkpt>
      <trkpt lat="43.063319" lon="-6.020247">
        <ele>1385.0</ele>
        <time>2012-06-05T08:43:12Z</time>
      </trkpt>
      <trkpt lat="43.063419" lon="-6.020173">
        <ele>1386.0</ele>
        <time>2012-06-05T08:43:14Z</time>
      </trkpt>
      <trkpt lat="43.063655" lon="-6.02007">
        <ele>1389.0</ele>
        <time>2012-06-05T08:43:20Z</time>
      </trkpt>
      <trkpt lat="43.063575" lon="-6.020072">
        <ele>1395.0</ele>
        <time>2012-06-05T08:43:30Z</time>
      </trkpt>
      <trkpt lat="43.063434" lon="-6.020129">
        <ele>1398.0</ele>
        <time>2012-06-05T08:43:35Z</time>
      </trkpt>
      <trkpt lat="43.063269" lon="-6.020285">
        <ele>1401.0</ele>
        <time>2012-06-05T08:43:39Z</time>
      </trkpt>
      <trkpt lat="43.063137" lon="-6.02045">
        <ele>1403.0</ele>
        <time>2012-06-05T08:43:43Z</time>
      </trkpt>
      <trkpt lat="43.063016" lon="-6.020617">
        <ele>1405.0</ele>
        <time>2012-06-05T08:43:47Z</time>
      </trkpt>
      <trkpt lat="43.062824" lon="-6.020902">
        <ele>1409.0</ele>
        <time>2012-06-05T08:43:55Z</time>
      </trkpt>
      <trkpt lat="43.062776" lon="-6.020966">
        <ele>1410.0</ele>
        <time>2012-06-05T08:43:57Z</time>
      </trkpt>
      <trkpt lat="43.062558" lon="-6.021078">
        <ele>1414.0</ele>
        <time>2012-06-05T08:44:06Z</time>
      </trkpt>
      <trkpt lat="43.062403" lon="-6.021021">
        <ele>1416.0</ele>
        <time>2012-06-05T08:44:11Z</time>
      </trkpt>
      <trkpt lat="43.062257" lon="-6.020915">
        <ele>1421.0</ele>
        <time>2012-06-05T08:44:15Z</time>
      </trkpt>
      <trkpt lat="43.062118" lon="-6.020783">
        <ele>1424.0</ele>
        <time>2012-06-05T08:44:19Z</time>
      </trkpt>
      <trkpt lat="43.061984" lon="-6.020672">
        <ele>1425.0</ele>
        <time>2012-06-05T08:44:23Z</time>
      </trkpt>
      <trkpt lat="43.061845" lon="-6.02056">
        <ele>1425.0</ele>
        <time>2012-06-05T08:44:27Z</time>
      </trkpt>
      <trkpt lat="43.0617" lon="-6.020451">
        <ele>1427.0</ele>
        <time>2012-06-05T08:44:31Z</time>
      </trkpt>
      <trkpt lat="43.061549" lon="-6.020347">
        <ele>1428.0</ele>
        <time>2012-06-05T08:44:35Z</time>
      </trkpt>
      <trkpt lat="43.061397" lon="-6.020234">
        <ele>1429.0</ele>
        <time>2012-06-05T08:44:39Z</time>
      </trkpt>
      <trkpt lat="43.061248" lon="-6.020071">
        <ele>1428.0</ele>
        <time>2012-06-05T08:44:43Z</time>
      </trkpt>
      <trkpt lat="43.061183" lon="-6.019957">
        <ele>1428.0</ele>
        <time>2012-06-05T08:44:45Z</time>
      </trkpt>
      <trkpt lat="43.06098" lon="-6.019655">
        <ele>1429.0</ele>
        <time>2012-06-05T08:44:51Z</time>
      </trkpt>
      <trkpt lat="43.06084" lon="-6.019481">
        <ele>1430.0</ele>
        <time>2012-06-05T08:44:55Z</time>
      </trkpt>
      <trkpt lat="43.060694" lon="-6.019334">
        <ele>1430.0</ele>
        <time>2012-06-05T08:44:59Z</time>
      </trkpt>
      <trkpt lat="43.060575" lon="-6.019233">
        <ele>1430.0</ele>
        <time>2012-06-05T08:45:03Z</time>
      </trkpt>
      <trkpt lat="43.060518" lon="-6.019197">
        <ele>1430.0</ele>
        <time>2012-06-05T08:45:06Z</time>
      </trkpt>
      <trkpt lat="43.060518" lon="-6.019197">
        <time>2012-06-05T08:45:17Z</time>
      </trkpt>
    </trkseg>
    <trkseg>
      <trkpt lat="43.060518" lon="-6.019197">
        <time>2012-06-05T08:45:29Z</time>
      </trkpt>
      <trkpt lat="43.060433" lon="-6.018814">
        <ele>1430.0</ele>
        <time>2012-06-05T08:45:39Z</time>
      </trkpt>
      <trkpt lat="43.060433" lon="-6.018814">
        <time>2012-06-05T08:45:50Z</time>
      </trkpt>
    </trkseg>
    <trkseg>
      <trkpt lat="43.060433" lon="-6.018814">
        <time>2012-06-05T08:45:54Z</time>
      </trkpt>
      <trkpt lat="43.060228" lon="-6.01864">
        <ele>1429.0</ele>
        <time>2012-06-05T08:45:59Z</time>
      </trkpt>
      <trkpt lat="43.060138" lon="-6.018618">
        <ele>1428.0</ele>
        <time>2012-06-05T08:46:03Z</time>
      </trkpt>
      <trkpt lat="43.060034" lon="-6.018616">
        <ele>1428.0</ele>
        <time>2012-06-05T08:46:07Z</time>
      </trkpt>
      <trkpt lat="43.059925" lon="-6.018628">
        <ele>1428.0</ele>
        <time>2012-06-05T08:46:11Z</time>
      </trkpt>
      <trkpt lat="43.059821" lon="-6.018643">
        <ele>1428.0</ele>
        <time>2012-06-05T08:46:15Z</time>
      </trkpt>
      <trkpt lat="43.059724" lon="-6.018646">
        <ele>1428.0</ele>
        <time>2012-06-05T08:46:19Z</time>
      </trkpt>
      <trkpt lat="43.05965" lon="-6.018632">
        <ele>1429.0</ele>
        <time>2012-06-05T08:46:22Z</time>
      </trkpt>
      <trkpt lat="43.059509" lon="-6.018554">
        <ele>1429.0</ele>
        <time>2012-06-05T08:46:27Z</time>
      </trkpt>
      <trkpt lat="43.059389" lon="-6.018478">
        <ele>1430.0</ele>
        <time>2012-06-05T08:46:31Z</time>
      </trkpt>
      <trkpt lat="43.059242" lon="-6.018388">
        <ele>1431.0</ele>
        <time>2012-06-05T08:46:35Z</time>
      </trkpt>
      <trkpt lat="43.059081" lon="-6.018268">
        <ele>1431.0</ele>
        <time>2012-06-05T08:46:39Z</time>
      </trkpt>
      <trkpt lat="43.058761" lon="-6.018009">
        <ele>1432.0</ele>
        <time>2012-06-05T08:46:44Z</time>
      </trkpt>
      <trkpt lat="43.058501" lon="-6.017681">
        <ele>1433.0</ele>
        <time>2012-06-05T08:46:48Z</time>
      </trkpt>
      <trkpt lat="43.058319" lon="-6.017427">
        <ele>1433.0</ele>
        <time>2012-06-05T08:46:52Z</time>
      </trkpt>
      <trkpt lat="43.058185" lon="-6.017191">
        <ele>1436.0</ele>
        <time>2012-06-05T08:46:56Z</time>
      </trkpt>
      <trkpt lat="43.058113" lon="-6.016942">
        <ele>1440.0</ele>
        <time>2012-06-05T08:47:00Z</time>
      </trkpt>
      <trkpt lat="43.058056" lon="-6.016727">
        <ele>1440.0</ele>
        <time>2012-06-05T08:47:04Z</time>
      </trkpt>
      <trkpt lat="43.057952" lon="-6.016535">
        <ele>1441.0</ele>
        <time>2012-06-05T08:47:08Z</time>
      </trkpt>
      <trkpt lat="43.057888" lon="-6.016323">
        <ele>1441.0</ele>
        <time>2012-06-05T08:47:12Z</time>
      </trkpt>
      <trkpt lat="43.057846" lon="-6.01612">
        <ele>1441.0</ele>
        <time>2012-06-05T08:47:16Z</time>
      </trkpt>
      <trkpt lat="43.057821" lon="-6.016039">
        <ele>1442.0</ele>
        <time>2012-06-05T08:47:18Z</time>
      </trkpt>
      <trkpt lat="43.057778" lon="-6.01584">
        <ele>1442.0</ele>
        <time>2012-06-05T08:47:24Z</time>
      </trkpt>
      <trkpt lat="43.057761" lon="-6.015741">
        <ele>1442.0</ele>
        <time>2012-06-05T08:47:27Z</time>
      </trkpt>
      <trkpt lat="43.057758" lon="-6.015639">
        <ele>1442.0</ele>
        <time>2012-06-05T08:47:30Z</time>
      </trkpt>
      <trkpt lat="43.057781" lon="-6.015421">
        <ele>1442.0</ele>
        <time>2012-06-05T08:47:36Z</time>
      </trkpt>
      <trkpt lat="43.057796" lon="-6.015303">
        <ele>1442.0</ele>
        <time>2012-06-05T08:47:39Z</time>
      </trkpt>
      <trkpt lat="43.05781" lon="-6.015182">
        <ele>1442.0</ele>
        <time>2012-06-05T08:47:42Z</time>
      </trkpt>
      <trkpt lat="43.057835" lon="-6.014938">
        <ele>1442.0</ele>
        <time>2012-06-05T08:47:48Z</time>
      </trkpt>
      <trkpt lat="43.057843" lon="-6.014818">
        <ele>1443.0</ele>
        <time>2012-06-05T08:47:51Z</time>
      </trkpt>
      <trkpt lat="43.057839" lon="-6.014697">
        <ele>1443.0</ele>
        <time>2012-06-05T08:47:54Z</time>
      </trkpt>
      <trkpt lat="43.058327" lon="-6.01457">
        <ele>1444.0</ele>
        <time>2012-06-05T08:48:00Z</time>
      </trkpt>
      <trkpt lat="43.059322" lon="-6.014506">
        <ele>1445.0</ele>
        <time>2012-06-05T08:48:04Z</time>
      </trkpt>
      <trkpt lat="43.059789" lon="-6.014443">
        <ele>1446.0</ele>
        <time>2012-06-05T08:48:08Z</time>
      </trkpt>
      <trkpt lat="43.060076" lon="-6.014409">
        <ele>1447.0</ele>
        <time>2012-06-05T08:48:12Z</time>
      </trkpt>
      <trkpt lat="43.0603" lon="-6.014387">
        <ele>1447.0</ele>
        <time>2012-06-05T08:48:16Z</time>
      </trkpt>
      <trkpt lat="43.060505" lon="-6.014282">
        <ele>1448.0</ele>
        <time>2012-06-05T08:48:20Z</time>
      </trkpt>
      <trkpt lat="43.060692" lon="-6.014153">
        <ele>1448.0</ele>
        <time>2012-06-05T08:48:24Z</time>
      </trkpt>
      <trkpt lat="43.060857" lon="-6.014038">
        <ele>1448.0</ele>
        <time>2012-06-05T08:48:28Z</time>
      </trkpt>
      <trkpt lat="43.061004" lon="-6.013932">
        <ele>1448.0</ele>
        <time>2012-06-05T08:48:32Z</time>
      </trkpt>
      <trkpt lat="43.061139" lon="-6.013832">
        <ele>1449.0</ele>
        <time>2012-06-05T08:48:36Z</time>
      </trkpt>
      <trkpt lat="43.061277" lon="-6.01377">
        <ele>1449.0</ele>
        <time>2012-06-05T08:48:40Z</time>
      </trkpt>
      <trkpt lat="43.061413" lon="-6.013711">
        <ele>1449.0</ele>
        <time>2012-06-05T08:48:44Z</time>
      </trkpt>
      <trkpt lat="43.061545" lon="-6.013655">
        <ele>1448.0</ele>
        <time>2012-06-05T08:48:48Z</time>
      </trkpt>
      <trkpt lat="43.06167" lon="-6.013585">
        <ele>1448.0</ele>
        <time>2012-06-05T08:48:52Z</time>
      </trkpt>
      <trkpt lat="43.061798" lon="-6.013513">
        <ele>1448.0</ele>
        <time>2012-06-05T08:48:56Z</time>
      </trkpt>
      <trkpt lat="43.061924" lon="-6.013438">
        <ele>1448.0</ele>
        <time>2012-06-05T08:49:00Z</time>
      </trkpt>
      <trkpt lat="43.062045" lon="-6.013357">
        <ele>1447.0</ele>
        <time>2012-06-05T08:49:04Z</time>
      </trkpt>
      <trkpt lat="43.062153" lon="-6.013233">
        <ele>1447.0</ele>
        <time>2012-06-05T08:49:08Z</time>
      </trkpt>
      <trkpt lat="43.062201" lon="-6.013172">
        <ele>1447.0</ele>
        <time>2012-06-05T08:49:10Z</time>
      </trkpt>
      <trkpt lat="43.06234" lon="-6.012994">
        <ele>1447.0</ele>
        <time>2012-06-05T08:49:16Z</time>
      </trkpt>
      <trkpt lat="43.06234" lon="-6.012994">
        <time>2012-06-05T08:49:27Z</time>
      </trkpt>
    </trkseg>
    <trkseg>
      <trkpt lat="43.06234" lon="-6.012994">
        <time>2012-06-05T08:49:28Z</time>
      </trkpt>
      <trkpt lat="43.062617" lon="-6.01264">
        <ele>1449.0</ele>
        <time>2012-06-05T08:49:32Z</time>
      </trkpt>
      <trkpt lat="43.062664" lon="-6.012581">
        <ele>1449.0</ele>
        <time>2012-06-05T08:49:35Z</time>
      </trkpt>
      <trkpt lat="43.062769" lon="-6.012419">
        <ele>1450.0</ele>
        <time>2012-06-05T08:49:41Z</time>
      </trkpt>
      <trkpt lat="43.062953" lon="-6.01203">
        <ele>1453.0</ele>
        <time>2012-06-05T08:49:53Z</time>
      </trkpt>
      <trkpt lat="43.063008" lon="-6.011852">
        <ele>1456.0</ele>
        <time>2012-06-05T08:49:57Z</time>
      </trkpt>
      <trkpt lat="43.063058" lon="-6.011666">
        <ele>1459.0</ele>
        <time>2012-06-05T08:50:01Z</time>
      </trkpt>
      <trkpt lat="43.063082" lon="-6.011459">
        <ele>1463.0</ele>
        <time>2012-06-05T08:50:05Z</time>
      </trkpt>
      <trkpt lat="43.063039" lon="-6.011236">
        <ele>1466.0</ele>
        <time>2012-06-05T08:50:09Z</time>
      </trkpt>
      <trkpt lat="43.062977" lon="-6.011049">
        <ele>1470.0</ele>
        <time>2012-06-05T08:50:13Z</time>
      </trkpt>
      <trkpt lat="43.062958" lon="-6.010963">
        <ele>1471.0</ele>
        <time>2012-06-05T08:50:15Z</time>
      </trkpt>
      <trkpt lat="43.062936" lon="-6.010723">
        <ele>1475.0</ele>
        <time>2012-06-05T08:50:21Z</time>
      </trkpt>
      <trkpt lat="43.062936" lon="-6.010603">
        <ele>1477.0</ele>
        <time>2012-06-05T08:50:24Z</time>
      </trkpt>
      <trkpt lat="43.062933" lon="-6.010277">
        <ele>1482.0</ele>
        <time>2012-06-05T08:50:33Z</time>
      </trkpt>
      <trkpt lat="43.062946" lon="-6.010172">
        <ele>1483.0</ele>
        <time>2012-06-05T08:50:36Z</time>
      </trkpt>
      <trkpt lat="43.062969" lon="-6.010065">
        <ele>1484.0</ele>
        <time>2012-06-05T08:50:39Z</time>
      </trkpt>
      <trkpt lat="43.063018" lon="-6.009832">
        <ele>1487.0</ele>
        <time>2012-06-05T08:50:45Z</time>
      </trkpt>
      <trkpt lat="43.062989" lon="-6.009744">
        <ele>1489.0</ele>
        <time>2012-06-05T08:50:48Z</time>
      </trkpt>
      <trkpt lat="43.062789" lon="-6.009714">
        <ele>1491.0</ele>
        <time>2012-06-05T08:50:53Z</time>
      </trkpt>
      <trkpt lat="43.06257" lon="-6.009791">
        <ele>1493.0</ele>
        <time>2012-06-05T08:50:57Z</time>
      </trkpt>
      <trkpt lat="43.062381" lon="-6.009832">
        <ele>1495.0</ele>
        <time>2012-06-05T08:51:01Z</time>
      </trkpt>
      <trkpt lat="43.062206" lon="-6.009816">
        <ele>1497.0</ele>
        <time>2012-06-05T08:51:05Z</time>
      </trkpt>
      <trkpt lat="43.062038" lon="-6.009787">
        <ele>1499.0</ele>
        <time>2012-06-05T08:51:09Z</time>
      </trkpt>
      <trkpt lat="43.061863" lon="-6.009749">
        <ele>1500.0</ele>
        <time>2012-06-05T08:51:13Z</time>
      </trkpt>
      <trkpt lat="43.061695" lon="-6.009695">
        <ele>1502.0</ele>
        <time>2012-06-05T08:51:17Z</time>
      </trkpt>
      <trkpt lat="43.061535" lon="-6.009594">
        <ele>1503.0</ele>
        <time>2012-06-05T08:51:21Z</time>
      </trkpt>
      <trkpt lat="43.061387" lon="-6.009485">
        <ele>1504.0</ele>
        <time>2012-06-05T08:51:25Z</time>
      </trkpt>
      <trkpt lat="43.061318" lon="-6.009431">
        <ele>1505.0</ele>
        <time>2012-06-05T08:51:27Z</time>
      </trkpt>
      <trkpt lat="43.061193" lon="-6.009304">
        <ele>1506.0</ele>
        <time>2012-06-05T08:51:31Z</time>
      </trkpt>
      <trkpt lat="43.061232" lon="-6.009113">
        <ele>1509.0</ele>
        <time>2012-06-05T08:51:37Z</time>
      </trkpt>
      <trkpt lat="43.061348" lon="-6.008971">
        <ele>1511.0</ele>
        <time>2012-06-05T08:51:41Z</time>
      </trkpt>
      <trkpt lat="43.061516" lon="-6.008824">
        <ele>1514.0</ele>
        <time>2012-06-05T08:51:45Z</time>
      </trkpt>
      <trkpt lat="43.062009" lon="-6.008653">
        <ele>1518.0</ele>
        <time>2012-06-05T08:51:49Z</time>
      </trkpt>
      <trkpt lat="43.062235" lon="-6.008467">
        <ele>1520.0</ele>
        <time>2012-06-05T08:51:53Z</time>
      </trkpt>
      <trkpt lat="43.062349" lon="-6.008264">
        <ele>1522.0</ele>
        <time>2012-06-05T08:51:57Z</time>
      </trkpt>
      <trkpt lat="43.062406" lon="-6.008054">
        <ele>1524.0</ele>
        <time>2012-06-05T08:52:01Z</time>
      </trkpt>
      <trkpt lat="43.062478" lon="-6.007819">
        <ele>1526.0</ele>
        <time>2012-06-05T08:52:05Z</time>
      </trkpt>
      <trkpt lat="43.062565" lon="-6.007572">
        <ele>1527.0</ele>
        <time>2012-06-05T08:52:09Z</time>
      </trkpt>
      <trkpt lat="43.062613" lon="-6.007341">
        <ele>1529.0</ele>
        <time>2012-06-05T08:52:13Z</time>
      </trkpt>
      <trkpt lat="43.062636" lon="-6.007108">
        <ele>1530.0</ele>
        <time>2012-06-05T08:52:17Z</time>
      </trkpt>
      <trkpt lat="43.06263" lon="-6.006873">
        <ele>1531.0</ele>
        <time>2012-06-05T08:52:21Z</time>
      </trkpt>
      <trkpt lat="43.062603" lon="-6.006651">
        <ele>1532.0</ele>
        <time>2012-06-05T08:52:25Z</time>
      </trkpt>
      <trkpt lat="43.062458" lon="-6.006565">
        <ele>1535.0</ele>
        <time>2012-06-05T08:52:29Z</time>
      </trkpt>
      <trkpt lat="43.062291" lon="-6.006455">
        <ele>1537.0</ele>
        <time>2012-06-05T08:52:33Z</time>
      </trkpt>
      <trkpt lat="43.062127" lon="-6.006321">
        <ele>1538.0</ele>
        <time>2012-06-05T08:52:37Z</time>
      </trkpt>
      <trkpt lat="43.061991" lon="-6.006219">
        <ele>1539.0</ele>
        <time>2012-06-05T08:52:41Z</time>
      </trkpt>
      <trkpt lat="43.061777" lon="-6.00616">
        <ele>1540.0</ele>
        <time>2012-06-05T08:52:45Z</time>
      </trkpt>
      <trkpt lat="43.061572" lon="-6.006044">
        <ele>1541.0</ele>
        <time>2012-06-05T08:52:49Z</time>
      </trkpt>
      <trkpt lat="43.061369" lon="-6.005911">
        <ele>1541.0</ele>
        <time>2012-06-05T08:52:53Z</time>
      </trkpt>
      <trkpt lat="43.061173" lon="-6.005792">
        <ele>1541.0</ele>
        <time>2012-06-05T08:52:57Z</time>
      </trkpt>
      <trkpt lat="43.060984" lon="-6.005671">
        <ele>1541.0</ele>
        <time>2012-06-05T08:53:01Z</time>
      </trkpt>
      <trkpt lat="43.060766" lon="-6.005599">
        <ele>1541.0</ele>
        <time>2012-06-05T08:53:05Z</time>
      </trkpt>
      <trkpt lat="43.060524" lon="-6.005559">
        <ele>1540.0</ele>
        <time>2012-06-05T08:53:09Z</time>
      </trkpt>
      <trkpt lat="43.06032" lon="-6.005501">
        <ele>1540.0</ele>
        <time>2012-06-05T08:53:13Z</time>
      </trkpt>
      <trkpt lat="43.060226" lon="-6.005477">
        <ele>1540.0</ele>
        <time>2012-06-05T08:53:15Z</time>
      </trkpt>
      <trkpt lat="43.059978" lon="-6.005431">
        <ele>1539.0</ele>
        <time>2012-06-05T08:53:21Z</time>
      </trkpt>
      <trkpt lat="43.059815" lon="-6.005429">
        <ele>1538.0</ele>
        <time>2012-06-05T08:53:25Z</time>
      </trkpt>
      <trkpt lat="43.059657" lon="-6.005404">
        <ele>1538.0</ele>
        <time>2012-06-05T08:53:29Z</time>
      </trkpt>
      <trkpt lat="43.059501" lon="-6.005362">
        <ele>1537.0</ele>
        <time>2012-06-05T08:53:33Z</time>
      </trkpt>
      <trkpt lat="43.059345" lon="-6.005331">
        <ele>1536.0</ele>
        <time>2012-06-05T08:53:37Z</time>
      </trkpt>
      <trkpt lat="43.059196" lon="-6.005286">
        <ele>1535.0</ele>
        <time>2012-06-05T08:53:41Z</time>
      </trkpt>
      <trkpt lat="43.059056" lon="-6.005246">
        <ele>1535.0</ele>
        <time>2012-06-05T08:53:45Z</time>
      </trkpt>
      <trkpt lat="43.058925" lon="-6.005196">
        <ele>1534.0</ele>
        <time>2012-06-05T08:53:49Z</time>
      </trkpt>
      <trkpt lat="43.058794" lon="-6.005145">
        <ele>1533.0</ele>
        <time>2012-06-05T08:53:53Z</time>
      </trkpt>
      <trkpt lat="43.058658" lon="-6.005104">
        <ele>1533.0</ele>
        <time>2012-06-05T08:53:57Z</time>
      </trkpt>
      <trkpt lat="43.058521" lon="-6.005075">
        <ele>1532.0</ele>
        <time>2012-06-05T08:54:01Z</time>
      </trkpt>
      <trkpt lat="43.058384" lon="-6.005074">
        <ele>1532.0</ele>
        <time>2012-06-05T08:54:05Z</time>
      </trkpt>
      <trkpt lat="43.058239" lon="-6.00511">
        <ele>1531.0</ele>
        <time>2012-06-05T08:54:09Z</time>
      </trkpt>
      <trkpt lat="43.05809" lon="-6.005147">
        <ele>1531.0</ele>
        <time>2012-06-05T08:54:13Z</time>
      </trkpt>
      <trkpt lat="43.057942" lon="-6.005158">
        <ele>1530.0</ele>
        <time>2012-06-05T08:54:17Z</time>
      </trkpt>
      <trkpt lat="43.057812" lon="-6.005089">
        <ele>1530.0</ele>
        <time>2012-06-05T08:54:21Z</time>
      </trkpt>
      <trkpt lat="43.057694" lon="-6.004963">
        <ele>1529.0</ele>
        <time>2012-06-05T08:54:25Z</time>
      </trkpt>
      <trkpt lat="43.057586" lon="-6.004825">
        <ele>1529.0</ele>
        <time>2012-06-05T08:54:29Z</time>
      </trkpt>
      <trkpt lat="43.057486" lon="-6.004683">
        <ele>1529.0</ele>
        <time>2012-06-05T08:54:33Z</time>
      </trkpt>
      <trkpt lat="43.057386" lon="-6.004543">
        <ele>1528.0</ele>
        <time>2012-06-05T08:54:37Z</time>
      </trkpt>
      <trkpt lat="43.057296" lon="-6.004389">
        <ele>1528.0</ele>
        <time>2012-06-05T08:54:41Z</time>
      </trkpt>
      <trkpt lat="43.057197" lon="-6.00425">
        <ele>1528.0</ele>
        <time>2012-06-05T08:54:45Z</time>
      </trkpt>
      <trkpt lat="43.057071" lon="-6.004158">
        <ele>1527.0</ele>
        <time>2012-06-05T08:54:49Z</time>
      </trkpt>
      <trkpt lat="43.056923" lon="-6.00414">
        <ele>1527.0</ele>
        <time>2012-06-05T08:54:53Z</time>
      </trkpt>
      <trkpt lat="43.056782" lon="-6.004142">
        <ele>1527.0</ele>
        <time>2012-06-05T08:54:57Z</time>
      </trkpt>
      <trkpt lat="43.056644" lon="-6.004162">
        <ele>1527.0</ele>
        <time>2012-06-05T08:55:01Z</time>
      </trkpt>
      <trkpt lat="43.056575" lon="-6.004191">
        <ele>1527.0</ele>
        <time>2012-06-05T08:55:03Z</time>
      </trkpt>
      <trkpt lat="43.056442" lon="-6.004258">
        <ele>1526.0</ele>
        <time>2012-06-05T08:55:08Z</time>
      </trkpt>
      <trkpt lat="43.056315" lon="-6.00435">
        <ele>1526.0</ele>
        <time>2012-06-05T08:55:13Z</time>
      </trkpt>
      <trkpt lat="43.056313" lon="-6.004243">
        <ele>1526.0</ele>
        <time>2012-06-05T08:55:20Z</time>
      </trkpt>
      <trkpt lat="43.056445" lon="-6.004134">
        <ele>1527.0</ele>
        <time>2012-06-05T08:55:24Z</time>
      </trkpt>
      <trkpt lat="43.056783" lon="-6.004115">
        <ele>1528.0</ele>
        <time>2012-06-05T08:55:29Z</time>
      </trkpt>
      <trkpt lat="43.056962" lon="-6.004146">
        <ele>1528.0</ele>
        <time>2012-06-05T08:55:33Z</time>
      </trkpt>
      <trkpt lat="43.056962" lon="-6.004146">
        <time>2012-06-05T08:55:44Z</time>
      </trkpt>
    </trkseg>
    <trkseg>
      <trkpt lat="43.056962" lon="-6.004146">
        <time>2012-06-05T08:57:09Z</time>
      </trkpt>
      <trkpt lat="43.056962" lon="-6.004146">
        <time>2012-06-05T08:57:20Z</time>
      </trkpt>
    </trkseg>
    <trkseg>
      <trkpt lat="43.056962" lon="-6.004146">
        <time>2012-06-05T08:57:24Z</time>
      </trkpt>
      <trkpt lat="43.05728" lon="-6.004151">
        <ele>1548.0</ele>
        <time>2012-06-05T08:57:34Z</time>
      </trkpt>
      <trkpt lat="43.057804" lon="-6.004402">
        <ele>1554.0</ele>
        <time>2012-06-05T08:57:38Z</time>
      </trkpt>
      <trkpt lat="43.058305" lon="-6.004636">
        <ele>1595.0</ele>
        <time>2012-06-05T08:57:42Z</time>
      </trkpt>
      <trkpt lat="43.058645" lon="-6.004919">
        <ele>1613.0</ele>
        <time>2012-06-05T08:57:46Z</time>
      </trkpt>
      <trkpt lat="43.058919" lon="-6.005255">
        <ele>1622.0</ele>
        <time>2012-06-05T08:57:50Z</time>
      </trkpt>
      <trkpt lat="43.059245" lon="-6.005381">
        <ele>1626.0</ele>
        <time>2012-06-05T08:57:54Z</time>
      </trkpt>
      <trkpt lat="43.059561" lon="-6.005279">
        <ele>1629.0</ele>
        <time>2012-06-05T08:57:58Z</time>
      </trkpt>
      <trkpt lat="43.059893" lon="-6.005326">
        <ele>1631.0</ele>
        <time>2012-06-05T08:58:02Z</time>
      </trkpt>
      <trkpt lat="43.060181" lon="-6.00545">
        <ele>1633.0</ele>
        <time>2012-06-05T08:58:06Z</time>
      </trkpt>
      <trkpt lat="43.060436" lon="-6.005557">
        <ele>1633.0</ele>
        <time>2012-06-05T08:58:10Z</time>
      </trkpt>
      <trkpt lat="43.060718" lon="-6.005562">
        <ele>1633.0</ele>
        <time>2012-06-05T08:58:14Z</time>
      </trkpt>
      <trkpt lat="43.060998" lon="-6.005608">
        <ele>1633.0</ele>
        <time>2012-06-05T08:58:18Z</time>
      </trkpt>
      <trkpt lat="43.061278" lon="-6.005761">
        <ele>1633.0</ele>
        <time>2012-06-05T08:58:22Z</time>
      </trkpt>
      <trkpt lat="43.061528" lon="-6.005997">
        <ele>1632.0</ele>
        <time>2012-06-05T08:58:26Z</time>
      </trkpt>
      <trkpt lat="43.061752" lon="-6.006298">
        <ele>1632.0</ele>
        <time>2012-06-05T08:58:30Z</time>
      </trkpt>
      <trkpt lat="43.062015" lon="-6.006641">
        <ele>1631.0</ele>
        <time>2012-06-05T08:58:34Z</time>
      </trkpt>
      <trkpt lat="43.062221" lon="-6.006973">
        <ele>1630.0</ele>
        <time>2012-06-05T08:58:38Z</time>
      </trkpt>
      <trkpt lat="43.062319" lon="-6.007205">
        <ele>1630.0</ele>
        <time>2012-06-05T08:58:42Z</time>
      </trkpt>
      <trkpt lat="43.062329" lon="-6.007555">
        <ele>1629.0</ele>
        <time>2012-06-05T08:58:46Z</time>
      </trkpt>
      <trkpt lat="43.062282" lon="-6.007865">
        <ele>1628.0</ele>
        <time>2012-06-05T08:58:49Z</time>
      </trkpt>
      <trkpt lat="43.062249" lon="-6.008505">
        <ele>1627.0</ele>
        <time>2012-06-05T08:58:54Z</time>
      </trkpt>
      <trkpt lat="43.06217" lon="-6.008763">
        <ele>1627.0</ele>
        <time>2012-06-05T08:58:56Z</time>
      </trkpt>
      <trkpt lat="43.062094" lon="-6.009395">
        <ele>1627.0</ele>
        <time>2012-06-05T08:59:01Z</time>
      </trkpt>
      <trkpt lat="43.062222" lon="-6.009688">
        <ele>1627.0</ele>
        <time>2012-06-05T08:59:04Z</time>
      </trkpt>
      <trkpt lat="43.062798" lon="-6.00982">
        <ele>1625.0</ele>
        <time>2012-06-05T08:59:10Z</time>
      </trkpt>
      <trkpt lat="43.063122" lon="-6.00986">
        <ele>1625.0</ele>
        <time>2012-06-05T08:59:14Z</time>
      </trkpt>
      <trkpt lat="43.063136" lon="-6.010302">
        <ele>1627.0</ele>
        <time>2012-06-05T08:59:18Z</time>
      </trkpt>
      <trkpt lat="43.06307" lon="-6.0106">
        <ele>1623.0</ele>
        <time>2012-06-05T08:59:21Z</time>
      </trkpt>
      <trkpt lat="43.062874" lon="-6.010994">
        <ele>1614.0</ele>
        <time>2012-06-05T08:59:26Z</time>
      </trkpt>
      <trkpt lat="43.062831" lon="-6.011409">
        <ele>1609.0</ele>
        <time>2012-06-05T08:59:30Z</time>
      </trkpt>
      <trkpt lat="43.062862" lon="-6.011925">
        <ele>1605.0</ele>
        <time>2012-06-05T08:59:34Z</time>
      </trkpt>
      <trkpt lat="43.062746" lon="-6.012471">
        <ele>1601.0</ele>
        <time>2012-06-05T08:59:38Z</time>
      </trkpt>
      <trkpt lat="43.062632" lon="-6.012717">
        <ele>1600.0</ele>
        <time>2012-06-05T08:59:40Z</time>
      </trkpt>
      <trkpt lat="43.062384" lon="-6.013338">
        <ele>1600.0</ele>
        <time>2012-06-05T08:59:45Z</time>
      </trkpt>
      <trkpt lat="43.0621" lon="-6.013916">
        <ele>1600.0</ele>
        <time>2012-06-05T08:59:50Z</time>
      </trkpt>
      <trkpt lat="43.061759" lon="-6.01416">
        <ele>1599.0</ele>
        <time>2012-06-05T08:59:54Z</time>
      </trkpt>
      <trkpt lat="43.061343" lon="-6.014275">
        <ele>1596.0</ele>
        <time>2012-06-05T08:59:58Z</time>
      </trkpt>
      <trkpt lat="43.060896" lon="-6.014409">
        <ele>1592.0</ele>
        <time>2012-06-05T09:00:02Z</time>
      </trkpt>
      <trkpt lat="43.060429" lon="-6.014492">
        <ele>1589.0</ele>
        <time>2012-06-05T09:00:06Z</time>
      </trkpt>
      <trkpt lat="43.059996" lon="-6.014419">
        <ele>1588.0</ele>
        <time>2012-06-05T09:00:10Z</time>
      </trkpt>
      <trkpt lat="43.059688" lon="-6.014585">
        <ele>1587.0</ele>
        <time>2012-06-05T09:00:14Z</time>
      </trkpt>
      <trkpt lat="43.059562" lon="-6.015096">
        <ele>1586.0</ele>
        <time>2012-06-05T09:00:18Z</time>
      </trkpt>
      <trkpt lat="43.059461" lon="-6.015672">
        <ele>1584.0</ele>
        <time>2012-06-05T09:00:22Z</time>
      </trkpt>
      <trkpt lat="43.059378" lon="-6.016255">
        <ele>1583.0</ele>
        <time>2012-06-05T09:00:26Z</time>
      </trkpt>
      <trkpt lat="43.059392" lon="-6.016855">
        <ele>1581.0</ele>
        <time>2012-06-05T09:00:30Z</time>
      </trkpt>
      <trkpt lat="43.059365" lon="-6.01739">
        <ele>1580.0</ele>
        <time>2012-06-05T09:00:34Z</time>
      </trkpt>
      <trkpt lat="43.059284" lon="-6.017737">
        <ele>1571.0</ele>
        <time>2012-06-05T09:00:38Z</time>
      </trkpt>
      <trkpt lat="43.059502" lon="-6.018026">
        <ele>1565.0</ele>
        <time>2012-06-05T09:00:42Z</time>
      </trkpt>
      <trkpt lat="43.059872" lon="-6.018202">
        <ele>1565.0</ele>
        <time>2012-06-05T09:00:46Z</time>
      </trkpt>
      <trkpt lat="43.060352" lon="-6.018322">
        <ele>1567.0</ele>
        <time>2012-06-05T09:00:50Z</time>
      </trkpt>
      <trkpt lat="43.060836" lon="-6.018594">
        <ele>1569.0</ele>
        <time>2012-06-05T09:00:54Z</time>
      </trkpt>
      <trkpt lat="43.061301" lon="-6.018835">
        <ele>1569.0</ele>
        <time>2012-06-05T09:00:58Z</time>
      </trkpt>
      <trkpt lat="43.061615" lon="-6.019073">
        <ele>1567.0</ele>
        <time>2012-06-05T09:01:02Z</time>
      </trkpt>
      <trkpt lat="43.061804" lon="-6.019435">
        <ele>1562.0</ele>
        <time>2012-06-05T09:01:06Z</time>
      </trkpt>
      <trkpt lat="43.061875" lon="-6.019804">
        <ele>1557.0</ele>
        <time>2012-06-05T09:01:09Z</time>
      </trkpt>
      <trkpt lat="43.061987" lon="-6.020264">
        <ele>1553.0</ele>
        <time>2012-06-05T09:01:13Z</time>
      </trkpt>
      <trkpt lat="43.062216" lon="-6.020763">
        <ele>1552.0</ele>
        <time>2012-06-05T09:01:18Z</time>
      </trkpt>
      <trkpt lat="43.06257" lon="-6.02091">
        <ele>1547.0</ele>
        <time>2012-06-05T09:01:22Z</time>
      </trkpt>
      <trkpt lat="43.062913" lon="-6.020619">
        <ele>1538.0</ele>
        <time>2012-06-05T09:01:26Z</time>
      </trkpt>
      <trkpt lat="43.063306" lon="-6.020298">
        <ele>1528.0</ele>
        <time>2012-06-05T09:01:30Z</time>
      </trkpt>
      <trkpt lat="43.063736" lon="-6.020194">
        <ele>1520.0</ele>
        <time>2012-06-05T09:01:34Z</time>
      </trkpt>
      <trkpt lat="43.063997" lon="-6.020324">
        <ele>1514.0</ele>
        <time>2012-06-05T09:01:38Z</time>
      </trkpt>
      <trkpt lat="43.063798" lon="-6.020851">
        <ele>1503.0</ele>
        <time>2012-06-05T09:01:42Z</time>
      </trkpt>
      <trkpt lat="43.0638" lon="-6.021238">
        <ele>1495.0</ele>
        <time>2012-06-05T09:01:46Z</time>
      </trkpt>
      <trkpt lat="43.06405" lon="-6.021421">
        <ele>1492.0</ele>
        <time>2012-06-05T09:01:50Z</time>
      </trkpt>
      <trkpt lat="43.064438" lon="-6.021446">
        <ele>1493.0</ele>
        <time>2012-06-05T09:01:54Z</time>
      </trkpt>
      <trkpt lat="43.064727" lon="-6.021784">
        <ele>1497.0</ele>
        <time>2012-06-05T09:01:58Z</time>
      </trkpt>
      <trkpt lat="43.064997" lon="-6.021907">
        <ele>1495.0</ele>
        <time>2012-06-05T09:02:02Z</time>
      </trkpt>
      <trkpt lat="43.065327" lon="-6.021852">
        <ele>1492.0</ele>
        <time>2012-06-05T09:02:06Z</time>
      </trkpt>
      <trkpt lat="43.065756" lon="-6.022116">
        <ele>1492.0</ele>
        <time>2012-06-05T09:02:10Z</time>
      </trkpt>
      <trkpt lat="43.06621" lon="-6.022456">
        <ele>1493.0</ele>
        <time>2012-06-05T09:02:14Z</time>
      </trkpt>
      <trkpt lat="43.06662" lon="-6.022867">
        <ele>1493.0</ele>
        <time>2012-06-05T09:02:18Z</time>
      </trkpt>
      <trkpt lat="43.066849" lon="-6.023513">
        <ele>1492.0</ele>
        <time>2012-06-05T09:02:22Z</time>
      </trkpt>
      <trkpt lat="43.067077" lon="-6.024134">
        <ele>1491.0</ele>
        <time>2012-06-05T09:02:26Z</time>
      </trkpt>
      <trkpt lat="43.067287" lon="-6.024579">
        <ele>1490.0</ele>
        <time>2012-06-05T09:02:30Z</time>
      </trkpt>
      <trkpt lat="43.067474" lon="-6.024881">
        <ele>1493.0</ele>
        <time>2012-06-05T09:02:34Z</time>
      </trkpt>
      <trkpt lat="43.067789" lon="-6.02497">
        <ele>1493.0</ele>
        <time>2012-06-05T09:02:38Z</time>
      </trkpt>
      <trkpt lat="43.068183" lon="-6.024918">
        <ele>1487.0</ele>
        <time>2012-06-05T09:02:42Z</time>
      </trkpt>
      <trkpt lat="43.068662" lon="-6.024893">
        <ele>1479.0</ele>
        <time>2012-06-05T09:02:46Z</time>
      </trkpt>
      <trkpt lat="43.069172" lon="-6.024976">
        <ele>1472.0</ele>
        <time>2012-06-05T09:02:50Z</time>
      </trkpt>
      <trkpt lat="43.069619" lon="-6.025185">
        <ele>1467.0</ele>
        <time>2012-06-05T09:02:54Z</time>
      </trkpt>
      <trkpt lat="43.0698" lon="-6.025686">
        <ele>1467.0</ele>
        <time>2012-06-05T09:02:58Z</time>
      </trkpt>
      <trkpt lat="43.069899" lon="-6.026095">
        <ele>1466.0</ele>
        <time>2012-06-05T09:03:02Z</time>
      </trkpt>
      <trkpt lat="43.070043" lon="-6.026617">
        <ele>1465.0</ele>
        <time>2012-06-05T09:03:06Z</time>
      </trkpt>
      <trkpt lat="43.070282" lon="-6.027137">
        <ele>1462.0</ele>
        <time>2012-06-05T09:03:10Z</time>
      </trkpt>
      <trkpt lat="43.070489" lon="-6.027644">
        <ele>1459.0</ele>
        <time>2012-06-05T09:03:14Z</time>
      </trkpt>
      <trkpt lat="43.070653" lon="-6.027964">
        <ele>1456.0</ele>
        <time>2012-06-05T09:03:17Z</time>
      </trkpt>
      <trkpt lat="43.071014" lon="-6.028195">
        <ele>1454.0</ele>
        <time>2012-06-05T09:03:22Z</time>
      </trkpt>
      <trkpt lat="43.071335" lon="-6.028369">
        <ele>1451.0</ele>
        <time>2012-06-05T09:03:26Z</time>
      </trkpt>
      <trkpt lat="43.071732" lon="-6.028479">
        <ele>1446.0</ele>
        <time>2012-06-05T09:03:30Z</time>
      </trkpt>
      <trkpt lat="43.072141" lon="-6.028629">
        <ele>1444.0</ele>
        <time>2012-06-05T09:03:34Z</time>
      </trkpt>
      <trkpt lat="43.072596" lon="-6.028652">
        <ele>1441.0</ele>
        <time>2012-06-05T09:03:38Z</time>
      </trkpt>
      <trkpt lat="43.073079" lon="-6.028757">
        <ele>1441.0</ele>
        <time>2012-06-05T09:03:42Z</time>
      </trkpt>
      <trkpt lat="43.073542" lon="-6.029097">
        <ele>1441.0</ele>
        <time>2012-06-05T09:03:46Z</time>
      </trkpt>
      <trkpt lat="43.07386" lon="-6.029515">
        <ele>1441.0</ele>
        <time>2012-06-05T09:03:50Z</time>
      </trkpt>
      <trkpt lat="43.074024" lon="-6.02997">
        <ele>1441.0</ele>
        <time>2012-06-05T09:03:54Z</time>
      </trkpt>
      <trkpt lat="43.074125" lon="-6.030507">
        <ele>1437.0</ele>
        <time>2012-06-05T09:03:58Z</time>
      </trkpt>
      <trkpt lat="43.074262" lon="-6.031084">
        <ele>1436.0</ele>
        <time>2012-06-05T09:04:02Z</time>
      </trkpt>
      <trkpt lat="43.074383" lon="-6.03164">
        <ele>1437.0</ele>
        <time>2012-06-05T09:04:06Z</time>
      </trkpt>
      <trkpt lat="43.074414" lon="-6.032067">
        <ele>1428.0</ele>
        <time>2012-06-05T09:04:10Z</time>
      </trkpt>
      <trkpt lat="43.074438" lon="-6.032406">
        <ele>1418.0</ele>
        <time>2012-06-05T09:04:13Z</time>
      </trkpt>
      <trkpt lat="43.074677" lon="-6.032967">
        <ele>1410.0</ele>
        <time>2012-06-05T09:04:18Z</time>
      </trkpt>
      <trkpt lat="43.074923" lon="-6.033265">
        <ele>1408.0</ele>
        <time>2012-06-05T09:04:22Z</time>
      </trkpt>
      <trkpt lat="43.0752" lon="-6.033565">
        <ele>1406.0</ele>
        <time>2012-06-05T09:04:26Z</time>
      </trkpt>
      <trkpt lat="43.075587" lon="-6.033679">
        <ele>1406.0</ele>
        <time>2012-06-05T09:04:30Z</time>
      </trkpt>
      <trkpt lat="43.076087" lon="-6.033616">
        <ele>1400.0</ele>
        <time>2012-06-05T09:04:34Z</time>
      </trkpt>
      <trkpt lat="43.07644" lon="-6.033872">
        <ele>1384.0</ele>
        <time>2012-06-05T09:04:38Z</time>
      </trkpt>
      <trkpt lat="43.076619" lon="-6.034381">
        <ele>1370.0</ele>
        <time>2012-06-05T09:04:42Z</time>
      </trkpt>
      <trkpt lat="43.076761" lon="-6.034945">
        <ele>1361.0</ele>
        <time>2012-06-05T09:04:46Z</time>
      </trkpt>
      <trkpt lat="43.076847" lon="-6.035424">
        <ele>1355.0</ele>
        <time>2012-06-05T09:04:50Z</time>
      </trkpt>
      <trkpt lat="43.077102" lon="-6.035592">
        <ele>1349.0</ele>
        <time>2012-06-05T09:04:54Z</time>
      </trkpt>
      <trkpt lat="43.077436" lon="-6.035396">
        <ele>1346.0</ele>
        <time>2012-06-05T09:04:58Z</time>
      </trkpt>
      <trkpt lat="43.077649" lon="-6.035022">
        <ele>1339.0</ele>
        <time>2012-06-05T09:05:02Z</time>
      </trkpt>
      <trkpt lat="43.077828" lon="-6.034621">
        <ele>1333.0</ele>
        <time>2012-06-05T09:05:06Z</time>
      </trkpt>
      <trkpt lat="43.077862" lon="-6.034101">
        <ele>1330.0</ele>
        <time>2012-06-05T09:05:10Z</time>
      </trkpt>
      <trkpt lat="43.077954" lon="-6.033592">
        <ele>1331.0</ele>
        <time>2012-06-05T09:05:14Z</time>
      </trkpt>
      <trkpt lat="43.078156" lon="-6.03309">
        <ele>1332.0</ele>
        <time>2012-06-05T09:05:18Z</time>
      </trkpt>
      <trkpt lat="43.078281" lon="-6.032631">
        <ele>1333.0</ele>
        <time>2012-06-05T09:05:21Z</time>
      </trkpt>
      <trkpt lat="43.078261" lon="-6.031865">
        <ele>1328.0</ele>
        <time>2012-06-05T09:05:26Z</time>
      </trkpt>
      <trkpt lat="43.078147" lon="-6.03123">
        <ele>1325.0</ele>
        <time>2012-06-05T09:05:30Z</time>
      </trkpt>
      <trkpt lat="43.078006" lon="-6.030572">
        <ele>1322.0</ele>
        <time>2012-06-05T09:05:34Z</time>
      </trkpt>
      <trkpt lat="43.077889" lon="-6.029911">
        <ele>1321.0</ele>
        <time>2012-06-05T09:05:38Z</time>
      </trkpt>
      <trkpt lat="43.077931" lon="-6.029475">
        <ele>1321.0</ele>
        <time>2012-06-05T09:05:42Z</time>
      </trkpt>
      <trkpt lat="43.078359" lon="-6.029545">
        <ele>1321.0</ele>
        <time>2012-06-05T09:05:46Z</time>
      </trkpt>
      <trkpt lat="43.078786" lon="-6.029727">
        <ele>1315.0</ele>
        <time>2012-06-05T09:05:50Z</time>
      </trkpt>
      <trkpt lat="43.079227" lon="-6.029752">
        <ele>1311.0</ele>
        <time>2012-06-05T09:05:54Z</time>
      </trkpt>
      <trkpt lat="43.079755" lon="-6.02975">
        <ele>1314.0</ele>
        <time>2012-06-05T09:05:58Z</time>
      </trkpt>
      <trkpt lat="43.080288" lon="-6.029684">
        <ele>1314.0</ele>
        <time>2012-06-05T09:06:02Z</time>
      </trkpt>
      <trkpt lat="43.08077" lon="-6.029455">
        <ele>1306.0</ele>
        <time>2012-06-05T09:06:06Z</time>
      </trkpt>
      <trkpt lat="43.081205" lon="-6.029252">
        <ele>1303.0</ele>
        <time>2012-06-05T09:06:10Z</time>
      </trkpt>
      <trkpt lat="43.081625" lon="-6.029132">
        <ele>1299.0</ele>
        <time>2012-06-05T09:06:14Z</time>
      </trkpt>
      <trkpt lat="43.082131" lon="-6.029098">
        <ele>1287.0</ele>
        <time>2012-06-05T09:06:18Z</time>
      </trkpt>
      <trkpt lat="43.082679" lon="-6.029079">
        <ele>1277.0</ele>
        <time>2012-06-05T09:06:22Z</time>
      </trkpt>
      <trkpt lat="43.08325" lon="-6.029025">
        <ele>1261.0</ele>
        <time>2012-06-05T09:06:26Z</time>
      </trkpt>
      <trkpt lat="43.083813" lon="-6.029005">
        <ele>1255.0</ele>
        <time>2012-06-05T09:06:30Z</time>
      </trkpt>
      <trkpt lat="43.084374" lon="-6.029176">
        <ele>1246.0</ele>
        <time>2012-06-05T09:06:34Z</time>
      </trkpt>
      <trkpt lat="43.084947" lon="-6.029411">
        <ele>1234.0</ele>
        <time>2012-06-05T09:06:38Z</time>
      </trkpt>
      <trkpt lat="43.085503" lon="-6.02959">
        <ele>1221.0</ele>
        <time>2012-06-05T09:06:42Z</time>
      </trkpt>
      <trkpt lat="43.085982" lon="-6.029893">
        <ele>1215.0</ele>
        <time>2012-06-05T09:06:46Z</time>
      </trkpt>
      <trkpt lat="43.086449" lon="-6.030251">
        <ele>1209.0</ele>
        <time>2012-06-05T09:06:50Z</time>
      </trkpt>
      <trkpt lat="43.086802" lon="-6.030468">
        <ele>1208.0</ele>
        <time>2012-06-05T09:06:53Z</time>
      </trkpt>
      <trkpt lat="43.087265" lon="-6.031027">
        <ele>1208.0</ele>
        <time>2012-06-05T09:06:58Z</time>
      </trkpt>
      <trkpt lat="43.08744" lon="-6.031218">
        <ele>1208.0</ele>
        <time>2012-06-05T09:07:00Z</time>
      </trkpt>
      <trkpt lat="43.087628" lon="-6.031588">
        <ele>1206.0</ele>
        <time>2012-06-05T09:07:05Z</time>
      </trkpt>
      <trkpt lat="43.087465" lon="-6.031546">
        <ele>1195.0</ele>
        <time>2012-06-05T09:07:10Z</time>
      </trkpt>
      <trkpt lat="43.087184" lon="-6.031269">
        <ele>1186.0</ele>
        <time>2012-06-05T09:07:14Z</time>
      </trkpt>
      <trkpt lat="43.086847" lon="-6.031022">
        <ele>1181.0</ele>
        <time>2012-06-05T09:07:18Z</time>
      </trkpt>
      <trkpt lat="43.086469" lon="-6.030777">
        <ele>1176.0</ele>
        <time>2012-06-05T09:07:22Z</time>
      </trkpt>
      <trkpt lat="43.08611" lon="-6.030683">
        <ele>1172.0</ele>
        <time>2012-06-05T09:07:26Z</time>
      </trkpt>
      <trkpt lat="43.085807" lon="-6.030851">
        <ele>1170.0</ele>
        <time>2012-06-05T09:07:30Z</time>
      </trkpt>
      <trkpt lat="43.085714" lon="-6.031253">
        <ele>1168.0</ele>
        <time>2012-06-05T09:07:34Z</time>
      </trkpt>
      <trkpt lat="43.085935" lon="-6.031932">
        <ele>1165.0</ele>
        <time>2012-06-05T09:07:38Z</time>
      </trkpt>
      <trkpt lat="43.085874" lon="-6.032505">
        <ele>1163.0</ele>
        <time>2012-06-05T09:07:42Z</time>
      </trkpt>
      <trkpt lat="43.085886" lon="-6.033074">
        <ele>1161.0</ele>
        <time>2012-06-05T09:07:46Z</time>
      </trkpt>
      <trkpt lat="43.086113" lon="-6.033617">
        <ele>1159.0</ele>
        <time>2012-06-05T09:07:50Z</time>
      </trkpt>
      <trkpt lat="43.086249" lon="-6.034102">
        <ele>1158.0</ele>
        <time>2012-06-05T09:07:54Z</time>
      </trkpt>
      <trkpt lat="43.086145" lon="-6.034603">
        <ele>1156.0</ele>
        <time>2012-06-05T09:07:58Z</time>
      </trkpt>
      <trkpt lat="43.086139" lon="-6.034967">
        <ele>1156.0</ele>
        <time>2012-06-05T09:08:02Z</time>
      </trkpt>
      <trkpt lat="43.086423" lon="-6.03506">
        <ele>1161.0</ele>
        <time>2012-06-05T09:08:06Z</time>
      </trkpt>
      <trkpt lat="43.086735" lon="-6.035039">
        <ele>1162.0</ele>
        <time>2012-06-05T09:08:10Z</time>
      </trkpt>
      <trkpt lat="43.08697" lon="-6.035034">
        <ele>1160.0</ele>
        <time>2012-06-05T09:08:13Z</time>
      </trkpt>
      <trkpt lat="43.087371" lon="-6.034993">
        <ele>1159.0</ele>
        <time>2012-06-05T09:08:18Z</time>
      </trkpt>
      <trkpt lat="43.087774" lon="-6.03491">
        <ele>1161.0</ele>
        <time>2012-06-05T09:08:22Z</time>
      </trkpt>
      <trkpt lat="43.088307" lon="-6.034695">
        <ele>1162.0</ele>
        <time>2012-06-05T09:08:26Z</time>
      </trkpt>
      <trkpt lat="43.088883" lon="-6.034212">
        <ele>1153.0</ele>
        <time>2012-06-05T09:08:30Z</time>
      </trkpt>
      <trkpt lat="43.089398" lon="-6.033526">
        <ele>1147.0</ele>
        <time>2012-06-05T09:08:34Z</time>
      </trkpt>
      <trkpt lat="43.089859" lon="-6.033051">
        <ele>1143.0</ele>
        <time>2012-06-05T09:08:38Z</time>
      </trkpt>
      <trkpt lat="43.090218" lon="-6.032653">
        <ele>1136.0</ele>
        <time>2012-06-05T09:08:42Z</time>
      </trkpt>
      <trkpt lat="43.090578" lon="-6.032493">
        <ele>1132.0</ele>
        <time>2012-06-05T09:08:46Z</time>
      </trkpt>
      <trkpt lat="43.091001" lon="-6.032638">
        <ele>1130.0</ele>
        <time>2012-06-05T09:08:50Z</time>
      </trkpt>
      <trkpt lat="43.091482" lon="-6.032895">
        <ele>1127.0</ele>
        <time>2012-06-05T09:08:54Z</time>
      </trkpt>
      <trkpt lat="43.091851" lon="-6.033222">
        <ele>1125.0</ele>
        <time>2012-06-05T09:08:58Z</time>
      </trkpt>
      <trkpt lat="43.092033" lon="-6.033745">
        <ele>1123.0</ele>
        <time>2012-06-05T09:09:02Z</time>
      </trkpt>
      <trkpt lat="43.092217" lon="-6.034366">
        <ele>1117.0</ele>
        <time>2012-06-05T09:09:06Z</time>
      </trkpt>
      <trkpt lat="43.092476" lon="-6.03488">
        <ele>1112.0</ele>
        <time>2012-06-05T09:09:10Z</time>
      </trkpt>
      <trkpt lat="43.092824" lon="-6.035166">
        <ele>1111.0</ele>
        <time>2012-06-05T09:09:14Z</time>
      </trkpt>
      <trkpt lat="43.093246" lon="-6.035446">
        <ele>1110.0</ele>
        <time>2012-06-05T09:09:18Z</time>
      </trkpt>
      <trkpt lat="43.093597" lon="-6.035681">
        <ele>1107.0</ele>
        <time>2012-06-05T09:09:22Z</time>
      </trkpt>
      <trkpt lat="43.093828" lon="-6.035731">
        <ele>1106.0</ele>
        <time>2012-06-05T09:09:25Z</time>
      </trkpt>
      <trkpt lat="43.094366" lon="-6.035797">
        <ele>1110.0</ele>
        <time>2012-06-05T09:09:30Z</time>
      </trkpt>
      <trkpt lat="43.094742" lon="-6.036191">
        <ele>1107.0</ele>
        <time>2012-06-05T09:09:34Z</time>
      </trkpt>
      <trkpt lat="43.095205" lon="-6.036339">
        <ele>1097.0</ele>
        <time>2012-06-05T09:09:38Z</time>
      </trkpt>
      <trkpt lat="43.095649" lon="-6.036301">
        <ele>1091.0</ele>
        <time>2012-06-05T09:09:42Z</time>
      </trkpt>
      <trkpt lat="43.095913" lon="-6.03674">
        <ele>1090.0</ele>
        <time>2012-06-05T09:09:46Z</time>
      </trkpt>
      <trkpt lat="43.096202" lon="-6.037198">
        <ele>1089.0</ele>
        <time>2012-06-05T09:09:50Z</time>
      </trkpt>
      <trkpt lat="43.096395" lon="-6.037703">
        <ele>1080.0</ele>
        <time>2012-06-05T09:09:54Z</time>
      </trkpt>
      <trkpt lat="43.096607" lon="-6.038164">
        <ele>1079.0</ele>
        <time>2012-06-05T09:09:58Z</time>
      </trkpt>
      <trkpt lat="43.096812" lon="-6.038701">
        <ele>1080.0</ele>
        <time>2012-06-05T09:10:02Z</time>
      </trkpt>
      <trkpt lat="43.097006" lon="-6.039282">
        <ele>1072.0</ele>
        <time>2012-06-05T09:10:06Z</time>
      </trkpt>
      <trkpt lat="43.097269" lon="-6.039791">
        <ele>1067.0</ele>
        <time>2012-06-05T09:10:10Z</time>
      </trkpt>
      <trkpt lat="43.097355" lon="-6.040184">
        <ele>1062.0</ele>
        <time>2012-06-05T09:10:14Z</time>
      </trkpt>
      <trkpt lat="43.097149" lon="-6.040519">
        <ele>1049.0</ele>
        <time>2012-06-05T09:10:18Z</time>
      </trkpt>
      <trkpt lat="43.096938" lon="-6.040947">
        <ele>1040.0</ele>
        <time>2012-06-05T09:10:22Z</time>
      </trkpt>
      <trkpt lat="43.09668" lon="-6.041368">
        <ele>1032.0</ele>
        <time>2012-06-05T09:10:26Z</time>
      </trkpt>
      <trkpt lat="43.096414" lon="-6.041872">
        <ele>1031.0</ele>
        <time>2012-06-05T09:10:30Z</time>
      </trkpt>
      <trkpt lat="43.096336" lon="-6.042439">
        <ele>1029.0</ele>
        <time>2012-06-05T09:10:34Z</time>
      </trkpt>
      <trkpt lat="43.096276" lon="-6.042735">
        <ele>1029.0</ele>
        <time>2012-06-05T09:10:37Z</time>
      </trkpt>
      <trkpt lat="43.096352" lon="-6.042734">
        <ele>1032.0</ele>
        <time>2012-06-05T09:10:42Z</time>
      </trkpt>
      <trkpt lat="43.096657" lon="-6.042313">
        <ele>1032.0</ele>
        <time>2012-06-05T09:10:46Z</time>
      </trkpt>
      <trkpt lat="43.096926" lon="-6.04193">
        <ele>1037.0</ele>
        <time>2012-06-05T09:10:50Z</time>
      </trkpt>
      <trkpt lat="43.097172" lon="-6.041962">
        <ele>1044.0</ele>
        <time>2012-06-05T09:10:54Z</time>
      </trkpt>
      <trkpt lat="43.097334" lon="-6.042132">
        <ele>1047.0</ele>
        <time>2012-06-05T09:10:58Z</time>
      </trkpt>
      <trkpt lat="43.097249" lon="-6.042603">
        <ele>1033.0</ele>
        <time>2012-06-05T09:11:02Z</time>
      </trkpt>
      <trkpt lat="43.09709" lon="-6.043048">
        <ele>1017.0</ele>
        <time>2012-06-05T09:11:06Z</time>
      </trkpt>
      <trkpt lat="43.097108" lon="-6.043495">
        <ele>1008.0</ele>
        <time>2012-06-05T09:11:10Z</time>
      </trkpt>
      <trkpt lat="43.097213" lon="-6.044048">
        <ele>1004.0</ele>
        <time>2012-06-05T09:11:14Z</time>
      </trkpt>
      <trkpt lat="43.09718" lon="-6.044552">
        <ele>1003.0</ele>
        <time>2012-06-05T09:11:18Z</time>
      </trkpt>
      <trkpt lat="43.097279" lon="-6.044975">
        <ele>1004.0</ele>
        <time>2012-06-05T09:11:22Z</time>
      </trkpt>
      <trkpt lat="43.097552" lon="-6.045008">
        <ele>1009.0</ele>
        <time>2012-06-05T09:11:26Z</time>
      </trkpt>
      <trkpt lat="43.097799" lon="-6.044525">
        <ele>1013.0</ele>
        <time>2012-06-05T09:11:30Z</time>
      </trkpt>
      <trkpt lat="43.097816" lon="-6.043931">
        <ele>1015.0</ele>
        <time>2012-06-05T09:11:34Z</time>
      </trkpt>
      <trkpt lat="43.097793" lon="-6.043654">
        <ele>1017.0</ele>
        <time>2012-06-05T09:11:36Z</time>
      </trkpt>
      <trkpt lat="43.097776" lon="-6.043293">
        <ele>1019.0</ele>
        <time>2012-06-05T09:11:41Z</time>
      </trkpt>
      <trkpt lat="43.097987" lon="-6.043115">
        <ele>1018.0</ele>
        <time>2012-06-05T09:11:46Z</time>
      </trkpt>
      <trkpt lat="43.098351" lon="-6.042891">
        <ele>1017.0</ele>
        <time>2012-06-05T09:11:50Z</time>
      </trkpt>
      <trkpt lat="43.098659" lon="-6.042681">
        <ele>1013.0</ele>
        <time>2012-06-05T09:11:53Z</time>
      </trkpt>
      <trkpt lat="43.099046" lon="-6.042014">
        <ele>1008.0</ele>
        <time>2012-06-05T09:11:58Z</time>
      </trkpt>
      <trkpt lat="43.099346" lon="-6.041558">
        <ele>1009.0</ele>
        <time>2012-06-05T09:12:02Z</time>
      </trkpt>
      <trkpt lat="43.099661" lon="-6.041286">
        <ele>1009.0</ele>
        <time>2012-06-05T09:12:06Z</time>
      </trkpt>
      <trkpt lat="43.10007" lon="-6.04125">
        <ele>1008.0</ele>
        <time>2012-06-05T09:12:10Z</time>
      </trkpt>
      <trkpt lat="43.100359" lon="-6.041705">
        <ele>1006.0</ele>
        <time>2012-06-05T09:12:14Z</time>
      </trkpt>
      <trkpt lat="43.100488" lon="-6.042312">
        <ele>1004.0</ele>
        <time>2012-06-05T09:12:18Z</time>
      </trkpt>
      <trkpt lat="43.100648" lon="-6.042891">
        <ele>1000.0</ele>
        <time>2012-06-05T09:12:22Z</time>
      </trkpt>
      <trkpt lat="43.100821" lon="-6.043449">
        <ele>997.0</ele>
        <time>2012-06-05T09:12:26Z</time>
      </trkpt>
      <trkpt lat="43.100976" lon="-6.044004">
        <ele>996.0</ele>
        <time>2012-06-05T09:12:30Z</time>
      </trkpt>
      <trkpt lat="43.101136" lon="-6.044562">
        <ele>995.0</ele>
        <time>2012-06-05T09:12:34Z</time>
      </trkpt>
      <trkpt lat="43.101378" lon="-6.045062">
        <ele>995.0</ele>
        <time>2012-06-05T09:12:38Z</time>
      </trkpt>
      <trkpt lat="43.101741" lon="-6.0453">
        <ele>991.0</ele>
        <time>2012-06-05T09:12:42Z</time>
      </trkpt>
      <trkpt lat="43.102146" lon="-6.045505">
        <ele>991.0</ele>
        <time>2012-06-05T09:12:46Z</time>
      </trkpt>
      <trkpt lat="43.102548" lon="-6.045801">
        <ele>991.0</ele>
        <time>2012-06-05T09:12:50Z</time>
      </trkpt>
      <trkpt lat="43.102932" lon="-6.046127">
        <ele>990.0</ele>
        <time>2012-06-05T09:12:54Z</time>
      </trkpt>
      <trkpt lat="43.103263" lon="-6.046283">
        <ele>987.0</ele>
        <time>2012-06-05T09:12:57Z</time>
      </trkpt>
      <trkpt lat="43.103818" lon="-6.046367">
        <ele>987.0</ele>
        <time>2012-06-05T09:13:02Z</time>
      </trkpt>
      <trkpt lat="43.104201" lon="-6.046564">
        <ele>987.0</ele>
        <time>2012-06-05T09:13:06Z</time>
      </trkpt>
      <trkpt lat="43.104609" lon="-6.046854">
        <ele>988.0</ele>
        <time>2012-06-05T09:13:10Z</time>
      </trkpt>
      <trkpt lat="43.105041" lon="-6.047065">
        <ele>986.0</ele>
        <time>2012-06-05T09:13:14Z</time>
      </trkpt>
      <trkpt lat="43.105467" lon="-6.047091">
        <ele>979.0</ele>
        <time>2012-06-05T09:13:18Z</time>
      </trkpt>
      <trkpt lat="43.105883" lon="-6.047051">
        <ele>975.0</ele>
        <time>2012-06-05T09:13:22Z</time>
      </trkpt>
      <trkpt lat="43.106324" lon="-6.047081">
        <ele>955.0</ele>
        <time>2012-06-05T09:13:26Z</time>
      </trkpt>
      <trkpt lat="43.106775" lon="-6.047049">
        <ele>936.0</ele>
        <time>2012-06-05T09:13:30Z</time>
      </trkpt>
      <trkpt lat="43.107213" lon="-6.046934">
        <ele>926.0</ele>
        <time>2012-06-05T09:13:34Z</time>
      </trkpt>
      <trkpt lat="43.107564" lon="-6.046893">
        <ele>922.0</ele>
        <time>2012-06-05T09:13:37Z</time>
      </trkpt>
      <trkpt lat="43.108198" lon="-6.047012">
        <ele>924.0</ele>
        <time>2012-06-05T09:13:42Z</time>
      </trkpt>
      <trkpt lat="43.108679" lon="-6.047149">
        <ele>925.0</ele>
        <time>2012-06-05T09:13:46Z</time>
      </trkpt>
      <trkpt lat="43.10911" lon="-6.047261">
        <ele>924.0</ele>
        <time>2012-06-05T09:13:50Z</time>
      </trkpt>
      <trkpt lat="43.109554" lon="-6.04743">
        <ele>929.0</ele>
        <time>2012-06-05T09:13:54Z</time>
      </trkpt>
      <trkpt lat="43.110008" lon="-6.047676">
        <ele>931.0</ele>
        <time>2012-06-05T09:13:58Z</time>
      </trkpt>
      <trkpt lat="43.110458" lon="-6.047975">
        <ele>931.0</ele>
        <time>2012-06-05T09:14:02Z</time>
      </trkpt>
      <trkpt lat="43.110932" lon="-6.048274">
        <ele>932.0</ele>
        <time>2012-06-05T09:14:06Z</time>
      </trkpt>
      <trkpt lat="43.111395" lon="-6.048552">
        <ele>932.0</ele>
        <time>2012-06-05T09:14:10Z</time>
      </trkpt>
      <trkpt lat="43.111872" lon="-6.048707">
        <ele>928.0</ele>
        <time>2012-06-05T09:14:14Z</time>
      </trkpt>
      <trkpt lat="43.112352" lon="-6.048859">
        <ele>927.0</ele>
        <time>2012-06-05T09:14:18Z</time>
      </trkpt>
      <trkpt lat="43.112848" lon="-6.048986">
        <ele>924.0</ele>
        <time>2012-06-05T09:14:22Z</time>
      </trkpt>
      <trkpt lat="43.113336" lon="-6.049233">
        <ele>924.0</ele>
        <time>2012-06-05T09:14:26Z</time>
      </trkpt>
      <trkpt lat="43.113799" lon="-6.049559">
        <ele>925.0</ele>
        <time>2012-06-05T09:14:30Z</time>
      </trkpt>
      <trkpt lat="43.114259" lon="-6.049868">
        <ele>922.0</ele>
        <time>2012-06-05T09:14:34Z</time>
      </trkpt>
      <trkpt lat="43.114747" lon="-6.050015">
        <ele>913.0</ele>
        <time>2012-06-05T09:14:38Z</time>
      </trkpt>
      <trkpt lat="43.115244" lon="-6.049922">
        <ele>907.0</ele>
        <time>2012-06-05T09:14:42Z</time>
      </trkpt>
      <trkpt lat="43.115733" lon="-6.049856">
        <ele>907.0</ele>
        <time>2012-06-05T09:14:46Z</time>
      </trkpt>
      <trkpt lat="43.116263" lon="-6.049944">
        <ele>906.0</ele>
        <time>2012-06-05T09:14:50Z</time>
      </trkpt>
      <trkpt lat="43.116802" lon="-6.050095">
        <ele>905.0</ele>
        <time>2012-06-05T09:14:54Z</time>
      </trkpt>
      <trkpt lat="43.117351" lon="-6.05023">
        <ele>905.0</ele>
        <time>2012-06-05T09:14:58Z</time>
      </trkpt>
      <trkpt lat="43.117891" lon="-6.050341">
        <ele>905.0</ele>
        <time>2012-06-05T09:15:02Z</time>
      </trkpt>
      <trkpt lat="43.118386" lon="-6.050461">
        <ele>904.0</ele>
        <time>2012-06-05T09:15:06Z</time>
      </trkpt>
      <trkpt lat="43.118788" lon="-6.050523">
        <ele>904.0</ele>
        <time>2012-06-05T09:15:10Z</time>
      </trkpt>
      <trkpt lat="43.119187" lon="-6.050598">
        <ele>904.0</ele>
        <time>2012-06-05T09:15:14Z</time>
      </trkpt>
      <trkpt lat="43.119447" lon="-6.05111">
        <ele>909.0</ele>
        <time>2012-06-05T09:15:18Z</time>
      </trkpt>
      <trkpt lat="43.119643" lon="-6.051843">
        <ele>919.0</ele>
        <time>2012-06-05T09:15:22Z</time>
      </trkpt>
      <trkpt lat="43.11993" lon="-6.052437">
        <ele>930.0</ele>
        <time>2012-06-05T09:15:26Z</time>
      </trkpt>
      <trkpt lat="43.120246" lon="-6.052938">
        <ele>933.0</ele>
        <time>2012-06-05T09:15:30Z</time>
      </trkpt>
      <trkpt lat="43.120617" lon="-6.05328">
        <ele>934.0</ele>
        <time>2012-06-05T09:15:34Z</time>
      </trkpt>
      <trkpt lat="43.121122" lon="-6.053528">
        <ele>936.0</ele>
        <time>2012-06-05T09:15:42Z</time>
      </trkpt>
      <trkpt lat="43.121378" lon="-6.053763">
        <ele>935.0</ele>
        <time>2012-06-05T09:15:46Z</time>
      </trkpt>
      <trkpt lat="43.121568" lon="-6.054043">
        <ele>935.0</ele>
        <time>2012-06-05T09:15:49Z</time>
      </trkpt>
      <trkpt lat="43.121843" lon="-6.054569">
        <ele>935.0</ele>
        <time>2012-06-05T09:15:54Z</time>
      </trkpt>
      <trkpt lat="43.122062" lon="-6.054914">
        <ele>935.0</ele>
        <time>2012-06-05T09:15:58Z</time>
      </trkpt>
      <trkpt lat="43.122245" lon="-6.055214">
        <ele>933.0</ele>
        <time>2012-06-05T09:16:02Z</time>
      </trkpt>
      <trkpt lat="43.122383" lon="-6.055451">
        <ele>931.0</ele>
        <time>2012-06-05T09:16:06Z</time>
      </trkpt>
      <trkpt lat="43.122478" lon="-6.055687">
        <ele>930.0</ele>
        <time>2012-06-05T09:16:10Z</time>
      </trkpt>
      <trkpt lat="43.122556" lon="-6.055934">
        <ele>930.0</ele>
        <time>2012-06-05T09:16:14Z</time>
      </trkpt>
      <trkpt lat="43.122651" lon="-6.056147">
        <ele>930.0</ele>
        <time>2012-06-05T09:16:18Z</time>
      </trkpt>
      <trkpt lat="43.122936" lon="-6.056602">
        <ele>907.0</ele>
        <time>2012-06-05T09:16:26Z</time>
      </trkpt>
      <trkpt lat="43.123047" lon="-6.056804">
        <ele>903.0</ele>
        <time>2012-06-05T09:16:30Z</time>
      </trkpt>
      <trkpt lat="43.123145" lon="-6.057005">
        <ele>904.0</ele>
        <time>2012-06-05T09:16:34Z</time>
      </trkpt>
      <trkpt lat="43.123245" lon="-6.057227">
        <ele>905.0</ele>
        <time>2012-06-05T09:16:38Z</time>
      </trkpt>
      <trkpt lat="43.123348" lon="-6.057457">
        <ele>906.0</ele>
        <time>2012-06-05T09:16:42Z</time>
      </trkpt>
      <trkpt lat="43.12345" lon="-6.057692">
        <ele>908.0</ele>
        <time>2012-06-05T09:16:46Z</time>
      </trkpt>
      <trkpt lat="43.123587" lon="-6.057918">
        <ele>909.0</ele>
        <time>2012-06-05T09:16:50Z</time>
      </trkpt>
      <trkpt lat="43.123743" lon="-6.058163">
        <ele>911.0</ele>
        <time>2012-06-05T09:16:54Z</time>
      </trkpt>
      <trkpt lat="43.123884" lon="-6.058454">
        <ele>912.0</ele>
        <time>2012-06-05T09:16:58Z</time>
      </trkpt>
      <trkpt lat="43.124002" lon="-6.058746">
        <ele>912.0</ele>
        <time>2012-06-05T09:17:02Z</time>
      </trkpt>
      <trkpt lat="43.124136" lon="-6.059039">
        <ele>908.0</ele>
        <time>2012-06-05T09:17:06Z</time>
      </trkpt>
      <trkpt lat="43.124163" lon="-6.059207">
        <ele>902.0</ele>
        <time>2012-06-05T09:17:08Z</time>
      </trkpt>
      <trkpt lat="43.124183" lon="-6.05941">
        <ele>897.0</ele>
        <time>2012-06-05T09:17:18Z</time>
      </trkpt>
      <trkpt lat="43.124183" lon="-6.05941">
        <time>2012-06-05T09:17:30Z</time>
      </trkpt>
    </trkseg>
    <trkseg>
      <trkpt lat="43.124183" lon="-6.05941">
        <time>2012-06-05T09:17:49Z</time>
      </trkpt>
      <trkpt lat="43.124183" lon="-6.05941">
        <time>2012-06-05T09:18:00Z</time>
      </trkpt>
    </trkseg>
    <trkseg>
      <trkpt lat="43.124183" lon="-6.05941">
        <time>2012-06-05T09:19:30Z</time>
      </trkpt>
      <trkpt lat="43.124286" lon="-6.059802">
        <ele>862.0</ele>
        <time>2012-06-05T09:19:34Z</time>
      </trkpt>
      <trkpt lat="43.124565" lon="-6.059956">
        <ele>842.0</ele>
        <time>2012-06-05T09:19:39Z</time>
      </trkpt>
      <trkpt lat="43.124832" lon="-6.059985">
        <ele>841.0</ele>
        <time>2012-06-05T09:19:43Z</time>
      </trkpt>
      <trkpt lat="43.125123" lon="-6.06006">
        <ele>841.0</ele>
        <time>2012-06-05T09:19:47Z</time>
      </trkpt>
      <trkpt lat="43.125548" lon="-6.0604">
        <ele>849.0</ele>
        <time>2012-06-05T09:19:52Z</time>
      </trkpt>
      <trkpt lat="43.125798" lon="-6.060639">
        <ele>851.0</ele>
        <time>2012-06-05T09:19:55Z</time>
      </trkpt>
      <trkpt lat="43.126194" lon="-6.060972">
        <ele>854.0</ele>
        <time>2012-06-05T09:20:00Z</time>
      </trkpt>
      <trkpt lat="43.126376" lon="-6.061082">
        <ele>856.0</ele>
        <time>2012-06-05T09:20:03Z</time>
      </trkpt>
      <trkpt lat="43.126552" lon="-6.061191">
        <ele>858.0</ele>
        <time>2012-06-05T09:20:06Z</time>
      </trkpt>
      <trkpt lat="43.126384" lon="-6.061191">
        <ele>865.0</ele>
        <time>2012-06-05T09:20:11Z</time>
      </trkpt>
      <trkpt lat="43.125822" lon="-6.061183">
        <ele>874.0</ele>
        <time>2012-06-05T09:20:15Z</time>
      </trkpt>
      <trkpt lat="43.125493" lon="-6.061192">
        <ele>879.0</ele>
        <time>2012-06-05T09:20:18Z</time>
      </trkpt>
      <trkpt lat="43.125239" lon="-6.061362">
        <ele>881.0</ele>
        <time>2012-06-05T09:20:21Z</time>
      </trkpt>
      <trkpt lat="43.125242" lon="-6.061494">
        <ele>869.0</ele>
        <time>2012-06-05T09:20:27Z</time>
      </trkpt>
      <trkpt lat="43.125177" lon="-6.061834">
        <ele>868.0</ele>
        <time>2012-06-05T09:20:31Z</time>
      </trkpt>
      <trkpt lat="43.125112" lon="-6.062261">
        <ele>870.0</ele>
        <time>2012-06-05T09:20:35Z</time>
      </trkpt>
      <trkpt lat="43.125116" lon="-6.06277">
        <ele>874.0</ele>
        <time>2012-06-05T09:20:39Z</time>
      </trkpt>
      <trkpt lat="43.125242" lon="-6.063341">
        <ele>874.0</ele>
        <time>2012-06-05T09:20:43Z</time>
      </trkpt>
      <trkpt lat="43.125355" lon="-6.063945">
        <ele>874.0</ele>
        <time>2012-06-05T09:20:47Z</time>
      </trkpt>
      <trkpt lat="43.125429" lon="-6.064593">
        <ele>874.0</ele>
        <time>2012-06-05T09:20:51Z</time>
      </trkpt>
      <trkpt lat="43.125495" lon="-6.065296">
        <ele>874.0</ele>
        <time>2012-06-05T09:20:55Z</time>
      </trkpt>
      <trkpt lat="43.12563" lon="-6.066165">
        <ele>872.0</ele>
        <time>2012-06-05T09:21:00Z</time>
      </trkpt>
      <trkpt lat="43.125878" lon="-6.066753">
        <ele>872.0</ele>
        <time>2012-06-05T09:21:04Z</time>
      </trkpt>
      <trkpt lat="43.126182" lon="-6.067254">
        <ele>874.0</ele>
        <time>2012-06-05T09:21:08Z</time>
      </trkpt>
      <trkpt lat="43.126455" lon="-6.067735">
        <ele>876.0</ele>
        <time>2012-06-05T09:21:12Z</time>
      </trkpt>
      <trkpt lat="43.126578" lon="-6.068327">
        <ele>876.0</ele>
        <time>2012-06-05T09:21:16Z</time>
      </trkpt>
      <trkpt lat="43.126676" lon="-6.068995">
        <ele>876.0</ele>
        <time>2012-06-05T09:21:20Z</time>
      </trkpt>
      <trkpt lat="43.126861" lon="-6.069616">
        <ele>875.0</ele>
        <time>2012-06-05T09:21:24Z</time>
      </trkpt>
      <trkpt lat="43.127122" lon="-6.070183">
        <ele>875.0</ele>
        <time>2012-06-05T09:21:28Z</time>
      </trkpt>
      <trkpt lat="43.127381" lon="-6.070739">
        <ele>874.0</ele>
        <time>2012-06-05T09:21:32Z</time>
      </trkpt>
      <trkpt lat="43.127718" lon="-6.071188">
        <ele>873.0</ele>
        <time>2012-06-05T09:21:36Z</time>
      </trkpt>
      <trkpt lat="43.128053" lon="-6.071676">
        <ele>872.0</ele>
        <time>2012-06-05T09:21:40Z</time>
      </trkpt>
      <trkpt lat="43.128418" lon="-6.07216">
        <ele>872.0</ele>
        <time>2012-06-05T09:21:44Z</time>
      </trkpt>
      <trkpt lat="43.128832" lon="-6.072559">
        <ele>872.0</ele>
        <time>2012-06-05T09:21:48Z</time>
      </trkpt>
      <trkpt lat="43.129389" lon="-6.07291">
        <ele>872.0</ele>
        <time>2012-06-05T09:21:52Z</time>
      </trkpt>
      <trkpt lat="43.129902" lon="-6.073248">
        <ele>872.0</ele>
        <time>2012-06-05T09:21:56Z</time>
      </trkpt>
      <trkpt lat="43.130388" lon="-6.073535">
        <ele>871.0</ele>
        <time>2012-06-05T09:22:00Z</time>
      </trkpt>
      <trkpt lat="43.130778" lon="-6.07391">
        <ele>869.0</ele>
        <time>2012-06-05T09:22:04Z</time>
      </trkpt>
      <trkpt lat="43.131181" lon="-6.074167">
        <ele>849.0</ele>
        <time>2012-06-05T09:22:08Z</time>
      </trkpt>
      <trkpt lat="43.131666" lon="-6.074269">
        <ele>829.0</ele>
        <time>2012-06-05T09:22:12Z</time>
      </trkpt>
      <trkpt lat="43.132188" lon="-6.074346">
        <ele>826.0</ele>
        <time>2012-06-05T09:22:16Z</time>
      </trkpt>
      <trkpt lat="43.132439" lon="-6.074429">
        <ele>826.0</ele>
        <time>2012-06-05T09:22:18Z</time>
      </trkpt>
      <trkpt lat="43.133118" lon="-6.074609">
        <ele>799.0</ele>
        <time>2012-06-05T09:22:24Z</time>
      </trkpt>
      <trkpt lat="43.133633" lon="-6.074361">
        <ele>780.0</ele>
        <time>2012-06-05T09:22:28Z</time>
      </trkpt>
      <trkpt lat="43.134213" lon="-6.074078">
        <ele>778.0</ele>
        <time>2012-06-05T09:22:32Z</time>
      </trkpt>
      <trkpt lat="43.134609" lon="-6.074045">
        <ele>775.0</ele>
        <time>2012-06-05T09:22:35Z</time>
      </trkpt>
      <trkpt lat="43.135227" lon="-6.074033">
        <ele>767.0</ele>
        <time>2012-06-05T09:22:40Z</time>
      </trkpt>
      <trkpt lat="43.135603" lon="-6.074089">
        <ele>764.0</ele>
        <time>2012-06-05T09:22:44Z</time>
      </trkpt>
      <trkpt lat="43.13596" lon="-6.074183">
        <ele>763.0</ele>
        <time>2012-06-05T09:22:48Z</time>
      </trkpt>
      <trkpt lat="43.136243" lon="-6.074447">
        <ele>764.0</ele>
        <time>2012-06-05T09:22:52Z</time>
      </trkpt>
      <trkpt lat="43.136526" lon="-6.074718">
        <ele>762.0</ele>
        <time>2012-06-05T09:22:56Z</time>
      </trkpt>
      <trkpt lat="43.136843" lon="-6.074989">
        <ele>760.0</ele>
        <time>2012-06-05T09:23:00Z</time>
      </trkpt>
      <trkpt lat="43.137196" lon="-6.075238">
        <ele>759.0</ele>
        <time>2012-06-05T09:23:04Z</time>
      </trkpt>
      <trkpt lat="43.137565" lon="-6.075452">
        <ele>759.0</ele>
        <time>2012-06-05T09:23:08Z</time>
      </trkpt>
      <trkpt lat="43.137865" lon="-6.07578">
        <ele>759.0</ele>
        <time>2012-06-05T09:23:12Z</time>
      </trkpt>
      <trkpt lat="43.138032" lon="-6.076295">
        <ele>759.0</ele>
        <time>2012-06-05T09:23:16Z</time>
      </trkpt>
      <trkpt lat="43.138196" lon="-6.076795">
        <ele>759.0</ele>
        <time>2012-06-05T09:23:20Z</time>
      </trkpt>
      <trkpt lat="43.138306" lon="-6.077215">
        <ele>759.0</ele>
        <time>2012-06-05T09:23:24Z</time>
      </trkpt>
      <trkpt lat="43.138356" lon="-6.077612">
        <ele>756.0</ele>
        <time>2012-06-05T09:23:28Z</time>
      </trkpt>
      <trkpt lat="43.138319" lon="-6.078089">
        <ele>753.0</ele>
        <time>2012-06-05T09:23:32Z</time>
      </trkpt>
      <trkpt lat="43.138192" lon="-6.07854">
        <ele>750.0</ele>
        <time>2012-06-05T09:23:36Z</time>
      </trkpt>
      <trkpt lat="43.138158" lon="-6.079034">
        <ele>751.0</ele>
        <time>2012-06-05T09:23:40Z</time>
      </trkpt>
      <trkpt lat="43.138395" lon="-6.079426">
        <ele>749.0</ele>
        <time>2012-06-05T09:23:44Z</time>
      </trkpt>
      <trkpt lat="43.138739" lon="-6.079633">
        <ele>748.0</ele>
        <time>2012-06-05T09:23:48Z</time>
      </trkpt>
      <trkpt lat="43.139113" lon="-6.079833">
        <ele>749.0</ele>
        <time>2012-06-05T09:23:52Z</time>
      </trkpt>
      <trkpt lat="43.13927" lon="-6.080331">
        <ele>748.0</ele>
        <time>2012-06-05T09:23:56Z</time>
      </trkpt>
      <trkpt lat="43.139366" lon="-6.080713">
        <ele>745.0</ele>
        <time>2012-06-05T09:23:59Z</time>
      </trkpt>
      <trkpt lat="43.139731" lon="-6.081216">
        <ele>743.0</ele>
        <time>2012-06-05T09:24:04Z</time>
      </trkpt>
      <trkpt lat="43.140094" lon="-6.08156">
        <ele>744.0</ele>
        <time>2012-06-05T09:24:08Z</time>
      </trkpt>
      <trkpt lat="43.140383" lon="-6.081998">
        <ele>747.0</ele>
        <time>2012-06-05T09:24:12Z</time>
      </trkpt>
      <trkpt lat="43.1405" lon="-6.082576">
        <ele>749.0</ele>
        <time>2012-06-05T09:24:16Z</time>
      </trkpt>
      <trkpt lat="43.140726" lon="-6.083028">
        <ele>753.0</ele>
        <time>2012-06-05T09:24:20Z</time>
      </trkpt>
      <trkpt lat="43.141017" lon="-6.083428">
        <ele>754.0</ele>
        <time>2012-06-05T09:24:24Z</time>
      </trkpt>
      <trkpt lat="43.141344" lon="-6.083761">
        <ele>755.0</ele>
        <time>2012-06-05T09:24:28Z</time>
      </trkpt>
      <trkpt lat="43.141552" lon="-6.084181">
        <ele>744.0</ele>
        <time>2012-06-05T09:24:32Z</time>
      </trkpt>
      <trkpt lat="43.141915" lon="-6.084419">
        <ele>734.0</ele>
        <time>2012-06-05T09:24:36Z</time>
      </trkpt>
      <trkpt lat="43.142319" lon="-6.08455">
        <ele>729.0</ele>
        <time>2012-06-05T09:24:40Z</time>
      </trkpt>
      <trkpt lat="43.142527" lon="-6.084591">
        <ele>729.0</ele>
        <time>2012-06-05T09:24:42Z</time>
      </trkpt>
      <trkpt lat="43.143163" lon="-6.08464">
        <ele>732.0</ele>
        <time>2012-06-05T09:24:48Z</time>
      </trkpt>
      <trkpt lat="43.14368" lon="-6.084752">
        <ele>735.0</ele>
        <time>2012-06-05T09:24:52Z</time>
      </trkpt>
      <trkpt lat="43.14413" lon="-6.085043">
        <ele>735.0</ele>
        <time>2012-06-05T09:24:56Z</time>
      </trkpt>
      <trkpt lat="43.144473" lon="-6.085427">
        <ele>734.0</ele>
        <time>2012-06-05T09:25:00Z</time>
      </trkpt>
      <trkpt lat="43.144719" lon="-6.085616">
        <ele>718.0</ele>
        <time>2012-06-05T09:25:03Z</time>
      </trkpt>
      <trkpt lat="43.145184" lon="-6.085773">
        <ele>704.0</ele>
        <time>2012-06-05T09:25:08Z</time>
      </trkpt>
      <trkpt lat="43.14553" lon="-6.085821">
        <ele>692.0</ele>
        <time>2012-06-05T09:25:12Z</time>
      </trkpt>
      <trkpt lat="43.145872" lon="-6.085886">
        <ele>683.0</ele>
        <time>2012-06-05T09:25:16Z</time>
      </trkpt>
      <trkpt lat="43.146165" lon="-6.086025">
        <ele>678.0</ele>
        <time>2012-06-05T09:25:20Z</time>
      </trkpt>
      <trkpt lat="43.146421" lon="-6.086199">
        <ele>675.0</ele>
        <time>2012-06-05T09:25:24Z</time>
      </trkpt>
      <trkpt lat="43.146676" lon="-6.08639">
        <ele>675.0</ele>
        <time>2012-06-05T09:25:28Z</time>
      </trkpt>
      <trkpt lat="43.146927" lon="-6.086601">
        <ele>675.0</ele>
        <time>2012-06-05T09:25:32Z</time>
      </trkpt>
      <trkpt lat="43.147188" lon="-6.086822">
        <ele>673.0</ele>
        <time>2012-06-05T09:25:36Z</time>
      </trkpt>
      <trkpt lat="43.147411" lon="-6.087094">
        <ele>672.0</ele>
        <time>2012-06-05T09:25:40Z</time>
      </trkpt>
      <trkpt lat="43.147548" lon="-6.08747">
        <ele>672.0</ele>
        <time>2012-06-05T09:25:44Z</time>
      </trkpt>
      <trkpt lat="43.14767" lon="-6.087863">
        <ele>667.0</ele>
        <time>2012-06-05T09:25:48Z</time>
      </trkpt>
      <trkpt lat="43.147778" lon="-6.08825">
        <ele>666.0</ele>
        <time>2012-06-05T09:25:52Z</time>
      </trkpt>
      <trkpt lat="43.147887" lon="-6.08866">
        <ele>665.0</ele>
        <time>2012-06-05T09:25:56Z</time>
      </trkpt>
      <trkpt lat="43.14803" lon="-6.089079">
        <ele>662.0</ele>
        <time>2012-06-05T09:26:00Z</time>
      </trkpt>
      <trkpt lat="43.148307" lon="-6.08948">
        <ele>647.0</ele>
        <time>2012-06-05T09:26:04Z</time>
      </trkpt>
      <trkpt lat="43.148609" lon="-6.089857">
        <ele>634.0</ele>
        <time>2012-06-05T09:26:08Z</time>
      </trkpt>
      <trkpt lat="43.148989" lon="-6.090228">
        <ele>616.0</ele>
        <time>2012-06-05T09:26:12Z</time>
      </trkpt>
      <trkpt lat="43.149177" lon="-6.090396">
        <ele>609.0</ele>
        <time>2012-06-05T09:26:14Z</time>
      </trkpt>
      <trkpt lat="43.149723" lon="-6.090787">
        <ele>600.0</ele>
        <time>2012-06-05T09:26:20Z</time>
      </trkpt>
      <trkpt lat="43.149909" lon="-6.090886">
        <ele>599.0</ele>
        <time>2012-06-05T09:26:22Z</time>
      </trkpt>
      <trkpt lat="43.150344" lon="-6.091124">
        <ele>597.0</ele>
        <time>2012-06-05T09:26:27Z</time>
      </trkpt>
      <trkpt lat="43.150772" lon="-6.091329">
        <ele>594.0</ele>
        <time>2012-06-05T09:26:32Z</time>
      </trkpt>
      <trkpt lat="43.151119" lon="-6.091497">
        <ele>591.0</ele>
        <time>2012-06-05T09:26:36Z</time>
      </trkpt>
      <trkpt lat="43.15146" lon="-6.091606">
        <ele>590.0</ele>
        <time>2012-06-05T09:26:40Z</time>
      </trkpt>
      <trkpt lat="43.151836" lon="-6.09173">
        <ele>592.0</ele>
        <time>2012-06-05T09:26:44Z</time>
      </trkpt>
      <trkpt lat="43.152201" lon="-6.091983">
        <ele>594.0</ele>
        <time>2012-06-05T09:26:48Z</time>
      </trkpt>
      <trkpt lat="43.152454" lon="-6.092325">
        <ele>598.0</ele>
        <time>2012-06-05T09:26:52Z</time>
      </trkpt>
      <trkpt lat="43.152681" lon="-6.092686">
        <ele>603.0</ele>
        <time>2012-06-05T09:26:56Z</time>
      </trkpt>
      <trkpt lat="43.152888" lon="-6.093091">
        <ele>605.0</ele>
        <time>2012-06-05T09:27:00Z</time>
      </trkpt>
      <trkpt lat="43.153119" lon="-6.09347">
        <ele>606.0</ele>
        <time>2012-06-05T09:27:04Z</time>
      </trkpt>
      <trkpt lat="43.15336" lon="-6.093836">
        <ele>606.0</ele>
        <time>2012-06-05T09:27:08Z</time>
      </trkpt>
      <trkpt lat="43.153587" lon="-6.094221">
        <ele>605.0</ele>
        <time>2012-06-05T09:27:12Z</time>
      </trkpt>
      <trkpt lat="43.153729" lon="-6.094669">
        <ele>604.0</ele>
        <time>2012-06-05T09:27:16Z</time>
      </trkpt>
      <trkpt lat="43.153735" lon="-6.095193">
        <ele>604.0</ele>
        <time>2012-06-05T09:27:20Z</time>
      </trkpt>
      <trkpt lat="43.153736" lon="-6.095705">
        <ele>604.0</ele>
        <time>2012-06-05T09:27:24Z</time>
      </trkpt>
      <trkpt lat="43.153812" lon="-6.096153">
        <ele>603.0</ele>
        <time>2012-06-05T09:27:28Z</time>
      </trkpt>
      <trkpt lat="43.154041" lon="-6.096451">
        <ele>598.0</ele>
        <time>2012-06-05T09:27:32Z</time>
      </trkpt>
      <trkpt lat="43.154306" lon="-6.096664">
        <ele>592.0</ele>
        <time>2012-06-05T09:27:36Z</time>
      </trkpt>
      <trkpt lat="43.154596" lon="-6.096815">
        <ele>589.0</ele>
        <time>2012-06-05T09:27:40Z</time>
      </trkpt>
      <trkpt lat="43.154914" lon="-6.096928">
        <ele>587.0</ele>
        <time>2012-06-05T09:27:44Z</time>
      </trkpt>
      <trkpt lat="43.155242" lon="-6.097081">
        <ele>585.0</ele>
        <time>2012-06-05T09:27:48Z</time>
      </trkpt>
      <trkpt lat="43.155601" lon="-6.097195">
        <ele>581.0</ele>
        <time>2012-06-05T09:27:52Z</time>
      </trkpt>
      <trkpt lat="43.15596" lon="-6.097287">
        <ele>581.0</ele>
        <time>2012-06-05T09:27:56Z</time>
      </trkpt>
      <trkpt lat="43.156313" lon="-6.097387">
        <ele>580.0</ele>
        <time>2012-06-05T09:28:00Z</time>
      </trkpt>
      <trkpt lat="43.156674" lon="-6.097353">
        <ele>576.0</ele>
        <time>2012-06-05T09:28:04Z</time>
      </trkpt>
      <trkpt lat="43.157021" lon="-6.097294">
        <ele>575.0</ele>
        <time>2012-06-05T09:28:08Z</time>
      </trkpt>
      <trkpt lat="43.157357" lon="-6.097234">
        <ele>575.0</ele>
        <time>2012-06-05T09:28:12Z</time>
      </trkpt>
      <trkpt lat="43.157693" lon="-6.097184">
        <ele>575.0</ele>
        <time>2012-06-05T09:28:16Z</time>
      </trkpt>
      <trkpt lat="43.158027" lon="-6.097122">
        <ele>575.0</ele>
        <time>2012-06-05T09:28:20Z</time>
      </trkpt>
      <trkpt lat="43.158353" lon="-6.097025">
        <ele>575.0</ele>
        <time>2012-06-05T09:28:24Z</time>
      </trkpt>
      <trkpt lat="43.158677" lon="-6.096917">
        <ele>575.0</ele>
        <time>2012-06-05T09:28:28Z</time>
      </trkpt>
      <trkpt lat="43.159015" lon="-6.096809">
        <ele>576.0</ele>
        <time>2012-06-05T09:28:32Z</time>
      </trkpt>
      <trkpt lat="43.159383" lon="-6.096739">
        <ele>576.0</ele>
        <time>2012-06-05T09:28:36Z</time>
      </trkpt>
      <trkpt lat="43.159788" lon="-6.096656">
        <ele>575.0</ele>
        <time>2012-06-05T09:28:40Z</time>
      </trkpt>
      <trkpt lat="43.160136" lon="-6.096559">
        <ele>572.0</ele>
        <time>2012-06-05T09:28:43Z</time>
      </trkpt>
      <trkpt lat="43.160679" lon="-6.096389">
        <ele>569.0</ele>
        <time>2012-06-05T09:28:48Z</time>
      </trkpt>
      <trkpt lat="43.161083" lon="-6.096308">
        <ele>568.0</ele>
        <time>2012-06-05T09:28:52Z</time>
      </trkpt>
      <trkpt lat="43.161368" lon="-6.096298">
        <ele>568.0</ele>
        <time>2012-06-05T09:28:55Z</time>
      </trkpt>
      <trkpt lat="43.161774" lon="-6.096388">
        <ele>568.0</ele>
        <time>2012-06-05T09:29:00Z</time>
      </trkpt>
      <trkpt lat="43.16212" lon="-6.096391">
        <ele>566.0</ele>
        <time>2012-06-05T09:29:04Z</time>
      </trkpt>
      <trkpt lat="43.162425" lon="-6.096289">
        <ele>565.0</ele>
        <time>2012-06-05T09:29:08Z</time>
      </trkpt>
      <trkpt lat="43.16265" lon="-6.095941">
        <ele>564.0</ele>
        <time>2012-06-05T09:29:12Z</time>
      </trkpt>
      <trkpt lat="43.162969" lon="-6.095689">
        <ele>564.0</ele>
        <time>2012-06-05T09:29:16Z</time>
      </trkpt>
      <trkpt lat="43.163385" lon="-6.095665">
        <ele>565.0</ele>
        <time>2012-06-05T09:29:20Z</time>
      </trkpt>
      <trkpt lat="43.163732" lon="-6.095843">
        <ele>566.0</ele>
        <time>2012-06-05T09:29:24Z</time>
      </trkpt>
      <trkpt lat="43.164005" lon="-6.096091">
        <ele>566.0</ele>
        <time>2012-06-05T09:29:28Z</time>
      </trkpt>
      <trkpt lat="43.164303" lon="-6.096325">
        <ele>566.0</ele>
        <time>2012-06-05T09:29:32Z</time>
      </trkpt>
      <trkpt lat="43.164585" lon="-6.096573">
        <ele>565.0</ele>
        <time>2012-06-05T09:29:36Z</time>
      </trkpt>
      <trkpt lat="43.164864" lon="-6.096818">
        <ele>565.0</ele>
        <time>2012-06-05T09:29:40Z</time>
      </trkpt>
      <trkpt lat="43.165149" lon="-6.097046">
        <ele>565.0</ele>
        <time>2012-06-05T09:29:44Z</time>
      </trkpt>
      <trkpt lat="43.16543" lon="-6.097238">
        <ele>566.0</ele>
        <time>2012-06-05T09:29:48Z</time>
      </trkpt>
      <trkpt lat="43.165705" lon="-6.097396">
        <ele>565.0</ele>
        <time>2012-06-05T09:29:52Z</time>
      </trkpt>
      <trkpt lat="43.165855" lon="-6.097428">
        <ele>565.0</ele>
        <time>2012-06-05T09:29:54Z</time>
      </trkpt>
      <trkpt lat="43.166363" lon="-6.09729">
        <ele>565.0</ele>
        <time>2012-06-05T09:30:00Z</time>
      </trkpt>
      <trkpt lat="43.166704" lon="-6.096966">
        <ele>565.0</ele>
        <time>2012-06-05T09:30:04Z</time>
      </trkpt>
      <trkpt lat="43.166971" lon="-6.096418">
        <ele>561.0</ele>
        <time>2012-06-05T09:30:08Z</time>
      </trkpt>
      <trkpt lat="43.167235" lon="-6.096089">
        <ele>559.0</ele>
        <time>2012-06-05T09:30:12Z</time>
      </trkpt>
      <trkpt lat="43.167576" lon="-6.095784">
        <ele>547.0</ele>
        <time>2012-06-05T09:30:16Z</time>
      </trkpt>
      <trkpt lat="43.167992" lon="-6.095688">
        <ele>543.0</ele>
        <time>2012-06-05T09:30:20Z</time>
      </trkpt>
      <trkpt lat="43.168445" lon="-6.095634">
        <ele>542.0</ele>
        <time>2012-06-05T09:30:24Z</time>
      </trkpt>
      <trkpt lat="43.168889" lon="-6.095727">
        <ele>542.0</ele>
        <time>2012-06-05T09:30:28Z</time>
      </trkpt>
      <trkpt lat="43.169269" lon="-6.095968">
        <ele>542.0</ele>
        <time>2012-06-05T09:30:32Z</time>
      </trkpt>
      <trkpt lat="43.169655" lon="-6.096077">
        <ele>540.0</ele>
        <time>2012-06-05T09:30:36Z</time>
      </trkpt>
      <trkpt lat="43.170033" lon="-6.095928">
        <ele>539.0</ele>
        <time>2012-06-05T09:30:40Z</time>
      </trkpt>
      <trkpt lat="43.170342" lon="-6.095791">
        <ele>540.0</ele>
        <time>2012-06-05T09:30:44Z</time>
      </trkpt>
      <trkpt lat="43.170664" lon="-6.095778">
        <ele>541.0</ele>
        <time>2012-06-05T09:30:48Z</time>
      </trkpt>
      <trkpt lat="43.171014" lon="-6.095788">
        <ele>542.0</ele>
        <time>2012-06-05T09:30:52Z</time>
      </trkpt>
      <trkpt lat="43.171364" lon="-6.095793">
        <ele>541.0</ele>
        <time>2012-06-05T09:30:56Z</time>
      </trkpt>
      <trkpt lat="43.171715" lon="-6.095784">
        <ele>537.0</ele>
        <time>2012-06-05T09:31:00Z</time>
      </trkpt>
      <trkpt lat="43.172014" lon="-6.095701">
        <ele>533.0</ele>
        <time>2012-06-05T09:31:04Z</time>
      </trkpt>
      <trkpt lat="43.172299" lon="-6.095626">
        <ele>532.0</ele>
        <time>2012-06-05T09:31:08Z</time>
      </trkpt>
      <trkpt lat="43.172495" lon="-6.095508">
        <ele>531.0</ele>
        <time>2012-06-05T09:31:11Z</time>
      </trkpt>
      <trkpt lat="43.17283" lon="-6.09529">
        <ele>527.0</ele>
        <time>2012-06-05T09:31:16Z</time>
      </trkpt>
      <trkpt lat="43.173106" lon="-6.095057">
        <ele>524.0</ele>
        <time>2012-06-05T09:31:20Z</time>
      </trkpt>
      <trkpt lat="43.173244" lon="-6.094936">
        <ele>523.0</ele>
        <time>2012-06-05T09:31:22Z</time>
      </trkpt>
      <trkpt lat="43.173652" lon="-6.094552">
        <ele>516.0</ele>
        <time>2012-06-05T09:31:28Z</time>
      </trkpt>
      <trkpt lat="43.173912" lon="-6.094237">
        <ele>512.0</ele>
        <time>2012-06-05T09:31:32Z</time>
      </trkpt>
      <trkpt lat="43.174061" lon="-6.093953">
        <ele>510.0</ele>
        <time>2012-06-05T09:31:35Z</time>
      </trkpt>
      <trkpt lat="43.174176" lon="-6.093408">
        <ele>506.0</ele>
        <time>2012-06-05T09:31:40Z</time>
      </trkpt>
      <trkpt lat="43.174184" lon="-6.092922">
        <ele>503.0</ele>
        <time>2012-06-05T09:31:44Z</time>
      </trkpt>
      <trkpt lat="43.174162" lon="-6.092418">
        <ele>500.0</ele>
        <time>2012-06-05T09:31:48Z</time>
      </trkpt>
      <trkpt lat="43.174168" lon="-6.091912">
        <ele>498.0</ele>
        <time>2012-06-05T09:31:52Z</time>
      </trkpt>
      <trkpt lat="43.174274" lon="-6.09144">
        <ele>496.0</ele>
        <time>2012-06-05T09:31:56Z</time>
      </trkpt>
      <trkpt lat="43.174361" lon="-6.090963">
        <ele>495.0</ele>
        <time>2012-06-05T09:32:00Z</time>
      </trkpt>
      <trkpt lat="43.174382" lon="-6.090723">
        <ele>494.0</ele>
        <time>2012-06-05T09:32:02Z</time>
      </trkpt>
      <trkpt lat="43.174347" lon="-6.089999">
        <ele>493.0</ele>
        <time>2012-06-05T09:32:08Z</time>
      </trkpt>
      <trkpt lat="43.174322" lon="-6.089523">
        <ele>492.0</ele>
        <time>2012-06-05T09:32:12Z</time>
      </trkpt>
      <trkpt lat="43.174472" lon="-6.089083">
        <ele>491.0</ele>
        <time>2012-06-05T09:32:16Z</time>
      </trkpt>
      <trkpt lat="43.174671" lon="-6.088676">
        <ele>488.0</ele>
        <time>2012-06-05T09:32:20Z</time>
      </trkpt>
      <trkpt lat="43.174876" lon="-6.088248">
        <ele>485.0</ele>
        <time>2012-06-05T09:32:24Z</time>
      </trkpt>
      <trkpt lat="43.174972" lon="-6.088008">
        <ele>483.0</ele>
        <time>2012-06-05T09:32:26Z</time>
      </trkpt>
      <trkpt lat="43.175345" lon="-6.087372">
        <ele>482.0</ele>
        <time>2012-06-05T09:32:32Z</time>
      </trkpt>
      <trkpt lat="43.175635" lon="-6.08722">
        <ele>482.0</ele>
        <time>2012-06-05T09:32:35Z</time>
      </trkpt>
      <trkpt lat="43.176048" lon="-6.086937">
        <ele>483.0</ele>
        <time>2012-06-05T09:32:40Z</time>
      </trkpt>
      <trkpt lat="43.176265" lon="-6.08656">
        <ele>480.0</ele>
        <time>2012-06-05T09:32:44Z</time>
      </trkpt>
      <trkpt lat="43.176379" lon="-6.086122">
        <ele>478.0</ele>
        <time>2012-06-05T09:32:48Z</time>
      </trkpt>
      <trkpt lat="43.176444" lon="-6.085674">
        <ele>476.0</ele>
        <time>2012-06-05T09:32:52Z</time>
      </trkpt>
      <trkpt lat="43.176484" lon="-6.085232">
        <ele>474.0</ele>
        <time>2012-06-05T09:32:56Z</time>
      </trkpt>
      <trkpt lat="43.176515" lon="-6.084796">
        <ele>474.0</ele>
        <time>2012-06-05T09:33:00Z</time>
      </trkpt>
      <trkpt lat="43.17659" lon="-6.08438">
        <ele>474.0</ele>
        <time>2012-06-05T09:33:04Z</time>
      </trkpt>
      <trkpt lat="43.176806" lon="-6.084042">
        <ele>475.0</ele>
        <time>2012-06-05T09:33:08Z</time>
      </trkpt>
      <trkpt lat="43.177081" lon="-6.083769">
        <ele>477.0</ele>
        <time>2012-06-05T09:33:12Z</time>
      </trkpt>
      <trkpt lat="43.177371" lon="-6.083501">
        <ele>478.0</ele>
        <time>2012-06-05T09:33:16Z</time>
      </trkpt>
      <trkpt lat="43.177653" lon="-6.083283">
        <ele>475.0</ele>
        <time>2012-06-05T09:33:20Z</time>
      </trkpt>
      <trkpt lat="43.177985" lon="-6.083209">
        <ele>473.0</ele>
        <time>2012-06-05T09:33:24Z</time>
      </trkpt>
      <trkpt lat="43.178334" lon="-6.083093">
        <ele>471.0</ele>
        <time>2012-06-05T09:33:28Z</time>
      </trkpt>
      <trkpt lat="43.178669" lon="-6.08286">
        <ele>470.0</ele>
        <time>2012-06-05T09:33:32Z</time>
      </trkpt>
      <trkpt lat="43.178953" lon="-6.082525">
        <ele>470.0</ele>
        <time>2012-06-05T09:33:36Z</time>
      </trkpt>
      <trkpt lat="43.179291" lon="-6.082293">
        <ele>471.0</ele>
        <time>2012-06-05T09:33:40Z</time>
      </trkpt>
      <trkpt lat="43.179597" lon="-6.0822">
        <ele>472.0</ele>
        <time>2012-06-05T09:33:43Z</time>
      </trkpt>
      <trkpt lat="43.180072" lon="-6.082019">
        <ele>472.0</ele>
        <time>2012-06-05T09:33:48Z</time>
      </trkpt>
      <trkpt lat="43.18026" lon="-6.081939">
        <ele>472.0</ele>
        <time>2012-06-05T09:33:50Z</time>
      </trkpt>
      <trkpt lat="43.18026" lon="-6.081939">
        <time>2012-06-05T09:34:02Z</time>
      </trkpt>
    </trkseg>
    <trkseg>
      <trkpt lat="43.18026" lon="-6.081939">
        <time>2012-06-05T09:34:17Z</time>
      </trkpt>
      <trkpt lat="43.18026" lon="-6.081939">
        <time>2012-06-05T09:34:36Z</time>
      </trkpt>
    </trkseg>
    <trkseg>
      <trkpt lat="43.18026" lon="-6.081939">
        <time>2012-06-05T09:34:39Z</time>
      </trkpt>
      <trkpt lat="43.184647" lon="-6.07988">
        <ele>505.0</ele>
        <time>2012-06-05T09:34:43Z</time>
      </trkpt>
      <trkpt lat="43.185058" lon="-6.079531">
        <ele>508.0</ele>
        <time>2012-06-05T09:34:47Z</time>
      </trkpt>
      <trkpt lat="43.185507" lon="-6.079581">
        <ele>550.0</ele>
        <time>2012-06-05T09:34:51Z</time>
      </trkpt>
      <trkpt lat="43.185966" lon="-6.079594">
        <ele>594.0</ele>
        <time>2012-06-05T09:34:55Z</time>
      </trkpt>
      <trkpt lat="43.186173" lon="-6.079526">
        <ele>594.0</ele>
        <time>2012-06-05T09:34:57Z</time>
      </trkpt>
      <trkpt lat="43.186173" lon="-6.079526">
        <time>2012-06-05T09:35:08Z</time>
      </trkpt>
    </trkseg>
    <trkseg>
      <trkpt lat="43.186173" lon="-6.079526">
        <time>2012-06-05T09:35:29Z</time>
      </trkpt>
      <trkpt lat="43.189775" lon="-6.076144">
        <ele>656.0</ele>
        <time>2012-06-05T09:35:32Z</time>
      </trkpt>
      <trkpt lat="43.190154" lon="-6.076266">
        <ele>624.0</ele>
        <time>2012-06-05T09:35:36Z</time>
      </trkpt>
      <trkpt lat="43.190427" lon="-6.076586">
        <ele>604.0</ele>
        <time>2012-06-05T09:35:40Z</time>
      </trkpt>
      <trkpt lat="43.190766" lon="-6.076214">
        <ele>595.0</ele>
        <time>2012-06-05T09:35:44Z</time>
      </trkpt>
      <trkpt lat="43.190928" lon="-6.07565">
        <ele>595.0</ele>
        <time>2012-06-05T09:35:47Z</time>
      </trkpt>
      <trkpt lat="43.191027" lon="-6.074965">
        <ele>595.0</ele>
        <time>2012-06-05T09:35:52Z</time>
      </trkpt>
      <trkpt lat="43.191082" lon="-6.074716">
        <ele>595.0</ele>
        <time>2012-06-05T09:35:54Z</time>
      </trkpt>
      <trkpt lat="43.191232" lon="-6.074034">
        <ele>599.0</ele>
        <time>2012-06-05T09:36:00Z</time>
      </trkpt>
      <trkpt lat="43.191412" lon="-6.073662">
        <ele>600.0</ele>
        <time>2012-06-05T09:36:04Z</time>
      </trkpt>
      <trkpt lat="43.191682" lon="-6.073446">
        <ele>570.0</ele>
        <time>2012-06-05T09:36:08Z</time>
      </trkpt>
      <trkpt lat="43.192018" lon="-6.073392">
        <ele>546.0</ele>
        <time>2012-06-05T09:36:12Z</time>
      </trkpt>
      <trkpt lat="43.192448" lon="-6.073226">
        <ele>544.0</ele>
        <time>2012-06-05T09:36:16Z</time>
      </trkpt>
      <trkpt lat="43.192804" lon="-6.073124">
        <ele>548.0</ele>
        <time>2012-06-05T09:36:19Z</time>
      </trkpt>
      <trkpt lat="43.193395" lon="-6.072966">
        <ele>557.0</ele>
        <time>2012-06-05T09:36:24Z</time>
      </trkpt>
      <trkpt lat="43.193603" lon="-6.073056">
        <ele>563.0</ele>
        <time>2012-06-05T09:36:27Z</time>
      </trkpt>
      <trkpt lat="43.193666" lon="-6.073146">
        <ele>566.0</ele>
        <time>2012-06-05T09:36:29Z</time>
      </trkpt>
      <trkpt lat="43.193687" lon="-6.072906">
        <ele>552.0</ele>
        <time>2012-06-05T09:36:35Z</time>
      </trkpt>
      <trkpt lat="43.193583" lon="-6.072453">
        <ele>497.0</ele>
        <time>2012-06-05T09:36:40Z</time>
      </trkpt>
      <trkpt lat="43.193564" lon="-6.071858">
        <ele>455.0</ele>
        <time>2012-06-05T09:36:44Z</time>
      </trkpt>
      <trkpt lat="43.193594" lon="-6.071386">
        <ele>438.0</ele>
        <time>2012-06-05T09:36:48Z</time>
      </trkpt>
      <trkpt lat="43.193652" lon="-6.071176">
        <ele>434.0</ele>
        <time>2012-06-05T09:36:50Z</time>
      </trkpt>
      <trkpt lat="43.193935" lon="-6.070637">
        <ele>431.0</ele>
        <time>2012-06-05T09:36:56Z</time>
      </trkpt>
      <trkpt lat="43.194063" lon="-6.070496">
        <ele>432.0</ele>
        <time>2012-06-05T09:36:58Z</time>
      </trkpt>
      <trkpt lat="43.194459" lon="-6.070139">
        <ele>433.0</ele>
        <time>2012-06-05T09:37:04Z</time>
      </trkpt>
      <trkpt lat="43.194773" lon="-6.069976">
        <ele>434.0</ele>
        <time>2012-06-05T09:37:08Z</time>
      </trkpt>
      <trkpt lat="43.195083" lon="-6.0698">
        <ele>435.0</ele>
        <time>2012-06-05T09:37:12Z</time>
      </trkpt>
      <trkpt lat="43.195417" lon="-6.069641">
        <ele>437.0</ele>
        <time>2012-06-05T09:37:16Z</time>
      </trkpt>
      <trkpt lat="43.195747" lon="-6.069501">
        <ele>440.0</ele>
        <time>2012-06-05T09:37:20Z</time>
      </trkpt>
      <trkpt lat="43.195928" lon="-6.069291">
        <ele>443.0</ele>
        <time>2012-06-05T09:37:23Z</time>
      </trkpt>
      <trkpt lat="43.196105" lon="-6.068645">
        <ele>438.0</ele>
        <time>2012-06-05T09:37:28Z</time>
      </trkpt>
      <trkpt lat="43.196253" lon="-6.068188">
        <ele>433.0</ele>
        <time>2012-06-05T09:37:31Z</time>
      </trkpt>
      <trkpt lat="43.196702" lon="-6.067635">
        <ele>428.0</ele>
        <time>2012-06-05T09:37:36Z</time>
      </trkpt>
      <trkpt lat="43.197348" lon="-6.066874">
        <ele>428.0</ele>
        <time>2012-06-05T09:37:40Z</time>
      </trkpt>
      <trkpt lat="43.197812" lon="-6.066225">
        <ele>428.0</ele>
        <time>2012-06-05T09:37:44Z</time>
      </trkpt>
      <trkpt lat="43.198756" lon="-6.065224">
        <ele>428.0</ele>
        <time>2012-06-05T09:37:48Z</time>
      </trkpt>
      <trkpt lat="43.198898" lon="-6.065074">
        <ele>428.0</ele>
        <time>2012-06-05T09:37:49Z</time>
      </trkpt>
      <trkpt lat="43.199523" lon="-6.067123">
        <ele>439.0</ele>
        <time>2012-06-05T09:38:00Z</time>
      </trkpt>
      <trkpt lat="43.199543" lon="-6.067226">
        <ele>439.0</ele>
        <time>2012-06-05T09:38:01Z</time>
      </trkpt>
      <trkpt lat="43.199762" lon="-6.067302">
        <ele>438.0</ele>
        <time>2012-06-05T09:38:05Z</time>
      </trkpt>
      <trkpt lat="43.200337" lon="-6.067494">
        <ele>436.0</ele>
        <time>2012-06-05T09:38:12Z</time>
      </trkpt>
      <trkpt lat="43.200626" lon="-6.067546">
        <ele>435.0</ele>
        <time>2012-06-05T09:38:16Z</time>
      </trkpt>
      <trkpt lat="43.200812" lon="-6.067479">
        <ele>435.0</ele>
        <time>2012-06-05T09:38:19Z</time>
      </trkpt>
      <trkpt lat="43.201006" lon="-6.067057">
        <ele>434.0</ele>
        <time>2012-06-05T09:38:24Z</time>
      </trkpt>
      <trkpt lat="43.201059" lon="-6.066582">
        <ele>433.0</ele>
        <time>2012-06-05T09:38:28Z</time>
      </trkpt>
      <trkpt lat="43.201069" lon="-6.066113">
        <ele>433.0</ele>
        <time>2012-06-05T09:38:32Z</time>
      </trkpt>
      <trkpt lat="43.201084" lon="-6.065887">
        <ele>433.0</ele>
        <time>2012-06-05T09:38:34Z</time>
      </trkpt>
      <trkpt lat="43.201118" lon="-6.065204">
        <ele>428.0</ele>
        <time>2012-06-05T09:38:40Z</time>
      </trkpt>
      <trkpt lat="43.201125" lon="-6.064707">
        <ele>423.0</ele>
        <time>2012-06-05T09:38:44Z</time>
      </trkpt>
      <trkpt lat="43.201138" lon="-6.064204">
        <ele>421.0</ele>
        <time>2012-06-05T09:38:48Z</time>
      </trkpt>
      <trkpt lat="43.201121" lon="-6.06395">
        <ele>421.0</ele>
        <time>2012-06-05T09:38:50Z</time>
      </trkpt>
      <trkpt lat="43.201064" lon="-6.0632">
        <ele>421.0</ele>
        <time>2012-06-05T09:38:56Z</time>
      </trkpt>
      <trkpt lat="43.20111" lon="-6.062738">
        <ele>421.0</ele>
        <time>2012-06-05T09:39:00Z</time>
      </trkpt>
      <trkpt lat="43.20126" lon="-6.062341">
        <ele>420.0</ele>
        <time>2012-06-05T09:39:04Z</time>
      </trkpt>
      <trkpt lat="43.201452" lon="-6.061991">
        <ele>420.0</ele>
        <time>2012-06-05T09:39:08Z</time>
      </trkpt>
      <trkpt lat="43.201666" lon="-6.061684">
        <ele>421.0</ele>
        <time>2012-06-05T09:39:12Z</time>
      </trkpt>
      <trkpt lat="43.201887" lon="-6.061384">
        <ele>422.0</ele>
        <time>2012-06-05T09:39:16Z</time>
      </trkpt>
      <trkpt lat="43.202145" lon="-6.061107">
        <ele>421.0</ele>
        <time>2012-06-05T09:39:20Z</time>
      </trkpt>
      <trkpt lat="43.202443" lon="-6.060873">
        <ele>420.0</ele>
        <time>2012-06-05T09:39:24Z</time>
      </trkpt>
      <trkpt lat="43.202769" lon="-6.060671">
        <ele>418.0</ele>
        <time>2012-06-05T09:39:28Z</time>
      </trkpt>
      <trkpt lat="43.203151" lon="-6.060525">
        <ele>417.0</ele>
        <time>2012-06-05T09:39:32Z</time>
      </trkpt>
      <trkpt lat="43.203503" lon="-6.060295">
        <ele>416.0</ele>
        <time>2012-06-05T09:39:36Z</time>
      </trkpt>
      <trkpt lat="43.203735" lon="-6.06">
        <ele>400.0</ele>
        <time>2012-06-05T09:39:40Z</time>
      </trkpt>
      <trkpt lat="43.203855" lon="-6.059552">
        <ele>385.0</ele>
        <time>2012-06-05T09:39:44Z</time>
      </trkpt>
      <trkpt lat="43.203917" lon="-6.059022">
        <ele>376.0</ele>
        <time>2012-06-05T09:39:48Z</time>
      </trkpt>
      <trkpt lat="43.203939" lon="-6.058621">
        <ele>374.0</ele>
        <time>2012-06-05T09:39:51Z</time>
      </trkpt>
      <trkpt lat="43.203978" lon="-6.057945">
        <ele>374.0</ele>
        <time>2012-06-05T09:39:56Z</time>
      </trkpt>
      <trkpt lat="43.204104" lon="-6.057484">
        <ele>373.0</ele>
        <time>2012-06-05T09:40:00Z</time>
      </trkpt>
      <trkpt lat="43.204241" lon="-6.057123">
        <ele>373.0</ele>
        <time>2012-06-05T09:40:03Z</time>
      </trkpt>
      <trkpt lat="43.20447" lon="-6.056527">
        <ele>372.0</ele>
        <time>2012-06-05T09:40:08Z</time>
      </trkpt>
      <trkpt lat="43.204675" lon="-6.056102">
        <ele>371.0</ele>
        <time>2012-06-05T09:40:12Z</time>
      </trkpt>
      <trkpt lat="43.204965" lon="-6.0558">
        <ele>369.0</ele>
        <time>2012-06-05T09:40:16Z</time>
      </trkpt>
      <trkpt lat="43.205234" lon="-6.055699">
        <ele>369.0</ele>
        <time>2012-06-05T09:40:19Z</time>
      </trkpt>
      <trkpt lat="43.205726" lon="-6.055721">
        <ele>368.0</ele>
        <time>2012-06-05T09:40:24Z</time>
      </trkpt>
      <trkpt lat="43.206082" lon="-6.055973">
        <ele>369.0</ele>
        <time>2012-06-05T09:40:28Z</time>
      </trkpt>
      <trkpt lat="43.2064" lon="-6.056367">
        <ele>370.0</ele>
        <time>2012-06-05T09:40:32Z</time>
      </trkpt>
      <trkpt lat="43.206717" lon="-6.056763">
        <ele>372.0</ele>
        <time>2012-06-05T09:40:36Z</time>
      </trkpt>
      <trkpt lat="43.207037" lon="-6.057174">
        <ele>374.0</ele>
        <time>2012-06-05T09:40:40Z</time>
      </trkpt>
      <trkpt lat="43.207338" lon="-6.05762">
        <ele>375.0</ele>
        <time>2012-06-05T09:40:44Z</time>
      </trkpt>
      <trkpt lat="43.207635" lon="-6.058055">
        <ele>375.0</ele>
        <time>2012-06-05T09:40:48Z</time>
      </trkpt>
      <trkpt lat="43.207922" lon="-6.058537">
        <ele>376.0</ele>
        <time>2012-06-05T09:40:52Z</time>
      </trkpt>
      <trkpt lat="43.208198" lon="-6.058944">
        <ele>376.0</ele>
        <time>2012-06-05T09:40:56Z</time>
      </trkpt>
      <trkpt lat="43.20848" lon="-6.059265">
        <ele>376.0</ele>
        <time>2012-06-05T09:41:00Z</time>
      </trkpt>
      <trkpt lat="43.208793" lon="-6.059533">
        <ele>376.0</ele>
        <time>2012-06-05T09:41:04Z</time>
      </trkpt>
      <trkpt lat="43.209092" lon="-6.05974">
        <ele>376.0</ele>
        <time>2012-06-05T09:41:08Z</time>
      </trkpt>
      <trkpt lat="43.209269" lon="-6.059689">
        <ele>376.0</ele>
        <time>2012-06-05T09:41:10Z</time>
      </trkpt>
      <trkpt lat="43.209617" lon="-6.058522">
        <ele>378.0</ele>
        <time>2012-06-05T09:41:16Z</time>
      </trkpt>
      <trkpt lat="43.209834" lon="-6.057573">
        <ele>381.0</ele>
        <time>2012-06-05T09:41:20Z</time>
      </trkpt>
      <trkpt lat="43.210116" lon="-6.056587">
        <ele>378.0</ele>
        <time>2012-06-05T09:41:24Z</time>
      </trkpt>
      <trkpt lat="43.210308" lon="-6.055989">
        <ele>368.0</ele>
        <time>2012-06-05T09:41:28Z</time>
      </trkpt>
      <trkpt lat="43.210554" lon="-6.05553">
        <ele>363.0</ele>
        <time>2012-06-05T09:41:32Z</time>
      </trkpt>
      <trkpt lat="43.210925" lon="-6.055257">
        <ele>362.0</ele>
        <time>2012-06-05T09:41:36Z</time>
      </trkpt>
      <trkpt lat="43.211201" lon="-6.055132">
        <ele>362.0</ele>
        <time>2012-06-05T09:41:39Z</time>
      </trkpt>
      <trkpt lat="43.211698" lon="-6.054972">
        <ele>364.0</ele>
        <time>2012-06-05T09:41:44Z</time>
      </trkpt>
      <trkpt lat="43.212092" lon="-6.054855">
        <ele>365.0</ele>
        <time>2012-06-05T09:41:48Z</time>
      </trkpt>
      <trkpt lat="43.212397" lon="-6.055029">
        <ele>374.0</ele>
        <time>2012-06-05T09:41:52Z</time>
      </trkpt>
      <trkpt lat="43.212645" lon="-6.054793">
        <ele>380.0</ele>
        <time>2012-06-05T09:41:56Z</time>
      </trkpt>
      <trkpt lat="43.212674" lon="-6.054338">
        <ele>381.0</ele>
        <time>2012-06-05T09:42:00Z</time>
      </trkpt>
      <trkpt lat="43.212523" lon="-6.0539">
        <ele>377.0</ele>
        <time>2012-06-05T09:42:04Z</time>
      </trkpt>
      <trkpt lat="43.2123" lon="-6.053585">
        <ele>364.0</ele>
        <time>2012-06-05T09:42:08Z</time>
      </trkpt>
      <trkpt lat="43.212086" lon="-6.053194">
        <ele>356.0</ele>
        <time>2012-06-05T09:42:12Z</time>
      </trkpt>
      <trkpt lat="43.211975" lon="-6.052987">
        <ele>353.0</ele>
        <time>2012-06-05T09:42:14Z</time>
      </trkpt>
      <trkpt lat="43.211722" lon="-6.052444">
        <ele>350.0</ele>
        <time>2012-06-05T09:42:19Z</time>
      </trkpt>
      <trkpt lat="43.211564" lon="-6.051788">
        <ele>348.0</ele>
        <time>2012-06-05T09:42:24Z</time>
      </trkpt>
      <trkpt lat="43.211802" lon="-6.051272">
        <ele>349.0</ele>
        <time>2012-06-05T09:42:28Z</time>
      </trkpt>
      <trkpt lat="43.212437" lon="-6.051193">
        <ele>351.0</ele>
        <time>2012-06-05T09:42:32Z</time>
      </trkpt>
      <trkpt lat="43.212846" lon="-6.051275">
        <ele>354.0</ele>
        <time>2012-06-05T09:42:36Z</time>
      </trkpt>
      <trkpt lat="43.213013" lon="-6.05128">
        <ele>354.0</ele>
        <time>2012-06-05T09:42:38Z</time>
      </trkpt>
      <trkpt lat="43.213468" lon="-6.05109">
        <ele>354.0</ele>
        <time>2012-06-05T09:42:44Z</time>
      </trkpt>
      <trkpt lat="43.213688" lon="-6.050709">
        <ele>354.0</ele>
        <time>2012-06-05T09:42:48Z</time>
      </trkpt>
      <trkpt lat="43.21384" lon="-6.050232">
        <ele>353.0</ele>
        <time>2012-06-05T09:42:52Z</time>
      </trkpt>
      <trkpt lat="43.214002" lon="-6.049727">
        <ele>352.0</ele>
        <time>2012-06-05T09:42:56Z</time>
      </trkpt>
      <trkpt lat="43.214157" lon="-6.049221">
        <ele>350.0</ele>
        <time>2012-06-05T09:43:00Z</time>
      </trkpt>
      <trkpt lat="43.214342" lon="-6.048749">
        <ele>350.0</ele>
        <time>2012-06-05T09:43:04Z</time>
      </trkpt>
      <trkpt lat="43.214419" lon="-6.048515">
        <ele>350.0</ele>
        <time>2012-06-05T09:43:06Z</time>
      </trkpt>
      <trkpt lat="43.214472" lon="-6.047904">
        <ele>349.0</ele>
        <time>2012-06-05T09:43:11Z</time>
      </trkpt>
      <trkpt lat="43.214414" lon="-6.047322">
        <ele>347.0</ele>
        <time>2012-06-05T09:43:16Z</time>
      </trkpt>
      <trkpt lat="43.214378" lon="-6.046857">
        <ele>342.0</ele>
        <time>2012-06-05T09:43:20Z</time>
      </trkpt>
      <trkpt lat="43.214355" lon="-6.046376">
        <ele>338.0</ele>
        <time>2012-06-05T09:43:24Z</time>
      </trkpt>
      <trkpt lat="43.21425" lon="-6.045928">
        <ele>335.0</ele>
        <time>2012-06-05T09:43:28Z</time>
      </trkpt>
      <trkpt lat="43.214159" lon="-6.045488">
        <ele>334.0</ele>
        <time>2012-06-05T09:43:32Z</time>
      </trkpt>
      <trkpt lat="43.214177" lon="-6.045041">
        <ele>333.0</ele>
        <time>2012-06-05T09:43:36Z</time>
      </trkpt>
      <trkpt lat="43.214205" lon="-6.044709">
        <ele>332.0</ele>
        <time>2012-06-05T09:43:39Z</time>
      </trkpt>
      <trkpt lat="43.214277" lon="-6.044178">
        <ele>332.0</ele>
        <time>2012-06-05T09:43:44Z</time>
      </trkpt>
      <trkpt lat="43.214335" lon="-6.043864">
        <ele>333.0</ele>
        <time>2012-06-05T09:43:47Z</time>
      </trkpt>
      <trkpt lat="43.214372" lon="-6.043351">
        <ele>333.0</ele>
        <time>2012-06-05T09:43:52Z</time>
      </trkpt>
      <trkpt lat="43.214437" lon="-6.042967">
        <ele>333.0</ele>
        <time>2012-06-05T09:43:56Z</time>
      </trkpt>
      <trkpt lat="43.214615" lon="-6.042685">
        <ele>333.0</ele>
        <time>2012-06-05T09:44:00Z</time>
      </trkpt>
      <trkpt lat="43.214857" lon="-6.042551">
        <ele>332.0</ele>
        <time>2012-06-05T09:44:04Z</time>
      </trkpt>
      <trkpt lat="43.215146" lon="-6.042525">
        <ele>332.0</ele>
        <time>2012-06-05T09:44:08Z</time>
      </trkpt>
      <trkpt lat="43.215466" lon="-6.042528">
        <ele>333.0</ele>
        <time>2012-06-05T09:44:12Z</time>
      </trkpt>
      <trkpt lat="43.215806" lon="-6.042518">
        <ele>334.0</ele>
        <time>2012-06-05T09:44:16Z</time>
      </trkpt>
      <trkpt lat="43.216159" lon="-6.042487">
        <ele>334.0</ele>
        <time>2012-06-05T09:44:20Z</time>
      </trkpt>
      <trkpt lat="43.216506" lon="-6.04237">
        <ele>335.0</ele>
        <time>2012-06-05T09:44:24Z</time>
      </trkpt>
      <trkpt lat="43.216763" lon="-6.042032">
        <ele>334.0</ele>
        <time>2012-06-05T09:44:28Z</time>
      </trkpt>
      <trkpt lat="43.216883" lon="-6.041548">
        <ele>333.0</ele>
        <time>2012-06-05T09:44:32Z</time>
      </trkpt>
      <trkpt lat="43.216907" lon="-6.040998">
        <ele>330.0</ele>
        <time>2012-06-05T09:44:36Z</time>
      </trkpt>
      <trkpt lat="43.21686" lon="-6.040446">
        <ele>327.0</ele>
        <time>2012-06-05T09:44:40Z</time>
      </trkpt>
      <trkpt lat="43.216823" lon="-6.039935">
        <ele>326.0</ele>
        <time>2012-06-05T09:44:44Z</time>
      </trkpt>
      <trkpt lat="43.216802" lon="-6.039495">
        <ele>324.0</ele>
        <time>2012-06-05T09:44:48Z</time>
      </trkpt>
      <trkpt lat="43.216797" lon="-6.039098">
        <ele>322.0</ele>
        <time>2012-06-05T09:44:52Z</time>
      </trkpt>
      <trkpt lat="43.216725" lon="-6.038712">
        <ele>321.0</ele>
        <time>2012-06-05T09:44:56Z</time>
      </trkpt>
      <trkpt lat="43.216629" lon="-6.038323">
        <ele>320.0</ele>
        <time>2012-06-05T09:45:00Z</time>
      </trkpt>
      <trkpt lat="43.21657" lon="-6.038047">
        <ele>319.0</ele>
        <time>2012-06-05T09:45:03Z</time>
      </trkpt>
      <trkpt lat="43.216509" lon="-6.037711">
        <ele>318.0</ele>
        <time>2012-06-05T09:45:07Z</time>
      </trkpt>
      <trkpt lat="43.216462" lon="-6.037419">
        <ele>317.0</ele>
        <time>2012-06-05T09:45:11Z</time>
      </trkpt>
      <trkpt lat="43.216768" lon="-6.037263">
        <ele>318.0</ele>
        <time>2012-06-05T09:45:20Z</time>
      </trkpt>
      <trkpt lat="43.21706" lon="-6.037313">
        <ele>319.0</ele>
        <time>2012-06-05T09:45:24Z</time>
      </trkpt>
      <trkpt lat="43.217305" lon="-6.037416">
        <ele>319.0</ele>
        <time>2012-06-05T09:45:27Z</time>
      </trkpt>
      <trkpt lat="43.217742" lon="-6.037653">
        <ele>319.0</ele>
        <time>2012-06-05T09:45:32Z</time>
      </trkpt>
      <trkpt lat="43.218082" lon="-6.037848">
        <ele>318.0</ele>
        <time>2012-06-05T09:45:36Z</time>
      </trkpt>
      <trkpt lat="43.218414" lon="-6.038023">
        <ele>318.0</ele>
        <time>2012-06-05T09:45:40Z</time>
      </trkpt>
      <trkpt lat="43.218724" lon="-6.0382">
        <ele>318.0</ele>
        <time>2012-06-05T09:45:44Z</time>
      </trkpt>
      <trkpt lat="43.219033" lon="-6.038334">
        <ele>317.0</ele>
        <time>2012-06-05T09:45:48Z</time>
      </trkpt>
      <trkpt lat="43.219356" lon="-6.038196">
        <ele>317.0</ele>
        <time>2012-06-05T09:45:52Z</time>
      </trkpt>
      <trkpt lat="43.219669" lon="-6.038091">
        <ele>317.0</ele>
        <time>2012-06-05T09:45:56Z</time>
      </trkpt>
      <trkpt lat="43.219973" lon="-6.038051">
        <ele>316.0</ele>
        <time>2012-06-05T09:46:00Z</time>
      </trkpt>
      <trkpt lat="43.220276" lon="-6.038056">
        <ele>316.0</ele>
        <time>2012-06-05T09:46:04Z</time>
      </trkpt>
      <trkpt lat="43.220565" lon="-6.03806">
        <ele>316.0</ele>
        <time>2012-06-05T09:46:08Z</time>
      </trkpt>
      <trkpt lat="43.220849" lon="-6.038057">
        <ele>316.0</ele>
        <time>2012-06-05T09:46:12Z</time>
      </trkpt>
      <trkpt lat="43.221141" lon="-6.038038">
        <ele>316.0</ele>
        <time>2012-06-05T09:46:16Z</time>
      </trkpt>
      <trkpt lat="43.221436" lon="-6.038043">
        <ele>315.0</ele>
        <time>2012-06-05T09:46:20Z</time>
      </trkpt>
      <trkpt lat="43.221738" lon="-6.038065">
        <ele>315.0</ele>
        <time>2012-06-05T09:46:24Z</time>
      </trkpt>
      <trkpt lat="43.222035" lon="-6.038078">
        <ele>315.0</ele>
        <time>2012-06-05T09:46:28Z</time>
      </trkpt>
      <trkpt lat="43.222339" lon="-6.03811">
        <ele>315.0</ele>
        <time>2012-06-05T09:46:32Z</time>
      </trkpt>
      <trkpt lat="43.222569" lon="-6.038145">
        <ele>315.0</ele>
        <time>2012-06-05T09:46:35Z</time>
      </trkpt>
      <trkpt lat="43.222963" lon="-6.038186">
        <ele>314.0</ele>
        <time>2012-06-05T09:46:40Z</time>
      </trkpt>
      <trkpt lat="43.223281" lon="-6.038156">
        <ele>315.0</ele>
        <time>2012-06-05T09:46:44Z</time>
      </trkpt>
      <trkpt lat="43.223525" lon="-6.038117">
        <ele>316.0</ele>
        <time>2012-06-05T09:46:47Z</time>
      </trkpt>
      <trkpt lat="43.223939" lon="-6.038071">
        <ele>317.0</ele>
        <time>2012-06-05T09:46:52Z</time>
      </trkpt>
      <trkpt lat="43.224275" lon="-6.038096">
        <ele>317.0</ele>
        <time>2012-06-05T09:46:56Z</time>
      </trkpt>
      <trkpt lat="43.224619" lon="-6.038115">
        <ele>317.0</ele>
        <time>2012-06-05T09:47:00Z</time>
      </trkpt>
      <trkpt lat="43.22497" lon="-6.03814">
        <ele>317.0</ele>
        <time>2012-06-05T09:47:04Z</time>
      </trkpt>
      <trkpt lat="43.225337" lon="-6.038215">
        <ele>318.0</ele>
        <time>2012-06-05T09:47:08Z</time>
      </trkpt>
      <trkpt lat="43.225704" lon="-6.038333">
        <ele>319.0</ele>
        <time>2012-06-05T09:47:12Z</time>
      </trkpt>
      <trkpt lat="43.22605" lon="-6.038403">
        <ele>321.0</ele>
        <time>2012-06-05T09:47:16Z</time>
      </trkpt>
      <trkpt lat="43.226217" lon="-6.038421">
        <ele>321.0</ele>
        <time>2012-06-05T09:47:18Z</time>
      </trkpt>
      <trkpt lat="43.22671" lon="-6.03854">
        <ele>319.0</ele>
        <time>2012-06-05T09:47:24Z</time>
      </trkpt>
      <trkpt lat="43.226873" lon="-6.038582">
        <ele>318.0</ele>
        <time>2012-06-05T09:47:26Z</time>
      </trkpt>
      <trkpt lat="43.227204" lon="-6.038648">
        <ele>317.0</ele>
        <time>2012-06-05T09:47:32Z</time>
      </trkpt>
      <trkpt lat="43.227707" lon="-6.038614">
        <ele>314.0</ele>
        <time>2012-06-05T09:47:36Z</time>
      </trkpt>
      <trkpt lat="43.22807" lon="-6.038496">
        <ele>313.0</ele>
        <time>2012-06-05T09:47:40Z</time>
      </trkpt>
      <trkpt lat="43.228446" lon="-6.038337">
        <ele>312.0</ele>
        <time>2012-06-05T09:47:44Z</time>
      </trkpt>
      <trkpt lat="43.228771" lon="-6.038041">
        <ele>312.0</ele>
        <time>2012-06-05T09:47:48Z</time>
      </trkpt>
      <trkpt lat="43.229066" lon="-6.037695">
        <ele>311.0</ele>
        <time>2012-06-05T09:47:52Z</time>
      </trkpt>
      <trkpt lat="43.229406" lon="-6.037431">
        <ele>311.0</ele>
        <time>2012-06-05T09:47:56Z</time>
      </trkpt>
      <trkpt lat="43.229678" lon="-6.037296">
        <ele>310.0</ele>
        <time>2012-06-05T09:47:59Z</time>
      </trkpt>
      <trkpt lat="43.230088" lon="-6.037036">
        <ele>309.0</ele>
        <time>2012-06-05T09:48:04Z</time>
      </trkpt>
      <trkpt lat="43.230332" lon="-6.036711">
        <ele>307.0</ele>
        <time>2012-06-05T09:48:08Z</time>
      </trkpt>
      <trkpt lat="43.230383" lon="-6.036621">
        <ele>307.0</ele>
        <time>2012-06-05T09:48:09Z</time>
      </trkpt>
      <trkpt lat="43.230742" lon="-6.03601">
        <ele>304.0</ele>
        <time>2012-06-05T09:48:16Z</time>
      </trkpt>
      <trkpt lat="43.230972" lon="-6.035688">
        <ele>304.0</ele>
        <time>2012-06-05T09:48:20Z</time>
      </trkpt>
      <trkpt lat="43.231205" lon="-6.035369">
        <ele>304.0</ele>
        <time>2012-06-05T09:48:24Z</time>
      </trkpt>
      <trkpt lat="43.23138" lon="-6.035127">
        <ele>304.0</ele>
        <time>2012-06-05T09:48:27Z</time>
      </trkpt>
      <trkpt lat="43.23138" lon="-6.035127">
        <time>2012-06-05T09:48:39Z</time>
      </trkpt>
    </trkseg>
    <trkseg>
      <trkpt lat="43.23138" lon="-6.035127">
        <time>2012-06-05T09:48:46Z</time>
      </trkpt>
      <trkpt lat="43.233159" lon="-6.033054">
        <ele>308.0</ele>
        <time>2012-06-05T09:48:52Z</time>
      </trkpt>
      <trkpt lat="43.23342" lon="-6.032885">
        <ele>312.0</ele>
        <time>2012-06-05T09:48:56Z</time>
      </trkpt>
      <trkpt lat="43.23372" lon="-6.032764">
        <ele>314.0</ele>
        <time>2012-06-05T09:49:00Z</time>
      </trkpt>
      <trkpt lat="43.234007" lon="-6.032537">
        <ele>315.0</ele>
        <time>2012-06-05T09:49:04Z</time>
      </trkpt>
      <trkpt lat="43.23429" lon="-6.032282">
        <ele>315.0</ele>
        <time>2012-06-05T09:49:08Z</time>
      </trkpt>
      <trkpt lat="43.234556" lon="-6.032003">
        <ele>316.0</ele>
        <time>2012-06-05T09:49:12Z</time>
      </trkpt>
      <trkpt lat="43.234829" lon="-6.031739">
        <ele>316.0</ele>
        <time>2012-06-05T09:49:16Z</time>
      </trkpt>
      <trkpt lat="43.235125" lon="-6.031499">
        <ele>316.0</ele>
        <time>2012-06-05T09:49:20Z</time>
      </trkpt>
      <trkpt lat="43.235434" lon="-6.03125">
        <ele>321.0</ele>
        <time>2012-06-05T09:49:24Z</time>
      </trkpt>
      <trkpt lat="43.235766" lon="-6.031118">
        <ele>321.0</ele>
        <time>2012-06-05T09:49:28Z</time>
      </trkpt>
      <trkpt lat="43.236093" lon="-6.03109">
        <ele>321.0</ele>
        <time>2012-06-05T09:49:32Z</time>
      </trkpt>
      <trkpt lat="43.236397" lon="-6.0312">
        <ele>322.0</ele>
        <time>2012-06-05T09:49:36Z</time>
      </trkpt>
      <trkpt lat="43.236727" lon="-6.031164">
        <ele>322.0</ele>
        <time>2012-06-05T09:49:40Z</time>
      </trkpt>
      <trkpt lat="43.237055" lon="-6.031147">
        <ele>322.0</ele>
        <time>2012-06-05T09:49:44Z</time>
      </trkpt>
      <trkpt lat="43.237348" lon="-6.031131">
        <ele>322.0</ele>
        <time>2012-06-05T09:49:48Z</time>
      </trkpt>
      <trkpt lat="43.237671" lon="-6.031039">
        <ele>322.0</ele>
        <time>2012-06-05T09:49:52Z</time>
      </trkpt>
      <trkpt lat="43.237982" lon="-6.030703">
        <ele>321.0</ele>
        <time>2012-06-05T09:49:56Z</time>
      </trkpt>
      <trkpt lat="43.238143" lon="-6.030607">
        <ele>321.0</ele>
        <time>2012-06-05T09:49:58Z</time>
      </trkpt>
      <trkpt lat="43.238631" lon="-6.030752">
        <ele>322.0</ele>
        <time>2012-06-05T09:50:04Z</time>
      </trkpt>
      <trkpt lat="43.238941" lon="-6.03091">
        <ele>323.0</ele>
        <time>2012-06-05T09:50:08Z</time>
      </trkpt>
      <trkpt lat="43.239096" lon="-6.030987">
        <ele>323.0</ele>
        <time>2012-06-05T09:50:10Z</time>
      </trkpt>
      <trkpt lat="43.239565" lon="-6.031158">
        <ele>325.0</ele>
        <time>2012-06-05T09:50:16Z</time>
      </trkpt>
      <trkpt lat="43.239889" lon="-6.031087">
        <ele>326.0</ele>
        <time>2012-06-05T09:50:20Z</time>
      </trkpt>
      <trkpt lat="43.240195" lon="-6.030832">
        <ele>326.0</ele>
        <time>2012-06-05T09:50:24Z</time>
      </trkpt>
      <trkpt lat="43.240451" lon="-6.030464">
        <ele>327.0</ele>
        <time>2012-06-05T09:50:28Z</time>
      </trkpt>
      <trkpt lat="43.240646" lon="-6.030047">
        <ele>327.0</ele>
        <time>2012-06-05T09:50:32Z</time>
      </trkpt>
      <trkpt lat="43.240789" lon="-6.029607">
        <ele>327.0</ele>
        <time>2012-06-05T09:50:36Z</time>
      </trkpt>
      <trkpt lat="43.240931" lon="-6.029152">
        <ele>327.0</ele>
        <time>2012-06-05T09:50:40Z</time>
      </trkpt>
      <trkpt lat="43.241035" lon="-6.028701">
        <ele>320.0</ele>
        <time>2012-06-05T09:50:44Z</time>
      </trkpt>
      <trkpt lat="43.24118" lon="-6.028304">
        <ele>314.0</ele>
        <time>2012-06-05T09:50:48Z</time>
      </trkpt>
      <trkpt lat="43.241406" lon="-6.028016">
        <ele>306.0</ele>
        <time>2012-06-05T09:50:52Z</time>
      </trkpt>
      <trkpt lat="43.24169" lon="-6.027757">
        <ele>296.0</ele>
        <time>2012-06-05T09:50:56Z</time>
      </trkpt>
      <trkpt lat="43.241968" lon="-6.027501">
        <ele>290.0</ele>
        <time>2012-06-05T09:51:00Z</time>
      </trkpt>
      <trkpt lat="43.242234" lon="-6.027204">
        <ele>285.0</ele>
        <time>2012-06-05T09:51:04Z</time>
      </trkpt>
      <trkpt lat="43.24248" lon="-6.026835">
        <ele>278.0</ele>
        <time>2012-06-05T09:51:08Z</time>
      </trkpt>
      <trkpt lat="43.242714" lon="-6.026461">
        <ele>273.0</ele>
        <time>2012-06-05T09:51:12Z</time>
      </trkpt>
      <trkpt lat="43.242933" lon="-6.0261">
        <ele>271.0</ele>
        <time>2012-06-05T09:51:16Z</time>
      </trkpt>
      <trkpt lat="43.243182" lon="-6.025793">
        <ele>271.0</ele>
        <time>2012-06-05T09:51:20Z</time>
      </trkpt>
      <trkpt lat="43.243394" lon="-6.025608">
        <ele>271.0</ele>
        <time>2012-06-05T09:51:23Z</time>
      </trkpt>
      <trkpt lat="43.243684" lon="-6.025382">
        <ele>271.0</ele>
        <time>2012-06-05T09:51:27Z</time>
      </trkpt>
      <trkpt lat="43.244053" lon="-6.025097">
        <ele>270.0</ele>
        <time>2012-06-05T09:51:32Z</time>
      </trkpt>
      <trkpt lat="43.244344" lon="-6.024864">
        <ele>269.0</ele>
        <time>2012-06-05T09:51:36Z</time>
      </trkpt>
      <trkpt lat="43.24457" lon="-6.024726">
        <ele>269.0</ele>
        <time>2012-06-05T09:51:39Z</time>
      </trkpt>
      <trkpt lat="43.244977" lon="-6.02458">
        <ele>269.0</ele>
        <time>2012-06-05T09:51:44Z</time>
      </trkpt>
      <trkpt lat="43.245315" lon="-6.024475">
        <ele>271.0</ele>
        <time>2012-06-05T09:51:48Z</time>
      </trkpt>
      <trkpt lat="43.24565" lon="-6.024499">
        <ele>273.0</ele>
        <time>2012-06-05T09:51:52Z</time>
      </trkpt>
      <trkpt lat="43.245978" lon="-6.02455">
        <ele>278.0</ele>
        <time>2012-06-05T09:51:56Z</time>
      </trkpt>
      <trkpt lat="43.246304" lon="-6.02464">
        <ele>279.0</ele>
        <time>2012-06-05T09:52:00Z</time>
      </trkpt>
      <trkpt lat="43.246626" lon="-6.024743">
        <ele>280.0</ele>
        <time>2012-06-05T09:52:04Z</time>
      </trkpt>
      <trkpt lat="43.246954" lon="-6.02462">
        <ele>280.0</ele>
        <time>2012-06-05T09:52:08Z</time>
      </trkpt>
      <trkpt lat="43.247322" lon="-6.0245">
        <ele>279.0</ele>
        <time>2012-06-05T09:52:12Z</time>
      </trkpt>
      <trkpt lat="43.247687" lon="-6.024422">
        <ele>279.0</ele>
        <time>2012-06-05T09:52:16Z</time>
      </trkpt>
      <trkpt lat="43.248039" lon="-6.024355">
        <ele>279.0</ele>
        <time>2012-06-05T09:52:20Z</time>
      </trkpt>
      <trkpt lat="43.248378" lon="-6.024282">
        <ele>278.0</ele>
        <time>2012-06-05T09:52:24Z</time>
      </trkpt>
      <trkpt lat="43.248636" lon="-6.024258">
        <ele>279.0</ele>
        <time>2012-06-05T09:52:27Z</time>
      </trkpt>
      <trkpt lat="43.24908" lon="-6.024241">
        <ele>279.0</ele>
        <time>2012-06-05T09:52:32Z</time>
      </trkpt>
      <trkpt lat="43.249407" lon="-6.024187">
        <ele>279.0</ele>
        <time>2012-06-05T09:52:36Z</time>
      </trkpt>
      <trkpt lat="43.249737" lon="-6.024024">
        <ele>280.0</ele>
        <time>2012-06-05T09:52:40Z</time>
      </trkpt>
      <trkpt lat="43.250025" lon="-6.023766">
        <ele>281.0</ele>
        <time>2012-06-05T09:52:44Z</time>
      </trkpt>
      <trkpt lat="43.250176" lon="-6.023429">
        <ele>281.0</ele>
        <time>2012-06-05T09:52:48Z</time>
      </trkpt>
      <trkpt lat="43.250165" lon="-6.022985">
        <ele>281.0</ele>
        <time>2012-06-05T09:52:52Z</time>
      </trkpt>
      <trkpt lat="43.250066" lon="-6.022574">
        <ele>281.0</ele>
        <time>2012-06-05T09:52:56Z</time>
      </trkpt>
      <trkpt lat="43.249952" lon="-6.022189">
        <ele>280.0</ele>
        <time>2012-06-05T09:53:00Z</time>
      </trkpt>
      <trkpt lat="43.249909" lon="-6.021737">
        <ele>277.0</ele>
        <time>2012-06-05T09:53:04Z</time>
      </trkpt>
      <trkpt lat="43.249931" lon="-6.021268">
        <ele>273.0</ele>
        <time>2012-06-05T09:53:08Z</time>
      </trkpt>
      <trkpt lat="43.249915" lon="-6.020809">
        <ele>271.0</ele>
        <time>2012-06-05T09:53:12Z</time>
      </trkpt>
      <trkpt lat="43.249832" lon="-6.020372">
        <ele>269.0</ele>
        <time>2012-06-05T09:53:16Z</time>
      </trkpt>
      <trkpt lat="43.249739" lon="-6.019919">
        <ele>267.0</ele>
        <time>2012-06-05T09:53:20Z</time>
      </trkpt>
      <trkpt lat="43.24968" lon="-6.019444">
        <ele>266.0</ele>
        <time>2012-06-05T09:53:24Z</time>
      </trkpt>
      <trkpt lat="43.249627" lon="-6.018988">
        <ele>265.0</ele>
        <time>2012-06-05T09:53:28Z</time>
      </trkpt>
      <trkpt lat="43.24967" lon="-6.018597">
        <ele>264.0</ele>
        <time>2012-06-05T09:53:32Z</time>
      </trkpt>
      <trkpt lat="43.249709" lon="-6.018427">
        <ele>265.0</ele>
        <time>2012-06-05T09:53:34Z</time>
      </trkpt>
      <trkpt lat="43.24989" lon="-6.018003">
        <ele>265.0</ele>
        <time>2012-06-05T09:53:40Z</time>
      </trkpt>
      <trkpt lat="43.250071" lon="-6.017785">
        <ele>265.0</ele>
        <time>2012-06-05T09:53:44Z</time>
      </trkpt>
      <trkpt lat="43.250263" lon="-6.017569">
        <ele>264.0</ele>
        <time>2012-06-05T09:53:48Z</time>
      </trkpt>
      <trkpt lat="43.250399" lon="-6.017387">
        <ele>264.0</ele>
        <time>2012-06-05T09:53:51Z</time>
      </trkpt>
      <trkpt lat="43.250644" lon="-6.017076">
        <ele>263.0</ele>
        <time>2012-06-05T09:53:56Z</time>
      </trkpt>
      <trkpt lat="43.250858" lon="-6.016799">
        <ele>263.0</ele>
        <time>2012-06-05T09:54:00Z</time>
      </trkpt>
      <trkpt lat="43.251104" lon="-6.016575">
        <ele>264.0</ele>
        <time>2012-06-05T09:54:04Z</time>
      </trkpt>
      <trkpt lat="43.25138" lon="-6.016417">
        <ele>264.0</ele>
        <time>2012-06-05T09:54:08Z</time>
      </trkpt>
      <trkpt lat="43.251651" lon="-6.016245">
        <ele>264.0</ele>
        <time>2012-06-05T09:54:12Z</time>
      </trkpt>
      <trkpt lat="43.251907" lon="-6.016022">
        <ele>264.0</ele>
        <time>2012-06-05T09:54:16Z</time>
      </trkpt>
      <trkpt lat="43.252167" lon="-6.0158">
        <ele>264.0</ele>
        <time>2012-06-05T09:54:20Z</time>
      </trkpt>
      <trkpt lat="43.252436" lon="-6.015574">
        <ele>264.0</ele>
        <time>2012-06-05T09:54:24Z</time>
      </trkpt>
      <trkpt lat="43.252719" lon="-6.015339">
        <ele>263.0</ele>
        <time>2012-06-05T09:54:28Z</time>
      </trkpt>
      <trkpt lat="43.252994" lon="-6.015096">
        <ele>262.0</ele>
        <time>2012-06-05T09:54:32Z</time>
      </trkpt>
      <trkpt lat="43.25326" lon="-6.014861">
        <ele>262.0</ele>
        <time>2012-06-05T09:54:36Z</time>
      </trkpt>
      <trkpt lat="43.253536" lon="-6.014668">
        <ele>262.0</ele>
        <time>2012-06-05T09:54:40Z</time>
      </trkpt>
      <trkpt lat="43.253805" lon="-6.014466">
        <ele>262.0</ele>
        <time>2012-06-05T09:54:44Z</time>
      </trkpt>
      <trkpt lat="43.254099" lon="-6.014294">
        <ele>263.0</ele>
        <time>2012-06-05T09:54:48Z</time>
      </trkpt>
      <trkpt lat="43.254412" lon="-6.014184">
        <ele>262.0</ele>
        <time>2012-06-05T09:54:52Z</time>
      </trkpt>
      <trkpt lat="43.254736" lon="-6.014072">
        <ele>262.0</ele>
        <time>2012-06-05T09:54:56Z</time>
      </trkpt>
      <trkpt lat="43.255064" lon="-6.013925">
        <ele>261.0</ele>
        <time>2012-06-05T09:55:00Z</time>
      </trkpt>
      <trkpt lat="43.255222" lon="-6.013844">
        <ele>261.0</ele>
        <time>2012-06-05T09:55:02Z</time>
      </trkpt>
      <trkpt lat="43.255618" lon="-6.013467">
        <ele>261.0</ele>
        <time>2012-06-05T09:55:08Z</time>
      </trkpt>
      <trkpt lat="43.255863" lon="-6.01318">
        <ele>261.0</ele>
        <time>2012-06-05T09:55:12Z</time>
      </trkpt>
      <trkpt lat="43.256067" lon="-6.012956">
        <ele>261.0</ele>
        <time>2012-06-05T09:55:15Z</time>
      </trkpt>
      <trkpt lat="43.256381" lon="-6.012458">
        <ele>259.0</ele>
        <time>2012-06-05T09:55:20Z</time>
      </trkpt>
      <trkpt lat="43.25665" lon="-6.012074">
        <ele>257.0</ele>
        <time>2012-06-05T09:55:24Z</time>
      </trkpt>
      <trkpt lat="43.257011" lon="-6.011863">
        <ele>256.0</ele>
        <time>2012-06-05T09:55:28Z</time>
      </trkpt>
      <trkpt lat="43.257289" lon="-6.011724">
        <ele>256.0</ele>
        <time>2012-06-05T09:55:31Z</time>
      </trkpt>
      <trkpt lat="43.257679" lon="-6.011396">
        <ele>256.0</ele>
        <time>2012-06-05T09:55:36Z</time>
      </trkpt>
      <trkpt lat="43.257914" lon="-6.011069">
        <ele>255.0</ele>
        <time>2012-06-05T09:55:40Z</time>
      </trkpt>
      <trkpt lat="43.258138" lon="-6.010767">
        <ele>255.0</ele>
        <time>2012-06-05T09:55:44Z</time>
      </trkpt>
      <trkpt lat="43.258372" lon="-6.010499">
        <ele>254.0</ele>
        <time>2012-06-05T09:55:48Z</time>
      </trkpt>
      <trkpt lat="43.258623" lon="-6.010273">
        <ele>254.0</ele>
        <time>2012-06-05T09:55:52Z</time>
      </trkpt>
      <trkpt lat="43.258883" lon="-6.010063">
        <ele>254.0</ele>
        <time>2012-06-05T09:55:56Z</time>
      </trkpt>
      <trkpt lat="43.259156" lon="-6.009845">
        <ele>253.0</ele>
        <time>2012-06-05T09:56:00Z</time>
      </trkpt>
      <trkpt lat="43.259431" lon="-6.009584">
        <ele>253.0</ele>
        <time>2012-06-05T09:56:04Z</time>
      </trkpt>
      <trkpt lat="43.259682" lon="-6.009236">
        <ele>253.0</ele>
        <time>2012-06-05T09:56:08Z</time>
      </trkpt>
      <trkpt lat="43.259893" lon="-6.00884">
        <ele>252.0</ele>
        <time>2012-06-05T09:56:12Z</time>
      </trkpt>
      <trkpt lat="43.260123" lon="-6.008466">
        <ele>252.0</ele>
        <time>2012-06-05T09:56:16Z</time>
      </trkpt>
      <trkpt lat="43.2604" lon="-6.008102">
        <ele>252.0</ele>
        <time>2012-06-05T09:56:20Z</time>
      </trkpt>
      <trkpt lat="43.260727" lon="-6.007751">
        <ele>252.0</ele>
        <time>2012-06-05T09:56:24Z</time>
      </trkpt>
      <trkpt lat="43.26107" lon="-6.00746">
        <ele>251.0</ele>
        <time>2012-06-05T09:56:28Z</time>
      </trkpt>
      <trkpt lat="43.261421" lon="-6.00726">
        <ele>251.0</ele>
        <time>2012-06-05T09:56:32Z</time>
      </trkpt>
      <trkpt lat="43.261762" lon="-6.007135">
        <ele>250.0</ele>
        <time>2012-06-05T09:56:36Z</time>
      </trkpt>
      <trkpt lat="43.262016" lon="-6.006849">
        <ele>250.0</ele>
        <time>2012-06-05T09:56:40Z</time>
      </trkpt>
      <trkpt lat="43.262127" lon="-6.006428">
        <ele>250.0</ele>
        <time>2012-06-05T09:56:44Z</time>
      </trkpt>
      <trkpt lat="43.262144" lon="-6.00597">
        <ele>249.0</ele>
        <time>2012-06-05T09:56:48Z</time>
      </trkpt>
      <trkpt lat="43.262163" lon="-6.005744">
        <ele>248.0</ele>
        <time>2012-06-05T09:56:50Z</time>
      </trkpt>
      <trkpt lat="43.262431" lon="-6.005176">
        <ele>247.0</ele>
        <time>2012-06-05T09:56:56Z</time>
      </trkpt>
      <trkpt lat="43.262725" lon="-6.004963">
        <ele>247.0</ele>
        <time>2012-06-05T09:57:00Z</time>
      </trkpt>
      <trkpt lat="43.263063" lon="-6.004852">
        <ele>247.0</ele>
        <time>2012-06-05T09:57:04Z</time>
      </trkpt>
      <trkpt lat="43.26341" lon="-6.004758">
        <ele>247.0</ele>
        <time>2012-06-05T09:57:08Z</time>
      </trkpt>
      <trkpt lat="43.263751" lon="-6.00467">
        <ele>247.0</ele>
        <time>2012-06-05T09:57:12Z</time>
      </trkpt>
      <trkpt lat="43.264087" lon="-6.004572">
        <ele>246.0</ele>
        <time>2012-06-05T09:57:16Z</time>
      </trkpt>
      <trkpt lat="43.264422" lon="-6.004472">
        <ele>246.0</ele>
        <time>2012-06-05T09:57:20Z</time>
      </trkpt>
      <trkpt lat="43.264755" lon="-6.004381">
        <ele>246.0</ele>
        <time>2012-06-05T09:57:24Z</time>
      </trkpt>
      <trkpt lat="43.265087" lon="-6.004297">
        <ele>246.0</ele>
        <time>2012-06-05T09:57:28Z</time>
      </trkpt>
      <trkpt lat="43.265423" lon="-6.004256">
        <ele>246.0</ele>
        <time>2012-06-05T09:57:32Z</time>
      </trkpt>
      <trkpt lat="43.265759" lon="-6.004221">
        <ele>246.0</ele>
        <time>2012-06-05T09:57:36Z</time>
      </trkpt>
      <trkpt lat="43.26609" lon="-6.004126">
        <ele>246.0</ele>
        <time>2012-06-05T09:57:40Z</time>
      </trkpt>
      <trkpt lat="43.266416" lon="-6.004002">
        <ele>246.0</ele>
        <time>2012-06-05T09:57:44Z</time>
      </trkpt>
      <trkpt lat="43.266741" lon="-6.003871">
        <ele>245.0</ele>
        <time>2012-06-05T09:57:48Z</time>
      </trkpt>
      <trkpt lat="43.267065" lon="-6.003755">
        <ele>245.0</ele>
        <time>2012-06-05T09:57:52Z</time>
      </trkpt>
      <trkpt lat="43.267386" lon="-6.003645">
        <ele>245.0</ele>
        <time>2012-06-05T09:57:56Z</time>
      </trkpt>
      <trkpt lat="43.267711" lon="-6.003523">
        <ele>245.0</ele>
        <time>2012-06-05T09:58:00Z</time>
      </trkpt>
      <trkpt lat="43.268028" lon="-6.00333">
        <ele>245.0</ele>
        <time>2012-06-05T09:58:04Z</time>
      </trkpt>
      <trkpt lat="43.268313" lon="-6.003023">
        <ele>245.0</ele>
        <time>2012-06-05T09:58:08Z</time>
      </trkpt>
      <trkpt lat="43.268585" lon="-6.002685">
        <ele>244.0</ele>
        <time>2012-06-05T09:58:12Z</time>
      </trkpt>
      <trkpt lat="43.268846" lon="-6.002349">
        <ele>244.0</ele>
        <time>2012-06-05T09:58:16Z</time>
      </trkpt>
      <trkpt lat="43.269106" lon="-6.00205">
        <ele>245.0</ele>
        <time>2012-06-05T09:58:20Z</time>
      </trkpt>
      <trkpt lat="43.269386" lon="-6.001792">
        <ele>245.0</ele>
        <time>2012-06-05T09:58:24Z</time>
      </trkpt>
      <trkpt lat="43.269684" lon="-6.001566">
        <ele>244.0</ele>
        <time>2012-06-05T09:58:28Z</time>
      </trkpt>
      <trkpt lat="43.27002" lon="-6.001389">
        <ele>244.0</ele>
        <time>2012-06-05T09:58:32Z</time>
      </trkpt>
      <trkpt lat="43.270332" lon="-6.00127">
        <ele>245.0</ele>
        <time>2012-06-05T09:58:36Z</time>
      </trkpt>
      <trkpt lat="43.270626" lon="-6.001168">
        <ele>247.0</ele>
        <time>2012-06-05T09:58:40Z</time>
      </trkpt>
      <trkpt lat="43.270919" lon="-6.001068">
        <ele>249.0</ele>
        <time>2012-06-05T09:58:44Z</time>
      </trkpt>
      <trkpt lat="43.271216" lon="-6.000945">
        <ele>250.0</ele>
        <time>2012-06-05T09:58:48Z</time>
      </trkpt>
      <trkpt lat="43.271518" lon="-6.000801">
        <ele>250.0</ele>
        <time>2012-06-05T09:58:52Z</time>
      </trkpt>
      <trkpt lat="43.271813" lon="-6.000551">
        <ele>246.0</ele>
        <time>2012-06-05T09:58:56Z</time>
      </trkpt>
      <trkpt lat="43.272064" lon="-6.000228">
        <ele>243.0</ele>
        <time>2012-06-05T09:59:00Z</time>
      </trkpt>
      <trkpt lat="43.272236" lon="-5.999824">
        <ele>242.0</ele>
        <time>2012-06-05T09:59:04Z</time>
      </trkpt>
      <trkpt lat="43.272394" lon="-5.999424">
        <ele>241.0</ele>
        <time>2012-06-05T09:59:08Z</time>
      </trkpt>
      <trkpt lat="43.272567" lon="-5.999058">
        <ele>242.0</ele>
        <time>2012-06-05T09:59:12Z</time>
      </trkpt>
      <trkpt lat="43.272772" lon="-5.998732">
        <ele>242.0</ele>
        <time>2012-06-05T09:59:16Z</time>
      </trkpt>
      <trkpt lat="43.272985" lon="-5.998441">
        <ele>242.0</ele>
        <time>2012-06-05T09:59:20Z</time>
      </trkpt>
      <trkpt lat="43.273224" lon="-5.998196">
        <ele>242.0</ele>
        <time>2012-06-05T09:59:24Z</time>
      </trkpt>
      <trkpt lat="43.273483" lon="-5.997985">
        <ele>242.0</ele>
        <time>2012-06-05T09:59:28Z</time>
      </trkpt>
      <trkpt lat="43.273749" lon="-5.99778">
        <ele>241.0</ele>
        <time>2012-06-05T09:59:32Z</time>
      </trkpt>
      <trkpt lat="43.274006" lon="-5.997571">
        <ele>241.0</ele>
        <time>2012-06-05T09:59:36Z</time>
      </trkpt>
      <trkpt lat="43.274221" lon="-5.997301">
        <ele>241.0</ele>
        <time>2012-06-05T09:59:40Z</time>
      </trkpt>
      <trkpt lat="43.274385" lon="-5.996963">
        <ele>241.0</ele>
        <time>2012-06-05T09:59:44Z</time>
      </trkpt>
      <trkpt lat="43.274498" lon="-5.996596">
        <ele>241.0</ele>
        <time>2012-06-05T09:59:48Z</time>
      </trkpt>
      <trkpt lat="43.274554" lon="-5.996187">
        <ele>241.0</ele>
        <time>2012-06-05T09:59:52Z</time>
      </trkpt>
      <trkpt lat="43.274555" lon="-5.995764">
        <ele>241.0</ele>
        <time>2012-06-05T09:59:56Z</time>
      </trkpt>
      <trkpt lat="43.274557" lon="-5.995347">
        <ele>241.0</ele>
        <time>2012-06-05T10:00:00Z</time>
      </trkpt>
      <trkpt lat="43.274613" lon="-5.994933">
        <ele>241.0</ele>
        <time>2012-06-05T10:00:04Z</time>
      </trkpt>
      <trkpt lat="43.274726" lon="-5.994531">
        <ele>242.0</ele>
        <time>2012-06-05T10:00:08Z</time>
      </trkpt>
      <trkpt lat="43.274872" lon="-5.994149">
        <ele>242.0</ele>
        <time>2012-06-05T10:00:12Z</time>
      </trkpt>
      <trkpt lat="43.275071" lon="-5.993823">
        <ele>242.0</ele>
        <time>2012-06-05T10:00:16Z</time>
      </trkpt>
      <trkpt lat="43.275299" lon="-5.99354">
        <ele>242.0</ele>
        <time>2012-06-05T10:00:20Z</time>
      </trkpt>
      <trkpt lat="43.275541" lon="-5.99328">
        <ele>242.0</ele>
        <time>2012-06-05T10:00:24Z</time>
      </trkpt>
      <trkpt lat="43.27579" lon="-5.993029">
        <ele>243.0</ele>
        <time>2012-06-05T10:00:28Z</time>
      </trkpt>
      <trkpt lat="43.276042" lon="-5.992781">
        <ele>243.0</ele>
        <time>2012-06-05T10:00:32Z</time>
      </trkpt>
      <trkpt lat="43.276305" lon="-5.992551">
        <ele>243.0</ele>
        <time>2012-06-05T10:00:36Z</time>
      </trkpt>
      <trkpt lat="43.276491" lon="-5.992363">
        <ele>243.0</ele>
        <time>2012-06-05T10:00:39Z</time>
      </trkpt>
      <trkpt lat="43.276788" lon="-5.992025">
        <ele>243.0</ele>
        <time>2012-06-05T10:00:44Z</time>
      </trkpt>
      <trkpt lat="43.277042" lon="-5.991739">
        <ele>243.0</ele>
        <time>2012-06-05T10:00:48Z</time>
      </trkpt>
      <trkpt lat="43.277298" lon="-5.991412">
        <ele>242.0</ele>
        <time>2012-06-05T10:00:52Z</time>
      </trkpt>
      <trkpt lat="43.277548" lon="-5.991064">
        <ele>241.0</ele>
        <time>2012-06-05T10:00:56Z</time>
      </trkpt>
      <trkpt lat="43.277789" lon="-5.990725">
        <ele>240.0</ele>
        <time>2012-06-05T10:01:00Z</time>
      </trkpt>
      <trkpt lat="43.278017" lon="-5.990407">
        <ele>239.0</ele>
        <time>2012-06-05T10:01:04Z</time>
      </trkpt>
      <trkpt lat="43.278258" lon="-5.990119">
        <ele>239.0</ele>
        <time>2012-06-05T10:01:08Z</time>
      </trkpt>
      <trkpt lat="43.278565" lon="-5.990001">
        <ele>238.0</ele>
        <time>2012-06-05T10:01:12Z</time>
      </trkpt>
      <trkpt lat="43.278885" lon="-5.990031">
        <ele>239.0</ele>
        <time>2012-06-05T10:01:16Z</time>
      </trkpt>
      <trkpt lat="43.279201" lon="-5.990081">
        <ele>239.0</ele>
        <time>2012-06-05T10:01:20Z</time>
      </trkpt>
      <trkpt lat="43.279522" lon="-5.990053">
        <ele>240.0</ele>
        <time>2012-06-05T10:01:24Z</time>
      </trkpt>
      <trkpt lat="43.279842" lon="-5.990148">
        <ele>241.0</ele>
        <time>2012-06-05T10:01:28Z</time>
      </trkpt>
      <trkpt lat="43.280185" lon="-5.990312">
        <ele>241.0</ele>
        <time>2012-06-05T10:01:32Z</time>
      </trkpt>
      <trkpt lat="43.28056" lon="-5.990313">
        <ele>242.0</ele>
        <time>2012-06-05T10:01:36Z</time>
      </trkpt>
      <trkpt lat="43.280903" lon="-5.990001">
        <ele>242.0</ele>
        <time>2012-06-05T10:01:40Z</time>
      </trkpt>
      <trkpt lat="43.281255" lon="-5.989644">
        <ele>242.0</ele>
        <time>2012-06-05T10:01:44Z</time>
      </trkpt>
      <trkpt lat="43.281619" lon="-5.989249">
        <ele>241.0</ele>
        <time>2012-06-05T10:01:48Z</time>
      </trkpt>
      <trkpt lat="43.281849" lon="-5.988875">
        <ele>240.0</ele>
        <time>2012-06-05T10:01:51Z</time>
      </trkpt>
      <trkpt lat="43.282288" lon="-5.988258">
        <ele>239.0</ele>
        <time>2012-06-05T10:01:56Z</time>
      </trkpt>
      <trkpt lat="43.282756" lon="-5.98797">
        <ele>239.0</ele>
        <time>2012-06-05T10:02:00Z</time>
      </trkpt>
      <trkpt lat="43.283193" lon="-5.987713">
        <ele>239.0</ele>
        <time>2012-06-05T10:02:04Z</time>
      </trkpt>
      <trkpt lat="43.283485" lon="-5.987293">
        <ele>240.0</ele>
        <time>2012-06-05T10:02:08Z</time>
      </trkpt>
      <trkpt lat="43.283708" lon="-5.986837">
        <ele>241.0</ele>
        <time>2012-06-05T10:02:12Z</time>
      </trkpt>
      <trkpt lat="43.283924" lon="-5.986428">
        <ele>242.0</ele>
        <time>2012-06-05T10:02:16Z</time>
      </trkpt>
      <trkpt lat="43.284132" lon="-5.986092">
        <ele>244.0</ele>
        <time>2012-06-05T10:02:20Z</time>
      </trkpt>
      <trkpt lat="43.284349" lon="-5.985756">
        <ele>245.0</ele>
        <time>2012-06-05T10:02:24Z</time>
      </trkpt>
      <trkpt lat="43.28454" lon="-5.985392">
        <ele>245.0</ele>
        <time>2012-06-05T10:02:28Z</time>
      </trkpt>
      <trkpt lat="43.284756" lon="-5.985034">
        <ele>245.0</ele>
        <time>2012-06-05T10:02:32Z</time>
      </trkpt>
      <trkpt lat="43.285035" lon="-5.984742">
        <ele>245.0</ele>
        <time>2012-06-05T10:02:36Z</time>
      </trkpt>
      <trkpt lat="43.285298" lon="-5.984436">
        <ele>245.0</ele>
        <time>2012-06-05T10:02:40Z</time>
      </trkpt>
      <trkpt lat="43.285564" lon="-5.984119">
        <ele>243.0</ele>
        <time>2012-06-05T10:02:44Z</time>
      </trkpt>
      <trkpt lat="43.285883" lon="-5.983883">
        <ele>242.0</ele>
        <time>2012-06-05T10:02:48Z</time>
      </trkpt>
      <trkpt lat="43.286127" lon="-5.983736">
        <ele>241.0</ele>
        <time>2012-06-05T10:02:51Z</time>
      </trkpt>
      <trkpt lat="43.286571" lon="-5.983639">
        <ele>241.0</ele>
        <time>2012-06-05T10:02:56Z</time>
      </trkpt>
      <trkpt lat="43.286943" lon="-5.983636">
        <ele>241.0</ele>
        <time>2012-06-05T10:03:00Z</time>
      </trkpt>
      <trkpt lat="43.287302" lon="-5.983612">
        <ele>241.0</ele>
        <time>2012-06-05T10:03:04Z</time>
      </trkpt>
      <trkpt lat="43.287479" lon="-5.98358">
        <ele>241.0</ele>
        <time>2012-06-05T10:03:06Z</time>
      </trkpt>
      <trkpt lat="43.287977" lon="-5.983404">
        <ele>243.0</ele>
        <time>2012-06-05T10:03:12Z</time>
      </trkpt>
      <trkpt lat="43.288291" lon="-5.983273">
        <ele>242.0</ele>
        <time>2012-06-05T10:03:16Z</time>
      </trkpt>
      <trkpt lat="43.288437" lon="-5.983212">
        <ele>242.0</ele>
        <time>2012-06-05T10:03:18Z</time>
      </trkpt>
      <trkpt lat="43.288873" lon="-5.983033">
        <ele>238.0</ele>
        <time>2012-06-05T10:03:24Z</time>
      </trkpt>
      <trkpt lat="43.289175" lon="-5.982909">
        <ele>234.0</ele>
        <time>2012-06-05T10:03:28Z</time>
      </trkpt>
      <trkpt lat="43.289475" lon="-5.982804">
        <ele>232.0</ele>
        <time>2012-06-05T10:03:32Z</time>
      </trkpt>
      <trkpt lat="43.289764" lon="-5.982686">
        <ele>231.0</ele>
        <time>2012-06-05T10:03:36Z</time>
      </trkpt>
      <trkpt lat="43.290056" lon="-5.982587">
        <ele>231.0</ele>
        <time>2012-06-05T10:03:40Z</time>
      </trkpt>
      <trkpt lat="43.29034" lon="-5.982505">
        <ele>231.0</ele>
        <time>2012-06-05T10:03:44Z</time>
      </trkpt>
      <trkpt lat="43.290621" lon="-5.98244">
        <ele>230.0</ele>
        <time>2012-06-05T10:03:48Z</time>
      </trkpt>
      <trkpt lat="43.290915" lon="-5.982411">
        <ele>229.0</ele>
        <time>2012-06-05T10:03:52Z</time>
      </trkpt>
      <trkpt lat="43.291226" lon="-5.982416">
        <ele>228.0</ele>
        <time>2012-06-05T10:03:56Z</time>
      </trkpt>
      <trkpt lat="43.291539" lon="-5.982404">
        <ele>228.0</ele>
        <time>2012-06-05T10:04:00Z</time>
      </trkpt>
      <trkpt lat="43.291772" lon="-5.98235">
        <ele>228.0</ele>
        <time>2012-06-05T10:04:03Z</time>
      </trkpt>
      <trkpt lat="43.292139" lon="-5.982156">
        <ele>228.0</ele>
        <time>2012-06-05T10:04:08Z</time>
      </trkpt>
      <trkpt lat="43.29242" lon="-5.98194">
        <ele>227.0</ele>
        <time>2012-06-05T10:04:12Z</time>
      </trkpt>
      <trkpt lat="43.292734" lon="-5.981808">
        <ele>225.0</ele>
        <time>2012-06-05T10:04:16Z</time>
      </trkpt>
      <trkpt lat="43.29306" lon="-5.981882">
        <ele>224.0</ele>
        <time>2012-06-05T10:04:20Z</time>
      </trkpt>
      <trkpt lat="43.293291" lon="-5.982008">
        <ele>224.0</ele>
        <time>2012-06-05T10:04:23Z</time>
      </trkpt>
      <trkpt lat="43.293635" lon="-5.982323">
        <ele>223.0</ele>
        <time>2012-06-05T10:04:28Z</time>
      </trkpt>
      <trkpt lat="43.293912" lon="-5.982601">
        <ele>223.0</ele>
        <time>2012-06-05T10:04:32Z</time>
      </trkpt>
      <trkpt lat="43.294187" lon="-5.9829">
        <ele>223.0</ele>
        <time>2012-06-05T10:04:36Z</time>
      </trkpt>
      <trkpt lat="43.294455" lon="-5.98321">
        <ele>224.0</ele>
        <time>2012-06-05T10:04:40Z</time>
      </trkpt>
      <trkpt lat="43.294718" lon="-5.983521">
        <ele>225.0</ele>
        <time>2012-06-05T10:04:44Z</time>
      </trkpt>
      <trkpt lat="43.294944" lon="-5.98382">
        <ele>226.0</ele>
        <time>2012-06-05T10:04:48Z</time>
      </trkpt>
      <trkpt lat="43.295116" lon="-5.984039">
        <ele>226.0</ele>
        <time>2012-06-05T10:04:51Z</time>
      </trkpt>
      <trkpt lat="43.295388" lon="-5.984395">
        <ele>227.0</ele>
        <time>2012-06-05T10:04:56Z</time>
      </trkpt>
      <trkpt lat="43.295601" lon="-5.984619">
        <ele>228.0</ele>
        <time>2012-06-05T10:05:00Z</time>
      </trkpt>
      <trkpt lat="43.295828" lon="-5.984769">
        <ele>229.0</ele>
        <time>2012-06-05T10:05:04Z</time>
      </trkpt>
      <trkpt lat="43.296066" lon="-5.984883">
        <ele>229.0</ele>
        <time>2012-06-05T10:05:08Z</time>
      </trkpt>
      <trkpt lat="43.296244" lon="-5.984954">
        <ele>230.0</ele>
        <time>2012-06-05T10:05:11Z</time>
      </trkpt>
      <trkpt lat="43.296467" lon="-5.985049">
        <ele>229.0</ele>
        <time>2012-06-05T10:05:15Z</time>
      </trkpt>
      <trkpt lat="43.296686" lon="-5.985155">
        <ele>229.0</ele>
        <time>2012-06-05T10:05:19Z</time>
      </trkpt>
      <trkpt lat="43.297018" lon="-5.985331">
        <ele>229.0</ele>
        <time>2012-06-05T10:05:25Z</time>
      </trkpt>
      <trkpt lat="43.297322" lon="-5.985576">
        <ele>230.0</ele>
        <time>2012-06-05T10:05:31Z</time>
      </trkpt>
      <trkpt lat="43.297463" lon="-5.985824">
        <ele>230.0</ele>
        <time>2012-06-05T10:05:35Z</time>
      </trkpt>
      <trkpt lat="43.297725" lon="-5.98632">
        <ele>231.0</ele>
        <time>2012-06-05T10:05:43Z</time>
      </trkpt>
      <trkpt lat="43.297857" lon="-5.986576">
        <ele>232.0</ele>
        <time>2012-06-05T10:05:47Z</time>
      </trkpt>
      <trkpt lat="43.297986" lon="-5.986837">
        <ele>232.0</ele>
        <time>2012-06-05T10:05:51Z</time>
      </trkpt>
      <trkpt lat="43.298042" lon="-5.986973">
        <ele>232.0</ele>
        <time>2012-06-05T10:05:53Z</time>
      </trkpt>
      <trkpt lat="43.298165" lon="-5.987423">
        <ele>232.0</ele>
        <time>2012-06-05T10:05:59Z</time>
      </trkpt>
      <trkpt lat="43.298252" lon="-5.98785">
        <ele>232.0</ele>
        <time>2012-06-05T10:06:04Z</time>
      </trkpt>
      <trkpt lat="43.298303" lon="-5.988106">
        <ele>232.0</ele>
        <time>2012-06-05T10:06:07Z</time>
      </trkpt>
      <trkpt lat="43.298303" lon="-5.988106">
        <time>2012-06-05T10:06:19Z</time>
      </trkpt>
    </trkseg>
    <trkseg>
      <trkpt lat="43.298303" lon="-5.988106">
        <time>2012-06-05T10:06:21Z</time>
      </trkpt>
      <trkpt lat="43.299473" lon="-5.988495">
        <ele>231.0</ele>
        <time>2012-06-05T10:06:23Z</time>
      </trkpt>
      <trkpt lat="43.299708" lon="-5.988534">
        <ele>231.0</ele>
        <time>2012-06-05T10:06:26Z</time>
      </trkpt>
      <trkpt lat="43.300117" lon="-5.988544">
        <ele>230.0</ele>
        <time>2012-06-05T10:06:31Z</time>
      </trkpt>
      <trkpt lat="43.300435" lon="-5.988501">
        <ele>232.0</ele>
        <time>2012-06-05T10:06:35Z</time>
      </trkpt>
      <trkpt lat="43.300756" lon="-5.988441">
        <ele>233.0</ele>
        <time>2012-06-05T10:06:39Z</time>
      </trkpt>
      <trkpt lat="43.301069" lon="-5.98831">
        <ele>232.0</ele>
        <time>2012-06-05T10:06:43Z</time>
      </trkpt>
      <trkpt lat="43.301221" lon="-5.988208">
        <ele>231.0</ele>
        <time>2012-06-05T10:06:45Z</time>
      </trkpt>
      <trkpt lat="43.301637" lon="-5.987764">
        <ele>229.0</ele>
        <time>2012-06-05T10:06:51Z</time>
      </trkpt>
      <trkpt lat="43.301847" lon="-5.98748">
        <ele>228.0</ele>
        <time>2012-06-05T10:06:54Z</time>
      </trkpt>
      <trkpt lat="43.302163" lon="-5.986936">
        <ele>227.0</ele>
        <time>2012-06-05T10:06:59Z</time>
      </trkpt>
      <trkpt lat="43.302358" lon="-5.986425">
        <ele>227.0</ele>
        <time>2012-06-05T10:07:03Z</time>
      </trkpt>
      <trkpt lat="43.302568" lon="-5.985924">
        <ele>227.0</ele>
        <time>2012-06-05T10:07:07Z</time>
      </trkpt>
      <trkpt lat="43.302811" lon="-5.985507">
        <ele>226.0</ele>
        <time>2012-06-05T10:07:11Z</time>
      </trkpt>
      <trkpt lat="43.302947" lon="-5.985309">
        <ele>226.0</ele>
        <time>2012-06-05T10:07:13Z</time>
      </trkpt>
      <trkpt lat="43.303374" lon="-5.984726">
        <ele>225.0</ele>
        <time>2012-06-05T10:07:19Z</time>
      </trkpt>
      <trkpt lat="43.303659" lon="-5.984362">
        <ele>225.0</ele>
        <time>2012-06-05T10:07:23Z</time>
      </trkpt>
      <trkpt lat="43.303972" lon="-5.984038">
        <ele>225.0</ele>
        <time>2012-06-05T10:07:27Z</time>
      </trkpt>
      <trkpt lat="43.304316" lon="-5.983762">
        <ele>225.0</ele>
        <time>2012-06-05T10:07:31Z</time>
      </trkpt>
      <trkpt lat="43.304729" lon="-5.983655">
        <ele>225.0</ele>
        <time>2012-06-05T10:07:35Z</time>
      </trkpt>
      <trkpt lat="43.305159" lon="-5.983628">
        <ele>225.0</ele>
        <time>2012-06-05T10:07:39Z</time>
      </trkpt>
      <trkpt lat="43.30556" lon="-5.983822">
        <ele>226.0</ele>
        <time>2012-06-05T10:07:43Z</time>
      </trkpt>
      <trkpt lat="43.305741" lon="-5.983981">
        <ele>226.0</ele>
        <time>2012-06-05T10:07:45Z</time>
      </trkpt>
      <trkpt lat="43.306154" lon="-5.984664">
        <ele>228.0</ele>
        <time>2012-06-05T10:07:51Z</time>
      </trkpt>
      <trkpt lat="43.306264" lon="-5.985228">
        <ele>227.0</ele>
        <time>2012-06-05T10:07:55Z</time>
      </trkpt>
      <trkpt lat="43.306481" lon="-5.985673">
        <ele>224.0</ele>
        <time>2012-06-05T10:07:59Z</time>
      </trkpt>
      <trkpt lat="43.306749" lon="-5.985872">
        <ele>223.0</ele>
        <time>2012-06-05T10:08:02Z</time>
      </trkpt>
      <trkpt lat="43.307194" lon="-5.986082">
        <ele>224.0</ele>
        <time>2012-06-05T10:08:07Z</time>
      </trkpt>
      <trkpt lat="43.30745" lon="-5.986173">
        <ele>223.0</ele>
        <time>2012-06-05T10:08:10Z</time>
      </trkpt>
      <trkpt lat="43.307893" lon="-5.986303">
        <ele>222.0</ele>
        <time>2012-06-05T10:08:15Z</time>
      </trkpt>
      <trkpt lat="43.308157" lon="-5.986398">
        <ele>222.0</ele>
        <time>2012-06-05T10:08:18Z</time>
      </trkpt>
      <trkpt lat="43.308589" lon="-5.986614">
        <ele>223.0</ele>
        <time>2012-06-05T10:08:23Z</time>
      </trkpt>
      <trkpt lat="43.308926" lon="-5.986791">
        <ele>225.0</ele>
        <time>2012-06-05T10:08:27Z</time>
      </trkpt>
      <trkpt lat="43.309087" lon="-5.986868">
        <ele>225.0</ele>
        <time>2012-06-05T10:08:29Z</time>
      </trkpt>
      <trkpt lat="43.309459" lon="-5.98727">
        <ele>225.0</ele>
        <time>2012-06-05T10:08:35Z</time>
      </trkpt>
      <trkpt lat="43.309698" lon="-5.98751">
        <ele>225.0</ele>
        <time>2012-06-05T10:08:39Z</time>
      </trkpt>
      <trkpt lat="43.309903" lon="-5.987651">
        <ele>225.0</ele>
        <time>2012-06-05T10:08:42Z</time>
      </trkpt>
      <trkpt lat="43.310273" lon="-5.987812">
        <ele>225.0</ele>
        <time>2012-06-05T10:08:47Z</time>
      </trkpt>
      <trkpt lat="43.310579" lon="-5.987896">
        <ele>225.0</ele>
        <time>2012-06-05T10:08:51Z</time>
      </trkpt>
      <trkpt lat="43.310896" lon="-5.987965">
        <ele>222.0</ele>
        <time>2012-06-05T10:08:55Z</time>
      </trkpt>
      <trkpt lat="43.311238" lon="-5.988004">
        <ele>215.0</ele>
        <time>2012-06-05T10:08:59Z</time>
      </trkpt>
      <trkpt lat="43.311601" lon="-5.988101">
        <ele>211.0</ele>
        <time>2012-06-05T10:09:03Z</time>
      </trkpt>
      <trkpt lat="43.311986" lon="-5.988215">
        <ele>211.0</ele>
        <time>2012-06-05T10:09:07Z</time>
      </trkpt>
      <trkpt lat="43.312367" lon="-5.988339">
        <ele>211.0</ele>
        <time>2012-06-05T10:09:11Z</time>
      </trkpt>
      <trkpt lat="43.312743" lon="-5.988484">
        <ele>210.0</ele>
        <time>2012-06-05T10:09:15Z</time>
      </trkpt>
      <trkpt lat="43.313094" lon="-5.988673">
        <ele>210.0</ele>
        <time>2012-06-05T10:09:19Z</time>
      </trkpt>
      <trkpt lat="43.313417" lon="-5.988915">
        <ele>210.0</ele>
        <time>2012-06-05T10:09:23Z</time>
      </trkpt>
      <trkpt lat="43.313688" lon="-5.989266">
        <ele>210.0</ele>
        <time>2012-06-05T10:09:27Z</time>
      </trkpt>
      <trkpt lat="43.313883" lon="-5.989692">
        <ele>211.0</ele>
        <time>2012-06-05T10:09:31Z</time>
      </trkpt>
      <trkpt lat="43.314053" lon="-5.990153">
        <ele>212.0</ele>
        <time>2012-06-05T10:09:35Z</time>
      </trkpt>
      <trkpt lat="43.314235" lon="-5.990582">
        <ele>212.0</ele>
        <time>2012-06-05T10:09:39Z</time>
      </trkpt>
      <trkpt lat="43.314445" lon="-5.990959">
        <ele>211.0</ele>
        <time>2012-06-05T10:09:43Z</time>
      </trkpt>
      <trkpt lat="43.314719" lon="-5.991223">
        <ele>209.0</ele>
        <time>2012-06-05T10:09:47Z</time>
      </trkpt>
      <trkpt lat="43.315013" lon="-5.991437">
        <ele>207.0</ele>
        <time>2012-06-05T10:09:51Z</time>
      </trkpt>
      <trkpt lat="43.315314" lon="-5.991568">
        <ele>204.0</ele>
        <time>2012-06-05T10:09:55Z</time>
      </trkpt>
      <trkpt lat="43.315461" lon="-5.991641">
        <ele>203.0</ele>
        <time>2012-06-05T10:09:57Z</time>
      </trkpt>
      <trkpt lat="43.315757" lon="-5.991763">
        <ele>202.0</ele>
        <time>2012-06-05T10:10:01Z</time>
      </trkpt>
      <trkpt lat="43.316205" lon="-5.991881">
        <ele>203.0</ele>
        <time>2012-06-05T10:10:07Z</time>
      </trkpt>
      <trkpt lat="43.316492" lon="-5.991955">
        <ele>203.0</ele>
        <time>2012-06-05T10:10:11Z</time>
      </trkpt>
      <trkpt lat="43.316787" lon="-5.991965">
        <ele>203.0</ele>
        <time>2012-06-05T10:10:15Z</time>
      </trkpt>
      <trkpt lat="43.317014" lon="-5.991934">
        <ele>203.0</ele>
        <time>2012-06-05T10:10:18Z</time>
      </trkpt>
      <trkpt lat="43.317246" lon="-5.991946">
        <ele>203.0</ele>
        <time>2012-06-05T10:10:21Z</time>
      </trkpt>
      <trkpt lat="43.31772" lon="-5.992013">
        <ele>204.0</ele>
        <time>2012-06-05T10:10:27Z</time>
      </trkpt>
      <trkpt lat="43.318063" lon="-5.992">
        <ele>204.0</ele>
        <time>2012-06-05T10:10:31Z</time>
      </trkpt>
      <trkpt lat="43.318396" lon="-5.992083">
        <ele>205.0</ele>
        <time>2012-06-05T10:10:35Z</time>
      </trkpt>
      <trkpt lat="43.318727" lon="-5.99221">
        <ele>205.0</ele>
        <time>2012-06-05T10:10:39Z</time>
      </trkpt>
      <trkpt lat="43.319064" lon="-5.992312">
        <ele>204.0</ele>
        <time>2012-06-05T10:10:43Z</time>
      </trkpt>
      <trkpt lat="43.319402" lon="-5.992455">
        <ele>203.0</ele>
        <time>2012-06-05T10:10:47Z</time>
      </trkpt>
      <trkpt lat="43.319653" lon="-5.992572">
        <ele>203.0</ele>
        <time>2012-06-05T10:10:50Z</time>
      </trkpt>
      <trkpt lat="43.320046" lon="-5.992798">
        <ele>203.0</ele>
        <time>2012-06-05T10:10:55Z</time>
      </trkpt>
      <trkpt lat="43.32036" lon="-5.992982">
        <ele>204.0</ele>
        <time>2012-06-05T10:10:59Z</time>
      </trkpt>
      <trkpt lat="43.320687" lon="-5.993122">
        <ele>205.0</ele>
        <time>2012-06-05T10:11:03Z</time>
      </trkpt>
      <trkpt lat="43.320948" lon="-5.99315">
        <ele>205.0</ele>
        <time>2012-06-05T10:11:06Z</time>
      </trkpt>
      <trkpt lat="43.321377" lon="-5.993073">
        <ele>206.0</ele>
        <time>2012-06-05T10:11:11Z</time>
      </trkpt>
      <trkpt lat="43.321726" lon="-5.99302">
        <ele>205.0</ele>
        <time>2012-06-05T10:11:15Z</time>
      </trkpt>
      <trkpt lat="43.322075" lon="-5.99299">
        <ele>205.0</ele>
        <time>2012-06-05T10:11:19Z</time>
      </trkpt>
      <trkpt lat="43.322418" lon="-5.992958">
        <ele>205.0</ele>
        <time>2012-06-05T10:11:23Z</time>
      </trkpt>
      <trkpt lat="43.322674" lon="-5.992933">
        <ele>205.0</ele>
        <time>2012-06-05T10:11:26Z</time>
      </trkpt>
      <trkpt lat="43.323102" lon="-5.992943">
        <ele>205.0</ele>
        <time>2012-06-05T10:11:31Z</time>
      </trkpt>
      <trkpt lat="43.323441" lon="-5.992962">
        <ele>206.0</ele>
        <time>2012-06-05T10:11:35Z</time>
      </trkpt>
      <trkpt lat="43.323781" lon="-5.992969">
        <ele>206.0</ele>
        <time>2012-06-05T10:11:39Z</time>
      </trkpt>
      <trkpt lat="43.324092" lon="-5.992819">
        <ele>206.0</ele>
        <time>2012-06-05T10:11:43Z</time>
      </trkpt>
      <trkpt lat="43.324371" lon="-5.992646">
        <ele>206.0</ele>
        <time>2012-06-05T10:11:47Z</time>
      </trkpt>
      <trkpt lat="43.324564" lon="-5.992502">
        <ele>205.0</ele>
        <time>2012-06-05T10:11:50Z</time>
      </trkpt>
      <trkpt lat="43.324881" lon="-5.992238">
        <ele>205.0</ele>
        <time>2012-06-05T10:11:55Z</time>
      </trkpt>
      <trkpt lat="43.325138" lon="-5.992029">
        <ele>205.0</ele>
        <time>2012-06-05T10:11:59Z</time>
      </trkpt>
      <trkpt lat="43.325403" lon="-5.991816">
        <ele>205.0</ele>
        <time>2012-06-05T10:12:03Z</time>
      </trkpt>
      <trkpt lat="43.325658" lon="-5.991612">
        <ele>206.0</ele>
        <time>2012-06-05T10:12:07Z</time>
      </trkpt>
      <trkpt lat="43.3259" lon="-5.99139">
        <ele>206.0</ele>
        <time>2012-06-05T10:12:11Z</time>
      </trkpt>
      <trkpt lat="43.326143" lon="-5.991149">
        <ele>204.0</ele>
        <time>2012-06-05T10:12:15Z</time>
      </trkpt>
      <trkpt lat="43.326384" lon="-5.990889">
        <ele>201.0</ele>
        <time>2012-06-05T10:12:19Z</time>
      </trkpt>
      <trkpt lat="43.326621" lon="-5.990624">
        <ele>198.0</ele>
        <time>2012-06-05T10:12:23Z</time>
      </trkpt>
      <trkpt lat="43.32685" lon="-5.990344">
        <ele>196.0</ele>
        <time>2012-06-05T10:12:27Z</time>
      </trkpt>
      <trkpt lat="43.327082" lon="-5.990073">
        <ele>195.0</ele>
        <time>2012-06-05T10:12:31Z</time>
      </trkpt>
      <trkpt lat="43.327306" lon="-5.989802">
        <ele>195.0</ele>
        <time>2012-06-05T10:12:35Z</time>
      </trkpt>
      <trkpt lat="43.327546" lon="-5.989536">
        <ele>195.0</ele>
        <time>2012-06-05T10:12:39Z</time>
      </trkpt>
      <trkpt lat="43.327799" lon="-5.989286">
        <ele>194.0</ele>
        <time>2012-06-05T10:12:43Z</time>
      </trkpt>
      <trkpt lat="43.328055" lon="-5.98903">
        <ele>193.0</ele>
        <time>2012-06-05T10:12:47Z</time>
      </trkpt>
      <trkpt lat="43.328308" lon="-5.988756">
        <ele>193.0</ele>
        <time>2012-06-05T10:12:51Z</time>
      </trkpt>
      <trkpt lat="43.328568" lon="-5.988474">
        <ele>194.0</ele>
        <time>2012-06-05T10:12:55Z</time>
      </trkpt>
      <trkpt lat="43.328842" lon="-5.988219">
        <ele>195.0</ele>
        <time>2012-06-05T10:12:59Z</time>
      </trkpt>
      <trkpt lat="43.329147" lon="-5.9881">
        <ele>196.0</ele>
        <time>2012-06-05T10:13:03Z</time>
      </trkpt>
      <trkpt lat="43.329444" lon="-5.98808">
        <ele>195.0</ele>
        <time>2012-06-05T10:13:07Z</time>
      </trkpt>
      <trkpt lat="43.329585" lon="-5.988086">
        <ele>195.0</ele>
        <time>2012-06-05T10:13:09Z</time>
      </trkpt>
      <trkpt lat="43.329939" lon="-5.988085">
        <ele>194.0</ele>
        <time>2012-06-05T10:13:14Z</time>
      </trkpt>
      <trkpt lat="43.330285" lon="-5.988086">
        <ele>193.0</ele>
        <time>2012-06-05T10:13:19Z</time>
      </trkpt>
      <trkpt lat="43.330497" lon="-5.988099">
        <ele>192.0</ele>
        <time>2012-06-05T10:13:22Z</time>
      </trkpt>
      <trkpt lat="43.330853" lon="-5.988166">
        <ele>191.0</ele>
        <time>2012-06-05T10:13:27Z</time>
      </trkpt>
      <trkpt lat="43.33116" lon="-5.988221">
        <ele>191.0</ele>
        <time>2012-06-05T10:13:31Z</time>
      </trkpt>
      <trkpt lat="43.331476" lon="-5.988278">
        <ele>191.0</ele>
        <time>2012-06-05T10:13:35Z</time>
      </trkpt>
      <trkpt lat="43.331782" lon="-5.988359">
        <ele>192.0</ele>
        <time>2012-06-05T10:13:39Z</time>
      </trkpt>
      <trkpt lat="43.332094" lon="-5.988451">
        <ele>193.0</ele>
        <time>2012-06-05T10:13:43Z</time>
      </trkpt>
      <trkpt lat="43.332405" lon="-5.988547">
        <ele>194.0</ele>
        <time>2012-06-05T10:13:47Z</time>
      </trkpt>
      <trkpt lat="43.332714" lon="-5.988628">
        <ele>193.0</ele>
        <time>2012-06-05T10:13:51Z</time>
      </trkpt>
      <trkpt lat="43.333027" lon="-5.988683">
        <ele>192.0</ele>
        <time>2012-06-05T10:13:55Z</time>
      </trkpt>
      <trkpt lat="43.333345" lon="-5.988707">
        <ele>191.0</ele>
        <time>2012-06-05T10:13:59Z</time>
      </trkpt>
      <trkpt lat="43.333668" lon="-5.988678">
        <ele>190.0</ele>
        <time>2012-06-05T10:14:03Z</time>
      </trkpt>
      <trkpt lat="43.334002" lon="-5.988527">
        <ele>191.0</ele>
        <time>2012-06-05T10:14:07Z</time>
      </trkpt>
      <trkpt lat="43.334317" lon="-5.987776">
        <ele>191.0</ele>
        <time>2012-06-05T10:14:11Z</time>
      </trkpt>
      <trkpt lat="43.334609" lon="-5.987313">
        <ele>192.0</ele>
        <time>2012-06-05T10:14:15Z</time>
      </trkpt>
      <trkpt lat="43.334829" lon="-5.987119">
        <ele>192.0</ele>
        <time>2012-06-05T10:14:18Z</time>
      </trkpt>
      <trkpt lat="43.335211" lon="-5.986836">
        <ele>191.0</ele>
        <time>2012-06-05T10:14:23Z</time>
      </trkpt>
      <trkpt lat="43.335525" lon="-5.986653">
        <ele>190.0</ele>
        <time>2012-06-05T10:14:27Z</time>
      </trkpt>
      <trkpt lat="43.335853" lon="-5.986629">
        <ele>190.0</ele>
        <time>2012-06-05T10:14:31Z</time>
      </trkpt>
      <trkpt lat="43.33618" lon="-5.986585">
        <ele>189.0</ele>
        <time>2012-06-05T10:14:35Z</time>
      </trkpt>
      <trkpt lat="43.336335" lon="-5.986485">
        <ele>189.0</ele>
        <time>2012-06-05T10:14:37Z</time>
      </trkpt>
      <trkpt lat="43.336738" lon="-5.986096">
        <ele>188.0</ele>
        <time>2012-06-05T10:14:43Z</time>
      </trkpt>
      <trkpt lat="43.337002" lon="-5.985852">
        <ele>187.0</ele>
        <time>2012-06-05T10:14:47Z</time>
      </trkpt>
      <trkpt lat="43.337296" lon="-5.985703">
        <ele>187.0</ele>
        <time>2012-06-05T10:14:51Z</time>
      </trkpt>
      <trkpt lat="43.33761" lon="-5.985646">
        <ele>187.0</ele>
        <time>2012-06-05T10:14:55Z</time>
      </trkpt>
      <trkpt lat="43.337913" lon="-5.985719">
        <ele>187.0</ele>
        <time>2012-06-05T10:14:59Z</time>
      </trkpt>
      <trkpt lat="43.338134" lon="-5.985752">
        <ele>188.0</ele>
        <time>2012-06-05T10:15:02Z</time>
      </trkpt>
      <trkpt lat="43.33836" lon="-5.985743">
        <ele>188.0</ele>
        <time>2012-06-05T10:15:05Z</time>
      </trkpt>
      <trkpt lat="43.338788" lon="-5.985523">
        <ele>189.0</ele>
        <time>2012-06-05T10:15:11Z</time>
      </trkpt>
      <trkpt lat="43.33904" lon="-5.985297">
        <ele>189.0</ele>
        <time>2012-06-05T10:15:15Z</time>
      </trkpt>
      <trkpt lat="43.339292" lon="-5.985054">
        <ele>190.0</ele>
        <time>2012-06-05T10:15:19Z</time>
      </trkpt>
      <trkpt lat="43.339558" lon="-5.984823">
        <ele>190.0</ele>
        <time>2012-06-05T10:15:23Z</time>
      </trkpt>
      <trkpt lat="43.339837" lon="-5.984623">
        <ele>189.0</ele>
        <time>2012-06-05T10:15:27Z</time>
      </trkpt>
      <trkpt lat="43.340124" lon="-5.984422">
        <ele>189.0</ele>
        <time>2012-06-05T10:15:31Z</time>
      </trkpt>
      <trkpt lat="43.340414" lon="-5.984196">
        <ele>190.0</ele>
        <time>2012-06-05T10:15:35Z</time>
      </trkpt>
      <trkpt lat="43.340628" lon="-5.984003">
        <ele>190.0</ele>
        <time>2012-06-05T10:15:38Z</time>
      </trkpt>
      <trkpt lat="43.340938" lon="-5.983608">
        <ele>191.0</ele>
        <time>2012-06-05T10:15:43Z</time>
      </trkpt>
      <trkpt lat="43.341168" lon="-5.983283">
        <ele>190.0</ele>
        <time>2012-06-05T10:15:47Z</time>
      </trkpt>
      <trkpt lat="43.341416" lon="-5.982992">
        <ele>190.0</ele>
        <time>2012-06-05T10:15:51Z</time>
      </trkpt>
      <trkpt lat="43.341687" lon="-5.982746">
        <ele>191.0</ele>
        <time>2012-06-05T10:15:55Z</time>
      </trkpt>
      <trkpt lat="43.341945" lon="-5.982502">
        <ele>191.0</ele>
        <time>2012-06-05T10:15:59Z</time>
      </trkpt>
      <trkpt lat="43.34218" lon="-5.982207">
        <ele>192.0</ele>
        <time>2012-06-05T10:16:03Z</time>
      </trkpt>
      <trkpt lat="43.34233" lon="-5.981935">
        <ele>192.0</ele>
        <time>2012-06-05T10:16:06Z</time>
      </trkpt>
      <trkpt lat="43.342583" lon="-5.981487">
        <ele>191.0</ele>
        <time>2012-06-05T10:16:11Z</time>
      </trkpt>
      <trkpt lat="43.342759" lon="-5.98111">
        <ele>190.0</ele>
        <time>2012-06-05T10:16:15Z</time>
      </trkpt>
      <trkpt lat="43.342916" lon="-5.980745">
        <ele>187.0</ele>
        <time>2012-06-05T10:16:19Z</time>
      </trkpt>
      <trkpt lat="43.342949" lon="-5.98031">
        <ele>183.0</ele>
        <time>2012-06-05T10:16:23Z</time>
      </trkpt>
      <trkpt lat="43.342996" lon="-5.979883">
        <ele>181.0</ele>
        <time>2012-06-05T10:16:27Z</time>
      </trkpt>
      <trkpt lat="43.343032" lon="-5.979679">
        <ele>180.0</ele>
        <time>2012-06-05T10:16:29Z</time>
      </trkpt>
      <trkpt lat="43.343024" lon="-5.979021">
        <ele>178.0</ele>
        <time>2012-06-05T10:16:35Z</time>
      </trkpt>
      <trkpt lat="43.34298" lon="-5.978556">
        <ele>177.0</ele>
        <time>2012-06-05T10:16:39Z</time>
      </trkpt>
      <trkpt lat="43.342985" lon="-5.978083">
        <ele>176.0</ele>
        <time>2012-06-05T10:16:43Z</time>
      </trkpt>
      <trkpt lat="43.343046" lon="-5.977602">
        <ele>176.0</ele>
        <time>2012-06-05T10:16:47Z</time>
      </trkpt>
      <trkpt lat="43.343176" lon="-5.977176">
        <ele>176.0</ele>
        <time>2012-06-05T10:16:51Z</time>
      </trkpt>
      <trkpt lat="43.34332" lon="-5.976792">
        <ele>176.0</ele>
        <time>2012-06-05T10:16:55Z</time>
      </trkpt>
      <trkpt lat="43.343495" lon="-5.976437">
        <ele>176.0</ele>
        <time>2012-06-05T10:16:59Z</time>
      </trkpt>
      <trkpt lat="43.343654" lon="-5.97607">
        <ele>176.0</ele>
        <time>2012-06-05T10:17:03Z</time>
      </trkpt>
      <trkpt lat="43.343839" lon="-5.975763">
        <ele>176.0</ele>
        <time>2012-06-05T10:17:07Z</time>
      </trkpt>
      <trkpt lat="43.344013" lon="-5.975461">
        <ele>175.0</ele>
        <time>2012-06-05T10:17:11Z</time>
      </trkpt>
      <trkpt lat="43.344151" lon="-5.975115">
        <ele>175.0</ele>
        <time>2012-06-05T10:17:15Z</time>
      </trkpt>
      <trkpt lat="43.344243" lon="-5.97472">
        <ele>174.0</ele>
        <time>2012-06-05T10:17:19Z</time>
      </trkpt>
      <trkpt lat="43.344364" lon="-5.97436">
        <ele>175.0</ele>
        <time>2012-06-05T10:17:23Z</time>
      </trkpt>
      <trkpt lat="43.344519" lon="-5.974029">
        <ele>174.0</ele>
        <time>2012-06-05T10:17:27Z</time>
      </trkpt>
      <trkpt lat="43.344695" lon="-5.973719">
        <ele>173.0</ele>
        <time>2012-06-05T10:17:31Z</time>
      </trkpt>
      <trkpt lat="43.344901" lon="-5.973445">
        <ele>173.0</ele>
        <time>2012-06-05T10:17:35Z</time>
      </trkpt>
      <trkpt lat="43.345075" lon="-5.97326">
        <ele>173.0</ele>
        <time>2012-06-05T10:17:38Z</time>
      </trkpt>
      <trkpt lat="43.345364" lon="-5.972925">
        <ele>173.0</ele>
        <time>2012-06-05T10:17:43Z</time>
      </trkpt>
      <trkpt lat="43.345584" lon="-5.97264">
        <ele>173.0</ele>
        <time>2012-06-05T10:17:47Z</time>
      </trkpt>
      <trkpt lat="43.345803" lon="-5.972355">
        <ele>172.0</ele>
        <time>2012-06-05T10:17:51Z</time>
      </trkpt>
      <trkpt lat="43.346003" lon="-5.972075">
        <ele>171.0</ele>
        <time>2012-06-05T10:17:55Z</time>
      </trkpt>
      <trkpt lat="43.346145" lon="-5.971877">
        <ele>170.0</ele>
        <time>2012-06-05T10:17:58Z</time>
      </trkpt>
      <trkpt lat="43.346415" lon="-5.971572">
        <ele>169.0</ele>
        <time>2012-06-05T10:18:03Z</time>
      </trkpt>
      <trkpt lat="43.346632" lon="-5.97135">
        <ele>168.0</ele>
        <time>2012-06-05T10:18:07Z</time>
      </trkpt>
      <trkpt lat="43.346746" lon="-5.971251">
        <ele>167.0</ele>
        <time>2012-06-05T10:18:09Z</time>
      </trkpt>
      <trkpt lat="43.347131" lon="-5.970944">
        <ele>169.0</ele>
        <time>2012-06-05T10:18:15Z</time>
      </trkpt>
      <trkpt lat="43.347396" lon="-5.970753">
        <ele>170.0</ele>
        <time>2012-06-05T10:18:19Z</time>
      </trkpt>
      <trkpt lat="43.347671" lon="-5.97055">
        <ele>169.0</ele>
        <time>2012-06-05T10:18:23Z</time>
      </trkpt>
      <trkpt lat="43.347974" lon="-5.970361">
        <ele>169.0</ele>
        <time>2012-06-05T10:18:27Z</time>
      </trkpt>
      <trkpt lat="43.348287" lon="-5.970174">
        <ele>169.0</ele>
        <time>2012-06-05T10:18:31Z</time>
      </trkpt>
      <trkpt lat="43.348614" lon="-5.969999">
        <ele>168.0</ele>
        <time>2012-06-05T10:18:35Z</time>
      </trkpt>
      <trkpt lat="43.348959" lon="-5.969827">
        <ele>169.0</ele>
        <time>2012-06-05T10:18:39Z</time>
      </trkpt>
      <trkpt lat="43.349209" lon="-5.969712">
        <ele>170.0</ele>
        <time>2012-06-05T10:18:42Z</time>
      </trkpt>
      <trkpt lat="43.349598" lon="-5.969499">
        <ele>172.0</ele>
        <time>2012-06-05T10:18:47Z</time>
      </trkpt>
      <trkpt lat="43.349906" lon="-5.969343">
        <ele>172.0</ele>
        <time>2012-06-05T10:18:51Z</time>
      </trkpt>
      <trkpt lat="43.350133" lon="-5.969224">
        <ele>172.0</ele>
        <time>2012-06-05T10:18:54Z</time>
      </trkpt>
      <trkpt lat="43.35036" lon="-5.969113">
        <ele>171.0</ele>
        <time>2012-06-05T10:18:57Z</time>
      </trkpt>
      <trkpt lat="43.350729" lon="-5.968773">
        <ele>171.0</ele>
        <time>2012-06-05T10:19:03Z</time>
      </trkpt>
      <trkpt lat="43.350984" lon="-5.968562">
        <ele>170.0</ele>
        <time>2012-06-05T10:19:07Z</time>
      </trkpt>
      <trkpt lat="43.351276" lon="-5.968469">
        <ele>170.0</ele>
        <time>2012-06-05T10:19:11Z</time>
      </trkpt>
      <trkpt lat="43.351346" lon="-5.968444">
        <ele>170.0</ele>
        <time>2012-06-05T10:19:12Z</time>
      </trkpt>
      <trkpt lat="43.351707" lon="-5.968267">
        <ele>169.0</ele>
        <time>2012-06-05T10:19:18Z</time>
      </trkpt>
      <trkpt lat="43.351919" lon="-5.968157">
        <ele>168.0</ele>
        <time>2012-06-05T10:19:22Z</time>
      </trkpt>
      <trkpt lat="43.352128" lon="-5.968065">
        <ele>168.0</ele>
        <time>2012-06-05T10:19:26Z</time>
      </trkpt>
      <trkpt lat="43.352338" lon="-5.967954">
        <ele>167.0</ele>
        <time>2012-06-05T10:19:30Z</time>
      </trkpt>
      <trkpt lat="43.352552" lon="-5.967664">
        <ele>167.0</ele>
        <time>2012-06-05T10:19:35Z</time>
      </trkpt>
      <trkpt lat="43.352738" lon="-5.96739">
        <ele>166.0</ele>
        <time>2012-06-05T10:19:39Z</time>
      </trkpt>
      <trkpt lat="43.353009" lon="-5.967201">
        <ele>165.0</ele>
        <time>2012-06-05T10:19:43Z</time>
      </trkpt>
      <trkpt lat="43.353327" lon="-5.967048">
        <ele>164.0</ele>
        <time>2012-06-05T10:19:47Z</time>
      </trkpt>
      <trkpt lat="43.353655" lon="-5.966864">
        <ele>164.0</ele>
        <time>2012-06-05T10:19:51Z</time>
      </trkpt>
      <trkpt lat="43.353937" lon="-5.966639">
        <ele>163.0</ele>
        <time>2012-06-05T10:19:55Z</time>
      </trkpt>
      <trkpt lat="43.354074" lon="-5.966473">
        <ele>163.0</ele>
        <time>2012-06-05T10:19:59Z</time>
      </trkpt>
      <trkpt lat="43.35396" lon="-5.965843">
        <ele>163.0</ele>
        <time>2012-06-05T10:20:07Z</time>
      </trkpt>
      <trkpt lat="43.353832" lon="-5.965578">
        <ele>162.0</ele>
        <time>2012-06-05T10:20:10Z</time>
      </trkpt>
      <trkpt lat="43.353664" lon="-5.965222">
        <ele>160.0</ele>
        <time>2012-06-05T10:20:14Z</time>
      </trkpt>
      <trkpt lat="43.353455" lon="-5.964766">
        <ele>159.0</ele>
        <time>2012-06-05T10:20:19Z</time>
      </trkpt>
      <trkpt lat="43.353281" lon="-5.964408">
        <ele>158.0</ele>
        <time>2012-06-05T10:20:23Z</time>
      </trkpt>
      <trkpt lat="43.353165" lon="-5.964143">
        <ele>158.0</ele>
        <time>2012-06-05T10:20:26Z</time>
      </trkpt>
      <trkpt lat="43.353093" lon="-5.963807">
        <ele>158.0</ele>
        <time>2012-06-05T10:20:30Z</time>
      </trkpt>
      <trkpt lat="43.353166" lon="-5.963364">
        <ele>158.0</ele>
        <time>2012-06-05T10:20:35Z</time>
      </trkpt>
      <trkpt lat="43.353338" lon="-5.962979">
        <ele>157.0</ele>
        <time>2012-06-05T10:20:39Z</time>
      </trkpt>
      <trkpt lat="43.353536" lon="-5.962603">
        <ele>155.0</ele>
        <time>2012-06-05T10:20:43Z</time>
      </trkpt>
      <trkpt lat="43.353622" lon="-5.962431">
        <ele>155.0</ele>
        <time>2012-06-05T10:20:45Z</time>
      </trkpt>
      <trkpt lat="43.353732" lon="-5.961871">
        <ele>153.0</ele>
        <time>2012-06-05T10:20:51Z</time>
      </trkpt>
      <trkpt lat="43.354004" lon="-5.961793">
        <ele>153.0</ele>
        <time>2012-06-05T10:20:55Z</time>
      </trkpt>
      <trkpt lat="43.354098" lon="-5.961941">
        <ele>153.0</ele>
        <time>2012-06-05T10:20:57Z</time>
      </trkpt>
      <trkpt lat="43.3539" lon="-5.96237">
        <ele>154.0</ele>
        <time>2012-06-05T10:21:03Z</time>
      </trkpt>
      <trkpt lat="43.353655" lon="-5.962548">
        <ele>154.0</ele>
        <time>2012-06-05T10:21:07Z</time>
      </trkpt>
      <trkpt lat="43.353455" lon="-5.962826">
        <ele>154.0</ele>
        <time>2012-06-05T10:21:11Z</time>
      </trkpt>
      <trkpt lat="43.353279" lon="-5.963144">
        <ele>155.0</ele>
        <time>2012-06-05T10:21:15Z</time>
      </trkpt>
      <trkpt lat="43.353133" lon="-5.96346">
        <ele>156.0</ele>
        <time>2012-06-05T10:21:19Z</time>
      </trkpt>
      <trkpt lat="43.353069" lon="-5.963694">
        <ele>157.0</ele>
        <time>2012-06-05T10:21:22Z</time>
      </trkpt>
      <trkpt lat="43.353065" lon="-5.964012">
        <ele>158.0</ele>
        <time>2012-06-05T10:21:26Z</time>
      </trkpt>
      <trkpt lat="43.35317" lon="-5.964351">
        <ele>158.0</ele>
        <time>2012-06-05T10:21:30Z</time>
      </trkpt>
      <trkpt lat="43.353376" lon="-5.964814">
        <ele>158.0</ele>
        <time>2012-06-05T10:21:35Z</time>
      </trkpt>
      <trkpt lat="43.353533" lon="-5.965182">
        <ele>159.0</ele>
        <time>2012-06-05T10:21:39Z</time>
      </trkpt>
      <trkpt lat="43.353695" lon="-5.965533">
        <ele>159.0</ele>
        <time>2012-06-05T10:21:43Z</time>
      </trkpt>
      <trkpt lat="43.353858" lon="-5.965865">
        <ele>158.0</ele>
        <time>2012-06-05T10:21:47Z</time>
      </trkpt>
      <trkpt lat="43.354003" lon="-5.9662">
        <ele>158.0</ele>
        <time>2012-06-05T10:21:51Z</time>
      </trkpt>
      <trkpt lat="43.354099" lon="-5.966328">
        <ele>158.0</ele>
        <time>2012-06-05T10:21:53Z</time>
      </trkpt>
      <trkpt lat="43.354291" lon="-5.966457">
        <ele>158.0</ele>
        <time>2012-06-05T10:21:56Z</time>
      </trkpt>
      <trkpt lat="43.354626" lon="-5.966377">
        <ele>158.0</ele>
        <time>2012-06-05T10:22:02Z</time>
      </trkpt>
      <trkpt lat="43.354838" lon="-5.966346">
        <ele>159.0</ele>
        <time>2012-06-05T10:22:06Z</time>
      </trkpt>
      <trkpt lat="43.355043" lon="-5.966325">
        <ele>159.0</ele>
        <time>2012-06-05T10:22:10Z</time>
      </trkpt>
      <trkpt lat="43.35525" lon="-5.966304">
        <ele>159.0</ele>
        <time>2012-06-05T10:22:14Z</time>
      </trkpt>
      <trkpt lat="43.355459" lon="-5.966285">
        <ele>160.0</ele>
        <time>2012-06-05T10:22:18Z</time>
      </trkpt>
      <trkpt lat="43.355562" lon="-5.966275">
        <ele>160.0</ele>
        <time>2012-06-05T10:22:20Z</time>
      </trkpt>
      <trkpt lat="43.355872" lon="-5.966218">
        <ele>161.0</ele>
        <time>2012-06-05T10:22:26Z</time>
      </trkpt>
      <trkpt lat="43.356084" lon="-5.966177">
        <ele>161.0</ele>
        <time>2012-06-05T10:22:30Z</time>
      </trkpt>
      <trkpt lat="43.356291" lon="-5.96612">
        <ele>162.0</ele>
        <time>2012-06-05T10:22:34Z</time>
      </trkpt>
      <trkpt lat="43.35649" lon="-5.966035">
        <ele>162.0</ele>
        <time>2012-06-05T10:22:38Z</time>
      </trkpt>
      <trkpt lat="43.356681" lon="-5.965939">
        <ele>162.0</ele>
        <time>2012-06-05T10:22:42Z</time>
      </trkpt>
      <trkpt lat="43.356862" lon="-5.965845">
        <ele>162.0</ele>
        <time>2012-06-05T10:22:46Z</time>
      </trkpt>
      <trkpt lat="43.357045" lon="-5.965769">
        <ele>162.0</ele>
        <time>2012-06-05T10:22:50Z</time>
      </trkpt>
      <trkpt lat="43.357227" lon="-5.965693">
        <ele>162.0</ele>
        <time>2012-06-05T10:22:54Z</time>
      </trkpt>
      <trkpt lat="43.357402" lon="-5.965629">
        <ele>162.0</ele>
        <time>2012-06-05T10:22:58Z</time>
      </trkpt>
      <trkpt lat="43.357581" lon="-5.965602">
        <ele>162.0</ele>
        <time>2012-06-05T10:23:02Z</time>
      </trkpt>
      <trkpt lat="43.357772" lon="-5.965608">
        <ele>163.0</ele>
        <time>2012-06-05T10:23:06Z</time>
      </trkpt>
      <trkpt lat="43.357974" lon="-5.965609">
        <ele>163.0</ele>
        <time>2012-06-05T10:23:10Z</time>
      </trkpt>
      <trkpt lat="43.358166" lon="-5.9656">
        <ele>164.0</ele>
        <time>2012-06-05T10:23:14Z</time>
      </trkpt>
      <trkpt lat="43.358353" lon="-5.965597">
        <ele>165.0</ele>
        <time>2012-06-05T10:23:18Z</time>
      </trkpt>
      <trkpt lat="43.358546" lon="-5.965593">
        <ele>165.0</ele>
        <time>2012-06-05T10:23:22Z</time>
      </trkpt>
      <trkpt lat="43.358736" lon="-5.965596">
        <ele>165.0</ele>
        <time>2012-06-05T10:23:26Z</time>
      </trkpt>
      <trkpt lat="43.358919" lon="-5.965657">
        <ele>165.0</ele>
        <time>2012-06-05T10:23:30Z</time>
      </trkpt>
      <trkpt lat="43.359074" lon="-5.965795">
        <ele>166.0</ele>
        <time>2012-06-05T10:23:34Z</time>
      </trkpt>
      <trkpt lat="43.359261" lon="-5.966201">
        <ele>169.0</ele>
        <time>2012-06-05T10:23:42Z</time>
      </trkpt>
      <trkpt lat="43.359285" lon="-5.966469">
        <ele>170.0</ele>
        <time>2012-06-05T10:23:46Z</time>
      </trkpt>
      <trkpt lat="43.359279" lon="-5.966609">
        <ele>170.0</ele>
        <time>2012-06-05T10:23:48Z</time>
      </trkpt>
      <trkpt lat="43.35925" lon="-5.96702">
        <ele>172.0</ele>
        <time>2012-06-05T10:23:54Z</time>
      </trkpt>
      <trkpt lat="43.35922" lon="-5.967281">
        <ele>173.0</ele>
        <time>2012-06-05T10:23:58Z</time>
      </trkpt>
      <trkpt lat="43.359189" lon="-5.967535">
        <ele>173.0</ele>
        <time>2012-06-05T10:24:02Z</time>
      </trkpt>
      <trkpt lat="43.359149" lon="-5.967788">
        <ele>173.0</ele>
        <time>2012-06-05T10:24:06Z</time>
      </trkpt>
      <trkpt lat="43.359129" lon="-5.967922">
        <ele>174.0</ele>
        <time>2012-06-05T10:24:08Z</time>
      </trkpt>
      <trkpt lat="43.359087" lon="-5.968322">
        <ele>174.0</ele>
        <time>2012-06-05T10:24:14Z</time>
      </trkpt>
      <trkpt lat="43.35897" lon="-5.968476">
        <ele>174.0</ele>
        <time>2012-06-05T10:24:19Z</time>
      </trkpt>
      <trkpt lat="43.358524" lon="-5.9683">
        <ele>171.0</ele>
        <time>2012-06-05T10:24:23Z</time>
      </trkpt>
      <trkpt lat="43.358405" lon="-5.968799">
        <ele>169.0</ele>
        <time>2012-06-05T10:24:27Z</time>
      </trkpt>
      <trkpt lat="43.358924" lon="-5.969426">
        <ele>170.0</ele>
        <time>2012-06-05T10:24:31Z</time>
      </trkpt>
      <trkpt lat="43.359152" lon="-5.969902">
        <ele>172.0</ele>
        <time>2012-06-05T10:24:35Z</time>
      </trkpt>
      <trkpt lat="43.359292" lon="-5.970262">
        <ele>173.0</ele>
        <time>2012-06-05T10:24:39Z</time>
      </trkpt>
      <trkpt lat="43.359396" lon="-5.970613">
        <ele>175.0</ele>
        <time>2012-06-05T10:24:43Z</time>
      </trkpt>
      <trkpt lat="43.359477" lon="-5.970982">
        <ele>177.0</ele>
        <time>2012-06-05T10:24:47Z</time>
      </trkpt>
      <trkpt lat="43.359551" lon="-5.971332">
        <ele>179.0</ele>
        <time>2012-06-05T10:24:51Z</time>
      </trkpt>
      <trkpt lat="43.359591" lon="-5.9716">
        <ele>180.0</ele>
        <time>2012-06-05T10:24:54Z</time>
      </trkpt>
      <trkpt lat="43.359614" lon="-5.971862">
        <ele>181.0</ele>
        <time>2012-06-05T10:24:57Z</time>
      </trkpt>
      <trkpt lat="43.359621" lon="-5.972376">
        <ele>183.0</ele>
        <time>2012-06-05T10:25:03Z</time>
      </trkpt>
      <trkpt lat="43.359632" lon="-5.972735">
        <ele>186.0</ele>
        <time>2012-06-05T10:25:07Z</time>
      </trkpt>
      <trkpt lat="43.35962" lon="-5.973111">
        <ele>188.0</ele>
        <time>2012-06-05T10:25:11Z</time>
      </trkpt>
      <trkpt lat="43.359599" lon="-5.973481">
        <ele>188.0</ele>
        <time>2012-06-05T10:25:15Z</time>
      </trkpt>
      <trkpt lat="43.359626" lon="-5.973656">
        <ele>189.0</ele>
        <time>2012-06-05T10:25:17Z</time>
      </trkpt>
      <trkpt lat="43.359689" lon="-5.974059">
        <ele>189.0</ele>
        <time>2012-06-05T10:25:22Z</time>
      </trkpt>
      <trkpt lat="43.359673" lon="-5.974491">
        <ele>192.0</ele>
        <time>2012-06-05T10:25:27Z</time>
      </trkpt>
      <trkpt lat="43.359724" lon="-5.974852">
        <ele>193.0</ele>
        <time>2012-06-05T10:25:31Z</time>
      </trkpt>
      <trkpt lat="43.359757" lon="-5.975217">
        <ele>194.0</ele>
        <time>2012-06-05T10:25:35Z</time>
      </trkpt>
      <trkpt lat="43.359913" lon="-5.975536">
        <ele>196.0</ele>
        <time>2012-06-05T10:25:39Z</time>
      </trkpt>
      <trkpt lat="43.360063" lon="-5.975848">
        <ele>196.0</ele>
        <time>2012-06-05T10:25:43Z</time>
      </trkpt>
      <trkpt lat="43.360143" lon="-5.976192">
        <ele>196.0</ele>
        <time>2012-06-05T10:25:47Z</time>
      </trkpt>
      <trkpt lat="43.360262" lon="-5.97652">
        <ele>197.0</ele>
        <time>2012-06-05T10:25:51Z</time>
      </trkpt>
      <trkpt lat="43.360418" lon="-5.976811">
        <ele>197.0</ele>
        <time>2012-06-05T10:25:55Z</time>
      </trkpt>
      <trkpt lat="43.360622" lon="-5.977048">
        <ele>197.0</ele>
        <time>2012-06-05T10:25:59Z</time>
      </trkpt>
      <trkpt lat="43.360764" lon="-5.977231">
        <ele>197.0</ele>
        <time>2012-06-05T10:26:02Z</time>
      </trkpt>
      <trkpt lat="43.360914" lon="-5.977477">
        <ele>197.0</ele>
        <time>2012-06-05T10:26:06Z</time>
      </trkpt>
      <trkpt lat="43.361231" lon="-5.977946">
        <ele>199.0</ele>
        <time>2012-06-05T10:26:14Z</time>
      </trkpt>
      <trkpt lat="43.361321" lon="-5.978051">
        <ele>199.0</ele>
        <time>2012-06-05T10:26:16Z</time>
      </trkpt>
      <trkpt lat="43.361575" lon="-5.978358">
        <ele>201.0</ele>
        <time>2012-06-05T10:26:22Z</time>
      </trkpt>
      <trkpt lat="43.361734" lon="-5.978559">
        <ele>203.0</ele>
        <time>2012-06-05T10:26:26Z</time>
      </trkpt>
      <trkpt lat="43.361809" lon="-5.978666">
        <ele>203.0</ele>
        <time>2012-06-05T10:26:28Z</time>
      </trkpt>
      <trkpt lat="43.362046" lon="-5.978985">
        <ele>205.0</ele>
        <time>2012-06-05T10:26:34Z</time>
      </trkpt>
      <trkpt lat="43.362211" lon="-5.979192">
        <ele>205.0</ele>
        <time>2012-06-05T10:26:38Z</time>
      </trkpt>
      <trkpt lat="43.362392" lon="-5.979374">
        <ele>206.0</ele>
        <time>2012-06-05T10:26:42Z</time>
      </trkpt>
      <trkpt lat="43.362572" lon="-5.97954">
        <ele>206.0</ele>
        <time>2012-06-05T10:26:46Z</time>
      </trkpt>
      <trkpt lat="43.362748" lon="-5.979713">
        <ele>207.0</ele>
        <time>2012-06-05T10:26:50Z</time>
      </trkpt>
      <trkpt lat="43.362908" lon="-5.979857">
        <ele>208.0</ele>
        <time>2012-06-05T10:26:54Z</time>
      </trkpt>
      <trkpt lat="43.363062" lon="-5.979994">
        <ele>210.0</ele>
        <time>2012-06-05T10:26:58Z</time>
      </trkpt>
      <trkpt lat="43.36322" lon="-5.980119">
        <ele>211.0</ele>
        <time>2012-06-05T10:27:02Z</time>
      </trkpt>
      <trkpt lat="43.363378" lon="-5.980238">
        <ele>212.0</ele>
        <time>2012-06-05T10:27:06Z</time>
      </trkpt>
      <trkpt lat="43.363554" lon="-5.980329">
        <ele>213.0</ele>
        <time>2012-06-05T10:27:10Z</time>
      </trkpt>
      <trkpt lat="43.363741" lon="-5.980376">
        <ele>214.0</ele>
        <time>2012-06-05T10:27:14Z</time>
      </trkpt>
      <trkpt lat="43.363927" lon="-5.980403">
        <ele>215.0</ele>
        <time>2012-06-05T10:27:18Z</time>
      </trkpt>
      <trkpt lat="43.364116" lon="-5.980441">
        <ele>216.0</ele>
        <time>2012-06-05T10:27:22Z</time>
      </trkpt>
      <trkpt lat="43.364307" lon="-5.980485">
        <ele>217.0</ele>
        <time>2012-06-05T10:27:26Z</time>
      </trkpt>
      <trkpt lat="43.3644" lon="-5.980509">
        <ele>217.0</ele>
        <time>2012-06-05T10:27:28Z</time>
      </trkpt>
      <trkpt lat="43.364684" lon="-5.980591">
        <ele>219.0</ele>
        <time>2012-06-05T10:27:34Z</time>
      </trkpt>
      <trkpt lat="43.364882" lon="-5.980654">
        <ele>221.0</ele>
        <time>2012-06-05T10:27:38Z</time>
      </trkpt>
      <trkpt lat="43.365047" lon="-5.980802">
        <ele>222.0</ele>
        <time>2012-06-05T10:27:42Z</time>
      </trkpt>
      <trkpt lat="43.365126" lon="-5.981045">
        <ele>223.0</ele>
        <time>2012-06-05T10:27:46Z</time>
      </trkpt>
      <trkpt lat="43.365173" lon="-5.981296">
        <ele>224.0</ele>
        <time>2012-06-05T10:27:50Z</time>
      </trkpt>
      <trkpt lat="43.365218" lon="-5.981577">
        <ele>225.0</ele>
        <time>2012-06-05T10:27:54Z</time>
      </trkpt>
      <trkpt lat="43.365261" lon="-5.98187">
        <ele>225.0</ele>
        <time>2012-06-05T10:27:58Z</time>
      </trkpt>
      <trkpt lat="43.365319" lon="-5.982158">
        <ele>226.0</ele>
        <time>2012-06-05T10:28:02Z</time>
      </trkpt>
      <trkpt lat="43.365365" lon="-5.982299">
        <ele>226.0</ele>
        <time>2012-06-05T10:28:04Z</time>
      </trkpt>
      <trkpt lat="43.365587" lon="-5.982867">
        <ele>229.0</ele>
        <time>2012-06-05T10:28:11Z</time>
      </trkpt>
      <trkpt lat="43.365728" lon="-5.983199">
        <ele>229.0</ele>
        <time>2012-06-05T10:28:15Z</time>
      </trkpt>
      <trkpt lat="43.365878" lon="-5.983519">
        <ele>230.0</ele>
        <time>2012-06-05T10:28:19Z</time>
      </trkpt>
      <trkpt lat="43.366012" lon="-5.98385">
        <ele>230.0</ele>
        <time>2012-06-05T10:28:23Z</time>
      </trkpt>
      <trkpt lat="43.366128" lon="-5.984195">
        <ele>227.0</ele>
        <time>2012-06-05T10:28:27Z</time>
      </trkpt>
      <trkpt lat="43.366193" lon="-5.98455">
        <ele>225.0</ele>
        <time>2012-06-05T10:28:31Z</time>
      </trkpt>
      <trkpt lat="43.366235" lon="-5.984731">
        <ele>225.0</ele>
        <time>2012-06-05T10:28:33Z</time>
      </trkpt>
      <trkpt lat="43.36632" lon="-5.985269">
        <ele>222.0</ele>
        <time>2012-06-05T10:28:39Z</time>
      </trkpt>
      <trkpt lat="43.366333" lon="-5.98564">
        <ele>223.0</ele>
        <time>2012-06-05T10:28:43Z</time>
      </trkpt>
      <trkpt lat="43.366324" lon="-5.985979">
        <ele>225.0</ele>
        <time>2012-06-05T10:28:47Z</time>
      </trkpt>
      <trkpt lat="43.366313" lon="-5.986129">
        <ele>225.0</ele>
        <time>2012-06-05T10:28:49Z</time>
      </trkpt>
      <trkpt lat="43.366134" lon="-5.986598">
        <ele>227.0</ele>
        <time>2012-06-05T10:28:55Z</time>
      </trkpt>
      <trkpt lat="43.366051" lon="-5.986739">
        <ele>227.0</ele>
        <time>2012-06-05T10:28:57Z</time>
      </trkpt>
      <trkpt lat="43.365693" lon="-5.987035">
        <ele>229.0</ele>
        <time>2012-06-05T10:29:03Z</time>
      </trkpt>
      <trkpt lat="43.365424" lon="-5.987204">
        <ele>231.0</ele>
        <time>2012-06-05T10:29:07Z</time>
      </trkpt>
      <trkpt lat="43.365155" lon="-5.987384">
        <ele>232.0</ele>
        <time>2012-06-05T10:29:11Z</time>
      </trkpt>
      <trkpt lat="43.365009" lon="-5.9876">
        <ele>232.0</ele>
        <time>2012-06-05T10:29:14Z</time>
      </trkpt>
      <trkpt lat="43.364916" lon="-5.988071">
        <ele>233.0</ele>
        <time>2012-06-05T10:29:19Z</time>
      </trkpt>
      <trkpt lat="43.364953" lon="-5.988454">
        <ele>233.0</ele>
        <time>2012-06-05T10:29:23Z</time>
      </trkpt>
      <trkpt lat="43.365014" lon="-5.988821">
        <ele>234.0</ele>
        <time>2012-06-05T10:29:27Z</time>
      </trkpt>
      <trkpt lat="43.365089" lon="-5.989188">
        <ele>234.0</ele>
        <time>2012-06-05T10:29:31Z</time>
      </trkpt>
      <trkpt lat="43.365149" lon="-5.98955">
        <ele>235.0</ele>
        <time>2012-06-05T10:29:35Z</time>
      </trkpt>
      <trkpt lat="43.365204" lon="-5.989914">
        <ele>235.0</ele>
        <time>2012-06-05T10:29:39Z</time>
      </trkpt>
      <trkpt lat="43.365248" lon="-5.990194">
        <ele>235.0</ele>
        <time>2012-06-05T10:29:42Z</time>
      </trkpt>
      <trkpt lat="43.365379" lon="-5.99064">
        <ele>236.0</ele>
        <time>2012-06-05T10:29:47Z</time>
      </trkpt>
      <trkpt lat="43.365536" lon="-5.990954">
        <ele>237.0</ele>
        <time>2012-06-05T10:29:51Z</time>
      </trkpt>
      <trkpt lat="43.365699" lon="-5.991255">
        <ele>238.0</ele>
        <time>2012-06-05T10:29:55Z</time>
      </trkpt>
      <trkpt lat="43.365857" lon="-5.991571">
        <ele>239.0</ele>
        <time>2012-06-05T10:29:59Z</time>
      </trkpt>
      <trkpt lat="43.366043" lon="-5.991852">
        <ele>239.0</ele>
        <time>2012-06-05T10:30:03Z</time>
      </trkpt>
      <trkpt lat="43.366293" lon="-5.992082">
        <ele>240.0</ele>
        <time>2012-06-05T10:30:07Z</time>
      </trkpt>
      <trkpt lat="43.366594" lon="-5.992201">
        <ele>240.0</ele>
        <time>2012-06-05T10:30:11Z</time>
      </trkpt>
      <trkpt lat="43.36689" lon="-5.992293">
        <ele>240.0</ele>
        <time>2012-06-05T10:30:15Z</time>
      </trkpt>
      <trkpt lat="43.367152" lon="-5.99246">
        <ele>241.0</ele>
        <time>2012-06-05T10:30:19Z</time>
      </trkpt>
      <trkpt lat="43.367333" lon="-5.992831">
        <ele>242.0</ele>
        <time>2012-06-05T10:30:23Z</time>
      </trkpt>
      <trkpt lat="43.367339" lon="-5.993308">
        <ele>242.0</ele>
        <time>2012-06-05T10:30:27Z</time>
      </trkpt>
      <trkpt lat="43.367243" lon="-5.993835">
        <ele>241.0</ele>
        <time>2012-06-05T10:30:31Z</time>
      </trkpt>
      <trkpt lat="43.36713" lon="-5.994365">
        <ele>241.0</ele>
        <time>2012-06-05T10:30:35Z</time>
      </trkpt>
      <trkpt lat="43.367086" lon="-5.994918">
        <ele>242.0</ele>
        <time>2012-06-05T10:30:39Z</time>
      </trkpt>
      <trkpt lat="43.367214" lon="-5.995137">
        <ele>242.0</ele>
        <time>2012-06-05T10:30:41Z</time>
      </trkpt>
      <trkpt lat="43.367801" lon="-5.994979">
        <ele>241.0</ele>
        <time>2012-06-05T10:30:47Z</time>
      </trkpt>
      <trkpt lat="43.368064" lon="-5.994551">
        <ele>242.0</ele>
        <time>2012-06-05T10:30:51Z</time>
      </trkpt>
      <trkpt lat="43.368424" lon="-5.994403">
        <ele>242.0</ele>
        <time>2012-06-05T10:30:55Z</time>
      </trkpt>
      <trkpt lat="43.368573" lon="-5.994565">
        <ele>243.0</ele>
        <time>2012-06-05T10:30:57Z</time>
      </trkpt>
      <trkpt lat="43.368521" lon="-5.995298">
        <ele>245.0</ele>
        <time>2012-06-05T10:31:03Z</time>
      </trkpt>
      <trkpt lat="43.368396" lon="-5.995813">
        <ele>246.0</ele>
        <time>2012-06-05T10:31:07Z</time>
      </trkpt>
      <trkpt lat="43.368268" lon="-5.996293">
        <ele>245.0</ele>
        <time>2012-06-05T10:31:11Z</time>
      </trkpt>
      <trkpt lat="43.368314" lon="-5.996833">
        <ele>245.0</ele>
        <time>2012-06-05T10:31:15Z</time>
      </trkpt>
      <trkpt lat="43.36845" lon="-5.997036">
        <ele>244.0</ele>
        <time>2012-06-05T10:31:17Z</time>
      </trkpt>
      <trkpt lat="43.368979" lon="-5.99752">
        <ele>243.0</ele>
        <time>2012-06-05T10:31:23Z</time>
      </trkpt>
      <trkpt lat="43.369317" lon="-5.997784">
        <ele>242.0</ele>
        <time>2012-06-05T10:31:27Z</time>
      </trkpt>
      <trkpt lat="43.369489" lon="-5.997911">
        <ele>243.0</ele>
        <time>2012-06-05T10:31:29Z</time>
      </trkpt>
      <trkpt lat="43.370051" lon="-5.99817">
        <ele>244.0</ele>
        <time>2012-06-05T10:31:35Z</time>
      </trkpt>
      <trkpt lat="43.370417" lon="-5.998126">
        <ele>244.0</ele>
        <time>2012-06-05T10:31:39Z</time>
      </trkpt>
      <trkpt lat="43.370776" lon="-5.998058">
        <ele>244.0</ele>
        <time>2012-06-05T10:31:43Z</time>
      </trkpt>
      <trkpt lat="43.37115" lon="-5.997969">
        <ele>243.0</ele>
        <time>2012-06-05T10:31:47Z</time>
      </trkpt>
      <trkpt lat="43.371507" lon="-5.997791">
        <ele>244.0</ele>
        <time>2012-06-05T10:31:51Z</time>
      </trkpt>
      <trkpt lat="43.37181" lon="-5.997491">
        <ele>244.0</ele>
        <time>2012-06-05T10:31:55Z</time>
      </trkpt>
      <trkpt lat="43.372013" lon="-5.997053">
        <ele>243.0</ele>
        <time>2012-06-05T10:31:59Z</time>
      </trkpt>
      <trkpt lat="43.372206" lon="-5.996624">
        <ele>241.0</ele>
        <time>2012-06-05T10:32:03Z</time>
      </trkpt>
      <trkpt lat="43.37245" lon="-5.996481">
        <ele>240.0</ele>
        <time>2012-06-05T10:32:06Z</time>
      </trkpt>
      <trkpt lat="43.37291" lon="-5.99647">
        <ele>238.0</ele>
        <time>2012-06-05T10:32:11Z</time>
      </trkpt>
      <trkpt lat="43.373268" lon="-5.996673">
        <ele>236.0</ele>
        <time>2012-06-05T10:32:15Z</time>
      </trkpt>
      <trkpt lat="43.37352" lon="-5.997091">
        <ele>234.0</ele>
        <time>2012-06-05T10:32:19Z</time>
      </trkpt>
      <trkpt lat="43.373732" lon="-5.997574">
        <ele>233.0</ele>
        <time>2012-06-05T10:32:23Z</time>
      </trkpt>
      <trkpt lat="43.37404" lon="-5.997893">
        <ele>232.0</ele>
        <time>2012-06-05T10:32:27Z</time>
      </trkpt>
      <trkpt lat="43.374407" lon="-5.997994">
        <ele>231.0</ele>
        <time>2012-06-05T10:32:31Z</time>
      </trkpt>
      <trkpt lat="43.374673" lon="-5.997919">
        <ele>230.0</ele>
        <time>2012-06-05T10:32:34Z</time>
      </trkpt>
      <trkpt lat="43.375008" lon="-5.997479">
        <ele>228.0</ele>
        <time>2012-06-05T10:32:39Z</time>
      </trkpt>
      <trkpt lat="43.375334" lon="-5.997264">
        <ele>226.0</ele>
        <time>2012-06-05T10:32:43Z</time>
      </trkpt>
      <trkpt lat="43.375665" lon="-5.997462">
        <ele>225.0</ele>
        <time>2012-06-05T10:32:47Z</time>
      </trkpt>
      <trkpt lat="43.375869" lon="-5.99786">
        <ele>225.0</ele>
        <time>2012-06-05T10:32:51Z</time>
      </trkpt>
      <trkpt lat="43.376153" lon="-5.998229">
        <ele>225.0</ele>
        <time>2012-06-05T10:32:55Z</time>
      </trkpt>
      <trkpt lat="43.376443" lon="-5.998535">
        <ele>226.0</ele>
        <time>2012-06-05T10:32:59Z</time>
      </trkpt>
      <trkpt lat="43.376589" lon="-5.998701">
        <ele>226.0</ele>
        <time>2012-06-05T10:33:03Z</time>
      </trkpt>
      <trkpt lat="43.376792" lon="-5.998915">
        <ele>225.0</ele>
        <time>2012-06-05T10:33:07Z</time>
      </trkpt>
      <trkpt lat="43.377051" lon="-5.999171">
        <ele>224.0</ele>
        <time>2012-06-05T10:33:11Z</time>
      </trkpt>
      <trkpt lat="43.377208" lon="-5.999259">
        <ele>224.0</ele>
        <time>2012-06-05T10:33:13Z</time>
      </trkpt>
      <trkpt lat="43.377797" lon="-5.999216">
        <ele>224.0</ele>
        <time>2012-06-05T10:33:19Z</time>
      </trkpt>
      <trkpt lat="43.378132" lon="-5.998866">
        <ele>223.0</ele>
        <time>2012-06-05T10:33:23Z</time>
      </trkpt>
      <trkpt lat="43.378347" lon="-5.998432">
        <ele>221.0</ele>
        <time>2012-06-05T10:33:27Z</time>
      </trkpt>
      <trkpt lat="43.378543" lon="-5.997986">
        <ele>221.0</ele>
        <time>2012-06-05T10:33:31Z</time>
      </trkpt>
      <trkpt lat="43.37869" lon="-5.997502">
        <ele>222.0</ele>
        <time>2012-06-05T10:33:35Z</time>
      </trkpt>
      <trkpt lat="43.378776" lon="-5.997035">
        <ele>221.0</ele>
        <time>2012-06-05T10:33:39Z</time>
      </trkpt>
      <trkpt lat="43.379041" lon="-5.996938">
        <ele>221.0</ele>
        <time>2012-06-05T10:33:43Z</time>
      </trkpt>
      <trkpt lat="43.379156" lon="-5.997384">
        <ele>219.0</ele>
        <time>2012-06-05T10:33:47Z</time>
      </trkpt>
      <trkpt lat="43.379352" lon="-5.997747">
        <ele>215.0</ele>
        <time>2012-06-05T10:33:51Z</time>
      </trkpt>
      <trkpt lat="43.379672" lon="-5.998037">
        <ele>213.0</ele>
        <time>2012-06-05T10:33:55Z</time>
      </trkpt>
      <trkpt lat="43.379996" lon="-5.998322">
        <ele>212.0</ele>
        <time>2012-06-05T10:33:59Z</time>
      </trkpt>
      <trkpt lat="43.380335" lon="-5.998538">
        <ele>212.0</ele>
        <time>2012-06-05T10:34:03Z</time>
      </trkpt>
      <trkpt lat="43.38072" lon="-5.998598">
        <ele>212.0</ele>
        <time>2012-06-05T10:34:07Z</time>
      </trkpt>
      <trkpt lat="43.381096" lon="-5.998443">
        <ele>210.0</ele>
        <time>2012-06-05T10:34:11Z</time>
      </trkpt>
      <trkpt lat="43.381372" lon="-5.998255">
        <ele>209.0</ele>
        <time>2012-06-05T10:34:14Z</time>
      </trkpt>
      <trkpt lat="43.381854" lon="-5.998307">
        <ele>208.0</ele>
        <time>2012-06-05T10:34:19Z</time>
      </trkpt>
      <trkpt lat="43.382128" lon="-5.998685">
        <ele>208.0</ele>
        <time>2012-06-05T10:34:23Z</time>
      </trkpt>
      <trkpt lat="43.382416" lon="-5.999078">
        <ele>209.0</ele>
        <time>2012-06-05T10:34:27Z</time>
      </trkpt>
      <trkpt lat="43.382787" lon="-5.999321">
        <ele>211.0</ele>
        <time>2012-06-05T10:34:31Z</time>
      </trkpt>
      <trkpt lat="43.382976" lon="-5.999436">
        <ele>211.0</ele>
        <time>2012-06-05T10:34:33Z</time>
      </trkpt>
      <trkpt lat="43.383442" lon="-5.999909">
        <ele>211.0</ele>
        <time>2012-06-05T10:34:39Z</time>
      </trkpt>
      <trkpt lat="43.383748" lon="-6.000194">
        <ele>211.0</ele>
        <time>2012-06-05T10:34:43Z</time>
      </trkpt>
      <trkpt lat="43.384067" lon="-6.000466">
        <ele>209.0</ele>
        <time>2012-06-05T10:34:47Z</time>
      </trkpt>
      <trkpt lat="43.384351" lon="-6.000807">
        <ele>208.0</ele>
        <time>2012-06-05T10:34:51Z</time>
      </trkpt>
      <trkpt lat="43.384659" lon="-6.001137">
        <ele>206.0</ele>
        <time>2012-06-05T10:34:55Z</time>
      </trkpt>
      <trkpt lat="43.384984" lon="-6.001437">
        <ele>205.0</ele>
        <time>2012-06-05T10:34:59Z</time>
      </trkpt>
      <trkpt lat="43.385365" lon="-6.001555">
        <ele>204.0</ele>
        <time>2012-06-05T10:35:03Z</time>
      </trkpt>
      <trkpt lat="43.385763" lon="-6.001404">
        <ele>202.0</ele>
        <time>2012-06-05T10:35:07Z</time>
      </trkpt>
      <trkpt lat="43.386098" lon="-6.00109">
        <ele>199.0</ele>
        <time>2012-06-05T10:35:11Z</time>
      </trkpt>
      <trkpt lat="43.386418" lon="-6.000754">
        <ele>200.0</ele>
        <time>2012-06-05T10:35:15Z</time>
      </trkpt>
      <trkpt lat="43.386774" lon="-6.000634">
        <ele>200.0</ele>
        <time>2012-06-05T10:35:19Z</time>
      </trkpt>
      <trkpt lat="43.387084" lon="-6.000781">
        <ele>197.0</ele>
        <time>2012-06-05T10:35:23Z</time>
      </trkpt>
      <trkpt lat="43.38736" lon="-6.000995">
        <ele>189.0</ele>
        <time>2012-06-05T10:35:27Z</time>
      </trkpt>
      <trkpt lat="43.387626" lon="-6.001212">
        <ele>178.0</ele>
        <time>2012-06-05T10:35:31Z</time>
      </trkpt>
      <trkpt lat="43.387835" lon="-6.001494">
        <ele>168.0</ele>
        <time>2012-06-05T10:35:35Z</time>
      </trkpt>
      <trkpt lat="43.387933" lon="-6.001856">
        <ele>162.0</ele>
        <time>2012-06-05T10:35:39Z</time>
      </trkpt>
      <trkpt lat="43.387975" lon="-6.002224">
        <ele>158.0</ele>
        <time>2012-06-05T10:35:43Z</time>
      </trkpt>
      <trkpt lat="43.388011" lon="-6.002473">
        <ele>156.0</ele>
        <time>2012-06-05T10:35:46Z</time>
      </trkpt>
      <trkpt lat="43.38809" lon="-6.002742">
        <ele>154.0</ele>
        <time>2012-06-05T10:35:50Z</time>
      </trkpt>
      <trkpt lat="43.388192" lon="-6.002972">
        <ele>153.0</ele>
        <time>2012-06-05T10:35:54Z</time>
      </trkpt>
      <trkpt lat="43.388271" lon="-6.003197">
        <ele>153.0</ele>
        <time>2012-06-05T10:35:58Z</time>
      </trkpt>
      <trkpt lat="43.38834" lon="-6.00342">
        <ele>153.0</ele>
        <time>2012-06-05T10:36:02Z</time>
      </trkpt>
      <trkpt lat="43.388392" lon="-6.003654">
        <ele>153.0</ele>
        <time>2012-06-05T10:36:06Z</time>
      </trkpt>
      <trkpt lat="43.388452" lon="-6.003896">
        <ele>153.0</ele>
        <time>2012-06-05T10:36:10Z</time>
      </trkpt>
      <trkpt lat="43.388489" lon="-6.004159">
        <ele>153.0</ele>
        <time>2012-06-05T10:36:14Z</time>
      </trkpt>
      <trkpt lat="43.388493" lon="-6.004432">
        <ele>153.0</ele>
        <time>2012-06-05T10:36:18Z</time>
      </trkpt>
      <trkpt lat="43.388492" lon="-6.004692">
        <ele>153.0</ele>
        <time>2012-06-05T10:36:22Z</time>
      </trkpt>
      <trkpt lat="43.388467" lon="-6.00494">
        <ele>153.0</ele>
        <time>2012-06-05T10:36:26Z</time>
      </trkpt>
      <trkpt lat="43.388391" lon="-6.00515">
        <ele>154.0</ele>
        <time>2012-06-05T10:36:30Z</time>
      </trkpt>
      <trkpt lat="43.388321" lon="-6.005359">
        <ele>155.0</ele>
        <time>2012-06-05T10:36:34Z</time>
      </trkpt>
      <trkpt lat="43.388259" lon="-6.005584">
        <ele>155.0</ele>
        <time>2012-06-05T10:36:38Z</time>
      </trkpt>
      <trkpt lat="43.388312" lon="-6.006201">
        <ele>158.0</ele>
        <time>2012-06-05T10:36:46Z</time>
      </trkpt>
      <trkpt lat="43.388414" lon="-6.006632">
        <ele>158.0</ele>
        <time>2012-06-05T10:36:51Z</time>
      </trkpt>
      <trkpt lat="43.38852" lon="-6.007023">
        <ele>157.0</ele>
        <time>2012-06-05T10:36:55Z</time>
      </trkpt>
      <trkpt lat="43.38863" lon="-6.00746">
        <ele>157.0</ele>
        <time>2012-06-05T10:36:59Z</time>
      </trkpt>
      <trkpt lat="43.38877" lon="-6.00788">
        <ele>157.0</ele>
        <time>2012-06-05T10:37:03Z</time>
      </trkpt>
      <trkpt lat="43.388947" lon="-6.008295">
        <ele>158.0</ele>
        <time>2012-06-05T10:37:07Z</time>
      </trkpt>
      <trkpt lat="43.389129" lon="-6.008716">
        <ele>158.0</ele>
        <time>2012-06-05T10:37:11Z</time>
      </trkpt>
      <trkpt lat="43.389335" lon="-6.009162">
        <ele>158.0</ele>
        <time>2012-06-05T10:37:15Z</time>
      </trkpt>
      <trkpt lat="43.389543" lon="-6.009608">
        <ele>159.0</ele>
        <time>2012-06-05T10:37:19Z</time>
      </trkpt>
      <trkpt lat="43.389744" lon="-6.010061">
        <ele>159.0</ele>
        <time>2012-06-05T10:37:23Z</time>
      </trkpt>
      <trkpt lat="43.389946" lon="-6.010509">
        <ele>160.0</ele>
        <time>2012-06-05T10:37:27Z</time>
      </trkpt>
      <trkpt lat="43.390101" lon="-6.010835">
        <ele>161.0</ele>
        <time>2012-06-05T10:37:30Z</time>
      </trkpt>
      <trkpt lat="43.390363" lon="-6.011321">
        <ele>162.0</ele>
        <time>2012-06-05T10:37:35Z</time>
      </trkpt>
      <trkpt lat="43.390576" lon="-6.011695">
        <ele>160.0</ele>
        <time>2012-06-05T10:37:39Z</time>
      </trkpt>
      <trkpt lat="43.390778" lon="-6.012069">
        <ele>159.0</ele>
        <time>2012-06-05T10:37:43Z</time>
      </trkpt>
      <trkpt lat="43.391055" lon="-6.012339">
        <ele>157.0</ele>
        <time>2012-06-05T10:37:47Z</time>
      </trkpt>
      <trkpt lat="43.39129" lon="-6.01246">
        <ele>156.0</ele>
        <time>2012-06-05T10:37:50Z</time>
      </trkpt>
      <trkpt lat="43.391648" lon="-6.012751">
        <ele>155.0</ele>
        <time>2012-06-05T10:37:55Z</time>
      </trkpt>
      <trkpt lat="43.391907" lon="-6.013058">
        <ele>154.0</ele>
        <time>2012-06-05T10:37:59Z</time>
      </trkpt>
      <trkpt lat="43.392142" lon="-6.013407">
        <ele>153.0</ele>
        <time>2012-06-05T10:38:03Z</time>
      </trkpt>
      <trkpt lat="43.392333" lon="-6.013822">
        <ele>151.0</ele>
        <time>2012-06-05T10:38:07Z</time>
      </trkpt>
      <trkpt lat="43.392484" lon="-6.014329">
        <ele>150.0</ele>
        <time>2012-06-05T10:38:11Z</time>
      </trkpt>
      <trkpt lat="43.392549" lon="-6.014605">
        <ele>150.0</ele>
        <time>2012-06-05T10:38:13Z</time>
      </trkpt>
      <trkpt lat="43.392636" lon="-6.015115">
        <ele>149.0</ele>
        <time>2012-06-05T10:38:17Z</time>
      </trkpt>
      <trkpt lat="43.392708" lon="-6.015886">
        <ele>147.0</ele>
        <time>2012-06-05T10:38:23Z</time>
      </trkpt>
      <trkpt lat="43.392731" lon="-6.0164">
        <ele>148.0</ele>
        <time>2012-06-05T10:38:27Z</time>
      </trkpt>
      <trkpt lat="43.392666" lon="-6.016779">
        <ele>147.0</ele>
        <time>2012-06-05T10:38:30Z</time>
      </trkpt>
      <trkpt lat="43.392599" lon="-6.017276">
        <ele>145.0</ele>
        <time>2012-06-05T10:38:34Z</time>
      </trkpt>
      <trkpt lat="43.392577" lon="-6.017897">
        <ele>144.0</ele>
        <time>2012-06-05T10:38:39Z</time>
      </trkpt>
      <trkpt lat="43.392595" lon="-6.01842">
        <ele>142.0</ele>
        <time>2012-06-05T10:38:43Z</time>
      </trkpt>
      <trkpt lat="43.392801" lon="-6.018896">
        <ele>141.0</ele>
        <time>2012-06-05T10:38:47Z</time>
      </trkpt>
      <trkpt lat="43.393146" lon="-6.019115">
        <ele>140.0</ele>
        <time>2012-06-05T10:38:51Z</time>
      </trkpt>
      <trkpt lat="43.393403" lon="-6.019444">
        <ele>141.0</ele>
        <time>2012-06-05T10:38:55Z</time>
      </trkpt>
      <trkpt lat="43.393567" lon="-6.01984">
        <ele>142.0</ele>
        <time>2012-06-05T10:38:59Z</time>
      </trkpt>
      <trkpt lat="43.393658" lon="-6.02025">
        <ele>142.0</ele>
        <time>2012-06-05T10:39:03Z</time>
      </trkpt>
      <trkpt lat="43.393657" lon="-6.020677">
        <ele>141.0</ele>
        <time>2012-06-05T10:39:07Z</time>
      </trkpt>
      <trkpt lat="43.393589" lon="-6.020875">
        <ele>141.0</ele>
        <time>2012-06-05T10:39:09Z</time>
      </trkpt>
      <trkpt lat="43.393347" lon="-6.021368">
        <ele>138.0</ele>
        <time>2012-06-05T10:39:15Z</time>
      </trkpt>
      <trkpt lat="43.3931" lon="-6.021602">
        <ele>137.0</ele>
        <time>2012-06-05T10:39:19Z</time>
      </trkpt>
      <trkpt lat="43.392948" lon="-6.021934">
        <ele>137.0</ele>
        <time>2012-06-05T10:39:23Z</time>
      </trkpt>
      <trkpt lat="43.392992" lon="-6.022348">
        <ele>137.0</ele>
        <time>2012-06-05T10:39:27Z</time>
      </trkpt>
      <trkpt lat="43.393107" lon="-6.022733">
        <ele>137.0</ele>
        <time>2012-06-05T10:39:31Z</time>
      </trkpt>
      <trkpt lat="43.393208" lon="-6.023013">
        <ele>136.0</ele>
        <time>2012-06-05T10:39:34Z</time>
      </trkpt>
      <trkpt lat="43.393336" lon="-6.023496">
        <ele>135.0</ele>
        <time>2012-06-05T10:39:39Z</time>
      </trkpt>
      <trkpt lat="43.393391" lon="-6.023912">
        <ele>135.0</ele>
        <time>2012-06-05T10:39:43Z</time>
      </trkpt>
      <trkpt lat="43.393406" lon="-6.024221">
        <ele>136.0</ele>
        <time>2012-06-05T10:39:46Z</time>
      </trkpt>
      <trkpt lat="43.393484" lon="-6.024505">
        <ele>137.0</ele>
        <time>2012-06-05T10:39:49Z</time>
      </trkpt>
      <trkpt lat="43.393795" lon="-6.025033">
        <ele>139.0</ele>
        <time>2012-06-05T10:39:55Z</time>
      </trkpt>
      <trkpt lat="43.393912" lon="-6.025199">
        <ele>140.0</ele>
        <time>2012-06-05T10:39:57Z</time>
      </trkpt>
      <trkpt lat="43.394232" lon="-6.025627">
        <ele>141.0</ele>
        <time>2012-06-05T10:40:03Z</time>
      </trkpt>
      <trkpt lat="43.394346" lon="-6.025742">
        <ele>141.0</ele>
        <time>2012-06-05T10:40:05Z</time>
      </trkpt>
      <trkpt lat="43.394744" lon="-6.025958">
        <ele>142.0</ele>
        <time>2012-06-05T10:40:11Z</time>
      </trkpt>
      <trkpt lat="43.395055" lon="-6.025983">
        <ele>143.0</ele>
        <time>2012-06-05T10:40:15Z</time>
      </trkpt>
      <trkpt lat="43.395368" lon="-6.025894">
        <ele>144.0</ele>
        <time>2012-06-05T10:40:19Z</time>
      </trkpt>
      <trkpt lat="43.395685" lon="-6.025876">
        <ele>145.0</ele>
        <time>2012-06-05T10:40:23Z</time>
      </trkpt>
      <trkpt lat="43.395952" lon="-6.02605">
        <ele>146.0</ele>
        <time>2012-06-05T10:40:27Z</time>
      </trkpt>
      <trkpt lat="43.396088" lon="-6.026393">
        <ele>147.0</ele>
        <time>2012-06-05T10:40:31Z</time>
      </trkpt>
      <trkpt lat="43.396133" lon="-6.026582">
        <ele>147.0</ele>
        <time>2012-06-05T10:40:33Z</time>
      </trkpt>
      <trkpt lat="43.396255" lon="-6.027159">
        <ele>143.0</ele>
        <time>2012-06-05T10:40:39Z</time>
      </trkpt>
      <trkpt lat="43.396337" lon="-6.027555">
        <ele>140.0</ele>
        <time>2012-06-05T10:40:43Z</time>
      </trkpt>
      <trkpt lat="43.396414" lon="-6.027974">
        <ele>138.0</ele>
        <time>2012-06-05T10:40:47Z</time>
      </trkpt>
      <trkpt lat="43.396489" lon="-6.028372">
        <ele>137.0</ele>
        <time>2012-06-05T10:40:51Z</time>
      </trkpt>
      <trkpt lat="43.396604" lon="-6.028774">
        <ele>136.0</ele>
        <time>2012-06-05T10:40:55Z</time>
      </trkpt>
      <trkpt lat="43.396775" lon="-6.029162">
        <ele>134.0</ele>
        <time>2012-06-05T10:40:59Z</time>
      </trkpt>
      <trkpt lat="43.396968" lon="-6.029517">
        <ele>133.0</ele>
        <time>2012-06-05T10:41:03Z</time>
      </trkpt>
      <trkpt lat="43.397201" lon="-6.029838">
        <ele>132.0</ele>
        <time>2012-06-05T10:41:07Z</time>
      </trkpt>
      <trkpt lat="43.397479" lon="-6.030081">
        <ele>132.0</ele>
        <time>2012-06-05T10:41:11Z</time>
      </trkpt>
      <trkpt lat="43.397764" lon="-6.030286">
        <ele>132.0</ele>
        <time>2012-06-05T10:41:15Z</time>
      </trkpt>
      <trkpt lat="43.398047" lon="-6.030486">
        <ele>131.0</ele>
        <time>2012-06-05T10:41:19Z</time>
      </trkpt>
      <trkpt lat="43.398265" lon="-6.030624">
        <ele>131.0</ele>
        <time>2012-06-05T10:41:22Z</time>
      </trkpt>
      <trkpt lat="43.398648" lon="-6.030928">
        <ele>131.0</ele>
        <time>2012-06-05T10:41:27Z</time>
      </trkpt>
      <trkpt lat="43.398911" lon="-6.031224">
        <ele>131.0</ele>
        <time>2012-06-05T10:41:31Z</time>
      </trkpt>
      <trkpt lat="43.399031" lon="-6.031377">
        <ele>131.0</ele>
        <time>2012-06-05T10:41:33Z</time>
      </trkpt>
      <trkpt lat="43.39934" lon="-6.03186">
        <ele>132.0</ele>
        <time>2012-06-05T10:41:39Z</time>
      </trkpt>
      <trkpt lat="43.399546" lon="-6.032199">
        <ele>133.0</ele>
        <time>2012-06-05T10:41:43Z</time>
      </trkpt>
      <trkpt lat="43.399769" lon="-6.032531">
        <ele>133.0</ele>
        <time>2012-06-05T10:41:47Z</time>
      </trkpt>
      <trkpt lat="43.400006" lon="-6.032855">
        <ele>132.0</ele>
        <time>2012-06-05T10:41:51Z</time>
      </trkpt>
      <trkpt lat="43.400246" lon="-6.03318">
        <ele>131.0</ele>
        <time>2012-06-05T10:41:55Z</time>
      </trkpt>
      <trkpt lat="43.400487" lon="-6.033511">
        <ele>130.0</ele>
        <time>2012-06-05T10:41:59Z</time>
      </trkpt>
      <trkpt lat="43.400729" lon="-6.033847">
        <ele>129.0</ele>
        <time>2012-06-05T10:42:03Z</time>
      </trkpt>
      <trkpt lat="43.400979" lon="-6.034182">
        <ele>128.0</ele>
        <time>2012-06-05T10:42:07Z</time>
      </trkpt>
      <trkpt lat="43.401161" lon="-6.034458">
        <ele>127.0</ele>
        <time>2012-06-05T10:42:10Z</time>
      </trkpt>
      <trkpt lat="43.401421" lon="-6.035014">
        <ele>126.0</ele>
        <time>2012-06-05T10:42:15Z</time>
      </trkpt>
      <trkpt lat="43.401526" lon="-6.035382">
        <ele>126.0</ele>
        <time>2012-06-05T10:42:18Z</time>
      </trkpt>
      <trkpt lat="43.40161" lon="-6.035752">
        <ele>126.0</ele>
        <time>2012-06-05T10:42:21Z</time>
      </trkpt>
      <trkpt lat="43.401769" lon="-6.036479">
        <ele>127.0</ele>
        <time>2012-06-05T10:42:27Z</time>
      </trkpt>
      <trkpt lat="43.401892" lon="-6.036944">
        <ele>127.0</ele>
        <time>2012-06-05T10:42:31Z</time>
      </trkpt>
      <trkpt lat="43.402062" lon="-6.037394">
        <ele>127.0</ele>
        <time>2012-06-05T10:42:35Z</time>
      </trkpt>
      <trkpt lat="43.402237" lon="-6.037846">
        <ele>129.0</ele>
        <time>2012-06-05T10:42:39Z</time>
      </trkpt>
      <trkpt lat="43.402356" lon="-6.03828">
        <ele>130.0</ele>
        <time>2012-06-05T10:42:43Z</time>
      </trkpt>
      <trkpt lat="43.402503" lon="-6.038704">
        <ele>130.0</ele>
        <time>2012-06-05T10:42:47Z</time>
      </trkpt>
      <trkpt lat="43.402643" lon="-6.039113">
        <ele>130.0</ele>
        <time>2012-06-05T10:42:51Z</time>
      </trkpt>
      <trkpt lat="43.402717" lon="-6.039274">
        <ele>129.0</ele>
        <time>2012-06-05T10:42:54Z</time>
      </trkpt>
      <trkpt lat="43.402647" lon="-6.039223">
        <ele>129.0</ele>
        <time>2012-06-05T10:42:58Z</time>
      </trkpt>
      <trkpt lat="43.40255" lon="-6.039026">
        <ele>128.0</ele>
        <time>2012-06-05T10:43:02Z</time>
      </trkpt>
      <trkpt lat="43.40252" lon="-6.038878">
        <ele>127.0</ele>
        <time>2012-06-05T10:43:04Z</time>
      </trkpt>
      <trkpt lat="43.402398" lon="-6.038297">
        <ele>127.0</ele>
        <time>2012-06-05T10:43:11Z</time>
      </trkpt>
      <trkpt lat="43.402307" lon="-6.038001">
        <ele>128.0</ele>
        <time>2012-06-05T10:43:15Z</time>
      </trkpt>
      <trkpt lat="43.402231" lon="-6.037811">
        <ele>129.0</ele>
        <time>2012-06-05T10:43:19Z</time>
      </trkpt>
      <trkpt lat="43.402157" lon="-6.037636">
        <ele>130.0</ele>
        <time>2012-06-05T10:43:23Z</time>
      </trkpt>
      <trkpt lat="43.402079" lon="-6.03741">
        <ele>131.0</ele>
        <time>2012-06-05T10:43:27Z</time>
      </trkpt>
      <trkpt lat="43.402012" lon="-6.037173">
        <ele>131.0</ele>
        <time>2012-06-05T10:43:31Z</time>
      </trkpt>
      <trkpt lat="43.401943" lon="-6.036931">
        <ele>131.0</ele>
        <time>2012-06-05T10:43:35Z</time>
      </trkpt>
      <trkpt lat="43.401874" lon="-6.036681">
        <ele>132.0</ele>
        <time>2012-06-05T10:43:39Z</time>
      </trkpt>
      <trkpt lat="43.401776" lon="-6.036451">
        <ele>132.0</ele>
        <time>2012-06-05T10:43:43Z</time>
      </trkpt>
      <trkpt lat="43.401727" lon="-6.036328">
        <ele>132.0</ele>
        <time>2012-06-05T10:43:45Z</time>
      </trkpt>
      <trkpt lat="43.401645" lon="-6.035927">
        <ele>133.0</ele>
        <time>2012-06-05T10:43:51Z</time>
      </trkpt>
      <trkpt lat="43.401614" lon="-6.035639">
        <ele>133.0</ele>
        <time>2012-06-05T10:43:55Z</time>
      </trkpt>
      <trkpt lat="43.401591" lon="-6.035493">
        <ele>133.0</ele>
        <time>2012-06-05T10:43:57Z</time>
      </trkpt>
      <trkpt lat="43.401566" lon="-6.035349">
        <ele>133.0</ele>
        <time>2012-06-05T10:43:59Z</time>
      </trkpt>
      <trkpt lat="43.40154" lon="-6.035209">
        <ele>133.0</ele>
        <time>2012-06-05T10:44:01Z</time>
      </trkpt>
      <trkpt lat="43.401473" lon="-6.034935">
        <ele>134.0</ele>
        <time>2012-06-05T10:44:05Z</time>
      </trkpt>
      <trkpt lat="43.401379" lon="-6.034663">
        <ele>134.0</ele>
        <time>2012-06-05T10:44:09Z</time>
      </trkpt>
      <trkpt lat="43.401221" lon="-6.034304">
        <ele>134.0</ele>
        <time>2012-06-05T10:44:15Z</time>
      </trkpt>
      <trkpt lat="43.401171" lon="-6.03419">
        <ele>134.0</ele>
        <time>2012-06-05T10:44:17Z</time>
      </trkpt>
      <trkpt lat="43.401054" lon="-6.033993">
        <ele>134.0</ele>
        <time>2012-06-05T10:44:21Z</time>
      </trkpt>
      <trkpt lat="43.400984" lon="-6.033902">
        <ele>134.0</ele>
        <time>2012-06-05T10:44:23Z</time>
      </trkpt>
      <trkpt lat="43.400697" lon="-6.033527">
        <ele>135.0</ele>
        <time>2012-06-05T10:44:31Z</time>
      </trkpt>
      <trkpt lat="43.400542" lon="-6.033331">
        <ele>135.0</ele>
        <time>2012-06-05T10:44:35Z</time>
      </trkpt>
      <trkpt lat="43.40038" lon="-6.033125">
        <ele>135.0</ele>
        <time>2012-06-05T10:44:39Z</time>
      </trkpt>
      <trkpt lat="43.400293" lon="-6.033014">
        <ele>135.0</ele>
        <time>2012-06-05T10:44:41Z</time>
      </trkpt>
      <trkpt lat="43.400058" lon="-6.032708">
        <ele>134.0</ele>
        <time>2012-06-05T10:44:47Z</time>
      </trkpt>
      <trkpt lat="43.39975" lon="-6.032276">
        <ele>133.0</ele>
        <time>2012-06-05T10:44:55Z</time>
      </trkpt>
      <trkpt lat="43.399583" lon="-6.032062">
        <ele>132.0</ele>
        <time>2012-06-05T10:44:59Z</time>
      </trkpt>
      <trkpt lat="43.399407" lon="-6.031848">
        <ele>130.0</ele>
        <time>2012-06-05T10:45:03Z</time>
      </trkpt>
      <trkpt lat="43.399234" lon="-6.031634">
        <ele>129.0</ele>
        <time>2012-06-05T10:45:07Z</time>
      </trkpt>
      <trkpt lat="43.399066" lon="-6.031424">
        <ele>128.0</ele>
        <time>2012-06-05T10:45:11Z</time>
      </trkpt>
      <trkpt lat="43.398916" lon="-6.031204">
        <ele>127.0</ele>
        <time>2012-06-05T10:45:15Z</time>
      </trkpt>
      <trkpt lat="43.398609" lon="-6.030763">
        <ele>120.0</ele>
        <time>2012-06-05T10:45:23Z</time>
      </trkpt>
      <trkpt lat="43.398211" lon="-6.030495">
        <ele>120.0</ele>
        <time>2012-06-05T10:45:31Z</time>
      </trkpt>
      <trkpt lat="43.398111" lon="-6.030421">
        <ele>120.0</ele>
        <time>2012-06-05T10:45:33Z</time>
      </trkpt>
      <trkpt lat="43.397662" lon="-6.030053">
        <ele>118.0</ele>
        <time>2012-06-05T10:45:43Z</time>
      </trkpt>
      <trkpt lat="43.397468" lon="-6.029887">
        <ele>117.0</ele>
        <time>2012-06-05T10:45:47Z</time>
      </trkpt>
      <trkpt lat="43.397231" lon="-6.029691">
        <ele>117.0</ele>
        <time>2012-06-05T10:45:51Z</time>
      </trkpt>
      <trkpt lat="43.396992" lon="-6.029472">
        <ele>118.0</ele>
        <time>2012-06-05T10:45:55Z</time>
      </trkpt>
      <trkpt lat="43.396857" lon="-6.029276">
        <ele>118.0</ele>
        <time>2012-06-05T10:45:58Z</time>
      </trkpt>
      <trkpt lat="43.396712" lon="-6.029005">
        <ele>118.0</ele>
        <time>2012-06-05T10:46:02Z</time>
      </trkpt>
      <trkpt lat="43.396589" lon="-6.028727">
        <ele>118.0</ele>
        <time>2012-06-05T10:46:06Z</time>
      </trkpt>
      <trkpt lat="43.396544" lon="-6.028579">
        <ele>118.0</ele>
        <time>2012-06-05T10:46:08Z</time>
      </trkpt>
      <trkpt lat="43.396436" lon="-6.028118">
        <ele>119.0</ele>
        <time>2012-06-05T10:46:14Z</time>
      </trkpt>
      <trkpt lat="43.396401" lon="-6.027968">
        <ele>119.0</ele>
        <time>2012-06-05T10:46:16Z</time>
      </trkpt>
      <trkpt lat="43.396379" lon="-6.02696">
        <ele>116.0</ele>
        <time>2012-06-05T10:46:27Z</time>
      </trkpt>
      <trkpt lat="43.396238" lon="-6.026682">
        <ele>115.0</ele>
        <time>2012-06-05T10:46:31Z</time>
      </trkpt>
      <trkpt lat="43.396129" lon="-6.02636">
        <ele>118.0</ele>
        <time>2012-06-05T10:46:35Z</time>
      </trkpt>
      <trkpt lat="43.396089" lon="-6.026201">
        <ele>119.0</ele>
        <time>2012-06-05T10:46:37Z</time>
      </trkpt>
      <trkpt lat="43.395879" lon="-6.025799">
        <ele>123.0</ele>
        <time>2012-06-05T10:46:43Z</time>
      </trkpt>
      <trkpt lat="43.395664" lon="-6.025678">
        <ele>123.0</ele>
        <time>2012-06-05T10:46:47Z</time>
      </trkpt>
      <trkpt lat="43.39555" lon="-6.025658">
        <ele>123.0</ele>
        <time>2012-06-05T10:46:49Z</time>
      </trkpt>
      <trkpt lat="43.395232" lon="-6.025671">
        <ele>124.0</ele>
        <time>2012-06-05T10:46:54Z</time>
      </trkpt>
      <trkpt lat="43.394902" lon="-6.025663">
        <ele>124.0</ele>
        <time>2012-06-05T10:46:59Z</time>
      </trkpt>
      <trkpt lat="43.394649" lon="-6.025601">
        <ele>125.0</ele>
        <time>2012-06-05T10:47:03Z</time>
      </trkpt>
      <trkpt lat="43.394413" lon="-6.025497">
        <ele>125.0</ele>
        <time>2012-06-05T10:47:07Z</time>
      </trkpt>
      <trkpt lat="43.394186" lon="-6.025343">
        <ele>126.0</ele>
        <time>2012-06-05T10:47:11Z</time>
      </trkpt>
      <trkpt lat="43.393968" lon="-6.025174">
        <ele>127.0</ele>
        <time>2012-06-05T10:47:15Z</time>
      </trkpt>
      <trkpt lat="43.393811" lon="-6.025032">
        <ele>128.0</ele>
        <time>2012-06-05T10:47:18Z</time>
      </trkpt>
      <trkpt lat="43.393709" lon="-6.024928">
        <ele>128.0</ele>
        <time>2012-06-05T10:47:20Z</time>
      </trkpt>
      <trkpt lat="43.393438" lon="-6.024614">
        <ele>129.0</ele>
        <time>2012-06-05T10:47:26Z</time>
      </trkpt>
      <trkpt lat="43.393292" lon="-6.024254">
        <ele>130.0</ele>
        <time>2012-06-05T10:47:31Z</time>
      </trkpt>
      <trkpt lat="43.393259" lon="-6.023897">
        <ele>130.0</ele>
        <time>2012-06-05T10:47:35Z</time>
      </trkpt>
      <trkpt lat="43.393219" lon="-6.023229">
        <ele>132.0</ele>
        <time>2012-06-05T10:47:43Z</time>
      </trkpt>
      <trkpt lat="43.393189" lon="-6.022889">
        <ele>133.0</ele>
        <time>2012-06-05T10:47:47Z</time>
      </trkpt>
      <trkpt lat="43.393114" lon="-6.022575">
        <ele>133.0</ele>
        <time>2012-06-05T10:47:51Z</time>
      </trkpt>
      <trkpt lat="43.393067" lon="-6.022421">
        <ele>134.0</ele>
        <time>2012-06-05T10:47:53Z</time>
      </trkpt>
      <trkpt lat="43.392934" lon="-6.021968">
        <ele>135.0</ele>
        <time>2012-06-05T10:47:59Z</time>
      </trkpt>
      <trkpt lat="43.392929" lon="-6.021641">
        <ele>135.0</ele>
        <time>2012-06-05T10:48:03Z</time>
      </trkpt>
      <trkpt lat="43.393037" lon="-6.02139">
        <ele>135.0</ele>
        <time>2012-06-05T10:48:07Z</time>
      </trkpt>
      <trkpt lat="43.393218" lon="-6.0212">
        <ele>135.0</ele>
        <time>2012-06-05T10:48:11Z</time>
      </trkpt>
      <trkpt lat="43.393415" lon="-6.02102">
        <ele>135.0</ele>
        <time>2012-06-05T10:48:15Z</time>
      </trkpt>
      <trkpt lat="43.393674" lon="-6.020496">
        <ele>136.0</ele>
        <time>2012-06-05T10:48:23Z</time>
      </trkpt>
      <trkpt lat="43.393679" lon="-6.02015">
        <ele>136.0</ele>
        <time>2012-06-05T10:48:27Z</time>
      </trkpt>
      <trkpt lat="43.393655" lon="-6.01998">
        <ele>136.0</ele>
        <time>2012-06-05T10:48:29Z</time>
      </trkpt>
      <trkpt lat="43.393529" lon="-6.019482">
        <ele>136.0</ele>
        <time>2012-06-05T10:48:35Z</time>
      </trkpt>
      <trkpt lat="43.393399" lon="-6.019177">
        <ele>135.0</ele>
        <time>2012-06-05T10:48:39Z</time>
      </trkpt>
      <trkpt lat="43.393179" lon="-6.018992">
        <ele>134.0</ele>
        <time>2012-06-05T10:48:43Z</time>
      </trkpt>
      <trkpt lat="43.393009" lon="-6.018883">
        <ele>133.0</ele>
        <time>2012-06-05T10:48:46Z</time>
      </trkpt>
      <trkpt lat="43.392811" lon="-6.018715">
        <ele>133.0</ele>
        <time>2012-06-05T10:48:50Z</time>
      </trkpt>
      <trkpt lat="43.392681" lon="-6.018457">
        <ele>133.0</ele>
        <time>2012-06-05T10:48:54Z</time>
      </trkpt>
      <trkpt lat="43.392618" lon="-6.018153">
        <ele>132.0</ele>
        <time>2012-06-05T10:48:58Z</time>
      </trkpt>
      <trkpt lat="43.392589" lon="-6.017837">
        <ele>132.0</ele>
        <time>2012-06-05T10:49:02Z</time>
      </trkpt>
      <trkpt lat="43.39257" lon="-6.017519">
        <ele>132.0</ele>
        <time>2012-06-05T10:49:06Z</time>
      </trkpt>
      <trkpt lat="43.392552" lon="-6.017207">
        <ele>131.0</ele>
        <time>2012-06-05T10:49:10Z</time>
      </trkpt>
      <trkpt lat="43.392521" lon="-6.016904">
        <ele>131.0</ele>
        <time>2012-06-05T10:49:14Z</time>
      </trkpt>
      <trkpt lat="43.392493" lon="-6.016619">
        <ele>132.0</ele>
        <time>2012-06-05T10:49:18Z</time>
      </trkpt>
      <trkpt lat="43.392475" lon="-6.016337">
        <ele>132.0</ele>
        <time>2012-06-05T10:49:22Z</time>
      </trkpt>
      <trkpt lat="43.392463" lon="-6.016042">
        <ele>132.0</ele>
        <time>2012-06-05T10:49:26Z</time>
      </trkpt>
      <trkpt lat="43.392453" lon="-6.01576">
        <ele>132.0</ele>
        <time>2012-06-05T10:49:30Z</time>
      </trkpt>
      <trkpt lat="43.392447" lon="-6.01548">
        <ele>132.0</ele>
        <time>2012-06-05T10:49:34Z</time>
      </trkpt>
      <trkpt lat="43.392446" lon="-6.015202">
        <ele>133.0</ele>
        <time>2012-06-05T10:49:38Z</time>
      </trkpt>
      <trkpt lat="43.392436" lon="-6.014938">
        <ele>133.0</ele>
        <time>2012-06-05T10:49:42Z</time>
      </trkpt>
      <trkpt lat="43.392422" lon="-6.014676">
        <ele>134.0</ele>
        <time>2012-06-05T10:49:46Z</time>
      </trkpt>
      <trkpt lat="43.392414" lon="-6.014417">
        <ele>135.0</ele>
        <time>2012-06-05T10:49:50Z</time>
      </trkpt>
      <trkpt lat="43.39239" lon="-6.014152">
        <ele>135.0</ele>
        <time>2012-06-05T10:49:54Z</time>
      </trkpt>
      <trkpt lat="43.392298" lon="-6.013581">
        <ele>136.0</ele>
        <time>2012-06-05T10:50:02Z</time>
      </trkpt>
      <trkpt lat="43.392217" lon="-6.013291">
        <ele>137.0</ele>
        <time>2012-06-05T10:50:06Z</time>
      </trkpt>
      <trkpt lat="43.392085" lon="-6.013036">
        <ele>138.0</ele>
        <time>2012-06-05T10:50:10Z</time>
      </trkpt>
      <trkpt lat="43.39192" lon="-6.012824">
        <ele>140.0</ele>
        <time>2012-06-05T10:50:14Z</time>
      </trkpt>
      <trkpt lat="43.391748" lon="-6.012631">
        <ele>141.0</ele>
        <time>2012-06-05T10:50:18Z</time>
      </trkpt>
      <trkpt lat="43.391573" lon="-6.012457">
        <ele>142.0</ele>
        <time>2012-06-05T10:50:22Z</time>
      </trkpt>
      <trkpt lat="43.391372" lon="-6.012332">
        <ele>143.0</ele>
        <time>2012-06-05T10:50:26Z</time>
      </trkpt>
      <trkpt lat="43.39116" lon="-6.01223">
        <ele>143.0</ele>
        <time>2012-06-05T10:50:30Z</time>
      </trkpt>
      <trkpt lat="43.390946" lon="-6.012114">
        <ele>143.0</ele>
        <time>2012-06-05T10:50:34Z</time>
      </trkpt>
      <trkpt lat="43.390758" lon="-6.011944">
        <ele>142.0</ele>
        <time>2012-06-05T10:50:38Z</time>
      </trkpt>
      <trkpt lat="43.390635" lon="-6.011727">
        <ele>142.0</ele>
        <time>2012-06-05T10:50:42Z</time>
      </trkpt>
      <trkpt lat="43.390533" lon="-6.01156">
        <ele>142.0</ele>
        <time>2012-06-05T10:50:46Z</time>
      </trkpt>
      <trkpt lat="43.390457" lon="-6.011404">
        <ele>142.0</ele>
        <time>2012-06-05T10:50:50Z</time>
      </trkpt>
      <trkpt lat="43.390378" lon="-6.01123">
        <ele>142.0</ele>
        <time>2012-06-05T10:50:54Z</time>
      </trkpt>
      <trkpt lat="43.390369" lon="-6.011127">
        <ele>142.0</ele>
        <time>2012-06-05T10:50:57Z</time>
      </trkpt>
      <trkpt lat="43.390481" lon="-6.011342">
        <ele>143.0</ele>
        <time>2012-06-05T10:51:02Z</time>
      </trkpt>
      <trkpt lat="43.390636" lon="-6.011725">
        <ele>143.0</ele>
        <time>2012-06-05T10:51:07Z</time>
      </trkpt>
      <trkpt lat="43.390804" lon="-6.012041">
        <ele>144.0</ele>
        <time>2012-06-05T10:51:11Z</time>
      </trkpt>
      <trkpt lat="43.391047" lon="-6.012253">
        <ele>145.0</ele>
        <time>2012-06-05T10:51:15Z</time>
      </trkpt>
      <trkpt lat="43.391324" lon="-6.012384">
        <ele>146.0</ele>
        <time>2012-06-05T10:51:19Z</time>
      </trkpt>
      <trkpt lat="43.391586" lon="-6.012564">
        <ele>146.0</ele>
        <time>2012-06-05T10:51:23Z</time>
      </trkpt>
      <trkpt lat="43.39183" lon="-6.012815">
        <ele>146.0</ele>
        <time>2012-06-05T10:51:27Z</time>
      </trkpt>
      <trkpt lat="43.392058" lon="-6.013116">
        <ele>145.0</ele>
        <time>2012-06-05T10:51:31Z</time>
      </trkpt>
      <trkpt lat="43.392266" lon="-6.01343">
        <ele>145.0</ele>
        <time>2012-06-05T10:51:35Z</time>
      </trkpt>
      <trkpt lat="43.392402" lon="-6.013826">
        <ele>145.0</ele>
        <time>2012-06-05T10:51:39Z</time>
      </trkpt>
      <trkpt lat="43.392469" lon="-6.014249">
        <ele>144.0</ele>
        <time>2012-06-05T10:51:43Z</time>
      </trkpt>
      <trkpt lat="43.392508" lon="-6.014678">
        <ele>144.0</ele>
        <time>2012-06-05T10:51:47Z</time>
      </trkpt>
      <trkpt lat="43.392545" lon="-6.015127">
        <ele>142.0</ele>
        <time>2012-06-05T10:51:51Z</time>
      </trkpt>
      <trkpt lat="43.39256" lon="-6.015351">
        <ele>142.0</ele>
        <time>2012-06-05T10:51:53Z</time>
      </trkpt>
      <trkpt lat="43.392613" lon="-6.016029">
        <ele>142.0</ele>
        <time>2012-06-05T10:51:59Z</time>
      </trkpt>
      <trkpt lat="43.392573" lon="-6.016505">
        <ele>141.0</ele>
        <time>2012-06-05T10:52:03Z</time>
      </trkpt>
      <trkpt lat="43.392533" lon="-6.016989">
        <ele>141.0</ele>
        <time>2012-06-05T10:52:07Z</time>
      </trkpt>
      <trkpt lat="43.392531" lon="-6.017497">
        <ele>141.0</ele>
        <time>2012-06-05T10:52:11Z</time>
      </trkpt>
      <trkpt lat="43.392556" lon="-6.018038">
        <ele>141.0</ele>
        <time>2012-06-05T10:52:15Z</time>
      </trkpt>
      <trkpt lat="43.392704" lon="-6.018594">
        <ele>141.0</ele>
        <time>2012-06-05T10:52:19Z</time>
      </trkpt>
      <trkpt lat="43.393003" lon="-6.019059">
        <ele>143.0</ele>
        <time>2012-06-05T10:52:23Z</time>
      </trkpt>
      <trkpt lat="43.393303" lon="-6.01936">
        <ele>144.0</ele>
        <time>2012-06-05T10:52:27Z</time>
      </trkpt>
      <trkpt lat="43.393472" lon="-6.019736">
        <ele>145.0</ele>
        <time>2012-06-05T10:52:31Z</time>
      </trkpt>
      <trkpt lat="43.393554" lon="-6.020171">
        <ele>147.0</ele>
        <time>2012-06-05T10:52:35Z</time>
      </trkpt>
      <trkpt lat="43.393593" lon="-6.020589">
        <ele>151.0</ele>
        <time>2012-06-05T10:52:39Z</time>
      </trkpt>
      <trkpt lat="43.393643" lon="-6.02096">
        <ele>152.0</ele>
        <time>2012-06-05T10:52:43Z</time>
      </trkpt>
      <trkpt lat="43.393594" lon="-6.021349">
        <ele>150.0</ele>
        <time>2012-06-05T10:52:47Z</time>
      </trkpt>
      <trkpt lat="43.393532" lon="-6.021742">
        <ele>148.0</ele>
        <time>2012-06-05T10:52:51Z</time>
      </trkpt>
      <trkpt lat="43.393447" lon="-6.022065">
        <ele>147.0</ele>
        <time>2012-06-05T10:52:55Z</time>
      </trkpt>
      <trkpt lat="43.393293" lon="-6.02235">
        <ele>148.0</ele>
        <time>2012-06-05T10:52:59Z</time>
      </trkpt>
      <trkpt lat="43.393193" lon="-6.02256">
        <ele>148.0</ele>
        <time>2012-06-05T10:53:02Z</time>
      </trkpt>
      <trkpt lat="43.393186" lon="-6.02285">
        <ele>149.0</ele>
        <time>2012-06-05T10:53:06Z</time>
      </trkpt>
      <trkpt lat="43.39326" lon="-6.023143">
        <ele>149.0</ele>
        <time>2012-06-05T10:53:10Z</time>
      </trkpt>
      <trkpt lat="43.393358" lon="-6.023447">
        <ele>149.0</ele>
        <time>2012-06-05T10:53:14Z</time>
      </trkpt>
      <trkpt lat="43.393476" lon="-6.023874">
        <ele>149.0</ele>
        <time>2012-06-05T10:53:19Z</time>
      </trkpt>
      <trkpt lat="43.393563" lon="-6.024243">
        <ele>150.0</ele>
        <time>2012-06-05T10:53:23Z</time>
      </trkpt>
      <trkpt lat="43.393654" lon="-6.024626">
        <ele>150.0</ele>
        <time>2012-06-05T10:53:27Z</time>
      </trkpt>
      <trkpt lat="43.393749" lon="-6.025007">
        <ele>150.0</ele>
        <time>2012-06-05T10:53:31Z</time>
      </trkpt>
      <trkpt lat="43.393924" lon="-6.025411">
        <ele>151.0</ele>
        <time>2012-06-05T10:53:35Z</time>
      </trkpt>
      <trkpt lat="43.39409" lon="-6.025699">
        <ele>153.0</ele>
        <time>2012-06-05T10:53:38Z</time>
      </trkpt>
      <trkpt lat="43.394444" lon="-6.025997">
        <ele>155.0</ele>
        <time>2012-06-05T10:53:43Z</time>
      </trkpt>
      <trkpt lat="43.394782" lon="-6.026053">
        <ele>156.0</ele>
        <time>2012-06-05T10:53:47Z</time>
      </trkpt>
      <trkpt lat="43.39514" lon="-6.025965">
        <ele>156.0</ele>
        <time>2012-06-05T10:53:51Z</time>
      </trkpt>
      <trkpt lat="43.395387" lon="-6.025888">
        <ele>156.0</ele>
        <time>2012-06-05T10:53:54Z</time>
      </trkpt>
      <trkpt lat="43.395789" lon="-6.025936">
        <ele>156.0</ele>
        <time>2012-06-05T10:53:59Z</time>
      </trkpt>
      <trkpt lat="43.396024" lon="-6.026181">
        <ele>153.0</ele>
        <time>2012-06-05T10:54:03Z</time>
      </trkpt>
      <trkpt lat="43.396149" lon="-6.026552">
        <ele>148.0</ele>
        <time>2012-06-05T10:54:07Z</time>
      </trkpt>
      <trkpt lat="43.396241" lon="-6.026945">
        <ele>144.0</ele>
        <time>2012-06-05T10:54:11Z</time>
      </trkpt>
      <trkpt lat="43.396315" lon="-6.027356">
        <ele>142.0</ele>
        <time>2012-06-05T10:54:15Z</time>
      </trkpt>
      <trkpt lat="43.396386" lon="-6.027767">
        <ele>139.0</ele>
        <time>2012-06-05T10:54:19Z</time>
      </trkpt>
      <trkpt lat="43.39646" lon="-6.028163">
        <ele>137.0</ele>
        <time>2012-06-05T10:54:23Z</time>
      </trkpt>
      <trkpt lat="43.39654" lon="-6.028545">
        <ele>136.0</ele>
        <time>2012-06-05T10:54:27Z</time>
      </trkpt>
      <trkpt lat="43.396642" lon="-6.028898">
        <ele>134.0</ele>
        <time>2012-06-05T10:54:31Z</time>
      </trkpt>
      <trkpt lat="43.396791" lon="-6.029218">
        <ele>133.0</ele>
        <time>2012-06-05T10:54:35Z</time>
      </trkpt>
      <trkpt lat="43.396954" lon="-6.029519">
        <ele>132.0</ele>
        <time>2012-06-05T10:54:39Z</time>
      </trkpt>
      <trkpt lat="43.397164" lon="-6.029795">
        <ele>131.0</ele>
        <time>2012-06-05T10:54:43Z</time>
      </trkpt>
      <trkpt lat="43.397337" lon="-6.029963">
        <ele>131.0</ele>
        <time>2012-06-05T10:54:46Z</time>
      </trkpt>
      <trkpt lat="43.39765" lon="-6.030202">
        <ele>130.0</ele>
        <time>2012-06-05T10:54:51Z</time>
      </trkpt>
      <trkpt lat="43.397908" lon="-6.030406">
        <ele>130.0</ele>
        <time>2012-06-05T10:54:55Z</time>
      </trkpt>
      <trkpt lat="43.398172" lon="-6.030601">
        <ele>131.0</ele>
        <time>2012-06-05T10:54:59Z</time>
      </trkpt>
      <trkpt lat="43.398435" lon="-6.03081">
        <ele>130.0</ele>
        <time>2012-06-05T10:55:03Z</time>
      </trkpt>
      <trkpt lat="43.398681" lon="-6.031056">
        <ele>130.0</ele>
        <time>2012-06-05T10:55:07Z</time>
      </trkpt>
      <trkpt lat="43.398907" lon="-6.031352">
        <ele>130.0</ele>
        <time>2012-06-05T10:55:11Z</time>
      </trkpt>
      <trkpt lat="43.399124" lon="-6.031672">
        <ele>130.0</ele>
        <time>2012-06-05T10:55:15Z</time>
      </trkpt>
      <trkpt lat="43.399295" lon="-6.031919">
        <ele>131.0</ele>
        <time>2012-06-05T10:55:18Z</time>
      </trkpt>
      <trkpt lat="43.39959" lon="-6.032355">
        <ele>131.0</ele>
        <time>2012-06-05T10:55:23Z</time>
      </trkpt>
      <trkpt lat="43.399819" lon="-6.032713">
        <ele>131.0</ele>
        <time>2012-06-05T10:55:27Z</time>
      </trkpt>
      <trkpt lat="43.400058" lon="-6.033044">
        <ele>130.0</ele>
        <time>2012-06-05T10:55:31Z</time>
      </trkpt>
      <trkpt lat="43.400298" lon="-6.033375">
        <ele>130.0</ele>
        <time>2012-06-05T10:55:35Z</time>
      </trkpt>
      <trkpt lat="43.400552" lon="-6.033689">
        <ele>130.0</ele>
        <time>2012-06-05T10:55:39Z</time>
      </trkpt>
      <trkpt lat="43.400815" lon="-6.034016">
        <ele>130.0</ele>
        <time>2012-06-05T10:55:43Z</time>
      </trkpt>
      <trkpt lat="43.401075" lon="-6.03434">
        <ele>130.0</ele>
        <time>2012-06-05T10:55:47Z</time>
      </trkpt>
      <trkpt lat="43.401324" lon="-6.034672">
        <ele>130.0</ele>
        <time>2012-06-05T10:55:51Z</time>
      </trkpt>
      <trkpt lat="43.401556" lon="-6.03502">
        <ele>131.0</ele>
        <time>2012-06-05T10:55:55Z</time>
      </trkpt>
      <trkpt lat="43.401767" lon="-6.035395">
        <ele>132.0</ele>
        <time>2012-06-05T10:55:59Z</time>
      </trkpt>
      <trkpt lat="43.401971" lon="-6.035787">
        <ele>133.0</ele>
        <time>2012-06-05T10:56:03Z</time>
      </trkpt>
      <trkpt lat="43.402163" lon="-6.036195">
        <ele>133.0</ele>
        <time>2012-06-05T10:56:07Z</time>
      </trkpt>
      <trkpt lat="43.402348" lon="-6.036611">
        <ele>134.0</ele>
        <time>2012-06-05T10:56:11Z</time>
      </trkpt>
      <trkpt lat="43.402507" lon="-6.037068">
        <ele>134.0</ele>
        <time>2012-06-05T10:56:15Z</time>
      </trkpt>
      <trkpt lat="43.402642" lon="-6.037558">
        <ele>135.0</ele>
        <time>2012-06-05T10:56:19Z</time>
      </trkpt>
      <trkpt lat="43.402757" lon="-6.038078">
        <ele>136.0</ele>
        <time>2012-06-05T10:56:23Z</time>
      </trkpt>
      <trkpt lat="43.4028" lon="-6.038554">
        <ele>136.0</ele>
        <time>2012-06-05T10:56:27Z</time>
      </trkpt>
      <trkpt lat="43.402829" lon="-6.038983">
        <ele>137.0</ele>
        <time>2012-06-05T10:56:31Z</time>
      </trkpt>
      <trkpt lat="43.402845" lon="-6.03941">
        <ele>138.0</ele>
        <time>2012-06-05T10:56:35Z</time>
      </trkpt>
      <trkpt lat="43.402842" lon="-6.039876">
        <ele>138.0</ele>
        <time>2012-06-05T10:56:39Z</time>
      </trkpt>
      <trkpt lat="43.402892" lon="-6.040328">
        <ele>138.0</ele>
        <time>2012-06-05T10:56:43Z</time>
      </trkpt>
      <trkpt lat="43.402924" lon="-6.040771">
        <ele>138.0</ele>
        <time>2012-06-05T10:56:47Z</time>
      </trkpt>
      <trkpt lat="43.403" lon="-6.041248">
        <ele>136.0</ele>
        <time>2012-06-05T10:56:51Z</time>
      </trkpt>
      <trkpt lat="43.403114" lon="-6.041765">
        <ele>134.0</ele>
        <time>2012-06-05T10:56:55Z</time>
      </trkpt>
      <trkpt lat="43.403206" lon="-6.04235">
        <ele>133.0</ele>
        <time>2012-06-05T10:56:59Z</time>
      </trkpt>
      <trkpt lat="43.403299" lon="-6.042958">
        <ele>133.0</ele>
        <time>2012-06-05T10:57:03Z</time>
      </trkpt>
      <trkpt lat="43.403373" lon="-6.043576">
        <ele>133.0</ele>
        <time>2012-06-05T10:57:07Z</time>
      </trkpt>
      <trkpt lat="43.403317" lon="-6.044243">
        <ele>133.0</ele>
        <time>2012-06-05T10:57:11Z</time>
      </trkpt>
      <trkpt lat="43.403153" lon="-6.044746">
        <ele>132.0</ele>
        <time>2012-06-05T10:57:15Z</time>
      </trkpt>
      <trkpt lat="43.402936" lon="-6.045161">
        <ele>133.0</ele>
        <time>2012-06-05T10:57:19Z</time>
      </trkpt>
      <trkpt lat="43.402794" lon="-6.045611">
        <ele>134.0</ele>
        <time>2012-06-05T10:57:23Z</time>
      </trkpt>
      <trkpt lat="43.402661" lon="-6.046023">
        <ele>136.0</ele>
        <time>2012-06-05T10:57:27Z</time>
      </trkpt>
      <trkpt lat="43.402429" lon="-6.04627">
        <ele>136.0</ele>
        <time>2012-06-05T10:57:31Z</time>
      </trkpt>
      <trkpt lat="43.402167" lon="-6.046425">
        <ele>136.0</ele>
        <time>2012-06-05T10:57:35Z</time>
      </trkpt>
      <trkpt lat="43.40186" lon="-6.046545">
        <ele>135.0</ele>
        <time>2012-06-05T10:57:39Z</time>
      </trkpt>
      <trkpt lat="43.401548" lon="-6.046708">
        <ele>133.0</ele>
        <time>2012-06-05T10:57:43Z</time>
      </trkpt>
      <trkpt lat="43.401251" lon="-6.046905">
        <ele>130.0</ele>
        <time>2012-06-05T10:57:47Z</time>
      </trkpt>
      <trkpt lat="43.400971" lon="-6.047123">
        <ele>128.0</ele>
        <time>2012-06-05T10:57:51Z</time>
      </trkpt>
      <trkpt lat="43.400695" lon="-6.047348">
        <ele>127.0</ele>
        <time>2012-06-05T10:57:55Z</time>
      </trkpt>
      <trkpt lat="43.400426" lon="-6.047575">
        <ele>125.0</ele>
        <time>2012-06-05T10:57:59Z</time>
      </trkpt>
      <trkpt lat="43.400154" lon="-6.047802">
        <ele>125.0</ele>
        <time>2012-06-05T10:58:03Z</time>
      </trkpt>
      <trkpt lat="43.399915" lon="-6.048084">
        <ele>124.0</ele>
        <time>2012-06-05T10:58:07Z</time>
      </trkpt>
      <trkpt lat="43.399688" lon="-6.048389">
        <ele>124.0</ele>
        <time>2012-06-05T10:58:11Z</time>
      </trkpt>
      <trkpt lat="43.399455" lon="-6.048696">
        <ele>123.0</ele>
        <time>2012-06-05T10:58:15Z</time>
      </trkpt>
      <trkpt lat="43.399231" lon="-6.049022">
        <ele>123.0</ele>
        <time>2012-06-05T10:58:19Z</time>
      </trkpt>
      <trkpt lat="43.399008" lon="-6.049354">
        <ele>124.0</ele>
        <time>2012-06-05T10:58:23Z</time>
      </trkpt>
      <trkpt lat="43.398793" lon="-6.0497">
        <ele>124.0</ele>
        <time>2012-06-05T10:58:27Z</time>
      </trkpt>
      <trkpt lat="43.398604" lon="-6.050074">
        <ele>125.0</ele>
        <time>2012-06-05T10:58:31Z</time>
      </trkpt>
      <trkpt lat="43.398433" lon="-6.050462">
        <ele>124.0</ele>
        <time>2012-06-05T10:58:35Z</time>
      </trkpt>
      <trkpt lat="43.398312" lon="-6.05084">
        <ele>123.0</ele>
        <time>2012-06-05T10:58:39Z</time>
      </trkpt>
      <trkpt lat="43.398125" lon="-6.051169">
        <ele>123.0</ele>
        <time>2012-06-05T10:58:43Z</time>
      </trkpt>
      <trkpt lat="43.397949" lon="-6.051506">
        <ele>123.0</ele>
        <time>2012-06-05T10:58:47Z</time>
      </trkpt>
      <trkpt lat="43.397754" lon="-6.051845">
        <ele>122.0</ele>
        <time>2012-06-05T10:58:51Z</time>
      </trkpt>
      <trkpt lat="43.397572" lon="-6.052168">
        <ele>122.0</ele>
        <time>2012-06-05T10:58:55Z</time>
      </trkpt>
      <trkpt lat="43.397384" lon="-6.052464">
        <ele>122.0</ele>
        <time>2012-06-05T10:58:59Z</time>
      </trkpt>
      <trkpt lat="43.39719" lon="-6.05276">
        <ele>123.0</ele>
        <time>2012-06-05T10:59:03Z</time>
      </trkpt>
      <trkpt lat="43.396997" lon="-6.05307">
        <ele>122.0</ele>
        <time>2012-06-05T10:59:07Z</time>
      </trkpt>
      <trkpt lat="43.396806" lon="-6.053384">
        <ele>122.0</ele>
        <time>2012-06-05T10:59:11Z</time>
      </trkpt>
      <trkpt lat="43.396617" lon="-6.053711">
        <ele>122.0</ele>
        <time>2012-06-05T10:59:15Z</time>
      </trkpt>
      <trkpt lat="43.396439" lon="-6.054074">
        <ele>121.0</ele>
        <time>2012-06-05T10:59:19Z</time>
      </trkpt>
      <trkpt lat="43.396289" lon="-6.054482">
        <ele>121.0</ele>
        <time>2012-06-05T10:59:23Z</time>
      </trkpt>
      <trkpt lat="43.396133" lon="-6.054875">
        <ele>121.0</ele>
        <time>2012-06-05T10:59:27Z</time>
      </trkpt>
    </trkseg>
  </trk>
</gpx>